<?xml version='1.0' encoding='UTF-8'?><gpx version="1.1" creator="JPX - https://github.com/jenetics/jpx" xmlns="http://www.topografix.com/GPX/1/1"><trk><trkseg><trkpt lat="43.2368852" lon="11.9993292"><ele>263.0</ele><time>2026-04-10T08:27:55.732Z</time></trkpt><trkpt lat="43.2367801" lon="11.9994322"><ele>263.0</ele><time>2026-04-10T08:27:58.732Z</time></trkpt><trkpt lat="43.2366974" lon="11.9993858"><ele>263.0</ele><time>2026-04-10T08:28:01.733Z</time></trkpt><trkpt lat="43.2366613" lon="11.9992929"><ele>263.0</ele><time>2026-04-10T08:28:03.732Z</time></trkpt><trkpt lat="43.236603" lon="11.9992077"><ele>263.0</ele><time>2026-04-10T08:28:05.725Z</time></trkpt><trkpt lat="43.2365459" lon="11.9991303"><ele>263.0</ele><time>2026-04-10T08:28:07.734Z</time></trkpt><trkpt lat="43.2365875" lon="11.9989916"><ele>263.0</ele><time>2026-04-10T08:28:18.739Z</time></trkpt><trkpt lat="43.2366508" lon="11.9989303"><ele>263.0</ele><time>2026-04-10T08:28:19.729Z</time></trkpt><trkpt lat="43.2367209" lon="11.9988656"><ele>263.0</ele><time>2026-04-10T08:28:20.732Z</time></trkpt><trkpt lat="43.2368016" lon="11.9987952"><ele>263.0</ele><time>2026-04-10T08:28:21.731Z</time></trkpt><trkpt lat="43.2368909" lon="11.9987111"><ele>263.0</ele><time>2026-04-10T08:28:22.734Z</time></trkpt><trkpt lat="43.2369871" lon="11.9986179"><ele>263.0</ele><time>2026-04-10T08:28:23.729Z</time></trkpt><trkpt lat="43.2370944" lon="11.9985234"><ele>263.0</ele><time>2026-04-10T08:28:24.732Z</time></trkpt><trkpt lat="43.2372101" lon="11.99842"><ele>263.0</ele><time>2026-04-10T08:28:25.731Z</time></trkpt><trkpt lat="43.2373254" lon="11.9983119"><ele>262.0</ele><time>2026-04-10T08:28:26.726Z</time></trkpt><trkpt lat="43.2374429" lon="11.9981933"><ele>261.0</ele><time>2026-04-10T08:28:27.732Z</time></trkpt><trkpt lat="43.2375654" lon="11.9980756"><ele>260.0</ele><time>2026-04-10T08:28:28.723Z</time></trkpt><trkpt lat="43.2376963" lon="11.9979546"><ele>260.0</ele><time>2026-04-10T08:28:29.73Z</time></trkpt><trkpt lat="43.2378351" lon="11.9978254"><ele>260.0</ele><time>2026-04-10T08:28:30.733Z</time></trkpt><trkpt lat="43.2379765" lon="11.9976966"><ele>260.0</ele><time>2026-04-10T08:28:31.734Z</time></trkpt><trkpt lat="43.2381217" lon="11.9975546"><ele>260.33333333333337</ele><time>2026-04-10T08:28:32.733Z</time></trkpt><trkpt lat="43.238274" lon="11.997413"><ele>260.6666666666667</ele><time>2026-04-10T08:28:33.728Z</time></trkpt><trkpt lat="43.2384266" lon="11.997268"><ele>261.0</ele><time>2026-04-10T08:28:34.729Z</time></trkpt><trkpt lat="43.2385806" lon="11.9971237"><ele>261.0</ele><time>2026-04-10T08:28:35.722Z</time></trkpt><trkpt lat="43.2387322" lon="11.9969842"><ele>261.0</ele><time>2026-04-10T08:28:36.726Z</time></trkpt><trkpt lat="43.2388825" lon="11.9968464"><ele>261.0</ele><time>2026-04-10T08:28:37.735Z</time></trkpt><trkpt lat="43.2390344" lon="11.9967043"><ele>260.6666666666667</ele><time>2026-04-10T08:28:38.732Z</time></trkpt><trkpt lat="43.2391823" lon="11.996569"><ele>260.33333333333337</ele><time>2026-04-10T08:28:39.73Z</time></trkpt><trkpt lat="43.2393171" lon="11.9964436"><ele>260.0</ele><time>2026-04-10T08:28:40.725Z</time></trkpt><trkpt lat="43.2394499" lon="11.9963163"><ele>260.0</ele><time>2026-04-10T08:28:41.741Z</time></trkpt><trkpt lat="43.2395778" lon="11.9961979"><ele>260.0</ele><time>2026-04-10T08:28:42.74Z</time></trkpt><trkpt lat="43.2396982" lon="11.9960839"><ele>260.0</ele><time>2026-04-10T08:28:43.733Z</time></trkpt><trkpt lat="43.2398161" lon="11.9959793"><ele>260.0</ele><time>2026-04-10T08:28:44.723Z</time></trkpt><trkpt lat="43.2399308" lon="11.9958703"><ele>260.0</ele><time>2026-04-10T08:28:45.723Z</time></trkpt><trkpt lat="43.2400441" lon="11.9957628"><ele>260.0</ele><time>2026-04-10T08:28:46.729Z</time></trkpt><trkpt lat="43.2401404" lon="11.9956761"><ele>260.0</ele><time>2026-04-10T08:28:47.725Z</time></trkpt><trkpt lat="43.2402006" lon="11.9956188"><ele>260.0</ele><time>2026-04-10T08:28:48.721Z</time></trkpt><trkpt lat="43.2402586" lon="11.9955669"><ele>260.0</ele><time>2026-04-10T08:28:50.735Z</time></trkpt><trkpt lat="43.2403369" lon="11.9954883"><ele>260.0</ele><time>2026-04-10T08:28:54.732Z</time></trkpt><trkpt lat="43.2403889" lon="11.9954381"><ele>260.0</ele><time>2026-04-10T08:28:55.731Z</time></trkpt><trkpt lat="43.2404594" lon="11.995371"><ele>260.0</ele><time>2026-04-10T08:28:56.728Z</time></trkpt><trkpt lat="43.2405231" lon="11.9953085"><ele>260.0</ele><time>2026-04-10T08:28:57.725Z</time></trkpt><trkpt lat="43.2405834" lon="11.9952583"><ele>260.0</ele><time>2026-04-10T08:28:58.731Z</time></trkpt><trkpt lat="43.2406858" lon="11.9952187"><ele>260.0</ele><time>2026-04-10T08:29:00.731Z</time></trkpt><trkpt lat="43.2407463" lon="11.9951677"><ele>260.0</ele><time>2026-04-10T08:29:02.744Z</time></trkpt><trkpt lat="43.2407263" lon="11.9950773"><ele>260.0</ele><time>2026-04-10T08:29:07.736Z</time></trkpt><trkpt lat="43.2406333" lon="11.9951541"><ele>260.0</ele><time>2026-04-10T08:29:09.727Z</time></trkpt><trkpt lat="43.2405668" lon="11.9952228"><ele>260.0</ele><time>2026-04-10T08:29:10.737Z</time></trkpt><trkpt lat="43.2404975" lon="11.9952878"><ele>260.0</ele><time>2026-04-10T08:29:11.733Z</time></trkpt><trkpt lat="43.2404131" lon="11.9953679"><ele>260.0</ele><time>2026-04-10T08:29:12.724Z</time></trkpt><trkpt lat="43.2403215" lon="11.9954544"><ele>260.0</ele><time>2026-04-10T08:29:13.726Z</time></trkpt><trkpt lat="43.2402228" lon="11.9955436"><ele>260.0</ele><time>2026-04-10T08:29:14.734Z</time></trkpt><trkpt lat="43.240122" lon="11.9956414"><ele>260.0</ele><time>2026-04-10T08:29:15.731Z</time></trkpt><trkpt lat="43.2400232" lon="11.9957328"><ele>260.0</ele><time>2026-04-10T08:29:16.727Z</time></trkpt><trkpt lat="43.2399311" lon="11.9958122"><ele>260.0</ele><time>2026-04-10T08:29:17.731Z</time></trkpt><trkpt lat="43.2398517" lon="11.9958874"><ele>260.0</ele><time>2026-04-10T08:29:18.732Z</time></trkpt><trkpt lat="43.2397807" lon="11.9959586"><ele>260.0</ele><time>2026-04-10T08:29:19.728Z</time></trkpt><trkpt lat="43.2397102" lon="11.99601"><ele>260.0</ele><time>2026-04-10T08:29:20.726Z</time></trkpt><trkpt lat="43.2396437" lon="11.9960255"><ele>260.0</ele><time>2026-04-10T08:29:21.729Z</time></trkpt><trkpt lat="43.2395693" lon="11.9960107"><ele>260.0</ele><time>2026-04-10T08:29:22.727Z</time></trkpt><trkpt lat="43.2394951" lon="11.9959771"><ele>260.0</ele><time>2026-04-10T08:29:23.735Z</time></trkpt><trkpt lat="43.2394168" lon="11.9959026"><ele>260.0</ele><time>2026-04-10T08:29:24.738Z</time></trkpt><trkpt lat="43.2393302" lon="11.9958351"><ele>260.0</ele><time>2026-04-10T08:29:25.732Z</time></trkpt><trkpt lat="43.2392429" lon="11.9957593"><ele>260.0</ele><time>2026-04-10T08:29:26.73Z</time></trkpt><trkpt lat="43.239156" lon="11.9956708"><ele>260.0</ele><time>2026-04-10T08:29:27.734Z</time></trkpt><trkpt lat="43.2390622" lon="11.9955812"><ele>260.0</ele><time>2026-04-10T08:29:28.759Z</time></trkpt><trkpt lat="43.2389678" lon="11.9954794"><ele>260.0</ele><time>2026-04-10T08:29:29.73Z</time></trkpt><trkpt lat="43.2388761" lon="11.9953751"><ele>260.0</ele><time>2026-04-10T08:29:30.731Z</time></trkpt><trkpt lat="43.2387786" lon="11.9952674"><ele>260.0</ele><time>2026-04-10T08:29:31.731Z</time></trkpt><trkpt lat="43.2386785" lon="11.9951572"><ele>259.75</ele><time>2026-04-10T08:29:32.734Z</time></trkpt><trkpt lat="43.2385753" lon="11.9950504"><ele>259.5</ele><time>2026-04-10T08:29:33.733Z</time></trkpt><trkpt lat="43.2384826" lon="11.9949568"><ele>259.25</ele><time>2026-04-10T08:29:34.728Z</time></trkpt><trkpt lat="43.2383829" lon="11.9948553"><ele>259.0</ele><time>2026-04-10T08:29:35.729Z</time></trkpt><trkpt lat="43.2382857" lon="11.9947542"><ele>259.0</ele><time>2026-04-10T08:29:36.731Z</time></trkpt><trkpt lat="43.238193" lon="11.994661"><ele>259.0</ele><time>2026-04-10T08:29:37.726Z</time></trkpt><trkpt lat="43.2381019" lon="11.9945789"><ele>259.0</ele><time>2026-04-10T08:29:38.732Z</time></trkpt><trkpt lat="43.2380138" lon="11.9945032"><ele>259.0</ele><time>2026-04-10T08:29:39.735Z</time></trkpt><trkpt lat="43.2379304" lon="11.9944363"><ele>259.0</ele><time>2026-04-10T08:29:40.726Z</time></trkpt><trkpt lat="43.2378575" lon="11.9943705"><ele>258.8</ele><time>2026-04-10T08:29:41.74Z</time></trkpt><trkpt lat="43.2377948" lon="11.9942995"><ele>258.59999999999997</ele><time>2026-04-10T08:29:42.733Z</time></trkpt><trkpt lat="43.2377444" lon="11.9942308"><ele>258.4</ele><time>2026-04-10T08:29:43.731Z</time></trkpt><trkpt lat="43.2376551" lon="11.9941351"><ele>258.2</ele><time>2026-04-10T08:29:45.728Z</time></trkpt><trkpt lat="43.2375503" lon="11.9940868"><ele>258.0</ele><time>2026-04-10T08:29:47.738Z</time></trkpt><trkpt lat="43.2375235" lon="11.9941875"><ele>258.0</ele><time>2026-04-10T08:29:52.731Z</time></trkpt><trkpt lat="43.2374894" lon="11.9942725"><ele>258.0</ele><time>2026-04-10T08:29:54.748Z</time></trkpt><trkpt lat="43.2373862" lon="11.9943558"><ele>258.0</ele><time>2026-04-10T08:29:56.734Z</time></trkpt><trkpt lat="43.2372712" lon="11.9944574"><ele>258.0</ele><time>2026-04-10T08:29:58.732Z</time></trkpt><trkpt lat="43.2371899" lon="11.9945172"><ele>258.0</ele><time>2026-04-10T08:29:59.728Z</time></trkpt><trkpt lat="43.2371026" lon="11.9945758"><ele>258.0</ele><time>2026-04-10T08:30:00.734Z</time></trkpt><trkpt lat="43.2370129" lon="11.9946289"><ele>258.0</ele><time>2026-04-10T08:30:01.729Z</time></trkpt><trkpt lat="43.2369255" lon="11.9946796"><ele>258.0</ele><time>2026-04-10T08:30:02.743Z</time></trkpt><trkpt lat="43.2368508" lon="11.9947339"><ele>258.0</ele><time>2026-04-10T08:30:03.731Z</time></trkpt><trkpt lat="43.2367781" lon="11.9947928"><ele>258.0</ele><time>2026-04-10T08:30:04.732Z</time></trkpt><trkpt lat="43.2366944" lon="11.9948465"><ele>258.0</ele><time>2026-04-10T08:30:05.73Z</time></trkpt><trkpt lat="43.2366217" lon="11.994891"><ele>258.0</ele><time>2026-04-10T08:30:06.726Z</time></trkpt><trkpt lat="43.2365469" lon="11.994934"><ele>258.0</ele><time>2026-04-10T08:30:07.734Z</time></trkpt><trkpt lat="43.2364652" lon="11.9949903"><ele>258.0</ele><time>2026-04-10T08:30:08.731Z</time></trkpt><trkpt lat="43.2363866" lon="11.9950464"><ele>258.0</ele><time>2026-04-10T08:30:09.734Z</time></trkpt><trkpt lat="43.2363053" lon="11.9951084"><ele>258.0</ele><time>2026-04-10T08:30:10.729Z</time></trkpt><trkpt lat="43.2362299" lon="11.9951616"><ele>257.8333333333333</ele><time>2026-04-10T08:30:11.732Z</time></trkpt><trkpt lat="43.2361549" lon="11.995207"><ele>257.6666666666667</ele><time>2026-04-10T08:30:12.734Z</time></trkpt><trkpt lat="43.2360721" lon="11.9952632"><ele>257.5</ele><time>2026-04-10T08:30:13.732Z</time></trkpt><trkpt lat="43.2359849" lon="11.9953128"><ele>257.33333333333337</ele><time>2026-04-10T08:30:14.728Z</time></trkpt><trkpt lat="43.2359007" lon="11.995356"><ele>257.1666666666667</ele><time>2026-04-10T08:30:15.729Z</time></trkpt><trkpt lat="43.2358191" lon="11.9953945"><ele>257.0</ele><time>2026-04-10T08:30:16.727Z</time></trkpt><trkpt lat="43.2357408" lon="11.9954183"><ele>257.0</ele><time>2026-04-10T08:30:17.726Z</time></trkpt><trkpt lat="43.2356766" lon="11.9954381"><ele>257.0</ele><time>2026-04-10T08:30:18.732Z</time></trkpt><trkpt lat="43.2355667" lon="11.9954335"><ele>257.0</ele><time>2026-04-10T08:30:20.727Z</time></trkpt><trkpt lat="43.2355168" lon="11.9953395"><ele>257.0</ele><time>2026-04-10T08:30:23.734Z</time></trkpt><trkpt lat="43.2355298" lon="11.9951789"><ele>257.0</ele><time>2026-04-10T08:30:25.745Z</time></trkpt><trkpt lat="43.235537" lon="11.9950655"><ele>257.0</ele><time>2026-04-10T08:30:26.731Z</time></trkpt><trkpt lat="43.2355375" lon="11.9948896"><ele>257.0</ele><time>2026-04-10T08:30:27.733Z</time></trkpt><trkpt lat="43.2355369" lon="11.994668"><ele>257.0</ele><time>2026-04-10T08:30:28.731Z</time></trkpt><trkpt lat="43.2355329" lon="11.9944237"><ele>256.33333333333337</ele><time>2026-04-10T08:30:29.729Z</time></trkpt><trkpt lat="43.2355327" lon="11.9941613"><ele>255.66666666666669</ele><time>2026-04-10T08:30:30.728Z</time></trkpt><trkpt lat="43.2355369" lon="11.9939086"><ele>255.0</ele><time>2026-04-10T08:30:31.729Z</time></trkpt><trkpt lat="43.2355417" lon="11.9936888"><ele>255.0</ele><time>2026-04-10T08:30:32.731Z</time></trkpt><trkpt lat="43.235534" lon="11.9935011"><ele>255.0</ele><time>2026-04-10T08:30:33.723Z</time></trkpt><trkpt lat="43.2354988" lon="11.993334"><ele>255.0</ele><time>2026-04-10T08:30:34.734Z</time></trkpt><trkpt lat="43.235464" lon="11.9932063"><ele>255.0</ele><time>2026-04-10T08:30:35.727Z</time></trkpt><trkpt lat="43.2354429" lon="11.9931247"><ele>255.0</ele><time>2026-04-10T08:30:36.733Z</time></trkpt><trkpt lat="43.2353576" lon="11.9930748"><ele>255.0</ele><time>2026-04-10T08:30:44.735Z</time></trkpt><trkpt lat="43.235233" lon="11.9930486"><ele>255.0</ele><time>2026-04-10T08:30:46.739Z</time></trkpt><trkpt lat="43.2351617" lon="11.993027"><ele>255.0</ele><time>2026-04-10T08:30:47.735Z</time></trkpt><trkpt lat="43.2350872" lon="11.9930003"><ele>255.0</ele><time>2026-04-10T08:30:48.733Z</time></trkpt><trkpt lat="43.2350021" lon="11.9929682"><ele>255.0</ele><time>2026-04-10T08:30:49.732Z</time></trkpt><trkpt lat="43.2349115" lon="11.9929305"><ele>255.0</ele><time>2026-04-10T08:30:50.732Z</time></trkpt><trkpt lat="43.2348192" lon="11.9928853"><ele>255.0</ele><time>2026-04-10T08:30:51.729Z</time></trkpt><trkpt lat="43.2347238" lon="11.9928347"><ele>255.0</ele><time>2026-04-10T08:30:52.731Z</time></trkpt><trkpt lat="43.2346277" lon="11.9927854"><ele>255.0</ele><time>2026-04-10T08:30:53.733Z</time></trkpt><trkpt lat="43.2345342" lon="11.9927294"><ele>255.0</ele><time>2026-04-10T08:30:54.732Z</time></trkpt><trkpt lat="43.2344436" lon="11.9926649"><ele>255.0</ele><time>2026-04-10T08:30:55.731Z</time></trkpt><trkpt lat="43.2343606" lon="11.9925993"><ele>255.0</ele><time>2026-04-10T08:30:56.735Z</time></trkpt><trkpt lat="43.2342816" lon="11.9925494"><ele>255.0</ele><time>2026-04-10T08:30:57.741Z</time></trkpt><trkpt lat="43.2342075" lon="11.9924971"><ele>255.0</ele><time>2026-04-10T08:30:58.731Z</time></trkpt><trkpt lat="43.2341385" lon="11.9924498"><ele>255.0</ele><time>2026-04-10T08:30:59.728Z</time></trkpt><trkpt lat="43.234065" lon="11.9924004"><ele>255.0</ele><time>2026-04-10T08:31:00.732Z</time></trkpt><trkpt lat="43.233986" lon="11.9923464"><ele>255.0</ele><time>2026-04-10T08:31:01.731Z</time></trkpt><trkpt lat="43.2339028" lon="11.9922877"><ele>255.0</ele><time>2026-04-10T08:31:02.728Z</time></trkpt><trkpt lat="43.2338218" lon="11.9922232"><ele>255.0</ele><time>2026-04-10T08:31:03.737Z</time></trkpt><trkpt lat="43.2337448" lon="11.9921612"><ele>255.0</ele><time>2026-04-10T08:31:04.727Z</time></trkpt><trkpt lat="43.2336534" lon="11.9920986"><ele>255.0</ele><time>2026-04-10T08:31:05.731Z</time></trkpt><trkpt lat="43.2335715" lon="11.992045"><ele>255.0</ele><time>2026-04-10T08:31:06.729Z</time></trkpt><trkpt lat="43.2334961" lon="11.9920006"><ele>255.0</ele><time>2026-04-10T08:31:07.726Z</time></trkpt><trkpt lat="43.2334164" lon="11.9919643"><ele>255.0</ele><time>2026-04-10T08:31:08.734Z</time></trkpt><trkpt lat="43.2333428" lon="11.9919386"><ele>255.0</ele><time>2026-04-10T08:31:09.732Z</time></trkpt><trkpt lat="43.2332631" lon="11.9919262"><ele>255.0</ele><time>2026-04-10T08:31:10.726Z</time></trkpt><trkpt lat="43.2331921" lon="11.9919118"><ele>255.0</ele><time>2026-04-10T08:31:11.726Z</time></trkpt><trkpt lat="43.2331231" lon="11.9919017"><ele>255.2</ele><time>2026-04-10T08:31:12.733Z</time></trkpt><trkpt lat="43.2330177" lon="11.9918563"><ele>255.4</ele><time>2026-04-10T08:31:14.733Z</time></trkpt><trkpt lat="43.2329503" lon="11.9917875"><ele>255.60000000000002</ele><time>2026-04-10T08:31:16.738Z</time></trkpt><trkpt lat="43.2329299" lon="11.9917054"><ele>255.8</ele><time>2026-04-10T08:31:18.727Z</time></trkpt><trkpt lat="43.2328697" lon="11.9916342"><ele>256.0</ele><time>2026-04-10T08:31:20.729Z</time></trkpt><trkpt lat="43.232747" lon="11.9915711"><ele>255.99999999999997</ele><time>2026-04-10T08:31:22.756Z</time></trkpt><trkpt lat="43.232685" lon="11.9915033"><ele>256.0</ele><time>2026-04-10T08:31:23.725Z</time></trkpt><trkpt lat="43.2326171" lon="11.9914209"><ele>256.0</ele><time>2026-04-10T08:31:24.727Z</time></trkpt><trkpt lat="43.2325445" lon="11.991342"><ele>256.0</ele><time>2026-04-10T08:31:25.731Z</time></trkpt><trkpt lat="43.2324785" lon="11.991278"><ele>255.99999999999997</ele><time>2026-04-10T08:31:26.735Z</time></trkpt><trkpt lat="43.232421" lon="11.9912166"><ele>256.0</ele><time>2026-04-10T08:31:27.726Z</time></trkpt><trkpt lat="43.2323688" lon="11.9911645"><ele>255.83333333333331</ele><time>2026-04-10T08:31:28.725Z</time></trkpt><trkpt lat="43.2322781" lon="11.9910862"><ele>255.66666666666666</ele><time>2026-04-10T08:31:30.728Z</time></trkpt><trkpt lat="43.2321698" lon="11.9910031"><ele>255.5</ele><time>2026-04-10T08:31:32.726Z</time></trkpt><trkpt lat="43.2321122" lon="11.990959"><ele>255.33333333333331</ele><time>2026-04-10T08:31:33.724Z</time></trkpt><trkpt lat="43.2320594" lon="11.9909095"><ele>255.16666666666666</ele><time>2026-04-10T08:31:34.728Z</time></trkpt><trkpt lat="43.2319998" lon="11.9908439"><ele>255.0</ele><time>2026-04-10T08:31:35.728Z</time></trkpt><trkpt lat="43.2319417" lon="11.990777"><ele>254.66666666666666</ele><time>2026-04-10T08:31:36.728Z</time></trkpt><trkpt lat="43.2318794" lon="11.9907043"><ele>254.33333333333331</ele><time>2026-04-10T08:31:37.734Z</time></trkpt><trkpt lat="43.2318154" lon="11.990631"><ele>254.0</ele><time>2026-04-10T08:31:38.731Z</time></trkpt><trkpt lat="43.2317562" lon="11.9905617"><ele>253.66666666666666</ele><time>2026-04-10T08:31:39.727Z</time></trkpt><trkpt lat="43.2316934" lon="11.9904953"><ele>253.33333333333331</ele><time>2026-04-10T08:31:40.727Z</time></trkpt><trkpt lat="43.2316178" lon="11.9904364"><ele>253.0</ele><time>2026-04-10T08:31:41.737Z</time></trkpt><trkpt lat="43.2315293" lon="11.9903913"><ele>253.16666666666666</ele><time>2026-04-10T08:31:42.73Z</time></trkpt><trkpt lat="43.2314405" lon="11.9903597"><ele>253.33333333333331</ele><time>2026-04-10T08:31:43.726Z</time></trkpt><trkpt lat="43.2313555" lon="11.990339"><ele>253.5</ele><time>2026-04-10T08:31:44.725Z</time></trkpt><trkpt lat="43.2312788" lon="11.9903249"><ele>253.66666666666669</ele><time>2026-04-10T08:31:45.734Z</time></trkpt><trkpt lat="43.2312158" lon="11.9903128"><ele>253.83333333333334</ele><time>2026-04-10T08:31:46.73Z</time></trkpt><trkpt lat="43.231148" lon="11.9902943"><ele>254.0</ele><time>2026-04-10T08:31:48.738Z</time></trkpt><trkpt lat="43.2310398" lon="11.9902706"><ele>254.0</ele><time>2026-04-10T08:33:28.733Z</time></trkpt><trkpt lat="43.2309767" lon="11.9902658"><ele>254.0</ele><time>2026-04-10T08:33:29.731Z</time></trkpt><trkpt lat="43.2309106" lon="11.9902614"><ele>254.0</ele><time>2026-04-10T08:33:30.727Z</time></trkpt><trkpt lat="43.2308317" lon="11.9902577"><ele>254.0</ele><time>2026-04-10T08:33:31.729Z</time></trkpt><trkpt lat="43.2307463" lon="11.9902601"><ele>254.0</ele><time>2026-04-10T08:33:32.734Z</time></trkpt><trkpt lat="43.2306695" lon="11.9902688"><ele>254.0</ele><time>2026-04-10T08:33:33.733Z</time></trkpt><trkpt lat="43.2305963" lon="11.9902794"><ele>254.0</ele><time>2026-04-10T08:33:34.731Z</time></trkpt><trkpt lat="43.2305159" lon="11.9902955"><ele>254.33333333333334</ele><time>2026-04-10T08:33:35.725Z</time></trkpt><trkpt lat="43.2304274" lon="11.9903121"><ele>254.66666666666669</ele><time>2026-04-10T08:33:36.727Z</time></trkpt><trkpt lat="43.2303416" lon="11.9903248"><ele>255.0</ele><time>2026-04-10T08:33:37.728Z</time></trkpt><trkpt lat="43.2302692" lon="11.9903387"><ele>255.33333333333331</ele><time>2026-04-10T08:33:38.726Z</time></trkpt><trkpt lat="43.230205" lon="11.9903517"><ele>255.66666666666666</ele><time>2026-04-10T08:33:39.729Z</time></trkpt><trkpt lat="43.2301352" lon="11.990371"><ele>256.0</ele><time>2026-04-10T08:33:40.726Z</time></trkpt><trkpt lat="43.2300216" lon="11.9904103"><ele>255.99999999999997</ele><time>2026-04-10T08:33:42.739Z</time></trkpt><trkpt lat="43.2299557" lon="11.9904134"><ele>256.0</ele><time>2026-04-10T08:33:43.73Z</time></trkpt><trkpt lat="43.2298812" lon="11.9903977"><ele>256.0</ele><time>2026-04-10T08:33:44.73Z</time></trkpt><trkpt lat="43.2298065" lon="11.9903661"><ele>256.0</ele><time>2026-04-10T08:33:45.725Z</time></trkpt><trkpt lat="43.2297255" lon="11.9903257"><ele>255.99999999999997</ele><time>2026-04-10T08:33:46.731Z</time></trkpt><trkpt lat="43.229642" lon="11.9902727"><ele>256.0</ele><time>2026-04-10T08:33:47.728Z</time></trkpt><trkpt lat="43.2295548" lon="11.9901993"><ele>255.60000000000002</ele><time>2026-04-10T08:33:48.726Z</time></trkpt><trkpt lat="43.2294733" lon="11.9901236"><ele>255.20000000000002</ele><time>2026-04-10T08:33:49.726Z</time></trkpt><trkpt lat="43.2293959" lon="11.9900508"><ele>254.79999999999998</ele><time>2026-04-10T08:33:50.735Z</time></trkpt><trkpt lat="43.2293236" lon="11.9899843"><ele>254.39999999999998</ele><time>2026-04-10T08:33:51.731Z</time></trkpt><trkpt lat="43.2292481" lon="11.9899272"><ele>254.0</ele><time>2026-04-10T08:33:52.731Z</time></trkpt><trkpt lat="43.2291685" lon="11.9898646"><ele>254.0</ele><time>2026-04-10T08:33:53.726Z</time></trkpt><trkpt lat="43.2290852" lon="11.9897916"><ele>253.99999999999997</ele><time>2026-04-10T08:33:54.726Z</time></trkpt><trkpt lat="43.2289966" lon="11.9897098"><ele>253.99999999999997</ele><time>2026-04-10T08:33:55.729Z</time></trkpt><trkpt lat="43.2289118" lon="11.9896298"><ele>254.0</ele><time>2026-04-10T08:33:56.734Z</time></trkpt><trkpt lat="43.2288295" lon="11.9895527"><ele>254.0</ele><time>2026-04-10T08:33:57.731Z</time></trkpt><trkpt lat="43.2287569" lon="11.9894834"><ele>254.2</ele><time>2026-04-10T08:33:58.725Z</time></trkpt><trkpt lat="43.2286849" lon="11.989417"><ele>254.39999999999998</ele><time>2026-04-10T08:33:59.728Z</time></trkpt><trkpt lat="43.2286097" lon="11.9893541"><ele>254.6</ele><time>2026-04-10T08:34:00.728Z</time></trkpt><trkpt lat="43.2285281" lon="11.9893013"><ele>254.8</ele><time>2026-04-10T08:34:01.73Z</time></trkpt><trkpt lat="43.2284403" lon="11.9892523"><ele>255.0</ele><time>2026-04-10T08:34:02.726Z</time></trkpt><trkpt lat="43.2283493" lon="11.9892062"><ele>254.8</ele><time>2026-04-10T08:34:03.726Z</time></trkpt><trkpt lat="43.2282547" lon="11.989161"><ele>254.6</ele><time>2026-04-10T08:34:04.73Z</time></trkpt><trkpt lat="43.2281705" lon="11.9891145"><ele>254.39999999999998</ele><time>2026-04-10T08:34:05.721Z</time></trkpt><trkpt lat="43.2280852" lon="11.9890614"><ele>254.2</ele><time>2026-04-10T08:34:06.731Z</time></trkpt><trkpt lat="43.2279958" lon="11.9890068"><ele>254.0</ele><time>2026-04-10T08:34:07.728Z</time></trkpt><trkpt lat="43.2279116" lon="11.988944"><ele>254.28571428571428</ele><time>2026-04-10T08:34:08.729Z</time></trkpt><trkpt lat="43.2278369" lon="11.9888834"><ele>254.57142857142856</ele><time>2026-04-10T08:34:09.726Z</time></trkpt><trkpt lat="43.2277745" lon="11.9888193"><ele>254.85714285714283</ele><time>2026-04-10T08:34:10.732Z</time></trkpt><trkpt lat="43.2277185" lon="11.9887645"><ele>255.14285714285714</ele><time>2026-04-10T08:34:11.734Z</time></trkpt><trkpt lat="43.2276672" lon="11.9887109"><ele>255.4285714285714</ele><time>2026-04-10T08:34:12.735Z</time></trkpt><trkpt lat="43.2276226" lon="11.9886498"><ele>255.7142857142857</ele><time>2026-04-10T08:34:13.722Z</time></trkpt><trkpt lat="43.2275745" lon="11.9885734"><ele>256.0</ele><time>2026-04-10T08:34:14.729Z</time></trkpt><trkpt lat="43.2275219" lon="11.9884884"><ele>255.99999999999997</ele><time>2026-04-10T08:34:15.729Z</time></trkpt><trkpt lat="43.227466" lon="11.9883891"><ele>256.0</ele><time>2026-04-10T08:34:16.73Z</time></trkpt><trkpt lat="43.2274113" lon="11.9882973"><ele>256.0</ele><time>2026-04-10T08:34:17.733Z</time></trkpt><trkpt lat="43.2273532" lon="11.9881958"><ele>256.0</ele><time>2026-04-10T08:34:18.727Z</time></trkpt><trkpt lat="43.2272967" lon="11.9881047"><ele>255.99999999999997</ele><time>2026-04-10T08:34:19.724Z</time></trkpt><trkpt lat="43.227235" lon="11.9880149"><ele>256.0</ele><time>2026-04-10T08:34:20.727Z</time></trkpt><trkpt lat="43.2271692" lon="11.9879171"><ele>255.99999999999997</ele><time>2026-04-10T08:34:21.728Z</time></trkpt><trkpt lat="43.2271048" lon="11.9878216"><ele>256.0</ele><time>2026-04-10T08:34:22.734Z</time></trkpt><trkpt lat="43.2270451" lon="11.9877321"><ele>256.0</ele><time>2026-04-10T08:34:23.731Z</time></trkpt><trkpt lat="43.226992" lon="11.9876422"><ele>256.0</ele><time>2026-04-10T08:34:24.724Z</time></trkpt><trkpt lat="43.226935" lon="11.987552"><ele>255.99999999999997</ele><time>2026-04-10T08:34:25.72Z</time></trkpt><trkpt lat="43.2268777" lon="11.9874612"><ele>256.0</ele><time>2026-04-10T08:34:26.731Z</time></trkpt><trkpt lat="43.2268246" lon="11.987373"><ele>255.99999999999997</ele><time>2026-04-10T08:34:27.73Z</time></trkpt><trkpt lat="43.226767" lon="11.9872834"><ele>256.0</ele><time>2026-04-10T08:34:28.729Z</time></trkpt><trkpt lat="43.2267175" lon="11.9871938"><ele>256.0</ele><time>2026-04-10T08:34:29.719Z</time></trkpt><trkpt lat="43.226673" lon="11.9871069"><ele>256.0</ele><time>2026-04-10T08:34:30.732Z</time></trkpt><trkpt lat="43.226631" lon="11.9870273"><ele>255.99999999999997</ele><time>2026-04-10T08:34:31.723Z</time></trkpt><trkpt lat="43.2265943" lon="11.9869534"><ele>256.0</ele><time>2026-04-10T08:34:32.736Z</time></trkpt><trkpt lat="43.2265588" lon="11.9868715"><ele>255.99999999999997</ele><time>2026-04-10T08:34:33.721Z</time></trkpt><trkpt lat="43.2264821" lon="11.9867278"><ele>256.0</ele><time>2026-04-10T08:34:35.731Z</time></trkpt><trkpt lat="43.2264428" lon="11.9866524"><ele>256.0</ele><time>2026-04-10T08:34:36.725Z</time></trkpt><trkpt lat="43.2264073" lon="11.9865774"><ele>256.0</ele><time>2026-04-10T08:34:37.732Z</time></trkpt><trkpt lat="43.2263676" lon="11.9864971"><ele>255.99999999999997</ele><time>2026-04-10T08:34:38.729Z</time></trkpt><trkpt lat="43.2263285" lon="11.98641"><ele>256.0</ele><time>2026-04-10T08:34:39.732Z</time></trkpt><trkpt lat="43.2262904" lon="11.9863203"><ele>255.83333333333331</ele><time>2026-04-10T08:34:40.729Z</time></trkpt><trkpt lat="43.2262506" lon="11.9862369"><ele>255.66666666666666</ele><time>2026-04-10T08:34:41.721Z</time></trkpt><trkpt lat="43.2261797" lon="11.9860995"><ele>255.5</ele><time>2026-04-10T08:34:43.723Z</time></trkpt><trkpt lat="43.2261397" lon="11.9860209"><ele>255.33333333333331</ele><time>2026-04-10T08:34:44.728Z</time></trkpt><trkpt lat="43.2260988" lon="11.985934"><ele>255.16666666666666</ele><time>2026-04-10T08:34:45.738Z</time></trkpt><trkpt lat="43.2260554" lon="11.9858449"><ele>255.0</ele><time>2026-04-10T08:34:46.729Z</time></trkpt><trkpt lat="43.22601" lon="11.9857519"><ele>255.0</ele><time>2026-04-10T08:34:47.726Z</time></trkpt><trkpt lat="43.2259693" lon="11.9856649"><ele>255.0</ele><time>2026-04-10T08:34:48.735Z</time></trkpt><trkpt lat="43.2259264" lon="11.9855713"><ele>255.0</ele><time>2026-04-10T08:34:49.722Z</time></trkpt><trkpt lat="43.2258847" lon="11.985481"><ele>255.0</ele><time>2026-04-10T08:34:50.727Z</time></trkpt><trkpt lat="43.2258405" lon="11.9853888"><ele>255.0</ele><time>2026-04-10T08:34:51.722Z</time></trkpt><trkpt lat="43.2257936" lon="11.9852978"><ele>255.0</ele><time>2026-04-10T08:34:52.725Z</time></trkpt><trkpt lat="43.2257531" lon="11.9852097"><ele>255.0</ele><time>2026-04-10T08:34:53.724Z</time></trkpt><trkpt lat="43.2257098" lon="11.985118"><ele>255.0</ele><time>2026-04-10T08:34:54.73Z</time></trkpt><trkpt lat="43.2256655" lon="11.9850236"><ele>255.0</ele><time>2026-04-10T08:34:55.729Z</time></trkpt><trkpt lat="43.2256235" lon="11.9849369"><ele>255.0</ele><time>2026-04-10T08:34:56.722Z</time></trkpt><trkpt lat="43.2255775" lon="11.9848472"><ele>255.0</ele><time>2026-04-10T08:34:57.728Z</time></trkpt><trkpt lat="43.2255291" lon="11.9847496"><ele>255.0</ele><time>2026-04-10T08:34:58.722Z</time></trkpt><trkpt lat="43.2254834" lon="11.9846594"><ele>254.83333333333334</ele><time>2026-04-10T08:34:59.724Z</time></trkpt><trkpt lat="43.225439" lon="11.9845734"><ele>254.66666666666669</ele><time>2026-04-10T08:35:00.73Z</time></trkpt><trkpt lat="43.2253943" lon="11.9844803"><ele>254.5</ele><time>2026-04-10T08:35:01.725Z</time></trkpt><trkpt lat="43.2253505" lon="11.9843869"><ele>254.33333333333334</ele><time>2026-04-10T08:35:02.731Z</time></trkpt><trkpt lat="43.2253021" lon="11.9843008"><ele>254.16666666666669</ele><time>2026-04-10T08:35:03.729Z</time></trkpt><trkpt lat="43.2252528" lon="11.9842171"><ele>254.0</ele><time>2026-04-10T08:35:04.732Z</time></trkpt><trkpt lat="43.2252041" lon="11.9841378"><ele>254.0</ele><time>2026-04-10T08:35:05.729Z</time></trkpt><trkpt lat="43.2251564" lon="11.9840635"><ele>254.0</ele><time>2026-04-10T08:35:06.726Z</time></trkpt><trkpt lat="43.2251079" lon="11.983991"><ele>254.0</ele><time>2026-04-10T08:35:07.731Z</time></trkpt><trkpt lat="43.2250552" lon="11.9839141"><ele>254.0</ele><time>2026-04-10T08:35:08.735Z</time></trkpt><trkpt lat="43.225001" lon="11.9838369"><ele>254.0</ele><time>2026-04-10T08:35:09.73Z</time></trkpt><trkpt lat="43.224947" lon="11.9837725"><ele>254.0</ele><time>2026-04-10T08:35:10.729Z</time></trkpt><trkpt lat="43.2248937" lon="11.9837136"><ele>254.0</ele><time>2026-04-10T08:35:11.73Z</time></trkpt><trkpt lat="43.2248336" lon="11.9836512"><ele>254.0</ele><time>2026-04-10T08:35:12.73Z</time></trkpt><trkpt lat="43.2247688" lon="11.9835872"><ele>254.0</ele><time>2026-04-10T08:35:13.726Z</time></trkpt><trkpt lat="43.2247069" lon="11.9835279"><ele>254.0</ele><time>2026-04-10T08:35:14.726Z</time></trkpt><trkpt lat="43.2246507" lon="11.9834738"><ele>254.0</ele><time>2026-04-10T08:35:15.727Z</time></trkpt><trkpt lat="43.2245941" lon="11.9834237"><ele>254.0</ele><time>2026-04-10T08:35:16.731Z</time></trkpt><trkpt lat="43.2245335" lon="11.98337"><ele>254.0</ele><time>2026-04-10T08:35:17.728Z</time></trkpt><trkpt lat="43.2244798" lon="11.983323"><ele>254.0</ele><time>2026-04-10T08:35:18.73Z</time></trkpt><trkpt lat="43.224393" lon="11.9832396"><ele>254.16666666666669</ele><time>2026-04-10T08:35:20.732Z</time></trkpt><trkpt lat="43.224336" lon="11.983176"><ele>254.33333333333334</ele><time>2026-04-10T08:35:22.729Z</time></trkpt><trkpt lat="43.224301" lon="11.9830806"><ele>254.5</ele><time>2026-04-10T08:35:24.733Z</time></trkpt><trkpt lat="43.2242421" lon="11.9830068"><ele>254.66666666666669</ele><time>2026-04-10T08:35:31.732Z</time></trkpt><trkpt lat="43.2241626" lon="11.983041"><ele>254.83333333333334</ele><time>2026-04-10T08:35:33.729Z</time></trkpt><trkpt lat="43.2240659" lon="11.9831668"><ele>255.0</ele><time>2026-04-10T08:35:35.732Z</time></trkpt><trkpt lat="43.224017" lon="11.9832394"><ele>255.0</ele><time>2026-04-10T08:35:36.728Z</time></trkpt><trkpt lat="43.2239603" lon="11.9833295"><ele>255.0</ele><time>2026-04-10T08:35:37.731Z</time></trkpt><trkpt lat="43.2238965" lon="11.9834345"><ele>255.0</ele><time>2026-04-10T08:35:38.731Z</time></trkpt><trkpt lat="43.2238276" lon="11.983548"><ele>255.0</ele><time>2026-04-10T08:35:39.728Z</time></trkpt><trkpt lat="43.2237538" lon="11.9836731"><ele>255.0</ele><time>2026-04-10T08:35:40.726Z</time></trkpt><trkpt lat="43.2236734" lon="11.9838071"><ele>255.0</ele><time>2026-04-10T08:35:41.731Z</time></trkpt><trkpt lat="43.2235896" lon="11.9839518"><ele>255.0</ele><time>2026-04-10T08:35:42.732Z</time></trkpt><trkpt lat="43.2235078" lon="11.9841044"><ele>255.0</ele><time>2026-04-10T08:35:43.732Z</time></trkpt><trkpt lat="43.2234261" lon="11.9842713"><ele>255.0</ele><time>2026-04-10T08:35:44.728Z</time></trkpt><trkpt lat="43.2233421" lon="11.9844483"><ele>254.66666666666669</ele><time>2026-04-10T08:35:45.729Z</time></trkpt><trkpt lat="43.2232582" lon="11.9846372"><ele>254.33333333333334</ele><time>2026-04-10T08:35:46.733Z</time></trkpt><trkpt lat="43.2231755" lon="11.9848255"><ele>254.0</ele><time>2026-04-10T08:35:47.73Z</time></trkpt><trkpt lat="43.2230914" lon="11.9850201"><ele>254.66666666666669</ele><time>2026-04-10T08:35:48.729Z</time></trkpt><trkpt lat="43.2230038" lon="11.9852222"><ele>255.33333333333331</ele><time>2026-04-10T08:35:49.728Z</time></trkpt><trkpt lat="43.2229155" lon="11.9854251"><ele>256.0</ele><time>2026-04-10T08:35:50.723Z</time></trkpt><trkpt lat="43.2228274" lon="11.985635"><ele>256.3333333333333</ele><time>2026-04-10T08:35:51.724Z</time></trkpt><trkpt lat="43.2227359" lon="11.9858547"><ele>256.6666666666667</ele><time>2026-04-10T08:35:52.729Z</time></trkpt><trkpt lat="43.2226433" lon="11.9860685"><ele>257.0</ele><time>2026-04-10T08:35:53.729Z</time></trkpt><trkpt lat="43.2225501" lon="11.9862874"><ele>257.0</ele><time>2026-04-10T08:35:54.729Z</time></trkpt><trkpt lat="43.2224535" lon="11.9865104"><ele>257.0</ele><time>2026-04-10T08:35:55.73Z</time></trkpt><trkpt lat="43.2223535" lon="11.9867387"><ele>257.0</ele><time>2026-04-10T08:35:56.732Z</time></trkpt><trkpt lat="43.222254" lon="11.986964"><ele>256.6666666666667</ele><time>2026-04-10T08:35:57.728Z</time></trkpt><trkpt lat="43.2221499" lon="11.9871881"><ele>256.3333333333333</ele><time>2026-04-10T08:35:58.723Z</time></trkpt><trkpt lat="43.2220435" lon="11.9874107"><ele>256.0</ele><time>2026-04-10T08:35:59.731Z</time></trkpt><trkpt lat="43.2219351" lon="11.9876314"><ele>255.66666666666666</ele><time>2026-04-10T08:36:00.724Z</time></trkpt><trkpt lat="43.2218194" lon="11.9878495"><ele>255.33333333333331</ele><time>2026-04-10T08:36:01.724Z</time></trkpt><trkpt lat="43.2216967" lon="11.9880627"><ele>255.0</ele><time>2026-04-10T08:36:02.73Z</time></trkpt><trkpt lat="43.2215722" lon="11.9882703"><ele>255.33333333333331</ele><time>2026-04-10T08:36:03.726Z</time></trkpt><trkpt lat="43.2214382" lon="11.9884752"><ele>255.66666666666666</ele><time>2026-04-10T08:36:04.727Z</time></trkpt><trkpt lat="43.2212957" lon="11.9886783"><ele>256.0</ele><time>2026-04-10T08:36:05.745Z</time></trkpt><trkpt lat="43.2211547" lon="11.9888694"><ele>256.0</ele><time>2026-04-10T08:36:06.73Z</time></trkpt><trkpt lat="43.2210125" lon="11.9890525"><ele>256.0</ele><time>2026-04-10T08:36:07.719Z</time></trkpt><trkpt lat="43.2208703" lon="11.9892275"><ele>256.0</ele><time>2026-04-10T08:36:08.722Z</time></trkpt><trkpt lat="43.2207216" lon="11.9893987"><ele>256.0</ele><time>2026-04-10T08:36:09.721Z</time></trkpt><trkpt lat="43.2205696" lon="11.9895623"><ele>256.0</ele><time>2026-04-10T08:36:10.727Z</time></trkpt><trkpt lat="43.2204134" lon="11.9897173"><ele>256.0</ele><time>2026-04-10T08:36:11.724Z</time></trkpt><trkpt lat="43.2202509" lon="11.9898657"><ele>256.0</ele><time>2026-04-10T08:36:12.721Z</time></trkpt><trkpt lat="43.2200842" lon="11.990012"><ele>256.0</ele><time>2026-04-10T08:36:13.73Z</time></trkpt><trkpt lat="43.2199141" lon="11.9901493"><ele>256.0</ele><time>2026-04-10T08:36:14.723Z</time></trkpt><trkpt lat="43.2197397" lon="11.9902748"><ele>256.0</ele><time>2026-04-10T08:36:15.734Z</time></trkpt><trkpt lat="43.2195631" lon="11.9903921"><ele>256.0</ele><time>2026-04-10T08:36:16.735Z</time></trkpt><trkpt lat="43.2193783" lon="11.9905087"><ele>256.0</ele><time>2026-04-10T08:36:17.732Z</time></trkpt><trkpt lat="43.2191902" lon="11.9906207"><ele>256.0</ele><time>2026-04-10T08:36:18.726Z</time></trkpt><trkpt lat="43.2189985" lon="11.9907341"><ele>256.0</ele><time>2026-04-10T08:36:19.731Z</time></trkpt><trkpt lat="43.218801" lon="11.990843"><ele>256.0</ele><time>2026-04-10T08:36:20.723Z</time></trkpt><trkpt lat="43.2186028" lon="11.9909473"><ele>256.3333333333333</ele><time>2026-04-10T08:36:21.733Z</time></trkpt><trkpt lat="43.2183968" lon="11.9910563"><ele>256.6666666666667</ele><time>2026-04-10T08:36:22.729Z</time></trkpt><trkpt lat="43.2181893" lon="11.9911615"><ele>257.0</ele><time>2026-04-10T08:36:23.731Z</time></trkpt><trkpt lat="43.2179854" lon="11.9912659"><ele>257.33333333333337</ele><time>2026-04-10T08:36:24.733Z</time></trkpt><trkpt lat="43.2177763" lon="11.991371"><ele>257.6666666666667</ele><time>2026-04-10T08:36:25.729Z</time></trkpt><trkpt lat="43.2175682" lon="11.9914763"><ele>258.0</ele><time>2026-04-10T08:36:26.721Z</time></trkpt><trkpt lat="43.21736" lon="11.9915829"><ele>257.6666666666667</ele><time>2026-04-10T08:36:27.731Z</time></trkpt><trkpt lat="43.2171544" lon="11.9916883"><ele>257.33333333333337</ele><time>2026-04-10T08:36:28.732Z</time></trkpt><trkpt lat="43.2169582" lon="11.9917884"><ele>257.0</ele><time>2026-04-10T08:36:29.729Z</time></trkpt><trkpt lat="43.2167787" lon="11.9918769"><ele>257.0</ele><time>2026-04-10T08:36:30.734Z</time></trkpt><trkpt lat="43.2166066" lon="11.9919569"><ele>257.0</ele><time>2026-04-10T08:36:31.728Z</time></trkpt><trkpt lat="43.2164467" lon="11.9920376"><ele>257.0</ele><time>2026-04-10T08:36:32.726Z</time></trkpt><trkpt lat="43.2162972" lon="11.9921098"><ele>257.5</ele><time>2026-04-10T08:36:33.726Z</time></trkpt><trkpt lat="43.2161546" lon="11.9921807"><ele>258.0</ele><time>2026-04-10T08:36:34.732Z</time></trkpt><trkpt lat="43.2160201" lon="11.99225"><ele>258.5</ele><time>2026-04-10T08:36:35.725Z</time></trkpt><trkpt lat="43.2158984" lon="11.9923132"><ele>259.0</ele><time>2026-04-10T08:36:36.724Z</time></trkpt><trkpt lat="43.2157933" lon="11.9923635"><ele>259.0</ele><time>2026-04-10T08:36:37.727Z</time></trkpt><trkpt lat="43.2156994" lon="11.9924036"><ele>259.0</ele><time>2026-04-10T08:36:38.742Z</time></trkpt><trkpt lat="43.2156218" lon="11.992429"><ele>259.0</ele><time>2026-04-10T08:36:39.727Z</time></trkpt><trkpt lat="43.215526" lon="11.9924346"><ele>259.0</ele><time>2026-04-10T08:36:41.726Z</time></trkpt><trkpt lat="43.2154573" lon="11.9923843"><ele>259.0</ele><time>2026-04-10T08:36:43.731Z</time></trkpt><trkpt lat="43.2153996" lon="11.9923078"><ele>259.0</ele><time>2026-04-10T08:36:45.737Z</time></trkpt><trkpt lat="43.2153651" lon="11.9921745"><ele>258.8</ele><time>2026-04-10T08:36:47.73Z</time></trkpt><trkpt lat="43.2153653" lon="11.9920505"><ele>258.59999999999997</ele><time>2026-04-10T08:36:49.728Z</time></trkpt><trkpt lat="43.2153609" lon="11.9919391"><ele>258.4</ele><time>2026-04-10T08:36:52.727Z</time></trkpt><trkpt lat="43.2153364" lon="11.9918402"><ele>258.2</ele><time>2026-04-10T08:37:12.726Z</time></trkpt><trkpt lat="43.2153011" lon="11.9916329"><ele>258.0</ele><time>2026-04-10T08:37:14.729Z</time></trkpt><trkpt lat="43.2152512" lon="11.9913778"><ele>258.0</ele><time>2026-04-10T08:37:16.728Z</time></trkpt><trkpt lat="43.2152241" lon="11.991245"><ele>258.0</ele><time>2026-04-10T08:37:17.722Z</time></trkpt><trkpt lat="43.2151926" lon="11.9911072"><ele>258.0</ele><time>2026-04-10T08:37:18.726Z</time></trkpt><trkpt lat="43.2151311" lon="11.9908416"><ele>258.0</ele><time>2026-04-10T08:37:20.728Z</time></trkpt><trkpt lat="43.2150346" lon="11.9904534"><ele>258.0</ele><time>2026-04-10T08:37:23.728Z</time></trkpt><trkpt lat="43.2149345" lon="11.9900308"><ele>258.0</ele><time>2026-04-10T08:37:26.727Z</time></trkpt><trkpt lat="43.2148734" lon="11.989765"><ele>258.0</ele><time>2026-04-10T08:37:28.73Z</time></trkpt><trkpt lat="43.2148454" lon="11.9896415"><ele>258.0</ele><time>2026-04-10T08:37:29.733Z</time></trkpt><trkpt lat="43.2148201" lon="11.9895299"><ele>258.0</ele><time>2026-04-10T08:37:30.731Z</time></trkpt><trkpt lat="43.2147956" lon="11.9894249"><ele>258.0</ele><time>2026-04-10T08:37:31.723Z</time></trkpt><trkpt lat="43.2147709" lon="11.9893247"><ele>258.0</ele><time>2026-04-10T08:37:32.732Z</time></trkpt><trkpt lat="43.2147483" lon="11.9892305"><ele>258.0</ele><time>2026-04-10T08:37:33.727Z</time></trkpt><trkpt lat="43.2146953" lon="11.9890257"><ele>257.6666666666667</ele><time>2026-04-10T08:37:35.726Z</time></trkpt><trkpt lat="43.2146342" lon="11.988783"><ele>257.33333333333337</ele><time>2026-04-10T08:37:37.726Z</time></trkpt><trkpt lat="43.2145579" lon="11.9885104"><ele>257.0</ele><time>2026-04-10T08:37:39.73Z</time></trkpt><trkpt lat="43.2144885" lon="11.9882233"><ele>257.0</ele><time>2026-04-10T08:37:41.731Z</time></trkpt><trkpt lat="43.2144262" lon="11.9879546"><ele>257.0</ele><time>2026-04-10T08:37:43.722Z</time></trkpt><trkpt lat="43.2143673" lon="11.9877237"><ele>257.0</ele><time>2026-04-10T08:37:45.726Z</time></trkpt><trkpt lat="43.2143099" lon="11.9875178"><ele>256.75</ele><time>2026-04-10T08:37:47.733Z</time></trkpt><trkpt lat="43.2142507" lon="11.9873006"><ele>256.5</ele><time>2026-04-10T08:37:49.723Z</time></trkpt><trkpt lat="43.2141961" lon="11.9871032"><ele>256.25</ele><time>2026-04-10T08:37:51.734Z</time></trkpt><trkpt lat="43.2141698" lon="11.9870021"><ele>256.0</ele><time>2026-04-10T08:37:52.723Z</time></trkpt><trkpt lat="43.2141461" lon="11.986893"><ele>256.0</ele><time>2026-04-10T08:37:53.722Z</time></trkpt><trkpt lat="43.214122" lon="11.9867892"><ele>256.0</ele><time>2026-04-10T08:37:54.726Z</time></trkpt><trkpt lat="43.2140747" lon="11.9866053"><ele>256.0</ele><time>2026-04-10T08:37:56.725Z</time></trkpt><trkpt lat="43.2140255" lon="11.9864154"><ele>256.0</ele><time>2026-04-10T08:37:58.729Z</time></trkpt><trkpt lat="43.2139699" lon="11.9862055"><ele>256.0</ele><time>2026-04-10T08:38:00.728Z</time></trkpt><trkpt lat="43.2139181" lon="11.986018"><ele>256.0</ele><time>2026-04-10T08:38:02.725Z</time></trkpt><trkpt lat="43.2138926" lon="11.9859265"><ele>256.0</ele><time>2026-04-10T08:38:03.727Z</time></trkpt><trkpt lat="43.2138687" lon="11.9858324"><ele>256.0</ele><time>2026-04-10T08:38:04.729Z</time></trkpt><trkpt lat="43.2138347" lon="11.9857406"><ele>256.0</ele><time>2026-04-10T08:38:05.727Z</time></trkpt><trkpt lat="43.2137719" lon="11.9855547"><ele>256.0</ele><time>2026-04-10T08:38:07.727Z</time></trkpt><trkpt lat="43.2137117" lon="11.9854029"><ele>256.0</ele><time>2026-04-10T08:38:09.726Z</time></trkpt><trkpt lat="43.2136538" lon="11.9852639"><ele>256.0</ele><time>2026-04-10T08:38:12.722Z</time></trkpt><trkpt lat="43.2136594" lon="11.9851768"><ele>256.0</ele><time>2026-04-10T08:38:17.727Z</time></trkpt><trkpt lat="43.2137713" lon="11.9851287"><ele>256.0</ele><time>2026-04-10T08:38:22.732Z</time></trkpt><trkpt lat="43.2139013" lon="11.9851074"><ele>256.0</ele><time>2026-04-10T08:38:24.725Z</time></trkpt><trkpt lat="43.2139738" lon="11.985099"><ele>256.0</ele><time>2026-04-10T08:38:25.727Z</time></trkpt><trkpt lat="43.2141378" lon="11.98508"><ele>256.0</ele><time>2026-04-10T08:38:27.723Z</time></trkpt><trkpt lat="43.2142101" lon="11.9850686"><ele>256.0</ele><time>2026-04-10T08:38:28.722Z</time></trkpt><trkpt lat="43.2142894" lon="11.9850553"><ele>256.0</ele><time>2026-04-10T08:38:29.724Z</time></trkpt><trkpt lat="43.2143831" lon="11.9850464"><ele>255.66666666666666</ele><time>2026-04-10T08:38:30.726Z</time></trkpt><trkpt lat="43.2145643" lon="11.9850228"><ele>255.33333333333331</ele><time>2026-04-10T08:38:32.72Z</time></trkpt><trkpt lat="43.2146616" lon="11.9850083"><ele>255.0</ele><time>2026-04-10T08:38:33.724Z</time></trkpt><trkpt lat="43.2148487" lon="11.9849828"><ele>255.66666666666669</ele><time>2026-04-10T08:38:35.722Z</time></trkpt><trkpt lat="43.2150847" lon="11.9849532"><ele>256.33333333333337</ele><time>2026-04-10T08:38:38.723Z</time></trkpt><trkpt lat="43.2152265" lon="11.9849382"><ele>257.0</ele><time>2026-04-10T08:38:40.726Z</time></trkpt><trkpt lat="43.2153478" lon="11.9849203"><ele>257.0</ele><time>2026-04-10T08:38:42.731Z</time></trkpt><trkpt lat="43.2154168" lon="11.9849164"><ele>257.0</ele><time>2026-04-10T08:38:43.721Z</time></trkpt><trkpt lat="43.21549" lon="11.9849053"><ele>257.0</ele><time>2026-04-10T08:38:44.731Z</time></trkpt><trkpt lat="43.2155705" lon="11.9848911"><ele>257.0</ele><time>2026-04-10T08:38:45.725Z</time></trkpt><trkpt lat="43.2157418" lon="11.9848706"><ele>257.0</ele><time>2026-04-10T08:38:47.723Z</time></trkpt><trkpt lat="43.2158912" lon="11.9848519"><ele>256.8</ele><time>2026-04-10T08:38:49.724Z</time></trkpt><trkpt lat="43.2159633" lon="11.9848439"><ele>256.6</ele><time>2026-04-10T08:38:50.727Z</time></trkpt><trkpt lat="43.2160828" lon="11.9848354"><ele>256.40000000000003</ele><time>2026-04-10T08:38:52.724Z</time></trkpt><trkpt lat="43.2162533" lon="11.9848243"><ele>256.2</ele><time>2026-04-10T08:38:55.726Z</time></trkpt><trkpt lat="43.2163225" lon="11.9848057"><ele>256.0</ele><time>2026-04-10T08:38:58.729Z</time></trkpt><trkpt lat="43.2162913" lon="11.9847147"><ele>256.0</ele><time>2026-04-10T08:39:07.726Z</time></trkpt><trkpt lat="43.2161761" lon="11.9845555"><ele>256.0</ele><time>2026-04-10T08:39:10.731Z</time></trkpt><trkpt lat="43.2161294" lon="11.9844907"><ele>256.0</ele><time>2026-04-10T08:39:11.729Z</time></trkpt><trkpt lat="43.2159792" lon="11.9843547"><ele>256.0</ele><time>2026-04-10T08:39:13.729Z</time></trkpt><trkpt lat="43.2157701" lon="11.9842035"><ele>256.0</ele><time>2026-04-10T08:39:15.722Z</time></trkpt><trkpt lat="43.2156688" lon="11.9841205"><ele>256.0</ele><time>2026-04-10T08:39:16.73Z</time></trkpt><trkpt lat="43.2154719" lon="11.9839473"><ele>256.0</ele><time>2026-04-10T08:39:18.725Z</time></trkpt><trkpt lat="43.215297" lon="11.9837901"><ele>256.25</ele><time>2026-04-10T08:39:20.729Z</time></trkpt><trkpt lat="43.2151379" lon="11.9836436"><ele>256.5</ele><time>2026-04-10T08:39:22.732Z</time></trkpt><trkpt lat="43.2150548" lon="11.9835622"><ele>256.75</ele><time>2026-04-10T08:39:23.727Z</time></trkpt><trkpt lat="43.2149738" lon="11.9834736"><ele>257.0</ele><time>2026-04-10T08:39:24.728Z</time></trkpt><trkpt lat="43.2148999" lon="11.983388"><ele>257.0</ele><time>2026-04-10T08:39:25.73Z</time></trkpt><trkpt lat="43.2147776" lon="11.98322"><ele>257.0</ele><time>2026-04-10T08:39:27.728Z</time></trkpt><trkpt lat="43.2146355" lon="11.9830671"><ele>257.0</ele><time>2026-04-10T08:39:29.726Z</time></trkpt><trkpt lat="43.2145109" lon="11.982959"><ele>257.0</ele><time>2026-04-10T08:39:31.73Z</time></trkpt><trkpt lat="43.2144368" lon="11.982841"><ele>257.0</ele><time>2026-04-10T08:39:33.726Z</time></trkpt><trkpt lat="43.2143563" lon="11.9827312"><ele>257.0</ele><time>2026-04-10T08:39:35.724Z</time></trkpt><trkpt lat="43.2143283" lon="11.982563"><ele>257.0</ele><time>2026-04-10T08:39:38.725Z</time></trkpt><trkpt lat="43.2143865" lon="11.9824354"><ele>256.75</ele><time>2026-04-10T08:39:40.728Z</time></trkpt><trkpt lat="43.2144767" lon="11.9823035"><ele>256.5</ele><time>2026-04-10T08:39:42.724Z</time></trkpt><trkpt lat="43.2145321" lon="11.9821494"><ele>256.25</ele><time>2026-04-10T08:39:44.724Z</time></trkpt><trkpt lat="43.2145571" lon="11.9820531"><ele>256.0</ele><time>2026-04-10T08:39:45.721Z</time></trkpt><trkpt lat="43.2146065" lon="11.9818701"><ele>256.0</ele><time>2026-04-10T08:39:47.724Z</time></trkpt><trkpt lat="43.2146657" lon="11.9817344"><ele>256.0</ele><time>2026-04-10T08:39:49.73Z</time></trkpt><trkpt lat="43.2147352" lon="11.9815863"><ele>256.0</ele><time>2026-04-10T08:39:51.718Z</time></trkpt><trkpt lat="43.2148098" lon="11.9814072"><ele>256.0</ele><time>2026-04-10T08:39:53.734Z</time></trkpt><trkpt lat="43.2148424" lon="11.9813216"><ele>256.0</ele><time>2026-04-10T08:39:54.734Z</time></trkpt><trkpt lat="43.2149431" lon="11.9810759"><ele>256.0</ele><time>2026-04-10T08:39:57.727Z</time></trkpt><trkpt lat="43.2149799" lon="11.9809923"><ele>256.0</ele><time>2026-04-10T08:39:58.731Z</time></trkpt><trkpt lat="43.2150574" lon="11.9808381"><ele>256.0</ele><time>2026-04-10T08:40:00.726Z</time></trkpt><trkpt lat="43.2151203" lon="11.9807188"><ele>255.99999999999997</ele><time>2026-04-10T08:40:02.72Z</time></trkpt><trkpt lat="43.2151659" lon="11.9806392"><ele>256.0</ele><time>2026-04-10T08:40:04.724Z</time></trkpt><trkpt lat="43.2152194" lon="11.9805819"><ele>256.0</ele><time>2026-04-10T08:40:07.725Z</time></trkpt><trkpt lat="43.2152358" lon="11.9804621"><ele>256.0</ele><time>2026-04-10T08:40:09.732Z</time></trkpt><trkpt lat="43.2152848" lon="11.9803131"><ele>255.99999999999997</ele><time>2026-04-10T08:40:11.729Z</time></trkpt><trkpt lat="43.2153236" lon="11.9802298"><ele>256.0</ele><time>2026-04-10T08:40:12.725Z</time></trkpt><trkpt lat="43.2153692" lon="11.9801361"><ele>256.0</ele><time>2026-04-10T08:40:13.734Z</time></trkpt><trkpt lat="43.2154169" lon="11.9800403"><ele>256.0</ele><time>2026-04-10T08:40:14.724Z</time></trkpt><trkpt lat="43.2155026" lon="11.97985"><ele>256.0</ele><time>2026-04-10T08:40:16.729Z</time></trkpt><trkpt lat="43.2155864" lon="11.9796652"><ele>256.0</ele><time>2026-04-10T08:40:18.732Z</time></trkpt><trkpt lat="43.2156275" lon="11.9795737"><ele>256.25</ele><time>2026-04-10T08:40:19.729Z</time></trkpt><trkpt lat="43.2156714" lon="11.9794836"><ele>256.5</ele><time>2026-04-10T08:40:20.731Z</time></trkpt><trkpt lat="43.2157145" lon="11.9793953"><ele>256.75</ele><time>2026-04-10T08:40:21.733Z</time></trkpt><trkpt lat="43.2157993" lon="11.9792328"><ele>257.0</ele><time>2026-04-10T08:40:23.726Z</time></trkpt><trkpt lat="43.216023" lon="11.978775"><ele>257.0</ele><time>2026-04-10T08:40:28.73Z</time></trkpt><trkpt lat="43.2160825" lon="11.9786485"><ele>257.0</ele><time>2026-04-10T08:40:29.731Z</time></trkpt><trkpt lat="43.2161413" lon="11.9785201"><ele>257.0</ele><time>2026-04-10T08:40:30.728Z</time></trkpt><trkpt lat="43.2162044" lon="11.9783931"><ele>257.0</ele><time>2026-04-10T08:40:31.727Z</time></trkpt><trkpt lat="43.2162685" lon="11.9782647"><ele>257.0</ele><time>2026-04-10T08:40:32.722Z</time></trkpt><trkpt lat="43.216331" lon="11.9781306"><ele>257.0</ele><time>2026-04-10T08:40:33.728Z</time></trkpt><trkpt lat="43.2163895" lon="11.9780041"><ele>257.0</ele><time>2026-04-10T08:40:34.725Z</time></trkpt><trkpt lat="43.2164445" lon="11.9778869"><ele>257.0</ele><time>2026-04-10T08:40:35.729Z</time></trkpt><trkpt lat="43.2164946" lon="11.9777703"><ele>257.0</ele><time>2026-04-10T08:40:36.724Z</time></trkpt><trkpt lat="43.2165448" lon="11.9776666"><ele>257.0</ele><time>2026-04-10T08:40:37.73Z</time></trkpt><trkpt lat="43.2165901" lon="11.9775784"><ele>257.33333333333337</ele><time>2026-04-10T08:40:38.73Z</time></trkpt><trkpt lat="43.2166271" lon="11.9774935"><ele>257.6666666666667</ele><time>2026-04-10T08:40:39.728Z</time></trkpt><trkpt lat="43.2166671" lon="11.9774107"><ele>258.0</ele><time>2026-04-10T08:40:40.73Z</time></trkpt><trkpt lat="43.2167033" lon="11.9773287"><ele>258.3333333333333</ele><time>2026-04-10T08:40:41.729Z</time></trkpt><trkpt lat="43.2167403" lon="11.9772575"><ele>258.66666666666663</ele><time>2026-04-10T08:40:42.73Z</time></trkpt><trkpt lat="43.2167959" lon="11.9771372"><ele>259.0</ele><time>2026-04-10T08:40:44.727Z</time></trkpt><trkpt lat="43.2167914" lon="11.9770419"><ele>259.0</ele><time>2026-04-10T08:40:46.735Z</time></trkpt><trkpt lat="43.2167241" lon="11.97696"><ele>259.0</ele><time>2026-04-10T08:40:48.757Z</time></trkpt><trkpt lat="43.2166793" lon="11.976897"><ele>259.0</ele><time>2026-04-10T08:40:49.725Z</time></trkpt><trkpt lat="43.2166342" lon="11.9768236"><ele>259.0</ele><time>2026-04-10T08:40:50.723Z</time></trkpt><trkpt lat="43.2165852" lon="11.9767381"><ele>259.0</ele><time>2026-04-10T08:40:51.726Z</time></trkpt><trkpt lat="43.216536" lon="11.9766416"><ele>259.0</ele><time>2026-04-10T08:40:52.738Z</time></trkpt><trkpt lat="43.2164888" lon="11.9765414"><ele>258.66666666666663</ele><time>2026-04-10T08:40:53.731Z</time></trkpt><trkpt lat="43.2164489" lon="11.9764397"><ele>258.3333333333333</ele><time>2026-04-10T08:40:54.726Z</time></trkpt><trkpt lat="43.2164147" lon="11.9763441"><ele>258.0</ele><time>2026-04-10T08:40:55.731Z</time></trkpt><trkpt lat="43.216382" lon="11.9762404"><ele>257.6666666666667</ele><time>2026-04-10T08:40:56.731Z</time></trkpt><trkpt lat="43.2163524" lon="11.9761179"><ele>257.33333333333337</ele><time>2026-04-10T08:40:57.723Z</time></trkpt><trkpt lat="43.2163251" lon="11.9759868"><ele>257.0</ele><time>2026-04-10T08:40:58.723Z</time></trkpt><trkpt lat="43.2163013" lon="11.9758677"><ele>257.4</ele><time>2026-04-10T08:40:59.722Z</time></trkpt><trkpt lat="43.2162782" lon="11.9757574"><ele>257.79999999999995</ele><time>2026-04-10T08:41:00.727Z</time></trkpt><trkpt lat="43.2162501" lon="11.975649"><ele>258.2</ele><time>2026-04-10T08:41:01.727Z</time></trkpt><trkpt lat="43.2162096" lon="11.9755438"><ele>258.59999999999997</ele><time>2026-04-10T08:41:02.731Z</time></trkpt><trkpt lat="43.2161494" lon="11.9754426"><ele>259.0</ele><time>2026-04-10T08:41:03.728Z</time></trkpt><trkpt lat="43.2160765" lon="11.9753379"><ele>259.0</ele><time>2026-04-10T08:41:04.728Z</time></trkpt><trkpt lat="43.2160005" lon="11.9752274"><ele>259.0</ele><time>2026-04-10T08:41:05.728Z</time></trkpt><trkpt lat="43.2159228" lon="11.9751141"><ele>259.0</ele><time>2026-04-10T08:41:06.726Z</time></trkpt><trkpt lat="43.2158477" lon="11.9750032"><ele>259.0</ele><time>2026-04-10T08:41:07.723Z</time></trkpt><trkpt lat="43.2157764" lon="11.9748976"><ele>259.0</ele><time>2026-04-10T08:41:08.73Z</time></trkpt><trkpt lat="43.2157039" lon="11.9747924"><ele>259.5</ele><time>2026-04-10T08:41:09.727Z</time></trkpt><trkpt lat="43.2156291" lon="11.9746848"><ele>260.0</ele><time>2026-04-10T08:41:10.728Z</time></trkpt><trkpt lat="43.2155517" lon="11.9745661"><ele>260.5</ele><time>2026-04-10T08:41:11.729Z</time></trkpt><trkpt lat="43.2154733" lon="11.9744391"><ele>261.0</ele><time>2026-04-10T08:41:12.73Z</time></trkpt><trkpt lat="43.2153891" lon="11.9743042"><ele>260.5</ele><time>2026-04-10T08:41:13.728Z</time></trkpt><trkpt lat="43.215298" lon="11.9741667"><ele>260.0</ele><time>2026-04-10T08:41:14.724Z</time></trkpt><trkpt lat="43.2152038" lon="11.9740226"><ele>259.5</ele><time>2026-04-10T08:41:15.731Z</time></trkpt><trkpt lat="43.2151118" lon="11.9738731"><ele>259.0</ele><time>2026-04-10T08:41:16.724Z</time></trkpt><trkpt lat="43.2150192" lon="11.9737263"><ele>259.0</ele><time>2026-04-10T08:41:17.728Z</time></trkpt><trkpt lat="43.2149319" lon="11.9735937"><ele>259.0</ele><time>2026-04-10T08:41:18.725Z</time></trkpt><trkpt lat="43.214849" lon="11.9734719"><ele>259.0</ele><time>2026-04-10T08:41:19.731Z</time></trkpt><trkpt lat="43.2147732" lon="11.9733632"><ele>259.0</ele><time>2026-04-10T08:41:20.729Z</time></trkpt><trkpt lat="43.214707" lon="11.9732659"><ele>259.2</ele><time>2026-04-10T08:41:21.73Z</time></trkpt><trkpt lat="43.2146521" lon="11.973183"><ele>259.4</ele><time>2026-04-10T08:41:22.727Z</time></trkpt><trkpt lat="43.2146107" lon="11.973117"><ele>259.6</ele><time>2026-04-10T08:41:23.729Z</time></trkpt><trkpt lat="43.2145724" lon="11.9729893"><ele>259.8</ele><time>2026-04-10T08:41:25.731Z</time></trkpt><trkpt lat="43.2146055" lon="11.9728171"><ele>260.0</ele><time>2026-04-10T08:41:27.727Z</time></trkpt><trkpt lat="43.2146531" lon="11.9727276"><ele>260.0</ele><time>2026-04-10T08:41:28.728Z</time></trkpt><trkpt lat="43.2147053" lon="11.9726526"><ele>260.0</ele><time>2026-04-10T08:41:29.729Z</time></trkpt><trkpt lat="43.2147441" lon="11.9725831"><ele>260.0</ele><time>2026-04-10T08:41:30.731Z</time></trkpt><trkpt lat="43.2147743" lon="11.9724512"><ele>260.0</ele><time>2026-04-10T08:41:32.726Z</time></trkpt><trkpt lat="43.2147446" lon="11.9723037"><ele>260.0</ele><time>2026-04-10T08:41:34.731Z</time></trkpt><trkpt lat="43.2147087" lon="11.9722124"><ele>260.0</ele><time>2026-04-10T08:41:35.729Z</time></trkpt><trkpt lat="43.2146668" lon="11.972116"><ele>260.0</ele><time>2026-04-10T08:41:36.731Z</time></trkpt><trkpt lat="43.2146324" lon="11.9720209"><ele>260.0</ele><time>2026-04-10T08:41:37.729Z</time></trkpt><trkpt lat="43.2146093" lon="11.9719147"><ele>260.0</ele><time>2026-04-10T08:41:38.742Z</time></trkpt><trkpt lat="43.2145977" lon="11.9717978"><ele>260.0</ele><time>2026-04-10T08:41:39.725Z</time></trkpt><trkpt lat="43.2145972" lon="11.9716733"><ele>260.0</ele><time>2026-04-10T08:41:40.721Z</time></trkpt><trkpt lat="43.2146084" lon="11.9715475"><ele>260.0</ele><time>2026-04-10T08:41:41.73Z</time></trkpt><trkpt lat="43.2146339" lon="11.9714173"><ele>260.2</ele><time>2026-04-10T08:41:42.727Z</time></trkpt><trkpt lat="43.2146759" lon="11.9712756"><ele>260.4</ele><time>2026-04-10T08:41:43.73Z</time></trkpt><trkpt lat="43.2147253" lon="11.9711327"><ele>260.6</ele><time>2026-04-10T08:41:44.73Z</time></trkpt><trkpt lat="43.2147719" lon="11.9710056"><ele>260.8</ele><time>2026-04-10T08:41:45.726Z</time></trkpt><trkpt lat="43.2148143" lon="11.9708909"><ele>261.0</ele><time>2026-04-10T08:41:46.724Z</time></trkpt><trkpt lat="43.2148523" lon="11.9707827"><ele>261.0</ele><time>2026-04-10T08:41:47.725Z</time></trkpt><trkpt lat="43.2148803" lon="11.9706876"><ele>261.0</ele><time>2026-04-10T08:41:48.723Z</time></trkpt><trkpt lat="43.2148874" lon="11.9705402"><ele>261.0</ele><time>2026-04-10T08:41:50.72Z</time></trkpt><trkpt lat="43.2148163" lon="11.9704311"><ele>261.0</ele><time>2026-04-10T08:41:52.724Z</time></trkpt><trkpt lat="43.2147543" lon="11.9703754"><ele>261.0</ele><time>2026-04-10T08:41:53.729Z</time></trkpt><trkpt lat="43.2146753" lon="11.9703192"><ele>261.0</ele><time>2026-04-10T08:41:54.727Z</time></trkpt><trkpt lat="43.2145873" lon="11.9702624"><ele>261.0</ele><time>2026-04-10T08:41:55.726Z</time></trkpt><trkpt lat="43.2144977" lon="11.9702029"><ele>261.0</ele><time>2026-04-10T08:41:56.725Z</time></trkpt><trkpt lat="43.2144055" lon="11.9701364"><ele>261.0</ele><time>2026-04-10T08:41:57.722Z</time></trkpt><trkpt lat="43.2143108" lon="11.9700642"><ele>261.0</ele><time>2026-04-10T08:41:58.738Z</time></trkpt><trkpt lat="43.2142186" lon="11.9699942"><ele>261.0</ele><time>2026-04-10T08:41:59.745Z</time></trkpt><trkpt lat="43.2141267" lon="11.9699263"><ele>261.0</ele><time>2026-04-10T08:42:00.721Z</time></trkpt><trkpt lat="43.2140317" lon="11.969855"><ele>261.0</ele><time>2026-04-10T08:42:01.727Z</time></trkpt><trkpt lat="43.213938" lon="11.969785"><ele>261.0</ele><time>2026-04-10T08:42:02.723Z</time></trkpt><trkpt lat="43.2138432" lon="11.969713"><ele>261.0</ele><time>2026-04-10T08:42:03.719Z</time></trkpt><trkpt lat="43.2137482" lon="11.969641"><ele>261.0</ele><time>2026-04-10T08:42:04.725Z</time></trkpt><trkpt lat="43.2136603" lon="11.9695734"><ele>261.0</ele><time>2026-04-10T08:42:05.722Z</time></trkpt><trkpt lat="43.2135711" lon="11.9695022"><ele>261.0</ele><time>2026-04-10T08:42:06.73Z</time></trkpt><trkpt lat="43.2134896" lon="11.9694416"><ele>261.0</ele><time>2026-04-10T08:42:07.725Z</time></trkpt><trkpt lat="43.2134166" lon="11.969389"><ele>261.0</ele><time>2026-04-10T08:42:08.724Z</time></trkpt><trkpt lat="43.2133568" lon="11.9693414"><ele>261.0</ele><time>2026-04-10T08:42:09.731Z</time></trkpt><trkpt lat="43.2132849" lon="11.9692267"><ele>261.1666666666667</ele><time>2026-04-10T08:42:11.728Z</time></trkpt><trkpt lat="43.2132865" lon="11.969069"><ele>261.3333333333333</ele><time>2026-04-10T08:42:13.723Z</time></trkpt><trkpt lat="43.2133111" lon="11.9689757"><ele>261.5</ele><time>2026-04-10T08:42:14.727Z</time></trkpt><trkpt lat="43.2133372" lon="11.9688854"><ele>261.66666666666663</ele><time>2026-04-10T08:42:15.731Z</time></trkpt><trkpt lat="43.2133533" lon="11.9688009"><ele>261.8333333333333</ele><time>2026-04-10T08:42:16.724Z</time></trkpt><trkpt lat="43.2133434" lon="11.9686609"><ele>262.0</ele><time>2026-04-10T08:42:18.73Z</time></trkpt><trkpt lat="43.21325" lon="11.9685372"><ele>262.0</ele><time>2026-04-10T08:42:20.731Z</time></trkpt><trkpt lat="43.2131761" lon="11.968464"><ele>262.0</ele><time>2026-04-10T08:42:21.725Z</time></trkpt><trkpt lat="43.2130982" lon="11.9683877"><ele>262.0</ele><time>2026-04-10T08:42:22.728Z</time></trkpt><trkpt lat="43.2130191" lon="11.9683108"><ele>262.0</ele><time>2026-04-10T08:42:23.724Z</time></trkpt><trkpt lat="43.2129368" lon="11.968225"><ele>262.0</ele><time>2026-04-10T08:42:24.723Z</time></trkpt><trkpt lat="43.2128562" lon="11.9681386"><ele>262.2</ele><time>2026-04-10T08:42:25.727Z</time></trkpt><trkpt lat="43.2127747" lon="11.9680556"><ele>262.4</ele><time>2026-04-10T08:42:26.725Z</time></trkpt><trkpt lat="43.2127046" lon="11.967977"><ele>262.6</ele><time>2026-04-10T08:42:27.725Z</time></trkpt><trkpt lat="43.2126387" lon="11.9679099"><ele>262.8</ele><time>2026-04-10T08:42:28.726Z</time></trkpt><trkpt lat="43.2125688" lon="11.9678364"><ele>263.0</ele><time>2026-04-10T08:42:29.724Z</time></trkpt><trkpt lat="43.2124989" lon="11.9677456"><ele>263.0</ele><time>2026-04-10T08:42:30.734Z</time></trkpt><trkpt lat="43.2124262" lon="11.9676461"><ele>263.0</ele><time>2026-04-10T08:42:31.724Z</time></trkpt><trkpt lat="43.2123474" lon="11.9675342"><ele>263.0</ele><time>2026-04-10T08:42:32.729Z</time></trkpt><trkpt lat="43.2122648" lon="11.9674163"><ele>263.0</ele><time>2026-04-10T08:42:33.731Z</time></trkpt><trkpt lat="43.2121823" lon="11.9673002"><ele>263.2</ele><time>2026-04-10T08:42:34.724Z</time></trkpt><trkpt lat="43.2121073" lon="11.9671854"><ele>263.4</ele><time>2026-04-10T08:42:35.724Z</time></trkpt><trkpt lat="43.2120381" lon="11.967067"><ele>263.59999999999997</ele><time>2026-04-10T08:42:36.727Z</time></trkpt><trkpt lat="43.2119737" lon="11.966947"><ele>263.8</ele><time>2026-04-10T08:42:37.723Z</time></trkpt><trkpt lat="43.2119011" lon="11.9668295"><ele>264.0</ele><time>2026-04-10T08:42:38.725Z</time></trkpt><trkpt lat="43.2118274" lon="11.9667207"><ele>264.2</ele><time>2026-04-10T08:42:39.731Z</time></trkpt><trkpt lat="43.2117538" lon="11.9666224"><ele>264.4</ele><time>2026-04-10T08:42:40.723Z</time></trkpt><trkpt lat="43.2116676" lon="11.9665404"><ele>264.6</ele><time>2026-04-10T08:42:41.724Z</time></trkpt><trkpt lat="43.2115737" lon="11.9664457"><ele>264.8</ele><time>2026-04-10T08:42:42.728Z</time></trkpt><trkpt lat="43.2114864" lon="11.9663376"><ele>265.0</ele><time>2026-04-10T08:42:43.734Z</time></trkpt><trkpt lat="43.2113947" lon="11.9662229"><ele>265.0</ele><time>2026-04-10T08:42:44.73Z</time></trkpt><trkpt lat="43.211298" lon="11.9660979"><ele>265.0</ele><time>2026-04-10T08:42:45.724Z</time></trkpt><trkpt lat="43.2111992" lon="11.9659619"><ele>265.0</ele><time>2026-04-10T08:42:46.724Z</time></trkpt><trkpt lat="43.2111061" lon="11.965817"><ele>265.0</ele><time>2026-04-10T08:42:47.731Z</time></trkpt><trkpt lat="43.2110157" lon="11.9656716"><ele>265.5</ele><time>2026-04-10T08:42:48.728Z</time></trkpt><trkpt lat="43.2109263" lon="11.965518"><ele>266.0</ele><time>2026-04-10T08:42:49.73Z</time></trkpt><trkpt lat="43.2108392" lon="11.9653614"><ele>266.5</ele><time>2026-04-10T08:42:50.728Z</time></trkpt><trkpt lat="43.2107503" lon="11.9652048"><ele>267.0</ele><time>2026-04-10T08:42:51.727Z</time></trkpt><trkpt lat="43.2106626" lon="11.965047"><ele>267.25</ele><time>2026-04-10T08:42:52.728Z</time></trkpt><trkpt lat="43.2105763" lon="11.9648905"><ele>267.5</ele><time>2026-04-10T08:42:53.725Z</time></trkpt><trkpt lat="43.2104883" lon="11.9647328"><ele>267.75</ele><time>2026-04-10T08:42:54.725Z</time></trkpt><trkpt lat="43.2104011" lon="11.9645817"><ele>268.0</ele><time>2026-04-10T08:42:55.729Z</time></trkpt><trkpt lat="43.2103119" lon="11.964431"><ele>268.0</ele><time>2026-04-10T08:42:56.724Z</time></trkpt><trkpt lat="43.2102261" lon="11.9642938"><ele>268.0</ele><time>2026-04-10T08:42:57.731Z</time></trkpt><trkpt lat="43.2101442" lon="11.9641526"><ele>268.0</ele><time>2026-04-10T08:42:58.741Z</time></trkpt><trkpt lat="43.2100591" lon="11.9640037"><ele>268.0</ele><time>2026-04-10T08:42:59.727Z</time></trkpt><trkpt lat="43.2099762" lon="11.9638716"><ele>268.0</ele><time>2026-04-10T08:43:00.725Z</time></trkpt><trkpt lat="43.2098996" lon="11.9637566"><ele>268.0</ele><time>2026-04-10T08:43:01.729Z</time></trkpt><trkpt lat="43.2098248" lon="11.9636576"><ele>268.0</ele><time>2026-04-10T08:43:02.725Z</time></trkpt><trkpt lat="43.2097427" lon="11.9635626"><ele>268.0</ele><time>2026-04-10T08:43:03.725Z</time></trkpt><trkpt lat="43.209645" lon="11.9634647"><ele>268.0</ele><time>2026-04-10T08:43:04.722Z</time></trkpt><trkpt lat="43.2095371" lon="11.9633576"><ele>268.75</ele><time>2026-04-10T08:43:05.727Z</time></trkpt><trkpt lat="43.2094316" lon="11.9632477"><ele>269.5</ele><time>2026-04-10T08:43:06.727Z</time></trkpt><trkpt lat="43.2093345" lon="11.9631443"><ele>270.25</ele><time>2026-04-10T08:43:07.723Z</time></trkpt><trkpt lat="43.2092408" lon="11.9630395"><ele>271.0</ele><time>2026-04-10T08:43:08.725Z</time></trkpt><trkpt lat="43.2091441" lon="11.9629321"><ele>271.0</ele><time>2026-04-10T08:43:09.721Z</time></trkpt><trkpt lat="43.2090514" lon="11.962829"><ele>271.0</ele><time>2026-04-10T08:43:10.724Z</time></trkpt><trkpt lat="43.2089668" lon="11.9627394"><ele>271.0</ele><time>2026-04-10T08:43:11.726Z</time></trkpt><trkpt lat="43.2088906" lon="11.9626643"><ele>271.0</ele><time>2026-04-10T08:43:12.731Z</time></trkpt><trkpt lat="43.208831" lon="11.9625999"><ele>271.0</ele><time>2026-04-10T08:43:13.726Z</time></trkpt><trkpt lat="43.208781" lon="11.9625458"><ele>271.3333333333333</ele><time>2026-04-10T08:43:14.727Z</time></trkpt><trkpt lat="43.2087253" lon="11.962499"><ele>271.66666666666663</ele><time>2026-04-10T08:43:15.724Z</time></trkpt><trkpt lat="43.2086464" lon="11.9624679"><ele>272.0</ele><time>2026-04-10T08:43:16.73Z</time></trkpt><trkpt lat="43.208553" lon="11.9624442"><ele>272.3333333333333</ele><time>2026-04-10T08:43:17.727Z</time></trkpt><trkpt lat="43.2084573" lon="11.962414"><ele>272.6666666666667</ele><time>2026-04-10T08:43:18.733Z</time></trkpt><trkpt lat="43.2083645" lon="11.9623663"><ele>273.0</ele><time>2026-04-10T08:43:19.723Z</time></trkpt><trkpt lat="43.2082724" lon="11.9622969"><ele>273.0</ele><time>2026-04-10T08:43:20.72Z</time></trkpt><trkpt lat="43.2081829" lon="11.962205"><ele>273.0</ele><time>2026-04-10T08:43:21.724Z</time></trkpt><trkpt lat="43.2080884" lon="11.9621007"><ele>273.0</ele><time>2026-04-10T08:43:22.72Z</time></trkpt><trkpt lat="43.2079916" lon="11.9619904"><ele>273.0</ele><time>2026-04-10T08:43:23.73Z</time></trkpt><trkpt lat="43.2078896" lon="11.9618807"><ele>273.25</ele><time>2026-04-10T08:43:24.727Z</time></trkpt><trkpt lat="43.2077861" lon="11.9617811"><ele>273.5</ele><time>2026-04-10T08:43:25.721Z</time></trkpt><trkpt lat="43.2076762" lon="11.9616942"><ele>273.75</ele><time>2026-04-10T08:43:26.725Z</time></trkpt><trkpt lat="43.2075646" lon="11.9616222"><ele>274.0</ele><time>2026-04-10T08:43:27.722Z</time></trkpt><trkpt lat="43.2074554" lon="11.9615536"><ele>274.0</ele><time>2026-04-10T08:43:28.766Z</time></trkpt><trkpt lat="43.207362" lon="11.9614937"><ele>274.0</ele><time>2026-04-10T08:43:29.725Z</time></trkpt><trkpt lat="43.2072836" lon="11.961446"><ele>274.0</ele><time>2026-04-10T08:43:30.728Z</time></trkpt><trkpt lat="43.2072171" lon="11.9614188"><ele>274.0</ele><time>2026-04-10T08:43:31.722Z</time></trkpt><trkpt lat="43.2071531" lon="11.9614122"><ele>274.0</ele><time>2026-04-10T08:43:32.725Z</time></trkpt><trkpt lat="43.2070905" lon="11.9614253"><ele>274.0</ele><time>2026-04-10T08:43:33.72Z</time></trkpt><trkpt lat="43.2069898" lon="11.961467"><ele>274.0</ele><time>2026-04-10T08:43:35.726Z</time></trkpt><trkpt lat="43.2069084" lon="11.9614751"><ele>274.0</ele><time>2026-04-10T08:43:38.733Z</time></trkpt><trkpt lat="43.206835" lon="11.9614183"><ele>274.0</ele><time>2026-04-10T08:43:40.729Z</time></trkpt><trkpt lat="43.2067518" lon="11.9613009"><ele>274.0</ele><time>2026-04-10T08:43:42.722Z</time></trkpt><trkpt lat="43.2066928" lon="11.961179"><ele>274.0</ele><time>2026-04-10T08:43:44.727Z</time></trkpt><trkpt lat="43.2066434" lon="11.9610938"><ele>274.0</ele><time>2026-04-10T08:43:47.725Z</time></trkpt><trkpt lat="43.2065472" lon="11.9611112"><ele>274.0</ele><time>2026-04-10T08:43:49.729Z</time></trkpt><trkpt lat="43.2064752" lon="11.9611569"><ele>274.0</ele><time>2026-04-10T08:43:50.725Z</time></trkpt><trkpt lat="43.2063906" lon="11.961216"><ele>274.0</ele><time>2026-04-10T08:43:51.727Z</time></trkpt><trkpt lat="43.2062931" lon="11.9612849"><ele>274.0</ele><time>2026-04-10T08:43:52.731Z</time></trkpt><trkpt lat="43.2061889" lon="11.9613548"><ele>274.5</ele><time>2026-04-10T08:43:53.73Z</time></trkpt><trkpt lat="43.2060819" lon="11.9614185"><ele>275.0</ele><time>2026-04-10T08:43:54.723Z</time></trkpt><trkpt lat="43.2059714" lon="11.9614645"><ele>275.5</ele><time>2026-04-10T08:43:55.731Z</time></trkpt><trkpt lat="43.2058472" lon="11.9614719"><ele>276.0</ele><time>2026-04-10T08:43:56.722Z</time></trkpt><trkpt lat="43.2057035" lon="11.9614314"><ele>276.0</ele><time>2026-04-10T08:43:57.722Z</time></trkpt><trkpt lat="43.2055551" lon="11.9613542"><ele>276.0</ele><time>2026-04-10T08:43:58.743Z</time></trkpt><trkpt lat="43.2054094" lon="11.9612639"><ele>276.0</ele><time>2026-04-10T08:43:59.728Z</time></trkpt><trkpt lat="43.2052724" lon="11.9611764"><ele>276.0</ele><time>2026-04-10T08:44:00.727Z</time></trkpt><trkpt lat="43.2051582" lon="11.9611089"><ele>276.0</ele><time>2026-04-10T08:44:01.727Z</time></trkpt><trkpt lat="43.205058" lon="11.9610732"><ele>276.0</ele><time>2026-04-10T08:44:02.727Z</time></trkpt><trkpt lat="43.2049801" lon="11.9610667"><ele>276.0</ele><time>2026-04-10T08:44:03.725Z</time></trkpt><trkpt lat="43.2048845" lon="11.9610622"><ele>276.0</ele><time>2026-04-10T08:44:05.729Z</time></trkpt><trkpt lat="43.2048263" lon="11.9610169"><ele>276.0</ele><time>2026-04-10T08:44:14.735Z</time></trkpt><trkpt lat="43.2048779" lon="11.9608987"><ele>276.0</ele><time>2026-04-10T08:44:17.728Z</time></trkpt><trkpt lat="43.2049393" lon="11.9608535"><ele>276.0</ele><time>2026-04-10T08:44:18.725Z</time></trkpt><trkpt lat="43.2050048" lon="11.960836"><ele>276.0</ele><time>2026-04-10T08:44:19.725Z</time></trkpt><trkpt lat="43.205084" lon="11.9608402"><ele>276.0</ele><time>2026-04-10T08:44:20.728Z</time></trkpt><trkpt lat="43.2051619" lon="11.9608507"><ele>276.0</ele><time>2026-04-10T08:44:21.728Z</time></trkpt><trkpt lat="43.2052317" lon="11.9608515"><ele>276.1666666666667</ele><time>2026-04-10T08:44:22.728Z</time></trkpt><trkpt lat="43.2053403" lon="11.9607854"><ele>276.3333333333333</ele><time>2026-04-10T08:44:24.727Z</time></trkpt><trkpt lat="43.2053796" lon="11.9607097"><ele>276.5</ele><time>2026-04-10T08:44:25.726Z</time></trkpt><trkpt lat="43.2054127" lon="11.9606117"><ele>276.66666666666663</ele><time>2026-04-10T08:44:26.725Z</time></trkpt><trkpt lat="43.2054444" lon="11.9605174"><ele>276.8333333333333</ele><time>2026-04-10T08:44:27.73Z</time></trkpt><trkpt lat="43.205468" lon="11.9604176"><ele>277.0</ele><time>2026-04-10T08:44:28.725Z</time></trkpt><trkpt lat="43.2054878" lon="11.9603221"><ele>277.0</ele><time>2026-04-10T08:44:29.73Z</time></trkpt><trkpt lat="43.2055012" lon="11.9602368"><ele>277.0</ele><time>2026-04-10T08:44:30.728Z</time></trkpt><trkpt lat="43.2054793" lon="11.9600861"><ele>277.0</ele><time>2026-04-10T08:44:32.729Z</time></trkpt><trkpt lat="43.2054371" lon="11.9600145"><ele>277.0</ele><time>2026-04-10T08:44:33.736Z</time></trkpt><trkpt lat="43.2053751" lon="11.9599488"><ele>277.0</ele><time>2026-04-10T08:44:34.725Z</time></trkpt><trkpt lat="43.2052997" lon="11.9598893"><ele>277.0</ele><time>2026-04-10T08:44:35.725Z</time></trkpt><trkpt lat="43.205212" lon="11.959824"><ele>277.6</ele><time>2026-04-10T08:44:36.726Z</time></trkpt><trkpt lat="43.2051238" lon="11.9597538"><ele>278.2</ele><time>2026-04-10T08:44:37.718Z</time></trkpt><trkpt lat="43.2050254" lon="11.9596828"><ele>278.8</ele><time>2026-04-10T08:44:38.726Z</time></trkpt><trkpt lat="43.2049257" lon="11.9596256"><ele>279.4</ele><time>2026-04-10T08:44:39.73Z</time></trkpt><trkpt lat="43.2048284" lon="11.9595728"><ele>280.0</ele><time>2026-04-10T08:44:40.725Z</time></trkpt><trkpt lat="43.2047332" lon="11.9595163"><ele>280.16666666666663</ele><time>2026-04-10T08:44:41.723Z</time></trkpt><trkpt lat="43.2046405" lon="11.9594551"><ele>280.3333333333333</ele><time>2026-04-10T08:44:42.722Z</time></trkpt><trkpt lat="43.2045549" lon="11.9593944"><ele>280.5</ele><time>2026-04-10T08:44:43.727Z</time></trkpt><trkpt lat="43.2044801" lon="11.9593395"><ele>280.6666666666667</ele><time>2026-04-10T08:44:44.722Z</time></trkpt><trkpt lat="43.2044137" lon="11.9592889"><ele>280.83333333333337</ele><time>2026-04-10T08:44:45.719Z</time></trkpt><trkpt lat="43.2043508" lon="11.9592278"><ele>281.0</ele><time>2026-04-10T08:44:46.731Z</time></trkpt><trkpt lat="43.2042843" lon="11.9591588"><ele>281.0</ele><time>2026-04-10T08:44:47.728Z</time></trkpt><trkpt lat="43.2042175" lon="11.9590798"><ele>281.0</ele><time>2026-04-10T08:44:48.731Z</time></trkpt><trkpt lat="43.204151" lon="11.9589859"><ele>281.0</ele><time>2026-04-10T08:44:49.725Z</time></trkpt><trkpt lat="43.2040787" lon="11.9588936"><ele>281.0</ele><time>2026-04-10T08:44:50.731Z</time></trkpt><trkpt lat="43.2039971" lon="11.9588096"><ele>281.0</ele><time>2026-04-10T08:44:51.725Z</time></trkpt><trkpt lat="43.2039" lon="11.9587302"><ele>280.75</ele><time>2026-04-10T08:44:52.727Z</time></trkpt><trkpt lat="43.2037918" lon="11.9586519"><ele>280.5</ele><time>2026-04-10T08:44:53.728Z</time></trkpt><trkpt lat="43.2036782" lon="11.9585783"><ele>280.25</ele><time>2026-04-10T08:44:54.728Z</time></trkpt><trkpt lat="43.2035622" lon="11.9585064"><ele>280.0</ele><time>2026-04-10T08:44:55.73Z</time></trkpt><trkpt lat="43.2034443" lon="11.9584291"><ele>280.2</ele><time>2026-04-10T08:44:56.721Z</time></trkpt><trkpt lat="43.2033293" lon="11.9583503"><ele>280.4</ele><time>2026-04-10T08:44:57.726Z</time></trkpt><trkpt lat="43.203227" lon="11.958276"><ele>280.6</ele><time>2026-04-10T08:44:58.728Z</time></trkpt><trkpt lat="43.2031411" lon="11.9582087"><ele>280.8</ele><time>2026-04-10T08:44:59.724Z</time></trkpt><trkpt lat="43.2030693" lon="11.9581538"><ele>281.0</ele><time>2026-04-10T08:45:00.724Z</time></trkpt><trkpt lat="43.2030035" lon="11.9581099"><ele>281.1666666666667</ele><time>2026-04-10T08:45:01.721Z</time></trkpt><trkpt lat="43.2029435" lon="11.9580825"><ele>281.33333333333337</ele><time>2026-04-10T08:45:02.724Z</time></trkpt><trkpt lat="43.2028786" lon="11.9580774"><ele>281.5</ele><time>2026-04-10T08:45:03.726Z</time></trkpt><trkpt lat="43.2027985" lon="11.9580963"><ele>281.6666666666667</ele><time>2026-04-10T08:45:04.729Z</time></trkpt><trkpt lat="43.202704" lon="11.9581419"><ele>281.8333333333333</ele><time>2026-04-10T08:45:05.73Z</time></trkpt><trkpt lat="43.202616" lon="11.9581841"><ele>282.0</ele><time>2026-04-10T08:45:06.729Z</time></trkpt><trkpt lat="43.2025159" lon="11.9582254"><ele>282.0</ele><time>2026-04-10T08:45:07.729Z</time></trkpt><trkpt lat="43.2024086" lon="11.9582698"><ele>282.0</ele><time>2026-04-10T08:45:08.724Z</time></trkpt><trkpt lat="43.2022941" lon="11.958309"><ele>282.0</ele><time>2026-04-10T08:45:09.728Z</time></trkpt><trkpt lat="43.202195" lon="11.9583455"><ele>282.0</ele><time>2026-04-10T08:45:10.725Z</time></trkpt><trkpt lat="43.2021207" lon="11.9583815"><ele>282.0</ele><time>2026-04-10T08:45:11.725Z</time></trkpt><trkpt lat="43.20204" lon="11.9584254"><ele>281.6666666666667</ele><time>2026-04-10T08:45:13.734Z</time></trkpt><trkpt lat="43.2019811" lon="11.9584697"><ele>281.3333333333333</ele><time>2026-04-10T08:45:22.724Z</time></trkpt><trkpt lat="43.2019029" lon="11.9585229"><ele>281.0</ele><time>2026-04-10T08:45:24.731Z</time></trkpt><trkpt lat="43.2018453" lon="11.9585621"><ele>280.66666666666663</ele><time>2026-04-10T08:45:25.725Z</time></trkpt><trkpt lat="43.201726" lon="11.958629"><ele>280.3333333333333</ele><time>2026-04-10T08:45:27.727Z</time></trkpt><trkpt lat="43.2016613" lon="11.9586719"><ele>280.0</ele><time>2026-04-10T08:45:28.73Z</time></trkpt><trkpt lat="43.2016012" lon="11.9587157"><ele>280.25</ele><time>2026-04-10T08:45:29.728Z</time></trkpt><trkpt lat="43.2014832" lon="11.9587887"><ele>280.5</ele><time>2026-04-10T08:45:31.727Z</time></trkpt><trkpt lat="43.2013785" lon="11.958866"><ele>280.75</ele><time>2026-04-10T08:45:33.727Z</time></trkpt><trkpt lat="43.2012684" lon="11.9589388"><ele>281.0</ele><time>2026-04-10T08:45:35.729Z</time></trkpt><trkpt lat="43.201187" lon="11.9590075"><ele>281.0</ele><time>2026-04-10T08:45:37.722Z</time></trkpt><trkpt lat="43.2011235" lon="11.9590708"><ele>281.0</ele><time>2026-04-10T08:45:40.726Z</time></trkpt><trkpt lat="43.2010641" lon="11.9591234"><ele>281.0</ele><time>2026-04-10T08:45:44.729Z</time></trkpt><trkpt lat="43.2009872" lon="11.9591863"><ele>281.0</ele><time>2026-04-10T08:45:46.723Z</time></trkpt><trkpt lat="43.200912" lon="11.9592696"><ele>281.0</ele><time>2026-04-10T08:45:48.729Z</time></trkpt><trkpt lat="43.2008382" lon="11.9593408"><ele>281.0</ele><time>2026-04-10T08:45:50.753Z</time></trkpt><trkpt lat="43.2007731" lon="11.9594032"><ele>281.0</ele><time>2026-04-10T08:45:52.727Z</time></trkpt><trkpt lat="43.2006923" lon="11.9595005"><ele>281.0</ele><time>2026-04-10T08:45:54.724Z</time></trkpt><trkpt lat="43.2006061" lon="11.9596008"><ele>281.0</ele><time>2026-04-10T08:45:56.727Z</time></trkpt><trkpt lat="43.200536" lon="11.9596627"><ele>281.0</ele><time>2026-04-10T08:45:58.771Z</time></trkpt><trkpt lat="43.2004775" lon="11.9597255"><ele>281.0</ele><time>2026-04-10T08:46:00.727Z</time></trkpt><trkpt lat="43.2003983" lon="11.9598221"><ele>280.6</ele><time>2026-04-10T08:46:02.727Z</time></trkpt><trkpt lat="43.2003259" lon="11.959899"><ele>280.20000000000005</ele><time>2026-04-10T08:46:04.726Z</time></trkpt><trkpt lat="43.2002415" lon="11.9599942"><ele>279.79999999999995</ele><time>2026-04-10T08:46:06.736Z</time></trkpt><trkpt lat="43.2001569" lon="11.9600941"><ele>279.4</ele><time>2026-04-10T08:46:08.734Z</time></trkpt><trkpt lat="43.2000754" lon="11.9601817"><ele>279.0</ele><time>2026-04-10T08:46:10.723Z</time></trkpt><trkpt lat="43.1999912" lon="11.9602355"><ele>279.0</ele><time>2026-04-10T08:46:12.728Z</time></trkpt><trkpt lat="43.1999258" lon="11.9602624"><ele>279.0</ele><time>2026-04-10T08:46:14.725Z</time></trkpt><trkpt lat="43.1998572" lon="11.9602646"><ele>279.0</ele><time>2026-04-10T08:46:16.724Z</time></trkpt><trkpt lat="43.1997666" lon="11.9602585"><ele>279.0</ele><time>2026-04-10T08:46:18.724Z</time></trkpt><trkpt lat="43.1996825" lon="11.9602484"><ele>279.0</ele><time>2026-04-10T08:46:20.722Z</time></trkpt><trkpt lat="43.1995648" lon="11.9602333"><ele>279.0</ele><time>2026-04-10T08:46:22.73Z</time></trkpt><trkpt lat="43.1994436" lon="11.9602154"><ele>279.4285714285714</ele><time>2026-04-10T08:46:24.729Z</time></trkpt><trkpt lat="43.1993798" lon="11.9602082"><ele>279.85714285714283</ele><time>2026-04-10T08:46:25.727Z</time></trkpt><trkpt lat="43.1993152" lon="11.9601967"><ele>280.2857142857143</ele><time>2026-04-10T08:46:26.726Z</time></trkpt><trkpt lat="43.1992468" lon="11.9601845"><ele>280.71428571428567</ele><time>2026-04-10T08:46:27.729Z</time></trkpt><trkpt lat="43.1991718" lon="11.9601704"><ele>281.1428571428571</ele><time>2026-04-10T08:46:28.725Z</time></trkpt><trkpt lat="43.1990981" lon="11.9601551"><ele>281.57142857142856</ele><time>2026-04-10T08:46:29.72Z</time></trkpt><trkpt lat="43.1990299" lon="11.9601427"><ele>282.0</ele><time>2026-04-10T08:46:30.722Z</time></trkpt><trkpt lat="43.1989632" lon="11.9601335"><ele>282.0</ele><time>2026-04-10T08:46:31.721Z</time></trkpt><trkpt lat="43.1988974" lon="11.9601279"><ele>282.0</ele><time>2026-04-10T08:46:32.724Z</time></trkpt><trkpt lat="43.198834" lon="11.9601343"><ele>282.0</ele><time>2026-04-10T08:46:33.721Z</time></trkpt><trkpt lat="43.1987672" lon="11.9601614"><ele>282.0</ele><time>2026-04-10T08:46:34.725Z</time></trkpt><trkpt lat="43.1986874" lon="11.9602136"><ele>282.0</ele><time>2026-04-10T08:46:35.723Z</time></trkpt><trkpt lat="43.198613" lon="11.960282"><ele>282.0</ele><time>2026-04-10T08:46:36.723Z</time></trkpt><trkpt lat="43.1985393" lon="11.9603507"><ele>282.0</ele><time>2026-04-10T08:46:37.728Z</time></trkpt><trkpt lat="43.1984629" lon="11.9604241"><ele>282.0</ele><time>2026-04-10T08:46:38.73Z</time></trkpt><trkpt lat="43.1983914" lon="11.9604943"><ele>282.0</ele><time>2026-04-10T08:46:39.721Z</time></trkpt><trkpt lat="43.1983195" lon="11.960568"><ele>282.0</ele><time>2026-04-10T08:46:40.724Z</time></trkpt><trkpt lat="43.1982423" lon="11.9606441"><ele>282.0</ele><time>2026-04-10T08:46:41.735Z</time></trkpt><trkpt lat="43.1981634" lon="11.9607229"><ele>282.1666666666667</ele><time>2026-04-10T08:46:42.723Z</time></trkpt><trkpt lat="43.1980926" lon="11.9607995"><ele>282.3333333333333</ele><time>2026-04-10T08:46:43.725Z</time></trkpt><trkpt lat="43.1980294" lon="11.9608647"><ele>282.5</ele><time>2026-04-10T08:46:44.727Z</time></trkpt><trkpt lat="43.1979721" lon="11.9609247"><ele>282.66666666666663</ele><time>2026-04-10T08:46:45.725Z</time></trkpt><trkpt lat="43.1979154" lon="11.9609787"><ele>282.8333333333333</ele><time>2026-04-10T08:46:46.725Z</time></trkpt><trkpt lat="43.1978171" lon="11.9610685"><ele>283.0</ele><time>2026-04-10T08:46:48.731Z</time></trkpt><trkpt lat="43.197719" lon="11.9611403"><ele>282.8333333333333</ele><time>2026-04-10T08:46:50.728Z</time></trkpt><trkpt lat="43.1976644" lon="11.9611894"><ele>282.66666666666663</ele><time>2026-04-10T08:46:51.726Z</time></trkpt><trkpt lat="43.1976091" lon="11.9612342"><ele>282.5</ele><time>2026-04-10T08:46:52.726Z</time></trkpt><trkpt lat="43.1975155" lon="11.9613238"><ele>282.3333333333333</ele><time>2026-04-10T08:46:54.716Z</time></trkpt><trkpt lat="43.1974243" lon="11.9614101"><ele>282.1666666666667</ele><time>2026-04-10T08:46:56.73Z</time></trkpt><trkpt lat="43.1973478" lon="11.9614741"><ele>282.0</ele><time>2026-04-10T08:46:58.722Z</time></trkpt><trkpt lat="43.197269" lon="11.9615388"><ele>282.0</ele><time>2026-04-10T08:47:00.724Z</time></trkpt><trkpt lat="43.1971683" lon="11.961604"><ele>282.0</ele><time>2026-04-10T08:47:02.732Z</time></trkpt><trkpt lat="43.1970732" lon="11.9616624"><ele>282.0</ele><time>2026-04-10T08:47:04.729Z</time></trkpt><trkpt lat="43.1970205" lon="11.9617107"><ele>282.0</ele><time>2026-04-10T08:47:05.726Z</time></trkpt><trkpt lat="43.1969619" lon="11.961771"><ele>282.0</ele><time>2026-04-10T08:47:06.725Z</time></trkpt><trkpt lat="43.1968898" lon="11.9618493"><ele>282.0</ele><time>2026-04-10T08:47:07.731Z</time></trkpt><trkpt lat="43.1968251" lon="11.9619245"><ele>282.4</ele><time>2026-04-10T08:47:08.727Z</time></trkpt><trkpt lat="43.196765" lon="11.9619901"><ele>282.79999999999995</ele><time>2026-04-10T08:47:09.722Z</time></trkpt><trkpt lat="43.1967085" lon="11.9620509"><ele>283.2</ele><time>2026-04-10T08:47:10.728Z</time></trkpt><trkpt lat="43.1966565" lon="11.9621035"><ele>283.59999999999997</ele><time>2026-04-10T08:47:11.724Z</time></trkpt><trkpt lat="43.1965812" lon="11.9622109"><ele>284.0</ele><time>2026-04-10T08:47:13.731Z</time></trkpt><trkpt lat="43.1965149" lon="11.9623654"><ele>284.0</ele><time>2026-04-10T08:47:15.723Z</time></trkpt><trkpt lat="43.1964813" lon="11.9624723"><ele>284.0</ele><time>2026-04-10T08:47:16.721Z</time></trkpt><trkpt lat="43.1964487" lon="11.9625651"><ele>284.0</ele><time>2026-04-10T08:47:17.732Z</time></trkpt><trkpt lat="43.1964115" lon="11.9626424"><ele>284.0</ele><time>2026-04-10T08:47:18.735Z</time></trkpt><trkpt lat="43.1963725" lon="11.962726"><ele>284.0</ele><time>2026-04-10T08:47:19.726Z</time></trkpt><trkpt lat="43.1963294" lon="11.9628173"><ele>284.0</ele><time>2026-04-10T08:47:20.721Z</time></trkpt><trkpt lat="43.1962872" lon="11.9629048"><ele>283.85714285714283</ele><time>2026-04-10T08:47:21.723Z</time></trkpt><trkpt lat="43.1962445" lon="11.9629903"><ele>283.71428571428567</ele><time>2026-04-10T08:47:22.729Z</time></trkpt><trkpt lat="43.1962051" lon="11.9630751"><ele>283.57142857142856</ele><time>2026-04-10T08:47:23.725Z</time></trkpt><trkpt lat="43.1961632" lon="11.9631679"><ele>283.42857142857144</ele><time>2026-04-10T08:47:24.724Z</time></trkpt><trkpt lat="43.1961219" lon="11.9632615"><ele>283.28571428571433</ele><time>2026-04-10T08:47:25.734Z</time></trkpt><trkpt lat="43.196084" lon="11.963341"><ele>283.14285714285717</ele><time>2026-04-10T08:47:26.726Z</time></trkpt><trkpt lat="43.1960466" lon="11.9634168"><ele>283.0</ele><time>2026-04-10T08:47:27.727Z</time></trkpt><trkpt lat="43.1960091" lon="11.9634934"><ele>282.8333333333333</ele><time>2026-04-10T08:47:28.723Z</time></trkpt><trkpt lat="43.1959762" lon="11.9635725"><ele>282.66666666666663</ele><time>2026-04-10T08:47:29.724Z</time></trkpt><trkpt lat="43.195941" lon="11.9636508"><ele>282.5</ele><time>2026-04-10T08:47:30.726Z</time></trkpt><trkpt lat="43.1959021" lon="11.9637239"><ele>282.3333333333333</ele><time>2026-04-10T08:47:31.73Z</time></trkpt><trkpt lat="43.195836" lon="11.963865"><ele>282.1666666666667</ele><time>2026-04-10T08:47:33.719Z</time></trkpt><trkpt lat="43.1957947" lon="11.9639524"><ele>282.0</ele><time>2026-04-10T08:47:34.724Z</time></trkpt><trkpt lat="43.1957531" lon="11.9640411"><ele>282.0</ele><time>2026-04-10T08:47:35.724Z</time></trkpt><trkpt lat="43.1957026" lon="11.9641367"><ele>282.0</ele><time>2026-04-10T08:47:36.73Z</time></trkpt><trkpt lat="43.1956564" lon="11.9642328"><ele>282.0</ele><time>2026-04-10T08:47:37.732Z</time></trkpt><trkpt lat="43.1956059" lon="11.9643295"><ele>282.0</ele><time>2026-04-10T08:47:38.724Z</time></trkpt><trkpt lat="43.1955575" lon="11.9644176"><ele>282.0</ele><time>2026-04-10T08:47:39.727Z</time></trkpt><trkpt lat="43.1955125" lon="11.9644961"><ele>282.0</ele><time>2026-04-10T08:47:40.722Z</time></trkpt><trkpt lat="43.1954697" lon="11.9645775"><ele>282.2857142857143</ele><time>2026-04-10T08:47:41.728Z</time></trkpt><trkpt lat="43.1954206" lon="11.964659"><ele>282.57142857142856</ele><time>2026-04-10T08:47:42.725Z</time></trkpt><trkpt lat="43.1953737" lon="11.9647398"><ele>282.85714285714283</ele><time>2026-04-10T08:47:43.722Z</time></trkpt><trkpt lat="43.1953315" lon="11.9648104"><ele>283.1428571428571</ele><time>2026-04-10T08:47:44.724Z</time></trkpt><trkpt lat="43.1952933" lon="11.9648798"><ele>283.4285714285714</ele><time>2026-04-10T08:47:45.731Z</time></trkpt><trkpt lat="43.1952522" lon="11.9649583"><ele>283.7142857142857</ele><time>2026-04-10T08:47:46.726Z</time></trkpt><trkpt lat="43.1952047" lon="11.96504"><ele>284.0</ele><time>2026-04-10T08:47:47.723Z</time></trkpt><trkpt lat="43.1951518" lon="11.9651264"><ele>284.0</ele><time>2026-04-10T08:47:48.73Z</time></trkpt><trkpt lat="43.1950901" lon="11.9652203"><ele>284.0</ele><time>2026-04-10T08:47:49.723Z</time></trkpt><trkpt lat="43.1950163" lon="11.9653218"><ele>284.0</ele><time>2026-04-10T08:47:50.725Z</time></trkpt><trkpt lat="43.1949349" lon="11.9654266"><ele>284.0</ele><time>2026-04-10T08:47:51.726Z</time></trkpt><trkpt lat="43.1948497" lon="11.9655284"><ele>284.0</ele><time>2026-04-10T08:47:52.721Z</time></trkpt><trkpt lat="43.1947544" lon="11.9656221"><ele>284.0</ele><time>2026-04-10T08:47:53.721Z</time></trkpt><trkpt lat="43.1946516" lon="11.9657102"><ele>284.0</ele><time>2026-04-10T08:47:54.728Z</time></trkpt><trkpt lat="43.1945427" lon="11.9657963"><ele>284.0</ele><time>2026-04-10T08:47:55.732Z</time></trkpt><trkpt lat="43.1944371" lon="11.9658743"><ele>284.0</ele><time>2026-04-10T08:47:56.724Z</time></trkpt><trkpt lat="43.1943419" lon="11.9659429"><ele>283.83333333333337</ele><time>2026-04-10T08:47:57.726Z</time></trkpt><trkpt lat="43.1942607" lon="11.9660061"><ele>283.6666666666667</ele><time>2026-04-10T08:47:58.729Z</time></trkpt><trkpt lat="43.1941927" lon="11.9660555"><ele>283.5</ele><time>2026-04-10T08:47:59.73Z</time></trkpt><trkpt lat="43.194132" lon="11.966102"><ele>283.3333333333333</ele><time>2026-04-10T08:48:00.728Z</time></trkpt><trkpt lat="43.1940625" lon="11.9661528"><ele>283.16666666666663</ele><time>2026-04-10T08:48:02.725Z</time></trkpt><trkpt lat="43.193974" lon="11.9661546"><ele>283.0</ele><time>2026-04-10T08:48:05.726Z</time></trkpt><trkpt lat="43.193915" lon="11.966102"><ele>283.8</ele><time>2026-04-10T08:48:49.73Z</time></trkpt><trkpt lat="43.1938531" lon="11.9660101"><ele>284.6</ele><time>2026-04-10T08:48:51.731Z</time></trkpt><trkpt lat="43.1938323" lon="11.9659209"><ele>285.4</ele><time>2026-04-10T08:48:52.727Z</time></trkpt><trkpt lat="43.1938321" lon="11.9658084"><ele>286.2</ele><time>2026-04-10T08:48:53.729Z</time></trkpt><trkpt lat="43.1938534" lon="11.9656663"><ele>287.0</ele><time>2026-04-10T08:48:54.729Z</time></trkpt><trkpt lat="43.1938877" lon="11.9655221"><ele>287.25</ele><time>2026-04-10T08:48:55.72Z</time></trkpt><trkpt lat="43.1939311" lon="11.9653765"><ele>287.5</ele><time>2026-04-10T08:48:56.728Z</time></trkpt><trkpt lat="43.193976" lon="11.9652297"><ele>287.75</ele><time>2026-04-10T08:48:57.727Z</time></trkpt><trkpt lat="43.1940178" lon="11.9650813"><ele>288.0</ele><time>2026-04-10T08:48:58.729Z</time></trkpt><trkpt lat="43.1940581" lon="11.9649345"><ele>287.25</ele><time>2026-04-10T08:48:59.729Z</time></trkpt><trkpt lat="43.1940997" lon="11.9647797"><ele>286.5</ele><time>2026-04-10T08:49:00.729Z</time></trkpt><trkpt lat="43.1941401" lon="11.9646212"><ele>285.75</ele><time>2026-04-10T08:49:01.725Z</time></trkpt><trkpt lat="43.1941795" lon="11.9644687"><ele>285.0</ele><time>2026-04-10T08:49:02.721Z</time></trkpt><trkpt lat="43.1942186" lon="11.9643262"><ele>285.6</ele><time>2026-04-10T08:49:03.718Z</time></trkpt><trkpt lat="43.1942542" lon="11.9641831"><ele>286.2</ele><time>2026-04-10T08:49:04.738Z</time></trkpt><trkpt lat="43.1942869" lon="11.9640477"><ele>286.8</ele><time>2026-04-10T08:49:05.725Z</time></trkpt><trkpt lat="43.1943187" lon="11.9639318"><ele>287.4</ele><time>2026-04-10T08:49:06.731Z</time></trkpt><trkpt lat="43.1943366" lon="11.9638307"><ele>288.0</ele><time>2026-04-10T08:49:07.721Z</time></trkpt><trkpt lat="43.1943358" lon="11.9637234"><ele>288.0</ele><time>2026-04-10T08:49:09.724Z</time></trkpt><trkpt lat="43.1942823" lon="11.96366"><ele>288.0</ele><time>2026-04-10T08:49:11.73Z</time></trkpt><trkpt lat="43.194209" lon="11.9635849"><ele>288.0</ele><time>2026-04-10T08:49:13.719Z</time></trkpt><trkpt lat="43.1941205" lon="11.9635195"><ele>288.0</ele><time>2026-04-10T08:49:15.723Z</time></trkpt><trkpt lat="43.1940545" lon="11.9634497"><ele>288.0</ele><time>2026-04-10T08:49:17.723Z</time></trkpt><trkpt lat="43.1939961" lon="11.9633758"><ele>288.0</ele><time>2026-04-10T08:49:19.724Z</time></trkpt><trkpt lat="43.1939315" lon="11.9632646"><ele>288.8333333333333</ele><time>2026-04-10T08:49:21.727Z</time></trkpt><trkpt lat="43.1938683" lon="11.96316"><ele>289.6666666666667</ele><time>2026-04-10T08:49:23.727Z</time></trkpt><trkpt lat="43.1938239" lon="11.9630469"><ele>290.5</ele><time>2026-04-10T08:49:25.724Z</time></trkpt><trkpt lat="43.1938124" lon="11.9629178"><ele>291.33333333333337</ele><time>2026-04-10T08:49:27.727Z</time></trkpt><trkpt lat="43.1937851" lon="11.9628023"><ele>292.1666666666667</ele><time>2026-04-10T08:49:29.72Z</time></trkpt><trkpt lat="43.1937232" lon="11.9627484"><ele>293.0</ele><time>2026-04-10T08:49:31.721Z</time></trkpt><trkpt lat="43.1936288" lon="11.9626985"><ele>293.0</ele><time>2026-04-10T08:49:33.731Z</time></trkpt><trkpt lat="43.1935425" lon="11.9626102"><ele>293.0</ele><time>2026-04-10T08:49:35.724Z</time></trkpt><trkpt lat="43.1934627" lon="11.9624799"><ele>293.0</ele><time>2026-04-10T08:49:37.722Z</time></trkpt><trkpt lat="43.1934214" lon="11.9624091"><ele>293.0</ele><time>2026-04-10T08:49:38.725Z</time></trkpt><trkpt lat="43.1933722" lon="11.9623316"><ele>293.0</ele><time>2026-04-10T08:49:39.723Z</time></trkpt><trkpt lat="43.1933241" lon="11.9622464"><ele>292.83333333333337</ele><time>2026-04-10T08:49:40.721Z</time></trkpt><trkpt lat="43.1932738" lon="11.9621543"><ele>292.6666666666667</ele><time>2026-04-10T08:49:41.724Z</time></trkpt><trkpt lat="43.1932166" lon="11.962058"><ele>292.5</ele><time>2026-04-10T08:49:42.724Z</time></trkpt><trkpt lat="43.1931618" lon="11.9619607"><ele>292.3333333333333</ele><time>2026-04-10T08:49:43.726Z</time></trkpt><trkpt lat="43.1931139" lon="11.9618675"><ele>292.16666666666663</ele><time>2026-04-10T08:49:44.724Z</time></trkpt><trkpt lat="43.1930614" lon="11.9617751"><ele>292.0</ele><time>2026-04-10T08:49:45.73Z</time></trkpt><trkpt lat="43.1930067" lon="11.9616796"><ele>291.16666666666663</ele><time>2026-04-10T08:49:46.734Z</time></trkpt><trkpt lat="43.1929547" lon="11.9615823"><ele>290.3333333333333</ele><time>2026-04-10T08:49:47.73Z</time></trkpt><trkpt lat="43.1929046" lon="11.9614899"><ele>289.5</ele><time>2026-04-10T08:49:48.719Z</time></trkpt><trkpt lat="43.1928521" lon="11.9613967"><ele>288.6666666666667</ele><time>2026-04-10T08:49:49.722Z</time></trkpt><trkpt lat="43.1927969" lon="11.9612923"><ele>287.83333333333337</ele><time>2026-04-10T08:49:50.725Z</time></trkpt><trkpt lat="43.1927377" lon="11.96119"><ele>287.0</ele><time>2026-04-10T08:49:51.726Z</time></trkpt><trkpt lat="43.1926761" lon="11.9610841"><ele>287.0</ele><time>2026-04-10T08:49:52.735Z</time></trkpt><trkpt lat="43.1926165" lon="11.9609793"><ele>287.0</ele><time>2026-04-10T08:49:53.723Z</time></trkpt><trkpt lat="43.1925638" lon="11.9608802"><ele>287.0</ele><time>2026-04-10T08:49:54.726Z</time></trkpt><trkpt lat="43.1925071" lon="11.9607836"><ele>287.0</ele><time>2026-04-10T08:49:55.727Z</time></trkpt><trkpt lat="43.1924551" lon="11.9606863"><ele>287.0</ele><time>2026-04-10T08:49:56.725Z</time></trkpt><trkpt lat="43.1923998" lon="11.9605863"><ele>286.83333333333337</ele><time>2026-04-10T08:49:57.728Z</time></trkpt><trkpt lat="43.1923474" lon="11.9604922"><ele>286.6666666666667</ele><time>2026-04-10T08:49:58.729Z</time></trkpt><trkpt lat="43.192293" lon="11.9603997"><ele>286.5</ele><time>2026-04-10T08:49:59.729Z</time></trkpt><trkpt lat="43.1922416" lon="11.9603043"><ele>286.3333333333333</ele><time>2026-04-10T08:50:00.726Z</time></trkpt><trkpt lat="43.1921852" lon="11.9602073"><ele>286.16666666666663</ele><time>2026-04-10T08:50:01.725Z</time></trkpt><trkpt lat="43.1921269" lon="11.9601048"><ele>286.0</ele><time>2026-04-10T08:50:02.725Z</time></trkpt><trkpt lat="43.1920652" lon="11.9600089"><ele>286.8</ele><time>2026-04-10T08:50:03.727Z</time></trkpt><trkpt lat="43.1920025" lon="11.9599006"><ele>287.6</ele><time>2026-04-10T08:50:04.727Z</time></trkpt><trkpt lat="43.1919443" lon="11.9597936"><ele>288.4</ele><time>2026-04-10T08:50:05.727Z</time></trkpt><trkpt lat="43.1918834" lon="11.9596879"><ele>289.2</ele><time>2026-04-10T08:50:06.722Z</time></trkpt><trkpt lat="43.1918264" lon="11.9595878"><ele>290.0</ele><time>2026-04-10T08:50:07.728Z</time></trkpt><trkpt lat="43.1917701" lon="11.9594872"><ele>290.0</ele><time>2026-04-10T08:50:08.727Z</time></trkpt><trkpt lat="43.1917146" lon="11.959389"><ele>290.0</ele><time>2026-04-10T08:50:09.724Z</time></trkpt><trkpt lat="43.1916581" lon="11.9592924"><ele>290.0</ele><time>2026-04-10T08:50:10.728Z</time></trkpt><trkpt lat="43.1916039" lon="11.9591902"><ele>290.0</ele><time>2026-04-10T08:50:11.719Z</time></trkpt><trkpt lat="43.1915472" lon="11.9590838"><ele>290.0</ele><time>2026-04-10T08:50:12.723Z</time></trkpt><trkpt lat="43.1914947" lon="11.9589878"><ele>290.0</ele><time>2026-04-10T08:50:13.717Z</time></trkpt><trkpt lat="43.1914502" lon="11.9589008"><ele>290.0</ele><time>2026-04-10T08:50:14.724Z</time></trkpt><trkpt lat="43.1914054" lon="11.9588305"><ele>290.0</ele><time>2026-04-10T08:50:15.727Z</time></trkpt><trkpt lat="43.1913375" lon="11.9587063"><ele>290.0</ele><time>2026-04-10T08:50:17.73Z</time></trkpt><trkpt lat="43.1912975" lon="11.9586213"><ele>290.0</ele><time>2026-04-10T08:50:19.23Z</time></trkpt><trkpt lat="43.1913224" lon="11.958506"><ele>290.0</ele><time>2026-04-10T08:50:22.235Z</time></trkpt><trkpt lat="43.1914039" lon="11.9584285"><ele>290.6666666666667</ele><time>2026-04-10T08:50:24.229Z</time></trkpt><trkpt lat="43.191508" lon="11.9583315"><ele>291.33333333333337</ele><time>2026-04-10T08:50:26.225Z</time></trkpt><trkpt lat="43.1915632" lon="11.9582806"><ele>292.0</ele><time>2026-04-10T08:50:27.235Z</time></trkpt><trkpt lat="43.1916173" lon="11.958224"><ele>292.6666666666667</ele><time>2026-04-10T08:50:28.225Z</time></trkpt><trkpt lat="43.1916717" lon="11.9581726"><ele>293.3333333333333</ele><time>2026-04-10T08:50:29.234Z</time></trkpt><trkpt lat="43.1917713" lon="11.958079"><ele>294.0</ele><time>2026-04-10T08:50:31.232Z</time></trkpt><trkpt lat="43.1918261" lon="11.958026"><ele>294.0</ele><time>2026-04-10T08:50:32.23Z</time></trkpt><trkpt lat="43.1918847" lon="11.9579727"><ele>294.0</ele><time>2026-04-10T08:50:33.232Z</time></trkpt><trkpt lat="43.1919379" lon="11.9579217"><ele>294.0</ele><time>2026-04-10T08:50:34.233Z</time></trkpt><trkpt lat="43.1919889" lon="11.9578652"><ele>294.0</ele><time>2026-04-10T08:50:35.226Z</time></trkpt><trkpt lat="43.1920429" lon="11.9578117"><ele>294.0</ele><time>2026-04-10T08:50:36.229Z</time></trkpt><trkpt lat="43.1921253" lon="11.9577208"><ele>294.0</ele><time>2026-04-10T08:50:38.229Z</time></trkpt><trkpt lat="43.1922114" lon="11.957664"><ele>294.0</ele><time>2026-04-10T08:50:40.231Z</time></trkpt><trkpt lat="43.1923248" lon="11.9576628"><ele>294.0</ele><time>2026-04-10T08:50:42.23Z</time></trkpt><trkpt lat="43.1924295" lon="11.9576952"><ele>294.0</ele><time>2026-04-10T08:50:44.228Z</time></trkpt><trkpt lat="43.1925204" lon="11.9577216"><ele>294.0</ele><time>2026-04-10T08:50:46.232Z</time></trkpt><trkpt lat="43.1925831" lon="11.9577116"><ele>294.0</ele><time>2026-04-10T08:50:48.231Z</time></trkpt><trkpt lat="43.1926275" lon="11.9576252"><ele>293.85714285714283</ele><time>2026-04-10T08:50:50.225Z</time></trkpt><trkpt lat="43.1926412" lon="11.9575224"><ele>293.7142857142857</ele><time>2026-04-10T08:50:51.22Z</time></trkpt><trkpt lat="43.1926528" lon="11.9574121"><ele>293.57142857142856</ele><time>2026-04-10T08:50:52.228Z</time></trkpt><trkpt lat="43.1926638" lon="11.9573192"><ele>293.42857142857144</ele><time>2026-04-10T08:50:53.23Z</time></trkpt><trkpt lat="43.1926723" lon="11.9572226"><ele>293.2857142857143</ele><time>2026-04-10T08:50:54.228Z</time></trkpt><trkpt lat="43.192683" lon="11.9571218"><ele>293.1428571428571</ele><time>2026-04-10T08:50:55.222Z</time></trkpt><trkpt lat="43.1926965" lon="11.9570262"><ele>293.0</ele><time>2026-04-10T08:50:56.231Z</time></trkpt><trkpt lat="43.1927117" lon="11.9569295"><ele>293.0</ele><time>2026-04-10T08:50:57.23Z</time></trkpt><trkpt lat="43.1927223" lon="11.9568441"><ele>293.0</ele><time>2026-04-10T08:50:58.228Z</time></trkpt><trkpt lat="43.1927528" lon="11.9567009"><ele>293.0</ele><time>2026-04-10T08:51:00.228Z</time></trkpt><trkpt lat="43.1927985" lon="11.9565804"><ele>293.0</ele><time>2026-04-10T08:51:02.228Z</time></trkpt><trkpt lat="43.1929009" lon="11.9565027"><ele>293.0</ele><time>2026-04-10T08:51:04.231Z</time></trkpt><trkpt lat="43.1929638" lon="11.9564754"><ele>293.6</ele><time>2026-04-10T08:51:05.226Z</time></trkpt><trkpt lat="43.1930673" lon="11.9564037"><ele>294.20000000000005</ele><time>2026-04-10T08:51:07.231Z</time></trkpt><trkpt lat="43.1931424" lon="11.9562994"><ele>294.8</ele><time>2026-04-10T08:51:09.237Z</time></trkpt><trkpt lat="43.1932091" lon="11.9561629"><ele>295.40000000000003</ele><time>2026-04-10T08:51:11.221Z</time></trkpt><trkpt lat="43.1932244" lon="11.9560192"><ele>296.0</ele><time>2026-04-10T08:51:13.227Z</time></trkpt><trkpt lat="43.1932143" lon="11.9559245"><ele>296.2</ele><time>2026-04-10T08:51:14.224Z</time></trkpt><trkpt lat="43.1931908" lon="11.9558189"><ele>296.40000000000003</ele><time>2026-04-10T08:51:15.226Z</time></trkpt><trkpt lat="43.1931707" lon="11.9556979"><ele>296.6</ele><time>2026-04-10T08:51:16.227Z</time></trkpt><trkpt lat="43.193158" lon="11.9555662"><ele>296.8</ele><time>2026-04-10T08:51:17.222Z</time></trkpt><trkpt lat="43.1931475" lon="11.955428"><ele>297.0</ele><time>2026-04-10T08:51:18.234Z</time></trkpt><trkpt lat="43.1931456" lon="11.9552844"><ele>297.0</ele><time>2026-04-10T08:51:19.223Z</time></trkpt><trkpt lat="43.1931581" lon="11.9551313"><ele>297.0</ele><time>2026-04-10T08:51:20.234Z</time></trkpt><trkpt lat="43.1931798" lon="11.9549749"><ele>297.0</ele><time>2026-04-10T08:51:21.231Z</time></trkpt><trkpt lat="43.193205" lon="11.9548309"><ele>297.0</ele><time>2026-04-10T08:51:22.223Z</time></trkpt><trkpt lat="43.1932335" lon="11.9546999"><ele>297.0</ele><time>2026-04-10T08:51:23.229Z</time></trkpt><trkpt lat="43.1932539" lon="11.954573"><ele>297.1666666666667</ele><time>2026-04-10T08:51:24.233Z</time></trkpt><trkpt lat="43.193278" lon="11.9544614"><ele>297.3333333333333</ele><time>2026-04-10T08:51:25.232Z</time></trkpt><trkpt lat="43.1932977" lon="11.9543623"><ele>297.5</ele><time>2026-04-10T08:51:26.224Z</time></trkpt><trkpt lat="43.1933098" lon="11.9542767"><ele>297.66666666666663</ele><time>2026-04-10T08:51:27.23Z</time></trkpt><trkpt lat="43.1933126" lon="11.9541731"><ele>297.8333333333333</ele><time>2026-04-10T08:51:29.227Z</time></trkpt><trkpt lat="43.1932663" lon="11.9541129"><ele>298.0</ele><time>2026-04-10T08:51:31.227Z</time></trkpt><trkpt lat="43.1931488" lon="11.9540869"><ele>298.2</ele><time>2026-04-10T08:51:33.227Z</time></trkpt><trkpt lat="43.1930762" lon="11.9540718"><ele>298.4</ele><time>2026-04-10T08:51:34.234Z</time></trkpt><trkpt lat="43.1929888" lon="11.9540668"><ele>298.59999999999997</ele><time>2026-04-10T08:51:35.229Z</time></trkpt><trkpt lat="43.1928864" lon="11.9540598"><ele>298.8</ele><time>2026-04-10T08:51:36.22Z</time></trkpt><trkpt lat="43.192758" lon="11.9540385"><ele>299.0</ele><time>2026-04-10T08:51:37.23Z</time></trkpt><trkpt lat="43.1925984" lon="11.9540076"><ele>299.0</ele><time>2026-04-10T08:51:38.223Z</time></trkpt><trkpt lat="43.1924146" lon="11.9539733"><ele>299.0</ele><time>2026-04-10T08:51:39.226Z</time></trkpt><trkpt lat="43.1922183" lon="11.9539354"><ele>299.0</ele><time>2026-04-10T08:51:40.228Z</time></trkpt><trkpt lat="43.192011" lon="11.9538906"><ele>299.33333333333337</ele><time>2026-04-10T08:51:41.229Z</time></trkpt><trkpt lat="43.1918157" lon="11.9538538"><ele>299.6666666666667</ele><time>2026-04-10T08:51:42.226Z</time></trkpt><trkpt lat="43.1916214" lon="11.953819"><ele>300.0</ele><time>2026-04-10T08:51:43.229Z</time></trkpt><trkpt lat="43.1914272" lon="11.9537845"><ele>300.0</ele><time>2026-04-10T08:51:44.232Z</time></trkpt><trkpt lat="43.1912424" lon="11.9537514"><ele>300.0</ele><time>2026-04-10T08:51:45.228Z</time></trkpt><trkpt lat="43.1910621" lon="11.953722"><ele>300.0</ele><time>2026-04-10T08:51:46.226Z</time></trkpt><trkpt lat="43.1908793" lon="11.9536894"><ele>300.0</ele><time>2026-04-10T08:51:47.225Z</time></trkpt><trkpt lat="43.1906899" lon="11.9536579"><ele>300.0</ele><time>2026-04-10T08:51:48.229Z</time></trkpt><trkpt lat="43.1905056" lon="11.9536269"><ele>300.0</ele><time>2026-04-10T08:51:49.227Z</time></trkpt><trkpt lat="43.190334" lon="11.953599"><ele>299.75</ele><time>2026-04-10T08:51:50.228Z</time></trkpt><trkpt lat="43.1901764" lon="11.9535705"><ele>299.5</ele><time>2026-04-10T08:51:51.229Z</time></trkpt><trkpt lat="43.1900276" lon="11.9535481"><ele>299.25</ele><time>2026-04-10T08:51:52.228Z</time></trkpt><trkpt lat="43.1898939" lon="11.9535205"><ele>299.0</ele><time>2026-04-10T08:51:53.23Z</time></trkpt><trkpt lat="43.1897708" lon="11.953495"><ele>299.5</ele><time>2026-04-10T08:51:54.234Z</time></trkpt><trkpt lat="43.1896497" lon="11.9534721"><ele>300.0</ele><time>2026-04-10T08:51:55.23Z</time></trkpt><trkpt lat="43.1895187" lon="11.9534574"><ele>300.5</ele><time>2026-04-10T08:51:56.228Z</time></trkpt><trkpt lat="43.1893705" lon="11.9534559"><ele>301.0</ele><time>2026-04-10T08:51:57.229Z</time></trkpt><trkpt lat="43.1892259" lon="11.9534604"><ele>301.0</ele><time>2026-04-10T08:51:58.226Z</time></trkpt><trkpt lat="43.1890933" lon="11.9534692"><ele>301.0</ele><time>2026-04-10T08:51:59.232Z</time></trkpt><trkpt lat="43.188968" lon="11.9534799"><ele>301.0</ele><time>2026-04-10T08:52:00.23Z</time></trkpt><trkpt lat="43.1888491" lon="11.9534884"><ele>301.0</ele><time>2026-04-10T08:52:01.224Z</time></trkpt><trkpt lat="43.1887397" lon="11.9534962"><ele>301.25</ele><time>2026-04-10T08:52:02.232Z</time></trkpt><trkpt lat="43.1886259" lon="11.9535127"><ele>301.5</ele><time>2026-04-10T08:52:03.231Z</time></trkpt><trkpt lat="43.1885052" lon="11.9535269"><ele>301.75</ele><time>2026-04-10T08:52:04.231Z</time></trkpt><trkpt lat="43.1883698" lon="11.9535419"><ele>302.0</ele><time>2026-04-10T08:52:05.23Z</time></trkpt><trkpt lat="43.1882234" lon="11.9535582"><ele>301.5</ele><time>2026-04-10T08:52:06.227Z</time></trkpt><trkpt lat="43.188082" lon="11.9535727"><ele>301.0</ele><time>2026-04-10T08:52:07.226Z</time></trkpt><trkpt lat="43.1879513" lon="11.9535879"><ele>300.5</ele><time>2026-04-10T08:52:08.225Z</time></trkpt><trkpt lat="43.1878268" lon="11.9535989"><ele>300.0</ele><time>2026-04-10T08:52:09.224Z</time></trkpt><trkpt lat="43.1877131" lon="11.9536105"><ele>300.0</ele><time>2026-04-10T08:52:10.232Z</time></trkpt><trkpt lat="43.1876136" lon="11.9536179"><ele>300.0</ele><time>2026-04-10T08:52:11.227Z</time></trkpt><trkpt lat="43.1875339" lon="11.9536293"><ele>300.0</ele><time>2026-04-10T08:52:12.226Z</time></trkpt><trkpt lat="43.187455" lon="11.9536439"><ele>300.0</ele><time>2026-04-10T08:52:13.229Z</time></trkpt><trkpt lat="43.1873628" lon="11.9536535"><ele>300.0</ele><time>2026-04-10T08:52:14.228Z</time></trkpt><trkpt lat="43.1872561" lon="11.9536684"><ele>300.5</ele><time>2026-04-10T08:52:15.234Z</time></trkpt><trkpt lat="43.1871349" lon="11.9536831"><ele>301.0</ele><time>2026-04-10T08:52:16.23Z</time></trkpt><trkpt lat="43.1869905" lon="11.953692"><ele>301.5</ele><time>2026-04-10T08:52:17.23Z</time></trkpt><trkpt lat="43.1868342" lon="11.9537099"><ele>302.0</ele><time>2026-04-10T08:52:18.229Z</time></trkpt><trkpt lat="43.1866925" lon="11.9537297"><ele>302.0</ele><time>2026-04-10T08:52:19.232Z</time></trkpt><trkpt lat="43.1865626" lon="11.953744"><ele>302.0</ele><time>2026-04-10T08:52:20.234Z</time></trkpt><trkpt lat="43.1864448" lon="11.9537575"><ele>302.0</ele><time>2026-04-10T08:52:21.228Z</time></trkpt><trkpt lat="43.1863401" lon="11.9537702"><ele>302.0</ele><time>2026-04-10T08:52:22.23Z</time></trkpt><trkpt lat="43.1862546" lon="11.9537784"><ele>302.0</ele><time>2026-04-10T08:52:23.232Z</time></trkpt><trkpt lat="43.1861878" lon="11.9537841"><ele>301.8</ele><time>2026-04-10T08:52:24.222Z</time></trkpt><trkpt lat="43.186076" lon="11.9538023"><ele>301.6</ele><time>2026-04-10T08:52:26.233Z</time></trkpt><trkpt lat="43.1859495" lon="11.9538127"><ele>301.40000000000003</ele><time>2026-04-10T08:52:28.221Z</time></trkpt><trkpt lat="43.1858695" lon="11.953817"><ele>301.2</ele><time>2026-04-10T08:52:29.232Z</time></trkpt><trkpt lat="43.1857776" lon="11.9538126"><ele>301.0</ele><time>2026-04-10T08:52:30.221Z</time></trkpt><trkpt lat="43.1856831" lon="11.953807"><ele>300.8</ele><time>2026-04-10T08:52:31.22Z</time></trkpt><trkpt lat="43.1855768" lon="11.9537978"><ele>300.6</ele><time>2026-04-10T08:52:32.222Z</time></trkpt><trkpt lat="43.1854658" lon="11.9537857"><ele>300.4</ele><time>2026-04-10T08:52:33.232Z</time></trkpt><trkpt lat="43.1853495" lon="11.9537747"><ele>300.2</ele><time>2026-04-10T08:52:34.23Z</time></trkpt><trkpt lat="43.1852351" lon="11.9537685"><ele>300.0</ele><time>2026-04-10T08:52:35.232Z</time></trkpt><trkpt lat="43.185121" lon="11.9537582"><ele>300.0</ele><time>2026-04-10T08:52:36.229Z</time></trkpt><trkpt lat="43.1850139" lon="11.9537462"><ele>300.0</ele><time>2026-04-10T08:52:37.235Z</time></trkpt><trkpt lat="43.184926" lon="11.9537323"><ele>300.0</ele><time>2026-04-10T08:52:38.237Z</time></trkpt><trkpt lat="43.1848287" lon="11.9537178"><ele>300.0</ele><time>2026-04-10T08:52:39.23Z</time></trkpt><trkpt lat="43.1847345" lon="11.9537035"><ele>300.0</ele><time>2026-04-10T08:52:40.224Z</time></trkpt><trkpt lat="43.1846513" lon="11.9536883"><ele>300.4</ele><time>2026-04-10T08:52:41.23Z</time></trkpt><trkpt lat="43.1845779" lon="11.9536806"><ele>300.8</ele><time>2026-04-10T08:52:42.226Z</time></trkpt><trkpt lat="43.1845132" lon="11.9536751"><ele>301.2</ele><time>2026-04-10T08:52:43.22Z</time></trkpt><trkpt lat="43.184407" lon="11.9536824"><ele>301.6</ele><time>2026-04-10T08:52:45.233Z</time></trkpt><trkpt lat="43.184347" lon="11.9537549"><ele>302.0</ele><time>2026-04-10T08:52:47.222Z</time></trkpt><trkpt lat="43.1842779" lon="11.9539213"><ele>302.0</ele><time>2026-04-10T08:52:49.232Z</time></trkpt><trkpt lat="43.1842398" lon="11.9540333"><ele>302.0</ele><time>2026-04-10T08:52:50.228Z</time></trkpt><trkpt lat="43.184189" lon="11.9541554"><ele>302.0</ele><time>2026-04-10T08:52:51.23Z</time></trkpt><trkpt lat="43.1841291" lon="11.9542742"><ele>302.0</ele><time>2026-04-10T08:52:52.227Z</time></trkpt><trkpt lat="43.1840773" lon="11.9544049"><ele>302.0</ele><time>2026-04-10T08:52:53.222Z</time></trkpt><trkpt lat="43.184028" lon="11.9545437"><ele>302.0</ele><time>2026-04-10T08:52:54.222Z</time></trkpt><trkpt lat="43.1839835" lon="11.9546889"><ele>302.0</ele><time>2026-04-10T08:52:55.223Z</time></trkpt><trkpt lat="43.1839344" lon="11.9548353"><ele>302.0</ele><time>2026-04-10T08:52:56.226Z</time></trkpt><trkpt lat="43.1838782" lon="11.9549759"><ele>302.0</ele><time>2026-04-10T08:52:57.222Z</time></trkpt><trkpt lat="43.1838227" lon="11.9550983"><ele>301.8</ele><time>2026-04-10T08:52:58.233Z</time></trkpt><trkpt lat="43.1837664" lon="11.9552063"><ele>301.6</ele><time>2026-04-10T08:52:59.226Z</time></trkpt><trkpt lat="43.1837034" lon="11.9552904"><ele>301.40000000000003</ele><time>2026-04-10T08:53:00.256Z</time></trkpt><trkpt lat="43.1836213" lon="11.9553627"><ele>301.2</ele><time>2026-04-10T08:53:01.228Z</time></trkpt><trkpt lat="43.1835199" lon="11.9554353"><ele>301.0</ele><time>2026-04-10T08:53:02.227Z</time></trkpt><trkpt lat="43.1834111" lon="11.9555044"><ele>301.0</ele><time>2026-04-10T08:53:03.236Z</time></trkpt><trkpt lat="43.1832955" lon="11.9555725"><ele>301.0</ele><time>2026-04-10T08:53:04.223Z</time></trkpt><trkpt lat="43.1831782" lon="11.9556386"><ele>301.0</ele><time>2026-04-10T08:53:05.23Z</time></trkpt><trkpt lat="43.1830613" lon="11.9557023"><ele>301.0</ele><time>2026-04-10T08:53:06.231Z</time></trkpt><trkpt lat="43.1829421" lon="11.9557652"><ele>301.25</ele><time>2026-04-10T08:53:07.23Z</time></trkpt><trkpt lat="43.1828329" lon="11.9558191"><ele>301.5</ele><time>2026-04-10T08:53:08.23Z</time></trkpt><trkpt lat="43.1827275" lon="11.9558814"><ele>301.75</ele><time>2026-04-10T08:53:09.229Z</time></trkpt><trkpt lat="43.1826182" lon="11.9559461"><ele>302.0</ele><time>2026-04-10T08:53:10.227Z</time></trkpt><trkpt lat="43.182499" lon="11.9560106"><ele>302.0</ele><time>2026-04-10T08:53:11.228Z</time></trkpt><trkpt lat="43.182379" lon="11.9560722"><ele>302.0</ele><time>2026-04-10T08:53:12.227Z</time></trkpt><trkpt lat="43.1822762" lon="11.9561383"><ele>302.0</ele><time>2026-04-10T08:53:13.223Z</time></trkpt><trkpt lat="43.1821789" lon="11.9562016"><ele>302.0</ele><time>2026-04-10T08:53:14.228Z</time></trkpt><trkpt lat="43.1820854" lon="11.9562513"><ele>302.2</ele><time>2026-04-10T08:53:15.219Z</time></trkpt><trkpt lat="43.1819866" lon="11.9563062"><ele>302.4</ele><time>2026-04-10T08:53:16.224Z</time></trkpt><trkpt lat="43.18189" lon="11.9563637"><ele>302.6</ele><time>2026-04-10T08:53:17.222Z</time></trkpt><trkpt lat="43.1818007" lon="11.9564227"><ele>302.8</ele><time>2026-04-10T08:53:18.223Z</time></trkpt><trkpt lat="43.1817145" lon="11.9564781"><ele>303.0</ele><time>2026-04-10T08:53:19.236Z</time></trkpt><trkpt lat="43.1816249" lon="11.9565303"><ele>303.0</ele><time>2026-04-10T08:53:20.226Z</time></trkpt><trkpt lat="43.1815318" lon="11.9565833"><ele>303.0</ele><time>2026-04-10T08:53:21.233Z</time></trkpt><trkpt lat="43.1814437" lon="11.9566336"><ele>303.0</ele><time>2026-04-10T08:53:22.228Z</time></trkpt><trkpt lat="43.1813575" lon="11.9566798"><ele>303.0</ele><time>2026-04-10T08:53:23.228Z</time></trkpt><trkpt lat="43.1812772" lon="11.9567228"><ele>303.0</ele><time>2026-04-10T08:53:24.242Z</time></trkpt><trkpt lat="43.181203" lon="11.9567646"><ele>302.8333333333333</ele><time>2026-04-10T08:53:25.239Z</time></trkpt><trkpt lat="43.1811396" lon="11.9568033"><ele>302.6666666666667</ele><time>2026-04-10T08:53:26.224Z</time></trkpt><trkpt lat="43.1810834" lon="11.9568426"><ele>302.5</ele><time>2026-04-10T08:53:27.234Z</time></trkpt><trkpt lat="43.1810137" lon="11.9568883"><ele>302.33333333333337</ele><time>2026-04-10T08:53:29.221Z</time></trkpt><trkpt lat="43.1809493" lon="11.9567859"><ele>302.1666666666667</ele><time>2026-04-10T08:53:32.223Z</time></trkpt><trkpt lat="43.180931" lon="11.9566855"><ele>302.0</ele><time>2026-04-10T08:53:33.228Z</time></trkpt><trkpt lat="43.1809054" lon="11.9565635"><ele>301.5</ele><time>2026-04-10T08:53:34.227Z</time></trkpt><trkpt lat="43.1808767" lon="11.9564211"><ele>301.0</ele><time>2026-04-10T08:53:35.225Z</time></trkpt><trkpt lat="43.1808404" lon="11.9562545"><ele>300.5</ele><time>2026-04-10T08:53:36.224Z</time></trkpt><trkpt lat="43.1807994" lon="11.9560721"><ele>300.0</ele><time>2026-04-10T08:53:37.226Z</time></trkpt><trkpt lat="43.1807538" lon="11.955873"><ele>299.6666666666667</ele><time>2026-04-10T08:53:38.23Z</time></trkpt><trkpt lat="43.1807068" lon="11.9556608"><ele>299.33333333333337</ele><time>2026-04-10T08:53:39.223Z</time></trkpt><trkpt lat="43.1806533" lon="11.9554246"><ele>299.0</ele><time>2026-04-10T08:53:40.236Z</time></trkpt><trkpt lat="43.1805988" lon="11.9551835"><ele>298.6666666666667</ele><time>2026-04-10T08:53:41.245Z</time></trkpt><trkpt lat="43.1805399" lon="11.95493"><ele>298.3333333333333</ele><time>2026-04-10T08:53:42.23Z</time></trkpt><trkpt lat="43.1804798" lon="11.9546747"><ele>298.0</ele><time>2026-04-10T08:53:43.223Z</time></trkpt><trkpt lat="43.1804209" lon="11.9544202"><ele>298.0</ele><time>2026-04-10T08:53:44.232Z</time></trkpt><trkpt lat="43.1803624" lon="11.9541652"><ele>298.0</ele><time>2026-04-10T08:53:45.23Z</time></trkpt><trkpt lat="43.180305" lon="11.9539095"><ele>298.0</ele><time>2026-04-10T08:53:46.227Z</time></trkpt><trkpt lat="43.1802457" lon="11.9536513"><ele>298.0</ele><time>2026-04-10T08:53:47.231Z</time></trkpt><trkpt lat="43.1801828" lon="11.9533855"><ele>298.0</ele><time>2026-04-10T08:53:48.23Z</time></trkpt><trkpt lat="43.18012" lon="11.953122"><ele>298.0</ele><time>2026-04-10T08:53:49.223Z</time></trkpt><trkpt lat="43.180056" lon="11.9528483"><ele>298.0</ele><time>2026-04-10T08:53:50.222Z</time></trkpt><trkpt lat="43.1799908" lon="11.9525644"><ele>298.0</ele><time>2026-04-10T08:53:51.223Z</time></trkpt><trkpt lat="43.1799265" lon="11.9522688"><ele>298.0</ele><time>2026-04-10T08:53:52.231Z</time></trkpt><trkpt lat="43.1798589" lon="11.951969"><ele>297.5</ele><time>2026-04-10T08:53:53.231Z</time></trkpt><trkpt lat="43.179794" lon="11.9516714"><ele>297.0</ele><time>2026-04-10T08:53:54.224Z</time></trkpt><trkpt lat="43.1797279" lon="11.9513752"><ele>297.0</ele><time>2026-04-10T08:53:55.232Z</time></trkpt><trkpt lat="43.179657" lon="11.9510766"><ele>297.0</ele><time>2026-04-10T08:53:56.228Z</time></trkpt><trkpt lat="43.1795855" lon="11.9507797"><ele>297.5</ele><time>2026-04-10T08:53:57.251Z</time></trkpt><trkpt lat="43.1795157" lon="11.9504795"><ele>298.0</ele><time>2026-04-10T08:53:58.228Z</time></trkpt><trkpt lat="43.1794134" lon="11.950207"><ele>299.5</ele><time>2026-04-10T08:53:59.245Z</time></trkpt><trkpt lat="43.1793098" lon="11.9499206"><ele>301.0</ele><time>2026-04-10T08:54:00.246Z</time></trkpt><trkpt lat="43.1791873" lon="11.9496376"><ele>301.0</ele><time>2026-04-10T08:54:01.229Z</time></trkpt><trkpt lat="43.1790815" lon="11.9493713"><ele>301.0</ele><time>2026-04-10T08:54:02.219Z</time></trkpt><trkpt lat="43.1789917" lon="11.9491527"><ele>301.0</ele><time>2026-04-10T08:54:03.232Z</time></trkpt><trkpt lat="43.1789283" lon="11.9489931"><ele>301.2</ele><time>2026-04-10T08:54:04.227Z</time></trkpt><trkpt lat="43.1788932" lon="11.9488963"><ele>301.40000000000003</ele><time>2026-04-10T08:54:05.221Z</time></trkpt><trkpt lat="43.1788467" lon="11.948829"><ele>301.6</ele><time>2026-04-10T08:54:07.229Z</time></trkpt><trkpt lat="43.1787842" lon="11.9488401"><ele>301.8</ele><time>2026-04-10T08:54:08.228Z</time></trkpt><trkpt lat="43.1786199" lon="11.9487864"><ele>302.0</ele><time>2026-04-10T08:54:10.225Z</time></trkpt><trkpt lat="43.1785128" lon="11.9487418"><ele>302.0</ele><time>2026-04-10T08:54:11.228Z</time></trkpt><trkpt lat="43.1784079" lon="11.9486992"><ele>302.0</ele><time>2026-04-10T08:54:12.223Z</time></trkpt><trkpt lat="43.1782856" lon="11.9486459"><ele>302.0</ele><time>2026-04-10T08:54:13.232Z</time></trkpt><trkpt lat="43.178161" lon="11.948595"><ele>302.0</ele><time>2026-04-10T08:54:14.232Z</time></trkpt><trkpt lat="43.1779661" lon="11.9485103"><ele>302.4</ele><time>2026-04-10T08:54:16.23Z</time></trkpt><trkpt lat="43.1778954" lon="11.9484889"><ele>302.79999999999995</ele><time>2026-04-10T08:54:17.23Z</time></trkpt><trkpt lat="43.1778238" lon="11.9484601"><ele>303.2</ele><time>2026-04-10T08:54:18.223Z</time></trkpt><trkpt lat="43.1776929" lon="11.948399"><ele>303.59999999999997</ele><time>2026-04-10T08:54:20.219Z</time></trkpt><trkpt lat="43.1775911" lon="11.9484135"><ele>304.0</ele><time>2026-04-10T08:54:22.219Z</time></trkpt><trkpt lat="43.1775318" lon="11.9485259"><ele>304.0</ele><time>2026-04-10T08:54:24.23Z</time></trkpt><trkpt lat="43.1775217" lon="11.9486116"><ele>304.0</ele><time>2026-04-10T08:54:25.23Z</time></trkpt><trkpt lat="43.1775157" lon="11.9487272"><ele>304.0</ele><time>2026-04-10T08:54:26.236Z</time></trkpt><trkpt lat="43.1775215" lon="11.9489201"><ele>304.0</ele><time>2026-04-10T08:54:28.238Z</time></trkpt><trkpt lat="43.1775041" lon="11.9490138"><ele>304.0</ele><time>2026-04-10T08:54:30.22Z</time></trkpt><trkpt lat="43.1774318" lon="11.9490244"><ele>304.0</ele><time>2026-04-10T08:54:32.221Z</time></trkpt><trkpt lat="43.177372" lon="11.9489935"><ele>303.3333333333333</ele><time>2026-04-10T08:54:33.223Z</time></trkpt><trkpt lat="43.1773031" lon="11.9489454"><ele>302.66666666666663</ele><time>2026-04-10T08:54:34.22Z</time></trkpt><trkpt lat="43.1772255" lon="11.9488857"><ele>302.0</ele><time>2026-04-10T08:54:35.22Z</time></trkpt><trkpt lat="43.1771404" lon="11.948826"><ele>301.3333333333333</ele><time>2026-04-10T08:54:36.22Z</time></trkpt><trkpt lat="43.1770552" lon="11.9487745"><ele>300.6666666666667</ele><time>2026-04-10T08:54:37.221Z</time></trkpt><trkpt lat="43.1769734" lon="11.9487243"><ele>300.0</ele><time>2026-04-10T08:54:38.217Z</time></trkpt><trkpt lat="43.1768847" lon="11.9486584"><ele>300.0</ele><time>2026-04-10T08:54:39.224Z</time></trkpt><trkpt lat="43.1767035" lon="11.9485311"><ele>300.0</ele><time>2026-04-10T08:54:41.226Z</time></trkpt><trkpt lat="43.1766182" lon="11.9484744"><ele>300.0</ele><time>2026-04-10T08:54:42.222Z</time></trkpt><trkpt lat="43.1765294" lon="11.9484103"><ele>300.0</ele><time>2026-04-10T08:54:43.227Z</time></trkpt><trkpt lat="43.1763339" lon="11.9482681"><ele>300.0</ele><time>2026-04-10T08:54:45.223Z</time></trkpt><trkpt lat="43.1761433" lon="11.9481394"><ele>300.0</ele><time>2026-04-10T08:54:47.22Z</time></trkpt><trkpt lat="43.1760531" lon="11.9480797"><ele>300.0</ele><time>2026-04-10T08:54:48.219Z</time></trkpt><trkpt lat="43.1758743" lon="11.9479603"><ele>300.0</ele><time>2026-04-10T08:54:50.229Z</time></trkpt><trkpt lat="43.175788" lon="11.9479098"><ele>300.0</ele><time>2026-04-10T08:54:51.223Z</time></trkpt><trkpt lat="43.1757028" lon="11.9478691"><ele>300.0</ele><time>2026-04-10T08:54:52.222Z</time></trkpt><trkpt lat="43.1756287" lon="11.9478339"><ele>300.0</ele><time>2026-04-10T08:54:53.231Z</time></trkpt><trkpt lat="43.1755603" lon="11.9477841"><ele>300.0</ele><time>2026-04-10T08:54:54.221Z</time></trkpt><trkpt lat="43.1754947" lon="11.9477317"><ele>300.0</ele><time>2026-04-10T08:54:55.224Z</time></trkpt><trkpt lat="43.1753494" lon="11.9475962"><ele>301.2</ele><time>2026-04-10T08:54:57.23Z</time></trkpt><trkpt lat="43.1752874" lon="11.9475413"><ele>302.4</ele><time>2026-04-10T08:54:58.227Z</time></trkpt><trkpt lat="43.175236" lon="11.9474911"><ele>303.6</ele><time>2026-04-10T08:54:59.224Z</time></trkpt><trkpt lat="43.1751222" lon="11.9474013"><ele>304.8</ele><time>2026-04-10T08:55:02.224Z</time></trkpt><trkpt lat="43.1750089" lon="11.947312"><ele>306.0</ele><time>2026-04-10T08:55:04.222Z</time></trkpt><trkpt lat="43.1749289" lon="11.9472536"><ele>307.40000000000003</ele><time>2026-04-10T08:55:05.218Z</time></trkpt><trkpt lat="43.174844" lon="11.94719"><ele>308.8</ele><time>2026-04-10T08:55:06.228Z</time></trkpt><trkpt lat="43.1747559" lon="11.9471248"><ele>310.20000000000005</ele><time>2026-04-10T08:55:07.225Z</time></trkpt><trkpt lat="43.1746745" lon="11.9470719"><ele>311.6</ele><time>2026-04-10T08:55:08.231Z</time></trkpt><trkpt lat="43.1745828" lon="11.9470135"><ele>313.0</ele><time>2026-04-10T08:55:09.221Z</time></trkpt><trkpt lat="43.1745186" lon="11.9469672"><ele>313.0</ele><time>2026-04-10T08:55:10.224Z</time></trkpt><trkpt lat="43.1744496" lon="11.9469116"><ele>313.0</ele><time>2026-04-10T08:55:11.221Z</time></trkpt><trkpt lat="43.1743715" lon="11.9468561"><ele>313.0</ele><time>2026-04-10T08:55:12.226Z</time></trkpt><trkpt lat="43.1742858" lon="11.9468073"><ele>313.0</ele><time>2026-04-10T08:55:13.224Z</time></trkpt><trkpt lat="43.1742172" lon="11.9467592"><ele>313.0</ele><time>2026-04-10T08:55:14.223Z</time></trkpt><trkpt lat="43.1741425" lon="11.9467076"><ele>313.0</ele><time>2026-04-10T08:55:15.235Z</time></trkpt><trkpt lat="43.1740624" lon="11.9466528"><ele>313.5</ele><time>2026-04-10T08:55:16.227Z</time></trkpt><trkpt lat="43.1739894" lon="11.946597"><ele>314.0</ele><time>2026-04-10T08:55:17.226Z</time></trkpt><trkpt lat="43.1739096" lon="11.9465418"><ele>314.5</ele><time>2026-04-10T08:55:18.234Z</time></trkpt><trkpt lat="43.1738414" lon="11.9464752"><ele>315.0</ele><time>2026-04-10T08:55:22.436Z</time></trkpt><trkpt lat="43.1734614" lon="11.9461198"><ele>315.0</ele><time>2026-04-10T08:55:24.226Z</time></trkpt><trkpt lat="43.1733915" lon="11.9460781"><ele>315.0</ele><time>2026-04-10T08:55:25.227Z</time></trkpt><trkpt lat="43.1733141" lon="11.9460184"><ele>315.0</ele><time>2026-04-10T08:55:26.227Z</time></trkpt><trkpt lat="43.1732252" lon="11.9459511"><ele>315.0</ele><time>2026-04-10T08:55:27.223Z</time></trkpt><trkpt lat="43.1731492" lon="11.9458866"><ele>315.0</ele><time>2026-04-10T08:55:28.222Z</time></trkpt><trkpt lat="43.1730836" lon="11.9458391"><ele>315.0</ele><time>2026-04-10T08:55:29.217Z</time></trkpt><trkpt lat="43.1730233" lon="11.9457974"><ele>315.0</ele><time>2026-04-10T08:55:34.224Z</time></trkpt><trkpt lat="43.1729488" lon="11.9456889"><ele>315.0</ele><time>2026-04-10T08:55:37.222Z</time></trkpt><trkpt lat="43.1729195" lon="11.945568"><ele>315.0</ele><time>2026-04-10T08:55:39.222Z</time></trkpt><trkpt lat="43.172883" lon="11.9454934"><ele>315.0</ele><time>2026-04-10T08:55:41.23Z</time></trkpt><trkpt lat="43.1728042" lon="11.9454229"><ele>315.0</ele><time>2026-04-10T08:55:43.23Z</time></trkpt><trkpt lat="43.1727341" lon="11.9453709"><ele>315.0</ele><time>2026-04-10T08:55:44.233Z</time></trkpt><trkpt lat="43.1726657" lon="11.9453031"><ele>315.0</ele><time>2026-04-10T08:55:45.237Z</time></trkpt><trkpt lat="43.1725814" lon="11.9452308"><ele>315.0</ele><time>2026-04-10T08:55:46.23Z</time></trkpt><trkpt lat="43.1724951" lon="11.9451548"><ele>315.0</ele><time>2026-04-10T08:55:47.223Z</time></trkpt><trkpt lat="43.1723998" lon="11.945078"><ele>315.0</ele><time>2026-04-10T08:55:48.227Z</time></trkpt><trkpt lat="43.1723165" lon="11.9450067"><ele>315.0</ele><time>2026-04-10T08:55:49.235Z</time></trkpt><trkpt lat="43.172227" lon="11.9449353"><ele>315.3333333333333</ele><time>2026-04-10T08:55:50.232Z</time></trkpt><trkpt lat="43.1721391" lon="11.9448602"><ele>315.6666666666667</ele><time>2026-04-10T08:55:51.234Z</time></trkpt><trkpt lat="43.1720574" lon="11.9447922"><ele>316.0</ele><time>2026-04-10T08:55:52.232Z</time></trkpt><trkpt lat="43.1719912" lon="11.9447335"><ele>316.33333333333337</ele><time>2026-04-10T08:55:53.232Z</time></trkpt><trkpt lat="43.171933" lon="11.9446802"><ele>316.6666666666667</ele><time>2026-04-10T08:55:54.222Z</time></trkpt><trkpt lat="43.1718592" lon="11.9446222"><ele>317.0</ele><time>2026-04-10T08:55:56.233Z</time></trkpt><trkpt lat="43.1718011" lon="11.9446846"><ele>317.0</ele><time>2026-04-10T08:55:59.233Z</time></trkpt><trkpt lat="43.171777" lon="11.9448589"><ele>317.0</ele><time>2026-04-10T08:56:01.217Z</time></trkpt><trkpt lat="43.1717645" lon="11.9449495"><ele>317.0</ele><time>2026-04-10T08:56:02.227Z</time></trkpt><trkpt lat="43.1717501" lon="11.9450393"><ele>317.0</ele><time>2026-04-10T08:56:03.229Z</time></trkpt><trkpt lat="43.1717195" lon="11.945214"><ele>317.0</ele><time>2026-04-10T08:56:05.221Z</time></trkpt><trkpt lat="43.1716952" lon="11.9453063"><ele>316.6666666666667</ele><time>2026-04-10T08:56:06.227Z</time></trkpt><trkpt lat="43.1716743" lon="11.9453923"><ele>316.33333333333337</ele><time>2026-04-10T08:56:07.228Z</time></trkpt><trkpt lat="43.1716611" lon="11.9454772"><ele>316.0</ele><time>2026-04-10T08:56:08.228Z</time></trkpt><trkpt lat="43.1716435" lon="11.9456499"><ele>315.6666666666667</ele><time>2026-04-10T08:56:10.23Z</time></trkpt><trkpt lat="43.1716361" lon="11.9457419"><ele>315.3333333333333</ele><time>2026-04-10T08:56:11.226Z</time></trkpt><trkpt lat="43.1716244" lon="11.9458435"><ele>315.0</ele><time>2026-04-10T08:56:12.227Z</time></trkpt><trkpt lat="43.1716124" lon="11.9459573"><ele>315.0</ele><time>2026-04-10T08:56:13.23Z</time></trkpt><trkpt lat="43.1715899" lon="11.9460761"><ele>315.0</ele><time>2026-04-10T08:56:14.228Z</time></trkpt><trkpt lat="43.171569" lon="11.9461881"><ele>315.0</ele><time>2026-04-10T08:56:15.226Z</time></trkpt><trkpt lat="43.1715516" lon="11.946298"><ele>315.0</ele><time>2026-04-10T08:56:16.225Z</time></trkpt><trkpt lat="43.1715371" lon="11.9464088"><ele>315.0</ele><time>2026-04-10T08:56:17.217Z</time></trkpt><trkpt lat="43.1715167" lon="11.9465213"><ele>315.0</ele><time>2026-04-10T08:56:18.22Z</time></trkpt><trkpt lat="43.171499" lon="11.9466335"><ele>314.5</ele><time>2026-04-10T08:56:19.22Z</time></trkpt><trkpt lat="43.171482" lon="11.9467421"><ele>314.0</ele><time>2026-04-10T08:56:20.228Z</time></trkpt><trkpt lat="43.1714632" lon="11.946854"><ele>313.5</ele><time>2026-04-10T08:56:21.225Z</time></trkpt><trkpt lat="43.1714455" lon="11.9469683"><ele>313.0</ele><time>2026-04-10T08:56:22.229Z</time></trkpt><trkpt lat="43.1714287" lon="11.9470845"><ele>312.5</ele><time>2026-04-10T08:56:23.228Z</time></trkpt><trkpt lat="43.1714117" lon="11.9471986"><ele>312.0</ele><time>2026-04-10T08:56:24.23Z</time></trkpt><trkpt lat="43.1713952" lon="11.947315"><ele>312.0</ele><time>2026-04-10T08:56:25.231Z</time></trkpt><trkpt lat="43.1713789" lon="11.9474317"><ele>312.0</ele><time>2026-04-10T08:56:26.221Z</time></trkpt><trkpt lat="43.1713622" lon="11.9475503"><ele>312.0</ele><time>2026-04-10T08:56:27.228Z</time></trkpt><trkpt lat="43.1713445" lon="11.9476707"><ele>312.0</ele><time>2026-04-10T08:56:28.226Z</time></trkpt><trkpt lat="43.1713249" lon="11.9477883"><ele>312.0</ele><time>2026-04-10T08:56:29.229Z</time></trkpt><trkpt lat="43.1713038" lon="11.9479081"><ele>312.0</ele><time>2026-04-10T08:56:30.249Z</time></trkpt><trkpt lat="43.1712834" lon="11.9480327"><ele>312.0</ele><time>2026-04-10T08:56:31.224Z</time></trkpt><trkpt lat="43.1712641" lon="11.9481608"><ele>312.0</ele><time>2026-04-10T08:56:32.223Z</time></trkpt><trkpt lat="43.1712473" lon="11.9482882"><ele>312.0</ele><time>2026-04-10T08:56:33.227Z</time></trkpt><trkpt lat="43.1712289" lon="11.9484172"><ele>312.0</ele><time>2026-04-10T08:56:34.234Z</time></trkpt><trkpt lat="43.1712108" lon="11.9485392"><ele>312.0</ele><time>2026-04-10T08:56:35.224Z</time></trkpt><trkpt lat="43.1711956" lon="11.9486542"><ele>312.0</ele><time>2026-04-10T08:56:36.226Z</time></trkpt><trkpt lat="43.1711778" lon="11.9487612"><ele>312.0</ele><time>2026-04-10T08:56:37.221Z</time></trkpt><trkpt lat="43.1711602" lon="11.9488702"><ele>312.0</ele><time>2026-04-10T08:56:38.224Z</time></trkpt><trkpt lat="43.1711465" lon="11.9489805"><ele>312.0</ele><time>2026-04-10T08:56:39.22Z</time></trkpt><trkpt lat="43.1711307" lon="11.9490904"><ele>312.0</ele><time>2026-04-10T08:56:40.225Z</time></trkpt><trkpt lat="43.1711139" lon="11.9491945"><ele>312.0</ele><time>2026-04-10T08:56:41.221Z</time></trkpt><trkpt lat="43.1710967" lon="11.9492963"><ele>312.0</ele><time>2026-04-10T08:56:42.227Z</time></trkpt><trkpt lat="43.1710775" lon="11.9493964"><ele>312.0</ele><time>2026-04-10T08:56:43.222Z</time></trkpt><trkpt lat="43.171056" lon="11.9494937"><ele>312.0</ele><time>2026-04-10T08:56:44.234Z</time></trkpt><trkpt lat="43.1710372" lon="11.9495858"><ele>312.0</ele><time>2026-04-10T08:56:45.227Z</time></trkpt><trkpt lat="43.1710117" lon="11.9496759"><ele>312.0</ele><time>2026-04-10T08:56:46.224Z</time></trkpt><trkpt lat="43.1709903" lon="11.9497647"><ele>312.0</ele><time>2026-04-10T08:56:47.219Z</time></trkpt><trkpt lat="43.1709756" lon="11.9498535"><ele>312.0</ele><time>2026-04-10T08:56:48.225Z</time></trkpt><trkpt lat="43.1709599" lon="11.9499492"><ele>311.8333333333333</ele><time>2026-04-10T08:56:49.232Z</time></trkpt><trkpt lat="43.1709417" lon="11.9500488"><ele>311.6666666666667</ele><time>2026-04-10T08:56:50.223Z</time></trkpt><trkpt lat="43.1709209" lon="11.9501438"><ele>311.5</ele><time>2026-04-10T08:56:51.233Z</time></trkpt><trkpt lat="43.1709016" lon="11.9502419"><ele>311.33333333333337</ele><time>2026-04-10T08:56:52.229Z</time></trkpt><trkpt lat="43.1708833" lon="11.9503442"><ele>311.1666666666667</ele><time>2026-04-10T08:56:53.226Z</time></trkpt><trkpt lat="43.1708658" lon="11.950446"><ele>311.0</ele><time>2026-04-10T08:56:54.23Z</time></trkpt><trkpt lat="43.1708514" lon="11.9505539"><ele>311.0</ele><time>2026-04-10T08:56:55.227Z</time></trkpt><trkpt lat="43.1708354" lon="11.9506617"><ele>311.0</ele><time>2026-04-10T08:56:56.231Z</time></trkpt><trkpt lat="43.170819" lon="11.9507685"><ele>311.0</ele><time>2026-04-10T08:56:57.222Z</time></trkpt><trkpt lat="43.1708047" lon="11.9508772"><ele>311.0</ele><time>2026-04-10T08:56:58.227Z</time></trkpt><trkpt lat="43.1707882" lon="11.9509897"><ele>311.0</ele><time>2026-04-10T08:56:59.222Z</time></trkpt><trkpt lat="43.1707702" lon="11.9511048"><ele>311.0</ele><time>2026-04-10T08:57:00.233Z</time></trkpt><trkpt lat="43.1707558" lon="11.9512222"><ele>310.8</ele><time>2026-04-10T08:57:01.224Z</time></trkpt><trkpt lat="43.1707368" lon="11.9513442"><ele>310.6</ele><time>2026-04-10T08:57:02.225Z</time></trkpt><trkpt lat="43.1707176" lon="11.9514668"><ele>310.4</ele><time>2026-04-10T08:57:03.225Z</time></trkpt><trkpt lat="43.1706992" lon="11.9515882"><ele>310.2</ele><time>2026-04-10T08:57:04.229Z</time></trkpt><trkpt lat="43.1706821" lon="11.9517071"><ele>310.0</ele><time>2026-04-10T08:57:05.225Z</time></trkpt><trkpt lat="43.1706622" lon="11.9518326"><ele>309.6</ele><time>2026-04-10T08:57:06.225Z</time></trkpt><trkpt lat="43.1706425" lon="11.9519638"><ele>309.2</ele><time>2026-04-10T08:57:07.232Z</time></trkpt><trkpt lat="43.170623" lon="11.9520993"><ele>308.8</ele><time>2026-04-10T08:57:08.226Z</time></trkpt><trkpt lat="43.1706015" lon="11.9522423"><ele>308.4</ele><time>2026-04-10T08:57:09.233Z</time></trkpt><trkpt lat="43.1705799" lon="11.9523869"><ele>308.0</ele><time>2026-04-10T08:57:10.234Z</time></trkpt><trkpt lat="43.1705566" lon="11.952535"><ele>307.8</ele><time>2026-04-10T08:57:11.228Z</time></trkpt><trkpt lat="43.1705351" lon="11.9526849"><ele>307.6</ele><time>2026-04-10T08:57:12.226Z</time></trkpt><trkpt lat="43.1705128" lon="11.9528325"><ele>307.4</ele><time>2026-04-10T08:57:13.231Z</time></trkpt><trkpt lat="43.170488" lon="11.9529744"><ele>307.2</ele><time>2026-04-10T08:57:14.225Z</time></trkpt><trkpt lat="43.1704685" lon="11.9531131"><ele>307.0</ele><time>2026-04-10T08:57:15.22Z</time></trkpt><trkpt lat="43.170447" lon="11.9532536"><ele>306.4</ele><time>2026-04-10T08:57:16.226Z</time></trkpt><trkpt lat="43.1704277" lon="11.9534063"><ele>305.79999999999995</ele><time>2026-04-10T08:57:17.229Z</time></trkpt><trkpt lat="43.1704085" lon="11.9535523"><ele>305.2</ele><time>2026-04-10T08:57:18.227Z</time></trkpt><trkpt lat="43.1703915" lon="11.9537046"><ele>304.59999999999997</ele><time>2026-04-10T08:57:19.233Z</time></trkpt><trkpt lat="43.1703766" lon="11.9538601"><ele>304.0</ele><time>2026-04-10T08:57:20.255Z</time></trkpt><trkpt lat="43.1703665" lon="11.9540047"><ele>304.0</ele><time>2026-04-10T08:57:21.229Z</time></trkpt><trkpt lat="43.1703562" lon="11.9541562"><ele>304.0</ele><time>2026-04-10T08:57:22.222Z</time></trkpt><trkpt lat="43.1703447" lon="11.9543108"><ele>304.0</ele><time>2026-04-10T08:57:23.224Z</time></trkpt><trkpt lat="43.1703341" lon="11.9544606"><ele>304.0</ele><time>2026-04-10T08:57:24.23Z</time></trkpt><trkpt lat="43.17033" lon="11.9545956"><ele>304.0</ele><time>2026-04-10T08:57:25.229Z</time></trkpt><trkpt lat="43.1703272" lon="11.9547035"><ele>303.66666666666663</ele><time>2026-04-10T08:57:26.225Z</time></trkpt><trkpt lat="43.1703216" lon="11.9548149"><ele>303.3333333333333</ele><time>2026-04-10T08:57:28.23Z</time></trkpt><trkpt lat="43.1703336" lon="11.9549029"><ele>303.0</ele><time>2026-04-10T08:57:30.231Z</time></trkpt><trkpt lat="43.1703563" lon="11.9550658"><ele>302.6666666666667</ele><time>2026-04-10T08:57:32.229Z</time></trkpt><trkpt lat="43.170371" lon="11.9551721"><ele>302.33333333333337</ele><time>2026-04-10T08:57:33.231Z</time></trkpt><trkpt lat="43.1703928" lon="11.9552974"><ele>302.0</ele><time>2026-04-10T08:57:34.232Z</time></trkpt><trkpt lat="43.1704205" lon="11.9554311"><ele>301.6</ele><time>2026-04-10T08:57:35.229Z</time></trkpt><trkpt lat="43.1704611" lon="11.9555705"><ele>301.2</ele><time>2026-04-10T08:57:36.228Z</time></trkpt><trkpt lat="43.1705096" lon="11.9557041"><ele>300.8</ele><time>2026-04-10T08:57:37.228Z</time></trkpt><trkpt lat="43.1705585" lon="11.9558296"><ele>300.4</ele><time>2026-04-10T08:57:38.233Z</time></trkpt><trkpt lat="43.1706097" lon="11.9559549"><ele>300.0</ele><time>2026-04-10T08:57:39.225Z</time></trkpt><trkpt lat="43.1706651" lon="11.9560826"><ele>299.8</ele><time>2026-04-10T08:57:40.229Z</time></trkpt><trkpt lat="43.1707244" lon="11.956219"><ele>299.6</ele><time>2026-04-10T08:57:41.226Z</time></trkpt><trkpt lat="43.1707896" lon="11.9563493"><ele>299.4</ele><time>2026-04-10T08:57:42.242Z</time></trkpt><trkpt lat="43.1708557" lon="11.9564714"><ele>299.2</ele><time>2026-04-10T08:57:43.236Z</time></trkpt><trkpt lat="43.1709221" lon="11.9565798"><ele>299.0</ele><time>2026-04-10T08:57:44.232Z</time></trkpt><trkpt lat="43.1709843" lon="11.9566815"><ele>298.59999999999997</ele><time>2026-04-10T08:57:45.232Z</time></trkpt><trkpt lat="43.1710483" lon="11.956776"><ele>298.2</ele><time>2026-04-10T08:57:46.232Z</time></trkpt><trkpt lat="43.1711142" lon="11.9568691"><ele>297.79999999999995</ele><time>2026-04-10T08:57:47.229Z</time></trkpt><trkpt lat="43.1711946" lon="11.9569594"><ele>297.4</ele><time>2026-04-10T08:57:48.223Z</time></trkpt><trkpt lat="43.1712821" lon="11.9570405"><ele>297.0</ele><time>2026-04-10T08:57:49.23Z</time></trkpt><trkpt lat="43.1713789" lon="11.9571234"><ele>297.0</ele><time>2026-04-10T08:57:50.225Z</time></trkpt><trkpt lat="43.1714821" lon="11.957222"><ele>297.0</ele><time>2026-04-10T08:57:51.228Z</time></trkpt><trkpt lat="43.1715854" lon="11.9573393"><ele>297.0</ele><time>2026-04-10T08:57:52.223Z</time></trkpt><trkpt lat="43.1716804" lon="11.9574583"><ele>297.0</ele><time>2026-04-10T08:57:53.241Z</time></trkpt><trkpt lat="43.1717737" lon="11.9575733"><ele>297.4</ele><time>2026-04-10T08:57:54.251Z</time></trkpt><trkpt lat="43.1718622" lon="11.9576942"><ele>297.79999999999995</ele><time>2026-04-10T08:57:55.227Z</time></trkpt><trkpt lat="43.171947" lon="11.9578047"><ele>298.2</ele><time>2026-04-10T08:57:56.227Z</time></trkpt><trkpt lat="43.1720129" lon="11.9578909"><ele>298.59999999999997</ele><time>2026-04-10T08:57:57.224Z</time></trkpt><trkpt lat="43.1720561" lon="11.9579579"><ele>299.0</ele><time>2026-04-10T08:57:58.231Z</time></trkpt><trkpt lat="43.1720754" lon="11.9580528"><ele>299.0</ele><time>2026-04-10T08:58:00.232Z</time></trkpt><trkpt lat="43.1720299" lon="11.9582004"><ele>299.0</ele><time>2026-04-10T08:58:02.223Z</time></trkpt><trkpt lat="43.1719792" lon="11.9582829"><ele>299.0</ele><time>2026-04-10T08:58:03.223Z</time></trkpt><trkpt lat="43.171899" lon="11.9583894"><ele>299.0</ele><time>2026-04-10T08:58:04.227Z</time></trkpt><trkpt lat="43.1718096" lon="11.9585114"><ele>299.0</ele><time>2026-04-10T08:58:05.234Z</time></trkpt><trkpt lat="43.17172" lon="11.9586442"><ele>299.0</ele><time>2026-04-10T08:58:06.231Z</time></trkpt><trkpt lat="43.1716365" lon="11.9587743"><ele>299.0</ele><time>2026-04-10T08:58:07.23Z</time></trkpt><trkpt lat="43.1715593" lon="11.958899"><ele>299.0</ele><time>2026-04-10T08:58:08.23Z</time></trkpt><trkpt lat="43.1714804" lon="11.9590292"><ele>299.0</ele><time>2026-04-10T08:58:09.221Z</time></trkpt><trkpt lat="43.1714059" lon="11.9591621"><ele>299.0</ele><time>2026-04-10T08:58:10.23Z</time></trkpt><trkpt lat="43.1713411" lon="11.9592945"><ele>299.0</ele><time>2026-04-10T08:58:11.233Z</time></trkpt><trkpt lat="43.1712823" lon="11.9594323"><ele>299.0</ele><time>2026-04-10T08:58:12.233Z</time></trkpt><trkpt lat="43.1712232" lon="11.9595653"><ele>299.0</ele><time>2026-04-10T08:58:13.229Z</time></trkpt><trkpt lat="43.1711618" lon="11.9596853"><ele>299.0</ele><time>2026-04-10T08:58:14.226Z</time></trkpt><trkpt lat="43.1710989" lon="11.9598007"><ele>299.0</ele><time>2026-04-10T08:58:15.226Z</time></trkpt><trkpt lat="43.1710432" lon="11.9599065"><ele>299.0</ele><time>2026-04-10T08:58:16.226Z</time></trkpt><trkpt lat="43.1709981" lon="11.9600201"><ele>299.0</ele><time>2026-04-10T08:58:17.225Z</time></trkpt><trkpt lat="43.1709514" lon="11.9601392"><ele>299.0</ele><time>2026-04-10T08:58:18.231Z</time></trkpt><trkpt lat="43.1708875" lon="11.9602646"><ele>298.8</ele><time>2026-04-10T08:58:19.222Z</time></trkpt><trkpt lat="43.170828" lon="11.9603917"><ele>298.59999999999997</ele><time>2026-04-10T08:58:20.229Z</time></trkpt><trkpt lat="43.1707754" lon="11.9605172"><ele>298.4</ele><time>2026-04-10T08:58:21.232Z</time></trkpt><trkpt lat="43.1707348" lon="11.9606371"><ele>298.2</ele><time>2026-04-10T08:58:22.229Z</time></trkpt><trkpt lat="43.1706974" lon="11.9607584"><ele>298.0</ele><time>2026-04-10T08:58:23.225Z</time></trkpt><trkpt lat="43.1706586" lon="11.9608827"><ele>298.0</ele><time>2026-04-10T08:58:24.225Z</time></trkpt><trkpt lat="43.1706176" lon="11.9609992"><ele>298.0</ele><time>2026-04-10T08:58:25.224Z</time></trkpt><trkpt lat="43.1705703" lon="11.9610832"><ele>298.0</ele><time>2026-04-10T08:58:26.232Z</time></trkpt><trkpt lat="43.1705126" lon="11.9611939"><ele>298.0</ele><time>2026-04-10T08:58:28.23Z</time></trkpt><trkpt lat="43.1704592" lon="11.9612621"><ele>298.0</ele><time>2026-04-10T09:00:40.228Z</time></trkpt><trkpt lat="43.1704026" lon="11.9614216"><ele>298.0</ele><time>2026-04-10T09:00:43.228Z</time></trkpt><trkpt lat="43.1703564" lon="11.9614881"><ele>298.0</ele><time>2026-04-10T09:00:44.232Z</time></trkpt><trkpt lat="43.1702956" lon="11.9615556"><ele>298.0</ele><time>2026-04-10T09:00:45.231Z</time></trkpt><trkpt lat="43.1702305" lon="11.9616308"><ele>298.0</ele><time>2026-04-10T09:00:46.234Z</time></trkpt><trkpt lat="43.1701633" lon="11.9617119"><ele>298.0</ele><time>2026-04-10T09:00:47.228Z</time></trkpt><trkpt lat="43.170094" lon="11.9617969"><ele>298.0</ele><time>2026-04-10T09:00:48.227Z</time></trkpt><trkpt lat="43.1700229" lon="11.9618957"><ele>297.6</ele><time>2026-04-10T09:00:49.226Z</time></trkpt><trkpt lat="43.1699451" lon="11.9619876"><ele>297.20000000000005</ele><time>2026-04-10T09:00:50.235Z</time></trkpt><trkpt lat="43.1698696" lon="11.9620779"><ele>296.8</ele><time>2026-04-10T09:00:51.22Z</time></trkpt><trkpt lat="43.1697909" lon="11.9621714"><ele>296.40000000000003</ele><time>2026-04-10T09:00:52.222Z</time></trkpt><trkpt lat="43.1697171" lon="11.9622562"><ele>296.0</ele><time>2026-04-10T09:00:53.222Z</time></trkpt><trkpt lat="43.1696445" lon="11.9623377"><ele>296.0</ele><time>2026-04-10T09:00:54.229Z</time></trkpt><trkpt lat="43.1695678" lon="11.9624316"><ele>296.0</ele><time>2026-04-10T09:00:55.224Z</time></trkpt><trkpt lat="43.169496" lon="11.9625226"><ele>296.0</ele><time>2026-04-10T09:00:56.227Z</time></trkpt><trkpt lat="43.1694252" lon="11.962614"><ele>296.0</ele><time>2026-04-10T09:00:57.228Z</time></trkpt><trkpt lat="43.1693495" lon="11.9627136"><ele>296.0</ele><time>2026-04-10T09:00:58.225Z</time></trkpt><trkpt lat="43.1692719" lon="11.9628122"><ele>296.2</ele><time>2026-04-10T09:00:59.23Z</time></trkpt><trkpt lat="43.1691945" lon="11.9629034"><ele>296.40000000000003</ele><time>2026-04-10T09:01:00.23Z</time></trkpt><trkpt lat="43.1691235" lon="11.962986"><ele>296.6</ele><time>2026-04-10T09:01:01.227Z</time></trkpt><trkpt lat="43.1690526" lon="11.9630686"><ele>296.8</ele><time>2026-04-10T09:01:02.226Z</time></trkpt><trkpt lat="43.1689821" lon="11.963162"><ele>297.0</ele><time>2026-04-10T09:01:03.227Z</time></trkpt><trkpt lat="43.168907" lon="11.9632535"><ele>297.0</ele><time>2026-04-10T09:01:04.227Z</time></trkpt><trkpt lat="43.1688327" lon="11.9633413"><ele>297.0</ele><time>2026-04-10T09:01:05.233Z</time></trkpt><trkpt lat="43.1687539" lon="11.9634437"><ele>297.0</ele><time>2026-04-10T09:01:06.235Z</time></trkpt><trkpt lat="43.168605" lon="11.9636339"><ele>297.0</ele><time>2026-04-10T09:01:08.23Z</time></trkpt><trkpt lat="43.1685289" lon="11.9637252"><ele>295.8</ele><time>2026-04-10T09:01:09.225Z</time></trkpt><trkpt lat="43.168453" lon="11.9638106"><ele>294.6</ele><time>2026-04-10T09:01:10.226Z</time></trkpt><trkpt lat="43.168381" lon="11.9638876"><ele>293.40000000000003</ele><time>2026-04-10T09:01:11.229Z</time></trkpt><trkpt lat="43.1683105" lon="11.9639571"><ele>292.2</ele><time>2026-04-10T09:01:12.228Z</time></trkpt><trkpt lat="43.1682576" lon="11.9640256"><ele>291.0</ele><time>2026-04-10T09:01:13.226Z</time></trkpt><trkpt lat="43.1682285" lon="11.9641881"><ele>290.1666666666667</ele><time>2026-04-10T09:01:15.228Z</time></trkpt><trkpt lat="43.1682405" lon="11.9642843"><ele>289.3333333333333</ele><time>2026-04-10T09:01:16.234Z</time></trkpt><trkpt lat="43.168267" lon="11.9643931"><ele>288.5</ele><time>2026-04-10T09:01:17.23Z</time></trkpt><trkpt lat="43.1682856" lon="11.9645042"><ele>287.66666666666663</ele><time>2026-04-10T09:01:18.233Z</time></trkpt><trkpt lat="43.1682983" lon="11.9646167"><ele>286.8333333333333</ele><time>2026-04-10T09:01:19.228Z</time></trkpt><trkpt lat="43.1683047" lon="11.9647485"><ele>286.0</ele><time>2026-04-10T09:01:20.226Z</time></trkpt><trkpt lat="43.1682965" lon="11.9648846"><ele>286.0</ele><time>2026-04-10T09:01:21.223Z</time></trkpt><trkpt lat="43.1682806" lon="11.9650141"><ele>286.0</ele><time>2026-04-10T09:01:22.231Z</time></trkpt><trkpt lat="43.1682644" lon="11.9651404"><ele>286.0</ele><time>2026-04-10T09:01:23.239Z</time></trkpt><trkpt lat="43.1682442" lon="11.9652644"><ele>286.0</ele><time>2026-04-10T09:01:24.221Z</time></trkpt><trkpt lat="43.1682225" lon="11.9653986"><ele>286.0</ele><time>2026-04-10T09:01:25.237Z</time></trkpt><trkpt lat="43.1682033" lon="11.965542"><ele>286.0</ele><time>2026-04-10T09:01:26.224Z</time></trkpt><trkpt lat="43.1681969" lon="11.9656737"><ele>286.0</ele><time>2026-04-10T09:01:27.231Z</time></trkpt><trkpt lat="43.1681821" lon="11.9658025"><ele>286.0</ele><time>2026-04-10T09:01:28.224Z</time></trkpt><trkpt lat="43.1681671" lon="11.9659361"><ele>286.0</ele><time>2026-04-10T09:01:29.22Z</time></trkpt><trkpt lat="43.1681457" lon="11.9660781"><ele>286.0</ele><time>2026-04-10T09:01:30.213Z</time></trkpt><trkpt lat="43.1681147" lon="11.9662293"><ele>286.40000000000003</ele><time>2026-04-10T09:01:32.221Z</time></trkpt><trkpt lat="43.1680274" lon="11.9663426"><ele>286.8</ele><time>2026-04-10T09:01:34.227Z</time></trkpt><trkpt lat="43.167959" lon="11.9664147"><ele>287.20000000000005</ele><time>2026-04-10T09:01:35.227Z</time></trkpt><trkpt lat="43.1678857" lon="11.9664819"><ele>287.6</ele><time>2026-04-10T09:01:36.423Z</time></trkpt><trkpt lat="43.1678307" lon="11.9665496"><ele>288.0</ele><time>2026-04-10T09:01:37.42Z</time></trkpt><trkpt lat="43.167769" lon="11.9666459"><ele>288.0</ele><time>2026-04-10T09:01:39.42Z</time></trkpt><trkpt lat="43.1676907" lon="11.9666555"><ele>288.0</ele><time>2026-04-10T09:01:45.413Z</time></trkpt><trkpt lat="43.1676313" lon="11.9665661"><ele>288.0</ele><time>2026-04-10T09:01:47.412Z</time></trkpt><trkpt lat="43.1675822" lon="11.9664932"><ele>288.0</ele><time>2026-04-10T09:01:48.412Z</time></trkpt><trkpt lat="43.1675044" lon="11.9663878"><ele>288.0</ele><time>2026-04-10T09:01:49.415Z</time></trkpt><trkpt lat="43.1673993" lon="11.9662442"><ele>287.0</ele><time>2026-04-10T09:01:50.421Z</time></trkpt><trkpt lat="43.1672914" lon="11.9660696"><ele>286.0</ele><time>2026-04-10T09:01:51.412Z</time></trkpt><trkpt lat="43.1671795" lon="11.965865"><ele>285.0</ele><time>2026-04-10T09:01:52.42Z</time></trkpt><trkpt lat="43.1670632" lon="11.9656482"><ele>285.0</ele><time>2026-04-10T09:01:53.422Z</time></trkpt><trkpt lat="43.1669345" lon="11.9654198"><ele>285.0</ele><time>2026-04-10T09:01:54.43Z</time></trkpt><trkpt lat="43.1668062" lon="11.9651876"><ele>285.0</ele><time>2026-04-10T09:01:55.421Z</time></trkpt><trkpt lat="43.1666774" lon="11.96495"><ele>285.0</ele><time>2026-04-10T09:01:56.409Z</time></trkpt><trkpt lat="43.1665491" lon="11.9647237"><ele>285.0</ele><time>2026-04-10T09:01:57.413Z</time></trkpt><trkpt lat="43.1664292" lon="11.9645107"><ele>285.0</ele><time>2026-04-10T09:01:58.416Z</time></trkpt><trkpt lat="43.1663301" lon="11.964331"><ele>285.6</ele><time>2026-04-10T09:01:59.479Z</time></trkpt><trkpt lat="43.1662544" lon="11.9641917"><ele>286.2</ele><time>2026-04-10T09:02:00.447Z</time></trkpt><trkpt lat="43.1661932" lon="11.9640876"><ele>286.8</ele><time>2026-04-10T09:02:01.451Z</time></trkpt><trkpt lat="43.1661151" lon="11.9640199"><ele>287.4</ele><time>2026-04-10T09:02:03.416Z</time></trkpt><trkpt lat="43.1660372" lon="11.963985"><ele>288.0</ele><time>2026-04-10T09:02:05.415Z</time></trkpt><trkpt lat="43.165944" lon="11.963911"><ele>288.0</ele><time>2026-04-10T09:02:07.424Z</time></trkpt><trkpt lat="43.165877" lon="11.9638494"><ele>288.0</ele><time>2026-04-10T09:02:09.422Z</time></trkpt><trkpt lat="43.1657793" lon="11.9637463"><ele>288.0</ele><time>2026-04-10T09:02:11.412Z</time></trkpt><trkpt lat="43.1657238" lon="11.9636979"><ele>288.0</ele><time>2026-04-10T09:02:12.426Z</time></trkpt><trkpt lat="43.1656644" lon="11.9636418"><ele>288.0</ele><time>2026-04-10T09:02:13.419Z</time></trkpt><trkpt lat="43.1656107" lon="11.9635743"><ele>288.0</ele><time>2026-04-10T09:02:14.419Z</time></trkpt><trkpt lat="43.1655669" lon="11.9635105"><ele>288.14285714285717</ele><time>2026-04-10T09:02:15.424Z</time></trkpt><trkpt lat="43.1655299" lon="11.9634377"><ele>288.2857142857143</ele><time>2026-04-10T09:02:16.425Z</time></trkpt><trkpt lat="43.1654944" lon="11.9633491"><ele>288.42857142857144</ele><time>2026-04-10T09:02:17.416Z</time></trkpt><trkpt lat="43.1654584" lon="11.9632582"><ele>288.57142857142856</ele><time>2026-04-10T09:02:18.424Z</time></trkpt><trkpt lat="43.1654244" lon="11.9631722"><ele>288.7142857142857</ele><time>2026-04-10T09:02:19.418Z</time></trkpt><trkpt lat="43.1653944" lon="11.9630838"><ele>288.8571428571429</ele><time>2026-04-10T09:02:20.413Z</time></trkpt><trkpt lat="43.1653614" lon="11.9629951"><ele>289.0</ele><time>2026-04-10T09:02:21.411Z</time></trkpt><trkpt lat="43.1653278" lon="11.9629175"><ele>289.4</ele><time>2026-04-10T09:02:22.413Z</time></trkpt><trkpt lat="43.1652577" lon="11.9627741"><ele>289.79999999999995</ele><time>2026-04-10T09:02:24.415Z</time></trkpt><trkpt lat="43.1652121" lon="11.9627132"><ele>290.20000000000005</ele><time>2026-04-10T09:02:25.413Z</time></trkpt><trkpt lat="43.1651075" lon="11.9626307"><ele>290.6</ele><time>2026-04-10T09:02:27.413Z</time></trkpt><trkpt lat="43.1650425" lon="11.9626033"><ele>291.0</ele><time>2026-04-10T09:02:28.415Z</time></trkpt><trkpt lat="43.1649687" lon="11.9625814"><ele>291.0</ele><time>2026-04-10T09:02:29.425Z</time></trkpt><trkpt lat="43.164895" lon="11.9625665"><ele>291.0</ele><time>2026-04-10T09:02:34.105Z</time></trkpt><trkpt lat="43.1645057" lon="11.9625729"><ele>291.5</ele><time>2026-04-10T09:02:35.413Z</time></trkpt><trkpt lat="43.1644297" lon="11.9625886"><ele>292.0</ele><time>2026-04-10T09:02:36.416Z</time></trkpt><trkpt lat="43.1643559" lon="11.9626043"><ele>292.5</ele><time>2026-04-10T09:02:37.411Z</time></trkpt><trkpt lat="43.164284" lon="11.9626149"><ele>293.0</ele><time>2026-04-10T09:02:38.418Z</time></trkpt><trkpt lat="43.1642195" lon="11.9626297"><ele>293.5</ele><time>2026-04-10T09:02:39.418Z</time></trkpt><trkpt lat="43.1641476" lon="11.9626459"><ele>294.0</ele><time>2026-04-10T09:02:40.427Z</time></trkpt><trkpt lat="43.1640384" lon="11.9626759"><ele>293.8333333333333</ele><time>2026-04-10T09:02:42.419Z</time></trkpt><trkpt lat="43.1639725" lon="11.9626716"><ele>293.6666666666667</ele><time>2026-04-10T09:02:44.418Z</time></trkpt><trkpt lat="43.1639543" lon="11.9625478"><ele>293.5</ele><time>2026-04-10T09:02:47.416Z</time></trkpt><trkpt lat="43.1639501" lon="11.9624415"><ele>293.33333333333337</ele><time>2026-04-10T09:02:49.421Z</time></trkpt><trkpt lat="43.1639218" lon="11.9623328"><ele>293.1666666666667</ele><time>2026-04-10T09:02:52.421Z</time></trkpt><trkpt lat="43.1638863" lon="11.9622604"><ele>293.0</ele><time>2026-04-10T09:02:54.417Z</time></trkpt><trkpt lat="43.1638371" lon="11.9621948"><ele>294.2</ele><time>2026-04-10T09:02:56.414Z</time></trkpt><trkpt lat="43.1637796" lon="11.9621386"><ele>295.4</ele><time>2026-04-10T09:02:58.415Z</time></trkpt><trkpt lat="43.1637136" lon="11.9620767"><ele>296.59999999999997</ele><time>2026-04-10T09:03:01.423Z</time></trkpt><trkpt lat="43.1637022" lon="11.9619532"><ele>297.8</ele><time>2026-04-10T09:03:03.413Z</time></trkpt><trkpt lat="43.1636735" lon="11.9618068"><ele>299.0</ele><time>2026-04-10T09:03:05.43Z</time></trkpt><trkpt lat="43.1636477" lon="11.9616475"><ele>299.59999999999997</ele><time>2026-04-10T09:03:07.419Z</time></trkpt><trkpt lat="43.1636423" lon="11.961514"><ele>300.2</ele><time>2026-04-10T09:03:09.423Z</time></trkpt><trkpt lat="43.1636354" lon="11.9613806"><ele>300.79999999999995</ele><time>2026-04-10T09:03:11.412Z</time></trkpt><trkpt lat="43.1636097" lon="11.9612367"><ele>301.4</ele><time>2026-04-10T09:03:13.421Z</time></trkpt><trkpt lat="43.1635853" lon="11.9611566"><ele>302.0</ele><time>2026-04-10T09:03:14.418Z</time></trkpt><trkpt lat="43.1635372" lon="11.96102"><ele>302.0</ele><time>2026-04-10T09:03:16.419Z</time></trkpt><trkpt lat="43.1634928" lon="11.9608836"><ele>302.0</ele><time>2026-04-10T09:03:18.42Z</time></trkpt><trkpt lat="43.163468" lon="11.9608029"><ele>302.0</ele><time>2026-04-10T09:03:19.418Z</time></trkpt><trkpt lat="43.163462" lon="11.9607148"><ele>302.0</ele><time>2026-04-10T09:03:20.424Z</time></trkpt><trkpt lat="43.1634592" lon="11.9606135"><ele>302.0</ele><time>2026-04-10T09:03:21.422Z</time></trkpt><trkpt lat="43.1634649" lon="11.9605211"><ele>302.0</ele><time>2026-04-10T09:03:22.422Z</time></trkpt><trkpt lat="43.1634728" lon="11.9603646"><ele>302.4</ele><time>2026-04-10T09:03:24.425Z</time></trkpt><trkpt lat="43.1634744" lon="11.9601892"><ele>302.79999999999995</ele><time>2026-04-10T09:03:26.424Z</time></trkpt><trkpt lat="43.1634634" lon="11.960092"><ele>303.2</ele><time>2026-04-10T09:03:27.413Z</time></trkpt><trkpt lat="43.1634417" lon="11.9599612"><ele>303.59999999999997</ele><time>2026-04-10T09:03:29.412Z</time></trkpt><trkpt lat="43.1634358" lon="11.9598749"><ele>304.0</ele><time>2026-04-10T09:03:33.409Z</time></trkpt><trkpt lat="43.1634353" lon="11.9597487"><ele>304.3333333333333</ele><time>2026-04-10T09:04:23.416Z</time></trkpt><trkpt lat="43.1634322" lon="11.9596498"><ele>304.66666666666663</ele><time>2026-04-10T09:04:25.426Z</time></trkpt><trkpt lat="43.1634187" lon="11.9595564"><ele>305.0</ele><time>2026-04-10T09:04:27.417Z</time></trkpt><trkpt lat="43.1634347" lon="11.9593864"><ele>305.3333333333333</ele><time>2026-04-10T09:04:29.415Z</time></trkpt><trkpt lat="43.163455" lon="11.9593007"><ele>305.6666666666667</ele><time>2026-04-10T09:04:30.413Z</time></trkpt><trkpt lat="43.163472" lon="11.9591942"><ele>306.0</ele><time>2026-04-10T09:04:31.418Z</time></trkpt><trkpt lat="43.1634927" lon="11.9590831"><ele>306.1666666666667</ele><time>2026-04-10T09:04:32.429Z</time></trkpt><trkpt lat="43.1634956" lon="11.9589721"><ele>306.3333333333333</ele><time>2026-04-10T09:04:33.417Z</time></trkpt><trkpt lat="43.1635084" lon="11.958865"><ele>306.5</ele><time>2026-04-10T09:04:34.429Z</time></trkpt><trkpt lat="43.1635163" lon="11.958765"><ele>306.66666666666663</ele><time>2026-04-10T09:04:35.427Z</time></trkpt><trkpt lat="43.1635274" lon="11.9586665"><ele>306.8333333333333</ele><time>2026-04-10T09:04:36.421Z</time></trkpt><trkpt lat="43.1635466" lon="11.9585648"><ele>307.0</ele><time>2026-04-10T09:04:37.416Z</time></trkpt><trkpt lat="43.1635532" lon="11.9584734"><ele>306.99999999999994</ele><time>2026-04-10T09:04:38.421Z</time></trkpt><trkpt lat="43.1635519" lon="11.9583702"><ele>307.0</ele><time>2026-04-10T09:04:39.413Z</time></trkpt><trkpt lat="43.1635413" lon="11.9582622"><ele>307.0</ele><time>2026-04-10T09:04:40.424Z</time></trkpt><trkpt lat="43.1635357" lon="11.9581654"><ele>307.0</ele><time>2026-04-10T09:04:41.427Z</time></trkpt><trkpt lat="43.1635388" lon="11.9580754"><ele>307.0</ele><time>2026-04-10T09:04:42.417Z</time></trkpt><trkpt lat="43.1635501" lon="11.9579772"><ele>306.99999999999994</ele><time>2026-04-10T09:04:43.415Z</time></trkpt><trkpt lat="43.1635695" lon="11.9578761"><ele>307.0</ele><time>2026-04-10T09:04:44.416Z</time></trkpt><trkpt lat="43.1635915" lon="11.9577852"><ele>307.5</ele><time>2026-04-10T09:04:45.421Z</time></trkpt><trkpt lat="43.1636189" lon="11.9577029"><ele>308.0</ele><time>2026-04-10T09:04:46.414Z</time></trkpt><trkpt lat="43.1636449" lon="11.9575457"><ele>308.5</ele><time>2026-04-10T09:04:48.417Z</time></trkpt><trkpt lat="43.163654" lon="11.957448"><ele>309.0</ele><time>2026-04-10T09:04:49.425Z</time></trkpt><trkpt lat="43.1636533" lon="11.9573495"><ele>309.5</ele><time>2026-04-10T09:04:50.419Z</time></trkpt><trkpt lat="43.16366" lon="11.957252"><ele>310.0</ele><time>2026-04-10T09:04:51.421Z</time></trkpt><trkpt lat="43.1636799" lon="11.9571535"><ele>310.2</ele><time>2026-04-10T09:04:52.412Z</time></trkpt><trkpt lat="43.1637289" lon="11.9570403"><ele>310.4</ele><time>2026-04-10T09:04:54.423Z</time></trkpt><trkpt lat="43.1637938" lon="11.9569806"><ele>310.6</ele><time>2026-04-10T09:04:56.429Z</time></trkpt><trkpt lat="43.1638346" lon="11.9568507"><ele>310.8</ele><time>2026-04-10T09:05:03.414Z</time></trkpt><trkpt lat="43.1637135" lon="11.9566837"><ele>311.0</ele><time>2026-04-10T09:05:06.416Z</time></trkpt><trkpt lat="43.1636337" lon="11.956607"><ele>311.2</ele><time>2026-04-10T09:05:07.419Z</time></trkpt><trkpt lat="43.163552" lon="11.9565284"><ele>311.40000000000003</ele><time>2026-04-10T09:05:08.418Z</time></trkpt><trkpt lat="43.1634672" lon="11.9564467"><ele>311.6</ele><time>2026-04-10T09:05:09.416Z</time></trkpt><trkpt lat="43.1633705" lon="11.9563621"><ele>311.8</ele><time>2026-04-10T09:05:10.421Z</time></trkpt><trkpt lat="43.1632746" lon="11.9562815"><ele>312.0</ele><time>2026-04-10T09:05:11.417Z</time></trkpt><trkpt lat="43.1631607" lon="11.9561869"><ele>311.0</ele><time>2026-04-10T09:05:12.421Z</time></trkpt><trkpt lat="43.1630593" lon="11.956095"><ele>310.0</ele><time>2026-04-10T09:05:13.417Z</time></trkpt><trkpt lat="43.1629581" lon="11.9560102"><ele>309.0</ele><time>2026-04-10T09:05:14.423Z</time></trkpt><trkpt lat="43.1628639" lon="11.9559266"><ele>308.0</ele><time>2026-04-10T09:05:15.442Z</time></trkpt><trkpt lat="43.1627665" lon="11.9558456"><ele>307.6</ele><time>2026-04-10T09:05:16.416Z</time></trkpt><trkpt lat="43.1626762" lon="11.9557636"><ele>307.20000000000005</ele><time>2026-04-10T09:05:17.409Z</time></trkpt><trkpt lat="43.1625874" lon="11.9556855"><ele>306.8</ele><time>2026-04-10T09:05:18.42Z</time></trkpt><trkpt lat="43.1625002" lon="11.9556078"><ele>306.40000000000003</ele><time>2026-04-10T09:05:19.417Z</time></trkpt><trkpt lat="43.1624138" lon="11.955544"><ele>306.0</ele><time>2026-04-10T09:05:20.415Z</time></trkpt><trkpt lat="43.1623395" lon="11.9554833"><ele>303.8</ele><time>2026-04-10T09:05:21.417Z</time></trkpt><trkpt lat="43.1622699" lon="11.9554176"><ele>301.6</ele><time>2026-04-10T09:05:22.424Z</time></trkpt><trkpt lat="43.1621857" lon="11.9553413"><ele>299.4</ele><time>2026-04-10T09:05:23.414Z</time></trkpt><trkpt lat="43.1620914" lon="11.9552651"><ele>297.2</ele><time>2026-04-10T09:05:24.426Z</time></trkpt><trkpt lat="43.1619875" lon="11.9551753"><ele>295.0</ele><time>2026-04-10T09:05:25.426Z</time></trkpt><trkpt lat="43.1618776" lon="11.9550723"><ele>295.66666666666663</ele><time>2026-04-10T09:05:26.431Z</time></trkpt><trkpt lat="43.1617562" lon="11.9549641"><ele>296.3333333333333</ele><time>2026-04-10T09:05:27.41Z</time></trkpt><trkpt lat="43.1616257" lon="11.9548465"><ele>297.0</ele><time>2026-04-10T09:05:28.415Z</time></trkpt><trkpt lat="43.1614917" lon="11.9547292"><ele>295.3333333333333</ele><time>2026-04-10T09:05:29.419Z</time></trkpt><trkpt lat="43.1613508" lon="11.9546138"><ele>293.66666666666663</ele><time>2026-04-10T09:05:30.429Z</time></trkpt><trkpt lat="43.1612022" lon="11.9545103"><ele>292.0</ele><time>2026-04-10T09:05:31.426Z</time></trkpt><trkpt lat="43.1610281" lon="11.954405"><ele>292.0</ele><time>2026-04-10T09:05:32.424Z</time></trkpt><trkpt lat="43.1608553" lon="11.9543194"><ele>292.0</ele><time>2026-04-10T09:05:33.415Z</time></trkpt><trkpt lat="43.1606531" lon="11.9542275"><ele>292.0</ele><time>2026-04-10T09:05:34.425Z</time></trkpt><trkpt lat="43.16047" lon="11.9541384"><ele>294.0</ele><time>2026-04-10T09:05:35.412Z</time></trkpt><trkpt lat="43.1602759" lon="11.9540387"><ele>296.0</ele><time>2026-04-10T09:05:36.412Z</time></trkpt><trkpt lat="43.1600768" lon="11.9539445"><ele>298.0</ele><time>2026-04-10T09:05:37.411Z</time></trkpt><trkpt lat="43.1598856" lon="11.9538508"><ele>300.3333333333333</ele><time>2026-04-10T09:05:38.419Z</time></trkpt><trkpt lat="43.1597049" lon="11.9537407"><ele>302.6666666666667</ele><time>2026-04-10T09:05:39.413Z</time></trkpt><trkpt lat="43.1595464" lon="11.9536237"><ele>305.0</ele><time>2026-04-10T09:05:40.429Z</time></trkpt><trkpt lat="43.1593926" lon="11.9535121"><ele>305.0</ele><time>2026-04-10T09:05:41.412Z</time></trkpt><trkpt lat="43.1592448" lon="11.9533989"><ele>305.0</ele><time>2026-04-10T09:05:42.405Z</time></trkpt><trkpt lat="43.159091" lon="11.9532842"><ele>305.0</ele><time>2026-04-10T09:05:43.413Z</time></trkpt><trkpt lat="43.1589328" lon="11.9531698"><ele>305.6666666666667</ele><time>2026-04-10T09:05:44.425Z</time></trkpt><trkpt lat="43.1587769" lon="11.953057"><ele>306.3333333333333</ele><time>2026-04-10T09:05:45.414Z</time></trkpt><trkpt lat="43.1586321" lon="11.9529442"><ele>307.0</ele><time>2026-04-10T09:05:46.428Z</time></trkpt><trkpt lat="43.1585003" lon="11.9528407"><ele>307.0</ele><time>2026-04-10T09:05:47.411Z</time></trkpt><trkpt lat="43.1583753" lon="11.9527466"><ele>307.0</ele><time>2026-04-10T09:05:48.416Z</time></trkpt><trkpt lat="43.1582506" lon="11.9526629"><ele>307.0</ele><time>2026-04-10T09:05:49.427Z</time></trkpt><trkpt lat="43.1581485" lon="11.9525673"><ele>307.0</ele><time>2026-04-10T09:05:50.428Z</time></trkpt><trkpt lat="43.1580443" lon="11.9524508"><ele>308.0</ele><time>2026-04-10T09:05:51.428Z</time></trkpt><trkpt lat="43.1579516" lon="11.9523397"><ele>309.0</ele><time>2026-04-10T09:05:52.439Z</time></trkpt><trkpt lat="43.1578795" lon="11.9522015"><ele>310.0</ele><time>2026-04-10T09:05:53.411Z</time></trkpt><trkpt lat="43.1578302" lon="11.9520328"><ele>311.0</ele><time>2026-04-10T09:05:54.421Z</time></trkpt><trkpt lat="43.1577831" lon="11.9518468"><ele>311.0</ele><time>2026-04-10T09:05:55.416Z</time></trkpt><trkpt lat="43.1577408" lon="11.9516601"><ele>311.0</ele><time>2026-04-10T09:05:56.411Z</time></trkpt><trkpt lat="43.1576981" lon="11.9514752"><ele>311.0</ele><time>2026-04-10T09:05:57.41Z</time></trkpt><trkpt lat="43.1576532" lon="11.9512901"><ele>311.0</ele><time>2026-04-10T09:05:58.43Z</time></trkpt><trkpt lat="43.1576115" lon="11.9511017"><ele>311.0</ele><time>2026-04-10T09:05:59.417Z</time></trkpt><trkpt lat="43.1575668" lon="11.950907"><ele>311.0</ele><time>2026-04-10T09:06:00.419Z</time></trkpt><trkpt lat="43.1575244" lon="11.9507089"><ele>311.0</ele><time>2026-04-10T09:06:01.426Z</time></trkpt><trkpt lat="43.1574774" lon="11.9505124"><ele>311.0</ele><time>2026-04-10T09:06:02.419Z</time></trkpt><trkpt lat="43.1574311" lon="11.9503187"><ele>311.0</ele><time>2026-04-10T09:06:03.424Z</time></trkpt><trkpt lat="43.157392" lon="11.9501189"><ele>311.0</ele><time>2026-04-10T09:06:04.427Z</time></trkpt><trkpt lat="43.1573509" lon="11.9499103"><ele>312.0</ele><time>2026-04-10T09:06:05.414Z</time></trkpt><trkpt lat="43.1573068" lon="11.9497087"><ele>313.0</ele><time>2026-04-10T09:06:06.424Z</time></trkpt><trkpt lat="43.1572573" lon="11.949493"><ele>314.0</ele><time>2026-04-10T09:06:07.416Z</time></trkpt><trkpt lat="43.1572231" lon="11.9492799"><ele>315.33333333333337</ele><time>2026-04-10T09:06:08.422Z</time></trkpt><trkpt lat="43.1571769" lon="11.9490765"><ele>316.6666666666667</ele><time>2026-04-10T09:06:09.419Z</time></trkpt><trkpt lat="43.1571265" lon="11.9488782"><ele>318.0</ele><time>2026-04-10T09:06:10.426Z</time></trkpt><trkpt lat="43.1570634" lon="11.9486843"><ele>318.0</ele><time>2026-04-10T09:06:11.425Z</time></trkpt><trkpt lat="43.1570019" lon="11.9485013"><ele>318.0</ele><time>2026-04-10T09:06:12.432Z</time></trkpt><trkpt lat="43.156933" lon="11.9483241"><ele>318.0</ele><time>2026-04-10T09:06:13.436Z</time></trkpt><trkpt lat="43.1568503" lon="11.9481441"><ele>318.0</ele><time>2026-04-10T09:06:14.427Z</time></trkpt><trkpt lat="43.156754" lon="11.9479682"><ele>318.6666666666667</ele><time>2026-04-10T09:06:15.411Z</time></trkpt><trkpt lat="43.1566615" lon="11.9477903"><ele>319.33333333333337</ele><time>2026-04-10T09:06:16.414Z</time></trkpt><trkpt lat="43.1565682" lon="11.947603"><ele>320.0</ele><time>2026-04-10T09:06:17.416Z</time></trkpt><trkpt lat="43.1564697" lon="11.9474208"><ele>320.33333333333337</ele><time>2026-04-10T09:06:18.449Z</time></trkpt><trkpt lat="43.1563626" lon="11.9472393"><ele>320.6666666666667</ele><time>2026-04-10T09:06:19.428Z</time></trkpt><trkpt lat="43.1562688" lon="11.9470618"><ele>321.0</ele><time>2026-04-10T09:06:20.445Z</time></trkpt><trkpt lat="43.1561611" lon="11.9468845"><ele>321.6666666666667</ele><time>2026-04-10T09:06:21.413Z</time></trkpt><trkpt lat="43.1560599" lon="11.9466932"><ele>322.33333333333337</ele><time>2026-04-10T09:06:22.409Z</time></trkpt><trkpt lat="43.1559613" lon="11.9465227"><ele>323.0</ele><time>2026-04-10T09:06:23.414Z</time></trkpt><trkpt lat="43.1558722" lon="11.9463577"><ele>323.0</ele><time>2026-04-10T09:06:24.414Z</time></trkpt><trkpt lat="43.1557826" lon="11.9461912"><ele>323.0</ele><time>2026-04-10T09:06:25.419Z</time></trkpt><trkpt lat="43.1556906" lon="11.9460295"><ele>323.0</ele><time>2026-04-10T09:06:26.418Z</time></trkpt><trkpt lat="43.1556152" lon="11.9458659"><ele>323.0</ele><time>2026-04-10T09:06:27.42Z</time></trkpt><trkpt lat="43.1555469" lon="11.9456835"><ele>323.0</ele><time>2026-04-10T09:06:28.423Z</time></trkpt><trkpt lat="43.1554869" lon="11.9454748"><ele>323.0</ele><time>2026-04-10T09:06:29.419Z</time></trkpt><trkpt lat="43.155428" lon="11.9452476"><ele>323.0</ele><time>2026-04-10T09:06:30.42Z</time></trkpt><trkpt lat="43.1553715" lon="11.9450083"><ele>323.0</ele><time>2026-04-10T09:06:31.409Z</time></trkpt><trkpt lat="43.1553167" lon="11.9447557"><ele>323.0</ele><time>2026-04-10T09:06:32.411Z</time></trkpt><trkpt lat="43.155281" lon="11.9445034"><ele>323.0</ele><time>2026-04-10T09:06:33.424Z</time></trkpt><trkpt lat="43.155215" lon="11.9442422"><ele>322.6666666666667</ele><time>2026-04-10T09:06:34.476Z</time></trkpt><trkpt lat="43.1551513" lon="11.9439777"><ele>322.3333333333333</ele><time>2026-04-10T09:06:35.427Z</time></trkpt><trkpt lat="43.1550866" lon="11.9437178"><ele>322.0</ele><time>2026-04-10T09:06:36.427Z</time></trkpt><trkpt lat="43.1550134" lon="11.9434545"><ele>322.3333333333333</ele><time>2026-04-10T09:06:37.426Z</time></trkpt><trkpt lat="43.1549413" lon="11.9431908"><ele>322.6666666666667</ele><time>2026-04-10T09:06:38.455Z</time></trkpt><trkpt lat="43.1548708" lon="11.9429396"><ele>323.0</ele><time>2026-04-10T09:06:39.413Z</time></trkpt><trkpt lat="43.1548027" lon="11.9427053"><ele>323.6666666666667</ele><time>2026-04-10T09:06:40.412Z</time></trkpt><trkpt lat="43.1547351" lon="11.9424785"><ele>324.3333333333333</ele><time>2026-04-10T09:06:41.416Z</time></trkpt><trkpt lat="43.1546644" lon="11.9422526"><ele>325.0</ele><time>2026-04-10T09:06:42.43Z</time></trkpt><trkpt lat="43.1545985" lon="11.9420373"><ele>326.5</ele><time>2026-04-10T09:06:43.42Z</time></trkpt><trkpt lat="43.1544767" lon="11.9416549"><ele>328.0</ele><time>2026-04-10T09:06:45.415Z</time></trkpt><trkpt lat="43.1544063" lon="11.9414757"><ele>328.0</ele><time>2026-04-10T09:06:46.417Z</time></trkpt><trkpt lat="43.1543279" lon="11.9412993"><ele>328.0</ele><time>2026-04-10T09:06:47.418Z</time></trkpt><trkpt lat="43.1542465" lon="11.9411402"><ele>328.0</ele><time>2026-04-10T09:06:48.412Z</time></trkpt><trkpt lat="43.1541602" lon="11.940993"><ele>328.0</ele><time>2026-04-10T09:06:49.419Z</time></trkpt><trkpt lat="43.1540539" lon="11.940853"><ele>329.25</ele><time>2026-04-10T09:06:50.413Z</time></trkpt><trkpt lat="43.1539341" lon="11.9407154"><ele>330.5</ele><time>2026-04-10T09:06:51.417Z</time></trkpt><trkpt lat="43.1538172" lon="11.9405979"><ele>331.75</ele><time>2026-04-10T09:06:52.422Z</time></trkpt><trkpt lat="43.1537147" lon="11.9405003"><ele>333.0</ele><time>2026-04-10T09:06:53.417Z</time></trkpt><trkpt lat="43.1536218" lon="11.9404135"><ele>333.0</ele><time>2026-04-10T09:06:54.445Z</time></trkpt><trkpt lat="43.1535557" lon="11.9403415"><ele>333.0</ele><time>2026-04-10T09:06:55.418Z</time></trkpt><trkpt lat="43.1534796" lon="11.9402548"><ele>333.0</ele><time>2026-04-10T09:06:57.418Z</time></trkpt><trkpt lat="43.1534435" lon="11.94018"><ele>333.0</ele><time>2026-04-10T09:06:59.426Z</time></trkpt><trkpt lat="43.1533898" lon="11.9400568"><ele>333.0</ele><time>2026-04-10T09:07:01.42Z</time></trkpt><trkpt lat="43.15336" lon="11.9399734"><ele>333.0</ele><time>2026-04-10T09:07:02.425Z</time></trkpt><trkpt lat="43.153309" lon="11.9398141"><ele>333.79999999999995</ele><time>2026-04-10T09:07:04.416Z</time></trkpt><trkpt lat="43.1532823" lon="11.9397282"><ele>334.6</ele><time>2026-04-10T09:07:05.413Z</time></trkpt><trkpt lat="43.1532454" lon="11.9396233"><ele>335.4</ele><time>2026-04-10T09:07:07.404Z</time></trkpt><trkpt lat="43.1531674" lon="11.9395599"><ele>336.20000000000005</ele><time>2026-04-10T09:07:11.422Z</time></trkpt><trkpt lat="43.1530472" lon="11.9395959"><ele>337.0</ele><time>2026-04-10T09:07:13.417Z</time></trkpt><trkpt lat="43.1529364" lon="11.9396505"><ele>337.0</ele><time>2026-04-10T09:07:15.417Z</time></trkpt><trkpt lat="43.1527972" lon="11.9396956"><ele>337.0</ele><time>2026-04-10T09:07:17.422Z</time></trkpt><trkpt lat="43.1527209" lon="11.9397078"><ele>337.0</ele><time>2026-04-10T09:07:18.426Z</time></trkpt><trkpt lat="43.1526509" lon="11.9397125"><ele>337.0</ele><time>2026-04-10T09:07:19.411Z</time></trkpt><trkpt lat="43.1525641" lon="11.9397079"><ele>337.0</ele><time>2026-04-10T09:07:20.42Z</time></trkpt><trkpt lat="43.1523907" lon="11.9396694"><ele>337.25</ele><time>2026-04-10T09:07:22.412Z</time></trkpt><trkpt lat="43.1522893" lon="11.9396535"><ele>337.5</ele><time>2026-04-10T09:07:23.411Z</time></trkpt><trkpt lat="43.1521885" lon="11.9396389"><ele>337.75</ele><time>2026-04-10T09:07:24.411Z</time></trkpt><trkpt lat="43.1519571" lon="11.9395903"><ele>338.0</ele><time>2026-04-10T09:07:26.416Z</time></trkpt><trkpt lat="43.1517198" lon="11.939535"><ele>338.0</ele><time>2026-04-10T09:07:28.413Z</time></trkpt><trkpt lat="43.1515959" lon="11.9395097"><ele>338.0</ele><time>2026-04-10T09:07:29.412Z</time></trkpt><trkpt lat="43.1514729" lon="11.9394848"><ele>338.0</ele><time>2026-04-10T09:07:30.458Z</time></trkpt><trkpt lat="43.1513509" lon="11.9394547"><ele>338.0</ele><time>2026-04-10T09:07:31.428Z</time></trkpt><trkpt lat="43.151231" lon="11.9394281"><ele>338.25</ele><time>2026-04-10T09:07:32.435Z</time></trkpt><trkpt lat="43.1511144" lon="11.9393949"><ele>338.5</ele><time>2026-04-10T09:07:33.433Z</time></trkpt><trkpt lat="43.1509966" lon="11.9393628"><ele>338.75</ele><time>2026-04-10T09:07:34.436Z</time></trkpt><trkpt lat="43.1508642" lon="11.9393335"><ele>339.0</ele><time>2026-04-10T09:07:35.417Z</time></trkpt><trkpt lat="43.1507425" lon="11.9393121"><ele>339.0</ele><time>2026-04-10T09:07:36.415Z</time></trkpt><trkpt lat="43.1506138" lon="11.9392939"><ele>339.0</ele><time>2026-04-10T09:07:37.427Z</time></trkpt><trkpt lat="43.1504899" lon="11.9392615"><ele>339.0</ele><time>2026-04-10T09:07:38.418Z</time></trkpt><trkpt lat="43.1503621" lon="11.9392164"><ele>339.0</ele><time>2026-04-10T09:07:39.424Z</time></trkpt><trkpt lat="43.1502286" lon="11.9391593"><ele>339.0</ele><time>2026-04-10T09:07:40.415Z</time></trkpt><trkpt lat="43.1500952" lon="11.9390817"><ele>339.0</ele><time>2026-04-10T09:07:41.425Z</time></trkpt><trkpt lat="43.149969" lon="11.9389871"><ele>339.0</ele><time>2026-04-10T09:07:42.422Z</time></trkpt><trkpt lat="43.149842" lon="11.9388895"><ele>339.0</ele><time>2026-04-10T09:07:43.422Z</time></trkpt><trkpt lat="43.1497186" lon="11.9387962"><ele>338.3333333333333</ele><time>2026-04-10T09:07:44.411Z</time></trkpt><trkpt lat="43.1496043" lon="11.9387105"><ele>337.66666666666663</ele><time>2026-04-10T09:07:45.424Z</time></trkpt><trkpt lat="43.1495003" lon="11.9386317"><ele>337.0</ele><time>2026-04-10T09:07:46.411Z</time></trkpt><trkpt lat="43.1493021" lon="11.9384891"><ele>337.0</ele><time>2026-04-10T09:07:48.411Z</time></trkpt><trkpt lat="43.1492293" lon="11.9384382"><ele>337.0</ele><time>2026-04-10T09:07:49.419Z</time></trkpt><trkpt lat="43.1491482" lon="11.9383937"><ele>337.0</ele><time>2026-04-10T09:07:50.44Z</time></trkpt><trkpt lat="43.149081" lon="11.9383443"><ele>337.0</ele><time>2026-04-10T09:07:51.444Z</time></trkpt><trkpt lat="43.1490271" lon="11.9382875"><ele>337.0</ele><time>2026-04-10T09:07:52.44Z</time></trkpt><trkpt lat="43.1489561" lon="11.9381851"><ele>337.0</ele><time>2026-04-10T09:07:54.419Z</time></trkpt><trkpt lat="43.1488806" lon="11.9380603"><ele>337.66666666666663</ele><time>2026-04-10T09:07:56.427Z</time></trkpt><trkpt lat="43.1488257" lon="11.9379784"><ele>338.3333333333333</ele><time>2026-04-10T09:07:57.426Z</time></trkpt><trkpt lat="43.1487674" lon="11.9378839"><ele>339.0</ele><time>2026-04-10T09:07:58.422Z</time></trkpt><trkpt lat="43.1487022" lon="11.9377972"><ele>339.6666666666667</ele><time>2026-04-10T09:07:59.422Z</time></trkpt><trkpt lat="43.1486416" lon="11.9377071"><ele>340.33333333333337</ele><time>2026-04-10T09:08:00.415Z</time></trkpt><trkpt lat="43.1485983" lon="11.937612"><ele>341.0</ele><time>2026-04-10T09:08:01.415Z</time></trkpt><trkpt lat="43.1485472" lon="11.9375011"><ele>341.0</ele><time>2026-04-10T09:08:02.422Z</time></trkpt><trkpt lat="43.1485094" lon="11.9373741"><ele>341.0</ele><time>2026-04-10T09:08:03.419Z</time></trkpt><trkpt lat="43.14848" lon="11.9372561"><ele>341.0</ele><time>2026-04-10T09:08:04.415Z</time></trkpt><trkpt lat="43.1484645" lon="11.937137"><ele>341.0</ele><time>2026-04-10T09:08:05.424Z</time></trkpt><trkpt lat="43.1484449" lon="11.9370074"><ele>341.0</ele><time>2026-04-10T09:08:06.412Z</time></trkpt><trkpt lat="43.1484278" lon="11.9368797"><ele>341.0</ele><time>2026-04-10T09:08:07.414Z</time></trkpt><trkpt lat="43.148409" lon="11.9367474"><ele>341.0</ele><time>2026-04-10T09:08:08.413Z</time></trkpt><trkpt lat="43.1483951" lon="11.936618"><ele>341.0</ele><time>2026-04-10T09:08:09.415Z</time></trkpt><trkpt lat="43.1483955" lon="11.9365124"><ele>341.0</ele><time>2026-04-10T09:08:10.412Z</time></trkpt><trkpt lat="43.1484007" lon="11.9364094"><ele>341.0</ele><time>2026-04-10T09:08:11.412Z</time></trkpt><trkpt lat="43.1484055" lon="11.9362858"><ele>341.0</ele><time>2026-04-10T09:08:12.415Z</time></trkpt><trkpt lat="43.1484122" lon="11.9361506"><ele>340.20000000000005</ele><time>2026-04-10T09:08:13.416Z</time></trkpt><trkpt lat="43.1484301" lon="11.9360178"><ele>339.40000000000003</ele><time>2026-04-10T09:08:14.412Z</time></trkpt><trkpt lat="43.1484466" lon="11.9358864"><ele>338.6</ele><time>2026-04-10T09:08:15.418Z</time></trkpt><trkpt lat="43.1484561" lon="11.9357582"><ele>337.8</ele><time>2026-04-10T09:08:16.423Z</time></trkpt><trkpt lat="43.1484645" lon="11.9356294"><ele>337.0</ele><time>2026-04-10T09:08:17.413Z</time></trkpt><trkpt lat="43.1484619" lon="11.9354974"><ele>335.6</ele><time>2026-04-10T09:08:18.414Z</time></trkpt><trkpt lat="43.1484468" lon="11.9353546"><ele>334.20000000000005</ele><time>2026-04-10T09:08:19.418Z</time></trkpt><trkpt lat="43.1484213" lon="11.9352051"><ele>332.8</ele><time>2026-04-10T09:08:20.414Z</time></trkpt><trkpt lat="43.1483958" lon="11.9350554"><ele>331.4</ele><time>2026-04-10T09:08:21.413Z</time></trkpt><trkpt lat="43.148375" lon="11.9349201"><ele>330.0</ele><time>2026-04-10T09:08:22.424Z</time></trkpt><trkpt lat="43.1483567" lon="11.9347879"><ele>329.0</ele><time>2026-04-10T09:08:23.413Z</time></trkpt><trkpt lat="43.1483418" lon="11.9346599"><ele>328.0</ele><time>2026-04-10T09:08:24.42Z</time></trkpt><trkpt lat="43.1483301" lon="11.9345392"><ele>327.0</ele><time>2026-04-10T09:08:25.423Z</time></trkpt><trkpt lat="43.1483286" lon="11.9344111"><ele>326.0</ele><time>2026-04-10T09:08:26.414Z</time></trkpt><trkpt lat="43.1483408" lon="11.9342742"><ele>325.0</ele><time>2026-04-10T09:08:27.42Z</time></trkpt><trkpt lat="43.148368" lon="11.9341204"><ele>324.5</ele><time>2026-04-10T09:08:28.423Z</time></trkpt><trkpt lat="43.1483986" lon="11.9339541"><ele>324.0</ele><time>2026-04-10T09:08:29.418Z</time></trkpt><trkpt lat="43.1484284" lon="11.9337698"><ele>323.5</ele><time>2026-04-10T09:08:30.415Z</time></trkpt><trkpt lat="43.1484548" lon="11.9335804"><ele>323.0</ele><time>2026-04-10T09:08:31.412Z</time></trkpt><trkpt lat="43.1484793" lon="11.9334046"><ele>320.75</ele><time>2026-04-10T09:08:32.414Z</time></trkpt><trkpt lat="43.1484995" lon="11.9332303"><ele>318.5</ele><time>2026-04-10T09:08:33.42Z</time></trkpt><trkpt lat="43.1485194" lon="11.9330733"><ele>316.25</ele><time>2026-04-10T09:08:34.434Z</time></trkpt><trkpt lat="43.1485289" lon="11.9329043"><ele>314.0</ele><time>2026-04-10T09:08:35.423Z</time></trkpt><trkpt lat="43.1485404" lon="11.9327344"><ele>313.75</ele><time>2026-04-10T09:08:36.422Z</time></trkpt><trkpt lat="43.1485581" lon="11.9325539"><ele>313.5</ele><time>2026-04-10T09:08:37.42Z</time></trkpt><trkpt lat="43.1485807" lon="11.9323646"><ele>313.25</ele><time>2026-04-10T09:08:38.412Z</time></trkpt><trkpt lat="43.148614" lon="11.93218"><ele>313.0</ele><time>2026-04-10T09:08:39.418Z</time></trkpt><trkpt lat="43.1486505" lon="11.9320109"><ele>313.0</ele><time>2026-04-10T09:08:40.42Z</time></trkpt><trkpt lat="43.1486865" lon="11.931847"><ele>313.0</ele><time>2026-04-10T09:08:41.409Z</time></trkpt><trkpt lat="43.1487213" lon="11.9316888"><ele>313.0</ele><time>2026-04-10T09:08:42.42Z</time></trkpt><trkpt lat="43.1487456" lon="11.9315258"><ele>313.0</ele><time>2026-04-10T09:08:43.415Z</time></trkpt><trkpt lat="43.1487562" lon="11.9313529"><ele>313.75</ele><time>2026-04-10T09:08:44.421Z</time></trkpt><trkpt lat="43.1487542" lon="11.9311708"><ele>314.5</ele><time>2026-04-10T09:08:45.419Z</time></trkpt><trkpt lat="43.1487356" lon="11.9309792"><ele>315.25</ele><time>2026-04-10T09:08:46.42Z</time></trkpt><trkpt lat="43.1487181" lon="11.9307838"><ele>316.0</ele><time>2026-04-10T09:08:47.422Z</time></trkpt><trkpt lat="43.1487022" lon="11.9306061"><ele>316.5</ele><time>2026-04-10T09:08:48.419Z</time></trkpt><trkpt lat="43.1486955" lon="11.930441"><ele>317.0</ele><time>2026-04-10T09:08:49.422Z</time></trkpt><trkpt lat="43.1486966" lon="11.9302668"><ele>317.5</ele><time>2026-04-10T09:08:50.426Z</time></trkpt><trkpt lat="43.1487124" lon="11.93008"><ele>318.0</ele><time>2026-04-10T09:08:51.42Z</time></trkpt><trkpt lat="43.1487494" lon="11.929882"><ele>318.5</ele><time>2026-04-10T09:08:52.42Z</time></trkpt><trkpt lat="43.1487763" lon="11.9296949"><ele>319.0</ele><time>2026-04-10T09:08:53.41Z</time></trkpt><trkpt lat="43.1487947" lon="11.9295198"><ele>319.5</ele><time>2026-04-10T09:08:54.418Z</time></trkpt><trkpt lat="43.1488056" lon="11.9293593"><ele>320.0</ele><time>2026-04-10T09:08:55.421Z</time></trkpt><trkpt lat="43.1488101" lon="11.9292001"><ele>318.5</ele><time>2026-04-10T09:08:56.416Z</time></trkpt><trkpt lat="43.1487986" lon="11.9290262"><ele>317.0</ele><time>2026-04-10T09:08:57.423Z</time></trkpt><trkpt lat="43.1487824" lon="11.9288417"><ele>315.5</ele><time>2026-04-10T09:08:58.415Z</time></trkpt><trkpt lat="43.1487592" lon="11.928661"><ele>314.0</ele><time>2026-04-10T09:08:59.424Z</time></trkpt><trkpt lat="43.1487323" lon="11.9284749"><ele>312.6666666666667</ele><time>2026-04-10T09:09:00.412Z</time></trkpt><trkpt lat="43.1487038" lon="11.9282777"><ele>311.3333333333333</ele><time>2026-04-10T09:09:01.418Z</time></trkpt><trkpt lat="43.1486773" lon="11.9280652"><ele>310.0</ele><time>2026-04-10T09:09:02.425Z</time></trkpt><trkpt lat="43.1486547" lon="11.9278495"><ele>310.0</ele><time>2026-04-10T09:09:03.426Z</time></trkpt><trkpt lat="43.1486303" lon="11.9276265"><ele>310.0</ele><time>2026-04-10T09:09:04.418Z</time></trkpt><trkpt lat="43.1486045" lon="11.9273938"><ele>310.0</ele><time>2026-04-10T09:09:05.425Z</time></trkpt><trkpt lat="43.1485782" lon="11.927161"><ele>308.66666666666663</ele><time>2026-04-10T09:09:06.422Z</time></trkpt><trkpt lat="43.1485527" lon="11.9269319"><ele>307.3333333333333</ele><time>2026-04-10T09:09:07.427Z</time></trkpt><trkpt lat="43.1485344" lon="11.9267192"><ele>306.0</ele><time>2026-04-10T09:09:08.423Z</time></trkpt><trkpt lat="43.1485184" lon="11.9265126"><ele>304.0</ele><time>2026-04-10T09:09:09.423Z</time></trkpt><trkpt lat="43.1484945" lon="11.9263143"><ele>302.0</ele><time>2026-04-10T09:09:10.419Z</time></trkpt><trkpt lat="43.1484707" lon="11.9261028"><ele>300.0</ele><time>2026-04-10T09:09:11.41Z</time></trkpt><trkpt lat="43.1484495" lon="11.9258977"><ele>300.25</ele><time>2026-04-10T09:09:12.413Z</time></trkpt><trkpt lat="43.1484276" lon="11.9257131"><ele>300.5</ele><time>2026-04-10T09:09:13.422Z</time></trkpt><trkpt lat="43.1484048" lon="11.9255432"><ele>300.75</ele><time>2026-04-10T09:09:14.415Z</time></trkpt><trkpt lat="43.1483907" lon="11.9253771"><ele>301.0</ele><time>2026-04-10T09:09:15.418Z</time></trkpt><trkpt lat="43.1483823" lon="11.9252617"><ele>301.75</ele><time>2026-04-10T09:09:16.428Z</time></trkpt><trkpt lat="43.1483562" lon="11.9250092"><ele>302.5</ele><time>2026-04-10T09:09:18.426Z</time></trkpt><trkpt lat="43.1483378" lon="11.9248925"><ele>303.25</ele><time>2026-04-10T09:09:19.42Z</time></trkpt><trkpt lat="43.1482914" lon="11.9246937"><ele>304.0</ele><time>2026-04-10T09:09:21.44Z</time></trkpt><trkpt lat="43.1482551" lon="11.9246079"><ele>303.66666666666663</ele><time>2026-04-10T09:09:22.413Z</time></trkpt><trkpt lat="43.1482063" lon="11.9245361"><ele>303.3333333333333</ele><time>2026-04-10T09:09:23.412Z</time></trkpt><trkpt lat="43.1481465" lon="11.924473"><ele>303.0</ele><time>2026-04-10T09:09:24.455Z</time></trkpt><trkpt lat="43.1480715" lon="11.9244175"><ele>302.6666666666667</ele><time>2026-04-10T09:09:25.422Z</time></trkpt><trkpt lat="43.1479805" lon="11.924374"><ele>302.33333333333337</ele><time>2026-04-10T09:09:26.42Z</time></trkpt><trkpt lat="43.1478678" lon="11.9243333"><ele>302.0</ele><time>2026-04-10T09:09:27.416Z</time></trkpt><trkpt lat="43.1477415" lon="11.9242955"><ele>302.0</ele><time>2026-04-10T09:09:28.425Z</time></trkpt><trkpt lat="43.1476085" lon="11.9242514"><ele>302.0</ele><time>2026-04-10T09:09:29.411Z</time></trkpt><trkpt lat="43.1474667" lon="11.9242068"><ele>302.0</ele><time>2026-04-10T09:09:30.414Z</time></trkpt><trkpt lat="43.1473093" lon="11.9241668"><ele>302.0</ele><time>2026-04-10T09:09:31.419Z</time></trkpt><trkpt lat="43.1471525" lon="11.9241251"><ele>303.5</ele><time>2026-04-10T09:09:32.425Z</time></trkpt><trkpt lat="43.1470009" lon="11.9240879"><ele>305.0</ele><time>2026-04-10T09:09:33.417Z</time></trkpt><trkpt lat="43.1468585" lon="11.9240641"><ele>306.5</ele><time>2026-04-10T09:09:34.417Z</time></trkpt><trkpt lat="43.1467199" lon="11.9240499"><ele>308.0</ele><time>2026-04-10T09:09:35.424Z</time></trkpt><trkpt lat="43.1465804" lon="11.9240345"><ele>308.25</ele><time>2026-04-10T09:09:36.425Z</time></trkpt><trkpt lat="43.1464601" lon="11.924017"><ele>308.5</ele><time>2026-04-10T09:09:37.411Z</time></trkpt><trkpt lat="43.1463506" lon="11.9239894"><ele>308.75</ele><time>2026-04-10T09:09:38.416Z</time></trkpt><trkpt lat="43.1462463" lon="11.923949"><ele>309.0</ele><time>2026-04-10T09:09:39.412Z</time></trkpt><trkpt lat="43.1461413" lon="11.9238932"><ele>309.0</ele><time>2026-04-10T09:09:40.413Z</time></trkpt><trkpt lat="43.1460447" lon="11.923828"><ele>309.0</ele><time>2026-04-10T09:09:41.418Z</time></trkpt><trkpt lat="43.1459573" lon="11.9237607"><ele>309.0</ele><time>2026-04-10T09:09:42.415Z</time></trkpt><trkpt lat="43.1458748" lon="11.9236969"><ele>309.0</ele><time>2026-04-10T09:09:43.421Z</time></trkpt><trkpt lat="43.1457914" lon="11.9236287"><ele>309.0</ele><time>2026-04-10T09:09:44.416Z</time></trkpt><trkpt lat="43.1457126" lon="11.9235713"><ele>308.8</ele><time>2026-04-10T09:09:45.415Z</time></trkpt><trkpt lat="43.1456392" lon="11.923516"><ele>308.59999999999997</ele><time>2026-04-10T09:09:46.42Z</time></trkpt><trkpt lat="43.1455616" lon="11.9234675"><ele>308.4</ele><time>2026-04-10T09:09:47.411Z</time></trkpt><trkpt lat="43.1454708" lon="11.923416"><ele>308.2</ele><time>2026-04-10T09:09:48.414Z</time></trkpt><trkpt lat="43.1453711" lon="11.9233649"><ele>308.0</ele><time>2026-04-10T09:09:49.413Z</time></trkpt><trkpt lat="43.1452648" lon="11.9233249"><ele>306.25</ele><time>2026-04-10T09:09:50.41Z</time></trkpt><trkpt lat="43.1451515" lon="11.9232954"><ele>304.5</ele><time>2026-04-10T09:09:51.412Z</time></trkpt><trkpt lat="43.1450318" lon="11.9232839"><ele>302.75</ele><time>2026-04-10T09:09:52.426Z</time></trkpt><trkpt lat="43.1449023" lon="11.9232881"><ele>301.0</ele><time>2026-04-10T09:09:53.423Z</time></trkpt><trkpt lat="43.1447554" lon="11.9232956"><ele>301.0</ele><time>2026-04-10T09:09:54.415Z</time></trkpt><trkpt lat="43.1445981" lon="11.9233137"><ele>301.0</ele><time>2026-04-10T09:09:55.418Z</time></trkpt><trkpt lat="43.1444353" lon="11.923338"><ele>301.0</ele><time>2026-04-10T09:09:56.429Z</time></trkpt><trkpt lat="43.1442715" lon="11.9233536"><ele>301.0</ele><time>2026-04-10T09:09:57.412Z</time></trkpt><trkpt lat="43.1441088" lon="11.9233708"><ele>301.0</ele><time>2026-04-10T09:09:58.414Z</time></trkpt><trkpt lat="43.1439626" lon="11.9233888"><ele>301.0</ele><time>2026-04-10T09:09:59.414Z</time></trkpt><trkpt lat="43.143823" lon="11.9234054"><ele>300.75</ele><time>2026-04-10T09:10:00.418Z</time></trkpt><trkpt lat="43.1436848" lon="11.9234196"><ele>300.5</ele><time>2026-04-10T09:10:01.417Z</time></trkpt><trkpt lat="43.1435437" lon="11.9234182"><ele>300.25</ele><time>2026-04-10T09:10:02.412Z</time></trkpt><trkpt lat="43.1434016" lon="11.9234074"><ele>300.0</ele><time>2026-04-10T09:10:03.42Z</time></trkpt><trkpt lat="43.1432614" lon="11.9233873"><ele>301.75</ele><time>2026-04-10T09:10:04.416Z</time></trkpt><trkpt lat="43.143135" lon="11.9233597"><ele>303.5</ele><time>2026-04-10T09:10:05.426Z</time></trkpt><trkpt lat="43.1430134" lon="11.9233275"><ele>305.25</ele><time>2026-04-10T09:10:06.416Z</time></trkpt><trkpt lat="43.1428947" lon="11.9232816"><ele>307.0</ele><time>2026-04-10T09:10:07.413Z</time></trkpt><trkpt lat="43.1427746" lon="11.9232257"><ele>307.0</ele><time>2026-04-10T09:10:08.419Z</time></trkpt><trkpt lat="43.1426479" lon="11.9231508"><ele>307.0</ele><time>2026-04-10T09:10:09.419Z</time></trkpt><trkpt lat="43.142512" lon="11.9230725"><ele>307.0</ele><time>2026-04-10T09:10:10.424Z</time></trkpt><trkpt lat="43.1423668" lon="11.922982"><ele>307.0</ele><time>2026-04-10T09:10:11.414Z</time></trkpt><trkpt lat="43.1422183" lon="11.9228897"><ele>307.66666666666663</ele><time>2026-04-10T09:10:12.41Z</time></trkpt><trkpt lat="43.1420698" lon="11.922803"><ele>308.3333333333333</ele><time>2026-04-10T09:10:13.418Z</time></trkpt><trkpt lat="43.1419321" lon="11.9227194"><ele>309.0</ele><time>2026-04-10T09:10:14.417Z</time></trkpt><trkpt lat="43.141805" lon="11.9226466"><ele>309.0</ele><time>2026-04-10T09:10:15.414Z</time></trkpt><trkpt lat="43.1416895" lon="11.9225823"><ele>309.0</ele><time>2026-04-10T09:10:16.411Z</time></trkpt><trkpt lat="43.1415867" lon="11.9225275"><ele>309.0</ele><time>2026-04-10T09:10:17.411Z</time></trkpt><trkpt lat="43.1414897" lon="11.9224759"><ele>309.0</ele><time>2026-04-10T09:10:18.414Z</time></trkpt><trkpt lat="43.1414018" lon="11.9224306"><ele>309.0</ele><time>2026-04-10T09:10:19.419Z</time></trkpt><trkpt lat="43.1413138" lon="11.9223915"><ele>309.4</ele><time>2026-04-10T09:10:20.418Z</time></trkpt><trkpt lat="43.1412242" lon="11.9223571"><ele>309.79999999999995</ele><time>2026-04-10T09:10:21.42Z</time></trkpt><trkpt lat="43.1411302" lon="11.9223231"><ele>310.20000000000005</ele><time>2026-04-10T09:10:22.423Z</time></trkpt><trkpt lat="43.1410224" lon="11.9222842"><ele>310.6</ele><time>2026-04-10T09:10:23.412Z</time></trkpt><trkpt lat="43.140904" lon="11.9222409"><ele>311.0</ele><time>2026-04-10T09:10:24.424Z</time></trkpt><trkpt lat="43.1407692" lon="11.9221786"><ele>309.33333333333337</ele><time>2026-04-10T09:10:25.416Z</time></trkpt><trkpt lat="43.1406316" lon="11.9221057"><ele>307.6666666666667</ele><time>2026-04-10T09:10:26.417Z</time></trkpt><trkpt lat="43.1404887" lon="11.9220254"><ele>306.0</ele><time>2026-04-10T09:10:27.411Z</time></trkpt><trkpt lat="43.1403417" lon="11.9219439"><ele>306.0</ele><time>2026-04-10T09:10:28.42Z</time></trkpt><trkpt lat="43.140206" lon="11.9218634"><ele>306.0</ele><time>2026-04-10T09:10:29.418Z</time></trkpt><trkpt lat="43.1400725" lon="11.92179"><ele>306.0</ele><time>2026-04-10T09:10:30.408Z</time></trkpt><trkpt lat="43.1399342" lon="11.9217204"><ele>306.0</ele><time>2026-04-10T09:10:31.416Z</time></trkpt><trkpt lat="43.1397945" lon="11.9216702"><ele>307.2</ele><time>2026-04-10T09:10:32.418Z</time></trkpt><trkpt lat="43.1396628" lon="11.9216353"><ele>308.40000000000003</ele><time>2026-04-10T09:10:33.416Z</time></trkpt><trkpt lat="43.1395471" lon="11.9216069"><ele>309.6</ele><time>2026-04-10T09:10:34.418Z</time></trkpt><trkpt lat="43.139442" lon="11.9215866"><ele>310.8</ele><time>2026-04-10T09:10:35.42Z</time></trkpt><trkpt lat="43.1393533" lon="11.9215682"><ele>312.0</ele><time>2026-04-10T09:10:36.422Z</time></trkpt><trkpt lat="43.1392718" lon="11.9215602"><ele>312.0</ele><time>2026-04-10T09:10:37.422Z</time></trkpt><trkpt lat="43.1391957" lon="11.9215569"><ele>312.0</ele><time>2026-04-10T09:10:38.411Z</time></trkpt><trkpt lat="43.1391265" lon="11.9215544"><ele>312.0</ele><time>2026-04-10T09:10:39.416Z</time></trkpt><trkpt lat="43.1390595" lon="11.9215562"><ele>312.0</ele><time>2026-04-10T09:10:40.414Z</time></trkpt><trkpt lat="43.1389667" lon="11.9215572"><ele>312.0</ele><time>2026-04-10T09:10:42.415Z</time></trkpt><trkpt lat="43.1389168" lon="11.9214894"><ele>312.0</ele><time>2026-04-10T09:10:45.421Z</time></trkpt><trkpt lat="43.1389049" lon="11.9213823"><ele>311.8</ele><time>2026-04-10T09:10:47.418Z</time></trkpt><trkpt lat="43.1388768" lon="11.9212451"><ele>311.6</ele><time>2026-04-10T09:10:49.444Z</time></trkpt><trkpt lat="43.1388459" lon="11.9211065"><ele>311.40000000000003</ele><time>2026-04-10T09:10:51.419Z</time></trkpt><trkpt lat="43.1388165" lon="11.921018"><ele>311.2</ele><time>2026-04-10T09:10:54.441Z</time></trkpt><trkpt lat="43.1387452" lon="11.920869"><ele>311.0</ele><time>2026-04-10T09:10:56.409Z</time></trkpt><trkpt lat="43.1386607" lon="11.9207602"><ele>310.75</ele><time>2026-04-10T09:10:58.424Z</time></trkpt><trkpt lat="43.1385956" lon="11.9206732"><ele>310.5</ele><time>2026-04-10T09:11:00.434Z</time></trkpt><trkpt lat="43.1385399" lon="11.9205721"><ele>310.25</ele><time>2026-04-10T09:11:02.408Z</time></trkpt><trkpt lat="43.1384882" lon="11.9204406"><ele>310.0</ele><time>2026-04-10T09:11:08.075Z</time></trkpt><trkpt lat="43.138437" lon="11.920153"><ele>309.5</ele><time>2026-04-10T09:11:09.415Z</time></trkpt><trkpt lat="43.1384318" lon="11.9200461"><ele>309.0</ele><time>2026-04-10T09:11:11.417Z</time></trkpt><trkpt lat="43.1384121" lon="11.9199243"><ele>308.5</ele><time>2026-04-10T09:12:53.414Z</time></trkpt><trkpt lat="43.1384151" lon="11.9198362"><ele>308.0</ele><time>2026-04-10T09:12:54.414Z</time></trkpt><trkpt lat="43.1384215" lon="11.9197017"><ele>307.5</ele><time>2026-04-10T09:13:03.416Z</time></trkpt><trkpt lat="43.1384335" lon="11.9196114"><ele>307.0</ele><time>2026-04-10T09:13:04.421Z</time></trkpt><trkpt lat="43.1384503" lon="11.9195223"><ele>307.0</ele><time>2026-04-10T09:13:05.418Z</time></trkpt><trkpt lat="43.138469" lon="11.919434"><ele>307.0</ele><time>2026-04-10T09:13:06.419Z</time></trkpt><trkpt lat="43.1384785" lon="11.9193485"><ele>307.0</ele><time>2026-04-10T09:13:07.42Z</time></trkpt><trkpt lat="43.138462" lon="11.9191655"><ele>307.0</ele><time>2026-04-10T09:13:09.419Z</time></trkpt><trkpt lat="43.1384369" lon="11.9190574"><ele>307.0</ele><time>2026-04-10T09:13:10.422Z</time></trkpt><trkpt lat="43.138385" lon="11.9188934"><ele>307.0</ele><time>2026-04-10T09:13:11.414Z</time></trkpt><trkpt lat="43.1383372" lon="11.9187582"><ele>307.0</ele><time>2026-04-10T09:13:12.414Z</time></trkpt><trkpt lat="43.1382933" lon="11.9186143"><ele>307.0</ele><time>2026-04-10T09:13:13.412Z</time></trkpt><trkpt lat="43.1382584" lon="11.9184803"><ele>307.0</ele><time>2026-04-10T09:13:14.42Z</time></trkpt><trkpt lat="43.1382272" lon="11.9183409"><ele>307.0</ele><time>2026-04-10T09:13:15.413Z</time></trkpt><trkpt lat="43.1381946" lon="11.9181972"><ele>303.8</ele><time>2026-04-10T09:13:16.415Z</time></trkpt><trkpt lat="43.1381658" lon="11.9180687"><ele>300.6</ele><time>2026-04-10T09:13:17.421Z</time></trkpt><trkpt lat="43.1381305" lon="11.9179475"><ele>297.40000000000003</ele><time>2026-04-10T09:13:18.414Z</time></trkpt><trkpt lat="43.1380844" lon="11.9178256"><ele>294.2</ele><time>2026-04-10T09:13:19.411Z</time></trkpt><trkpt lat="43.1380345" lon="11.9177046"><ele>291.0</ele><time>2026-04-10T09:13:20.425Z</time></trkpt><trkpt lat="43.1379806" lon="11.9175976"><ele>291.8333333333333</ele><time>2026-04-10T09:13:21.414Z</time></trkpt><trkpt lat="43.1379306" lon="11.9174896"><ele>292.6666666666667</ele><time>2026-04-10T09:13:22.427Z</time></trkpt><trkpt lat="43.1378864" lon="11.9173917"><ele>293.5</ele><time>2026-04-10T09:13:23.413Z</time></trkpt><trkpt lat="43.1378439" lon="11.9172892"><ele>294.33333333333337</ele><time>2026-04-10T09:13:24.411Z</time></trkpt><trkpt lat="43.1378001" lon="11.9171857"><ele>295.1666666666667</ele><time>2026-04-10T09:13:25.413Z</time></trkpt><trkpt lat="43.1377622" lon="11.9170829"><ele>296.0</ele><time>2026-04-10T09:13:26.412Z</time></trkpt><trkpt lat="43.137736" lon="11.9169809"><ele>296.0</ele><time>2026-04-10T09:13:27.412Z</time></trkpt><trkpt lat="43.1377005" lon="11.9168823"><ele>296.0</ele><time>2026-04-10T09:13:28.416Z</time></trkpt><trkpt lat="43.1376625" lon="11.9167632"><ele>296.0</ele><time>2026-04-10T09:13:29.416Z</time></trkpt><trkpt lat="43.1376201" lon="11.916641"><ele>296.0</ele><time>2026-04-10T09:13:30.416Z</time></trkpt><trkpt lat="43.1375781" lon="11.9165266"><ele>296.0</ele><time>2026-04-10T09:13:31.409Z</time></trkpt><trkpt lat="43.1375374" lon="11.9164028"><ele>296.6666666666667</ele><time>2026-04-10T09:13:32.42Z</time></trkpt><trkpt lat="43.1374975" lon="11.9162804"><ele>297.33333333333337</ele><time>2026-04-10T09:13:33.414Z</time></trkpt><trkpt lat="43.1374676" lon="11.9161951"><ele>298.0</ele><time>2026-04-10T09:13:34.417Z</time></trkpt><trkpt lat="43.1374375" lon="11.9161124"><ele>298.6666666666667</ele><time>2026-04-10T09:13:35.411Z</time></trkpt><trkpt lat="43.1374085" lon="11.9160276"><ele>299.3333333333333</ele><time>2026-04-10T09:13:36.421Z</time></trkpt><trkpt lat="43.1373511" lon="11.9158713"><ele>300.0</ele><time>2026-04-10T09:13:38.429Z</time></trkpt><trkpt lat="43.1373179" lon="11.9157948"><ele>296.4</ele><time>2026-04-10T09:13:39.412Z</time></trkpt><trkpt lat="43.1372876" lon="11.9157102"><ele>292.8</ele><time>2026-04-10T09:13:40.409Z</time></trkpt><trkpt lat="43.1372536" lon="11.9156142"><ele>289.2</ele><time>2026-04-10T09:13:41.422Z</time></trkpt><trkpt lat="43.1372145" lon="11.9154994"><ele>285.6</ele><time>2026-04-10T09:13:42.411Z</time></trkpt><trkpt lat="43.1371726" lon="11.9153658"><ele>282.0</ele><time>2026-04-10T09:13:43.419Z</time></trkpt><trkpt lat="43.1371311" lon="11.9152288"><ele>282.0</ele><time>2026-04-10T09:13:44.435Z</time></trkpt><trkpt lat="43.1370897" lon="11.9150821"><ele>282.0</ele><time>2026-04-10T09:13:45.41Z</time></trkpt><trkpt lat="43.1370545" lon="11.9149526"><ele>282.0</ele><time>2026-04-10T09:13:46.413Z</time></trkpt><trkpt lat="43.1370165" lon="11.9148067"><ele>282.0</ele><time>2026-04-10T09:13:47.419Z</time></trkpt><trkpt lat="43.1369739" lon="11.9146559"><ele>282.0</ele><time>2026-04-10T09:13:48.419Z</time></trkpt><trkpt lat="43.1369298" lon="11.914493"><ele>283.0</ele><time>2026-04-10T09:13:49.418Z</time></trkpt><trkpt lat="43.1368928" lon="11.9143497"><ele>284.0</ele><time>2026-04-10T09:13:50.415Z</time></trkpt><trkpt lat="43.1368518" lon="11.9142287"><ele>285.0</ele><time>2026-04-10T09:13:51.416Z</time></trkpt><trkpt lat="43.1368035" lon="11.9141205"><ele>286.0</ele><time>2026-04-10T09:13:52.416Z</time></trkpt><trkpt lat="43.1367531" lon="11.9140278"><ele>287.0</ele><time>2026-04-10T09:13:53.415Z</time></trkpt><trkpt lat="43.1366816" lon="11.9138952"><ele>287.5</ele><time>2026-04-10T09:13:55.415Z</time></trkpt><trkpt lat="43.1366427" lon="11.9138272"><ele>288.0</ele><time>2026-04-10T09:13:56.414Z</time></trkpt><trkpt lat="43.1366008" lon="11.9137555"><ele>288.5</ele><time>2026-04-10T09:13:57.409Z</time></trkpt><trkpt lat="43.1365263" lon="11.9136179"><ele>289.0</ele><time>2026-04-10T09:13:59.426Z</time></trkpt><trkpt lat="43.136478" lon="11.9135385"><ele>289.5</ele><time>2026-04-10T09:14:00.413Z</time></trkpt><trkpt lat="43.1364226" lon="11.9134507"><ele>290.0</ele><time>2026-04-10T09:14:01.417Z</time></trkpt><trkpt lat="43.1363713" lon="11.9133657"><ele>287.83333333333337</ele><time>2026-04-10T09:14:02.417Z</time></trkpt><trkpt lat="43.1363202" lon="11.9132796"><ele>285.6666666666667</ele><time>2026-04-10T09:14:03.413Z</time></trkpt><trkpt lat="43.1362607" lon="11.9131854"><ele>283.5</ele><time>2026-04-10T09:14:04.417Z</time></trkpt><trkpt lat="43.1362077" lon="11.9130967"><ele>281.3333333333333</ele><time>2026-04-10T09:14:05.417Z</time></trkpt><trkpt lat="43.1361589" lon="11.9130113"><ele>279.16666666666663</ele><time>2026-04-10T09:14:06.417Z</time></trkpt><trkpt lat="43.136111" lon="11.9129269"><ele>277.0</ele><time>2026-04-10T09:14:07.416Z</time></trkpt><trkpt lat="43.136049" lon="11.9128254"><ele>277.0</ele><time>2026-04-10T09:14:08.421Z</time></trkpt><trkpt lat="43.1359878" lon="11.9127273"><ele>277.0</ele><time>2026-04-10T09:14:09.414Z</time></trkpt><trkpt lat="43.1359227" lon="11.9126247"><ele>277.0</ele><time>2026-04-10T09:14:10.42Z</time></trkpt><trkpt lat="43.1358623" lon="11.9125268"><ele>277.0</ele><time>2026-04-10T09:14:11.419Z</time></trkpt><trkpt lat="43.1357983" lon="11.912425"><ele>277.0</ele><time>2026-04-10T09:14:12.414Z</time></trkpt><trkpt lat="43.1357418" lon="11.9123309"><ele>275.2</ele><time>2026-04-10T09:14:13.419Z</time></trkpt><trkpt lat="43.1356922" lon="11.9122352"><ele>273.4</ele><time>2026-04-10T09:14:14.423Z</time></trkpt><trkpt lat="43.1356283" lon="11.9121305"><ele>271.6</ele><time>2026-04-10T09:14:15.412Z</time></trkpt><trkpt lat="43.1355702" lon="11.9120324"><ele>269.8</ele><time>2026-04-10T09:14:16.429Z</time></trkpt><trkpt lat="43.1355134" lon="11.911922"><ele>268.0</ele><time>2026-04-10T09:14:17.414Z</time></trkpt><trkpt lat="43.1354551" lon="11.9118216"><ele>268.2857142857143</ele><time>2026-04-10T09:14:18.414Z</time></trkpt><trkpt lat="43.1353976" lon="11.9117337"><ele>268.57142857142856</ele><time>2026-04-10T09:14:19.419Z</time></trkpt><trkpt lat="43.1353511" lon="11.9116494"><ele>268.85714285714283</ele><time>2026-04-10T09:14:20.423Z</time></trkpt><trkpt lat="43.1353047" lon="11.9115699"><ele>269.1428571428571</ele><time>2026-04-10T09:14:21.433Z</time></trkpt><trkpt lat="43.1352576" lon="11.9114933"><ele>269.4285714285714</ele><time>2026-04-10T09:14:22.417Z</time></trkpt><trkpt lat="43.1352128" lon="11.9114211"><ele>269.7142857142857</ele><time>2026-04-10T09:14:23.419Z</time></trkpt><trkpt lat="43.1351688" lon="11.9113489"><ele>270.0</ele><time>2026-04-10T09:14:24.419Z</time></trkpt><trkpt lat="43.1351229" lon="11.9112727"><ele>270.0</ele><time>2026-04-10T09:14:25.417Z</time></trkpt><trkpt lat="43.1350826" lon="11.9111993"><ele>270.0</ele><time>2026-04-10T09:14:26.41Z</time></trkpt><trkpt lat="43.135042" lon="11.9111229"><ele>270.0</ele><time>2026-04-10T09:14:27.414Z</time></trkpt><trkpt lat="43.1350027" lon="11.9110443"><ele>270.0</ele><time>2026-04-10T09:14:28.42Z</time></trkpt><trkpt lat="43.1349626" lon="11.9109774"><ele>270.0</ele><time>2026-04-10T09:14:29.424Z</time></trkpt><trkpt lat="43.1348996" lon="11.9108678"><ele>270.0</ele><time>2026-04-10T09:14:31.417Z</time></trkpt><trkpt lat="43.1348456" lon="11.9107689"><ele>267.8333333333333</ele><time>2026-04-10T09:14:33.417Z</time></trkpt><trkpt lat="43.1347885" lon="11.9106703"><ele>265.6666666666667</ele><time>2026-04-10T09:14:35.417Z</time></trkpt><trkpt lat="43.1347334" lon="11.9106003"><ele>263.5</ele><time>2026-04-10T09:14:37.43Z</time></trkpt><trkpt lat="43.1346616" lon="11.910599"><ele>261.33333333333337</ele><time>2026-04-10T09:14:39.409Z</time></trkpt><trkpt lat="43.1345696" lon="11.9106485"><ele>259.1666666666667</ele><time>2026-04-10T09:14:41.411Z</time></trkpt><trkpt lat="43.1344712" lon="11.9107133"><ele>257.0</ele><time>2026-04-10T09:14:43.437Z</time></trkpt><trkpt lat="43.1343728" lon="11.9107765"><ele>257.0</ele><time>2026-04-10T09:14:45.409Z</time></trkpt><trkpt lat="43.1342788" lon="11.9108407"><ele>257.0</ele><time>2026-04-10T09:14:47.416Z</time></trkpt><trkpt lat="43.1341824" lon="11.9108989"><ele>257.0</ele><time>2026-04-10T09:14:49.422Z</time></trkpt><trkpt lat="43.1341094" lon="11.9109023"><ele>257.0</ele><time>2026-04-10T09:14:51.411Z</time></trkpt><trkpt lat="43.1340623" lon="11.9108084"><ele>257.0</ele><time>2026-04-10T09:14:54.417Z</time></trkpt><trkpt lat="43.1341009" lon="11.910632"><ele>257.0</ele><time>2026-04-10T09:14:56.412Z</time></trkpt><trkpt lat="43.1341464" lon="11.9105137"><ele>257.0</ele><time>2026-04-10T09:14:57.421Z</time></trkpt><trkpt lat="43.1341985" lon="11.9103968"><ele>257.0</ele><time>2026-04-10T09:14:58.413Z</time></trkpt><trkpt lat="43.1342529" lon="11.9102973"><ele>257.0</ele><time>2026-04-10T09:14:59.414Z</time></trkpt><trkpt lat="43.134308" lon="11.9102089"><ele>257.0</ele><time>2026-04-10T09:15:00.416Z</time></trkpt><trkpt lat="43.1343731" lon="11.9101279"><ele>256.1666666666667</ele><time>2026-04-10T09:15:01.423Z</time></trkpt><trkpt lat="43.1344326" lon="11.9100639"><ele>255.33333333333334</ele><time>2026-04-10T09:15:02.415Z</time></trkpt><trkpt lat="43.1344923" lon="11.9100159"><ele>254.5</ele><time>2026-04-10T09:15:03.414Z</time></trkpt><trkpt lat="43.134563" lon="11.9099335"><ele>253.66666666666669</ele><time>2026-04-10T09:15:05.412Z</time></trkpt><trkpt lat="43.1345661" lon="11.9098452"><ele>252.83333333333334</ele><time>2026-04-10T09:15:07.418Z</time></trkpt><trkpt lat="43.1345352" lon="11.9097543"><ele>252.0</ele><time>2026-04-10T09:15:09.415Z</time></trkpt><trkpt lat="43.1344751" lon="11.9096626"><ele>252.0</ele><time>2026-04-10T09:15:12.418Z</time></trkpt><trkpt lat="43.1343707" lon="11.9096393"><ele>252.0</ele><time>2026-04-10T09:15:14.415Z</time></trkpt><trkpt lat="43.1342864" lon="11.9096667"><ele>252.0</ele><time>2026-04-10T09:15:15.411Z</time></trkpt><trkpt lat="43.134164" lon="11.9097087"><ele>252.0</ele><time>2026-04-10T09:15:16.414Z</time></trkpt><trkpt lat="43.1340214" lon="11.9097433"><ele>251.0</ele><time>2026-04-10T09:15:17.412Z</time></trkpt><trkpt lat="43.1338587" lon="11.9097593"><ele>250.0</ele><time>2026-04-10T09:15:18.411Z</time></trkpt><trkpt lat="43.133685" lon="11.9097682"><ele>249.0</ele><time>2026-04-10T09:15:19.415Z</time></trkpt><trkpt lat="43.1335127" lon="11.9098015"><ele>249.0</ele><time>2026-04-10T09:15:20.432Z</time></trkpt><trkpt lat="43.1333536" lon="11.9098501"><ele>249.0</ele><time>2026-04-10T09:15:21.446Z</time></trkpt><trkpt lat="43.1331986" lon="11.909933"><ele>249.0</ele><time>2026-04-10T09:15:22.407Z</time></trkpt><trkpt lat="43.1330467" lon="11.910046"><ele>251.0</ele><time>2026-04-10T09:15:23.416Z</time></trkpt><trkpt lat="43.132891" lon="11.9101936"><ele>253.0</ele><time>2026-04-10T09:15:24.41Z</time></trkpt><trkpt lat="43.1327312" lon="11.9103606"><ele>255.0</ele><time>2026-04-10T09:15:25.417Z</time></trkpt><trkpt lat="43.1325689" lon="11.9105382"><ele>255.0</ele><time>2026-04-10T09:15:26.421Z</time></trkpt><trkpt lat="43.1323988" lon="11.9107278"><ele>255.0</ele><time>2026-04-10T09:15:27.416Z</time></trkpt><trkpt lat="43.1322266" lon="11.910921"><ele>255.0</ele><time>2026-04-10T09:15:28.417Z</time></trkpt><trkpt lat="43.1320638" lon="11.9110989"><ele>255.0</ele><time>2026-04-10T09:15:29.418Z</time></trkpt><trkpt lat="43.1319107" lon="11.9112597"><ele>255.0</ele><time>2026-04-10T09:15:30.412Z</time></trkpt><trkpt lat="43.1317684" lon="11.911414"><ele>255.0</ele><time>2026-04-10T09:15:31.407Z</time></trkpt><trkpt lat="43.1316359" lon="11.9115586"><ele>255.0</ele><time>2026-04-10T09:15:32.413Z</time></trkpt><trkpt lat="43.1314974" lon="11.911707"><ele>255.0</ele><time>2026-04-10T09:15:33.409Z</time></trkpt><trkpt lat="43.1313513" lon="11.9118642"><ele>255.0</ele><time>2026-04-10T09:15:34.454Z</time></trkpt><trkpt lat="43.1311967" lon="11.9120332"><ele>255.0</ele><time>2026-04-10T09:15:35.421Z</time></trkpt><trkpt lat="43.1310335" lon="11.9122122"><ele>255.0</ele><time>2026-04-10T09:15:36.423Z</time></trkpt><trkpt lat="43.1308618" lon="11.9123976"><ele>255.0</ele><time>2026-04-10T09:15:37.413Z</time></trkpt><trkpt lat="43.1306914" lon="11.912582"><ele>254.33333333333331</ele><time>2026-04-10T09:15:38.41Z</time></trkpt><trkpt lat="43.1305234" lon="11.9127648"><ele>253.66666666666666</ele><time>2026-04-10T09:15:39.413Z</time></trkpt><trkpt lat="43.1303584" lon="11.9129452"><ele>253.0</ele><time>2026-04-10T09:15:40.415Z</time></trkpt><trkpt lat="43.1302001" lon="11.9131257"><ele>253.0</ele><time>2026-04-10T09:15:41.411Z</time></trkpt><trkpt lat="43.1300615" lon="11.9133057"><ele>253.0</ele><time>2026-04-10T09:15:42.42Z</time></trkpt><trkpt lat="43.1299282" lon="11.9135075"><ele>253.0</ele><time>2026-04-10T09:15:43.412Z</time></trkpt><trkpt lat="43.1297949" lon="11.9137199"><ele>252.66666666666666</ele><time>2026-04-10T09:15:44.41Z</time></trkpt><trkpt lat="43.1296603" lon="11.9139402"><ele>252.33333333333331</ele><time>2026-04-10T09:15:45.422Z</time></trkpt><trkpt lat="43.1295249" lon="11.9141649"><ele>252.0</ele><time>2026-04-10T09:15:46.415Z</time></trkpt><trkpt lat="43.1293917" lon="11.9143871"><ele>252.33333333333331</ele><time>2026-04-10T09:15:47.415Z</time></trkpt><trkpt lat="43.129256" lon="11.9146129"><ele>252.66666666666666</ele><time>2026-04-10T09:15:48.41Z</time></trkpt><trkpt lat="43.1291154" lon="11.9148351"><ele>253.0</ele><time>2026-04-10T09:15:49.413Z</time></trkpt><trkpt lat="43.1289696" lon="11.9150496"><ele>254.0</ele><time>2026-04-10T09:15:50.426Z</time></trkpt><trkpt lat="43.1288104" lon="11.9152443"><ele>255.0</ele><time>2026-04-10T09:15:51.41Z</time></trkpt><trkpt lat="43.1286305" lon="11.9154145"><ele>256.0</ele><time>2026-04-10T09:15:52.411Z</time></trkpt><trkpt lat="43.12844" lon="11.9155591"><ele>256.0</ele><time>2026-04-10T09:15:53.415Z</time></trkpt><trkpt lat="43.1282346" lon="11.9156854"><ele>256.0</ele><time>2026-04-10T09:15:54.412Z</time></trkpt><trkpt lat="43.1280175" lon="11.9158027"><ele>259.5</ele><time>2026-04-10T09:15:55.413Z</time></trkpt><trkpt lat="43.1277934" lon="11.9159274"><ele>263.0</ele><time>2026-04-10T09:15:56.418Z</time></trkpt><trkpt lat="43.127566" lon="11.9160593"><ele>259.0</ele><time>2026-04-10T09:15:57.415Z</time></trkpt><trkpt lat="43.1273411" lon="11.9161956"><ele>255.0</ele><time>2026-04-10T09:15:58.419Z</time></trkpt><trkpt lat="43.1271142" lon="11.9163325"><ele>255.0</ele><time>2026-04-10T09:15:59.42Z</time></trkpt><trkpt lat="43.1268887" lon="11.916465"><ele>255.0</ele><time>2026-04-10T09:16:00.419Z</time></trkpt><trkpt lat="43.1266618" lon="11.9166015"><ele>257.0</ele><time>2026-04-10T09:16:01.425Z</time></trkpt><trkpt lat="43.1264319" lon="11.9167401"><ele>259.0</ele><time>2026-04-10T09:16:02.415Z</time></trkpt><trkpt lat="43.1261994" lon="11.9168817"><ele>259.0</ele><time>2026-04-10T09:16:03.421Z</time></trkpt><trkpt lat="43.1259627" lon="11.9170235"><ele>259.0</ele><time>2026-04-10T09:16:04.411Z</time></trkpt><trkpt lat="43.1257288" lon="11.9171596"><ele>256.5</ele><time>2026-04-10T09:16:05.416Z</time></trkpt><trkpt lat="43.1254992" lon="11.9172935"><ele>254.0</ele><time>2026-04-10T09:16:06.408Z</time></trkpt><trkpt lat="43.1252694" lon="11.9174315"><ele>253.5</ele><time>2026-04-10T09:16:07.409Z</time></trkpt><trkpt lat="43.1250417" lon="11.9175691"><ele>253.0</ele><time>2026-04-10T09:16:08.412Z</time></trkpt><trkpt lat="43.1248221" lon="11.9177018"><ele>253.0</ele><time>2026-04-10T09:16:09.422Z</time></trkpt><trkpt lat="43.1246265" lon="11.9178177"><ele>253.0</ele><time>2026-04-10T09:16:10.422Z</time></trkpt><trkpt lat="43.1244566" lon="11.9179151"><ele>253.0</ele><time>2026-04-10T09:16:11.412Z</time></trkpt><trkpt lat="43.1242937" lon="11.9180127"><ele>253.0</ele><time>2026-04-10T09:16:12.418Z</time></trkpt><trkpt lat="43.1241332" lon="11.9181092"><ele>253.0</ele><time>2026-04-10T09:16:13.406Z</time></trkpt><trkpt lat="43.1239817" lon="11.918225"><ele>253.0</ele><time>2026-04-10T09:16:14.408Z</time></trkpt><trkpt lat="43.1238512" lon="11.9183555"><ele>252.0</ele><time>2026-04-10T09:16:15.409Z</time></trkpt><trkpt lat="43.1237401" lon="11.9185226"><ele>251.0</ele><time>2026-04-10T09:16:16.423Z</time></trkpt><trkpt lat="43.1236429" lon="11.9187287"><ele>250.0</ele><time>2026-04-10T09:16:17.422Z</time></trkpt><trkpt lat="43.1235453" lon="11.9189575"><ele>250.0</ele><time>2026-04-10T09:16:18.413Z</time></trkpt><trkpt lat="43.1234419" lon="11.9191991"><ele>250.0</ele><time>2026-04-10T09:16:19.409Z</time></trkpt><trkpt lat="43.123338" lon="11.9194542"><ele>250.0</ele><time>2026-04-10T09:16:20.421Z</time></trkpt><trkpt lat="43.1232283" lon="11.9197262"><ele>250.0</ele><time>2026-04-10T09:16:21.445Z</time></trkpt><trkpt lat="43.1231107" lon="11.9200062"><ele>250.0</ele><time>2026-04-10T09:16:22.419Z</time></trkpt><trkpt lat="43.1230022" lon="11.9202748"><ele>250.33333333333331</ele><time>2026-04-10T09:16:23.407Z</time></trkpt><trkpt lat="43.1229025" lon="11.9205207"><ele>250.66666666666669</ele><time>2026-04-10T09:16:24.42Z</time></trkpt><trkpt lat="43.1228076" lon="11.9207427"><ele>251.0</ele><time>2026-04-10T09:16:25.418Z</time></trkpt><trkpt lat="43.1227079" lon="11.9209418"><ele>252.33333333333334</ele><time>2026-04-10T09:16:26.424Z</time></trkpt><trkpt lat="43.1225891" lon="11.9211167"><ele>253.66666666666669</ele><time>2026-04-10T09:16:27.405Z</time></trkpt><trkpt lat="43.1224396" lon="11.9212779"><ele>255.0</ele><time>2026-04-10T09:16:28.409Z</time></trkpt><trkpt lat="43.1222679" lon="11.9214076"><ele>257.0</ele><time>2026-04-10T09:16:29.426Z</time></trkpt><trkpt lat="43.1220787" lon="11.9214919"><ele>259.0</ele><time>2026-04-10T09:16:30.419Z</time></trkpt><trkpt lat="43.1218688" lon="11.921535"><ele>261.0</ele><time>2026-04-10T09:16:31.409Z</time></trkpt><trkpt lat="43.1216471" lon="11.9215532"><ele>262.5</ele><time>2026-04-10T09:16:32.413Z</time></trkpt><trkpt lat="43.1214201" lon="11.9215609"><ele>264.0</ele><time>2026-04-10T09:16:33.408Z</time></trkpt><trkpt lat="43.1211907" lon="11.9215684"><ele>264.0</ele><time>2026-04-10T09:16:34.406Z</time></trkpt><trkpt lat="43.1209609" lon="11.9215737"><ele>264.0</ele><time>2026-04-10T09:16:35.412Z</time></trkpt><trkpt lat="43.1207306" lon="11.9215818"><ele>263.0</ele><time>2026-04-10T09:16:36.41Z</time></trkpt><trkpt lat="43.1205002" lon="11.9215924"><ele>262.0</ele><time>2026-04-10T09:16:37.409Z</time></trkpt><trkpt lat="43.1202732" lon="11.9215998"><ele>262.0</ele><time>2026-04-10T09:16:38.407Z</time></trkpt><trkpt lat="43.1200493" lon="11.9216096"><ele>262.0</ele><time>2026-04-10T09:16:39.415Z</time></trkpt><trkpt lat="43.1198252" lon="11.9216204"><ele>262.0</ele><time>2026-04-10T09:16:40.419Z</time></trkpt><trkpt lat="43.1195898" lon="11.9216322"><ele>259.5</ele><time>2026-04-10T09:16:41.407Z</time></trkpt><trkpt lat="43.1193511" lon="11.9216432"><ele>257.0</ele><time>2026-04-10T09:16:42.419Z</time></trkpt><trkpt lat="43.119111" lon="11.9216529"><ele>256.0</ele><time>2026-04-10T09:16:43.412Z</time></trkpt><trkpt lat="43.1188711" lon="11.9216633"><ele>255.0</ele><time>2026-04-10T09:16:44.417Z</time></trkpt><trkpt lat="43.1186288" lon="11.9216677"><ele>255.0</ele><time>2026-04-10T09:16:45.409Z</time></trkpt><trkpt lat="43.1183914" lon="11.9216709"><ele>255.0</ele><time>2026-04-10T09:16:46.42Z</time></trkpt><trkpt lat="43.1181707" lon="11.9216735"><ele>255.0</ele><time>2026-04-10T09:16:47.416Z</time></trkpt><trkpt lat="43.1179543" lon="11.9216805"><ele>255.0</ele><time>2026-04-10T09:16:48.411Z</time></trkpt><trkpt lat="43.1177417" lon="11.9216983"><ele>255.0</ele><time>2026-04-10T09:16:49.408Z</time></trkpt><trkpt lat="43.1175398" lon="11.9217441"><ele>255.0</ele><time>2026-04-10T09:16:50.411Z</time></trkpt><trkpt lat="43.1173397" lon="11.9218177"><ele>255.0</ele><time>2026-04-10T09:16:51.42Z</time></trkpt><trkpt lat="43.1171405" lon="11.9219117"><ele>255.0</ele><time>2026-04-10T09:16:52.409Z</time></trkpt><trkpt lat="43.1169503" lon="11.9219953"><ele>255.0</ele><time>2026-04-10T09:16:53.415Z</time></trkpt><trkpt lat="43.1167728" lon="11.9220747"><ele>255.0</ele><time>2026-04-10T09:16:54.408Z</time></trkpt><trkpt lat="43.1166158" lon="11.9221498"><ele>255.0</ele><time>2026-04-10T09:16:55.413Z</time></trkpt><trkpt lat="43.1164715" lon="11.9222157"><ele>254.5</ele><time>2026-04-10T09:16:56.412Z</time></trkpt><trkpt lat="43.1163416" lon="11.9222799"><ele>254.0</ele><time>2026-04-10T09:16:57.412Z</time></trkpt><trkpt lat="43.1162183" lon="11.9223412"><ele>253.5</ele><time>2026-04-10T09:16:58.412Z</time></trkpt><trkpt lat="43.1161058" lon="11.9223941"><ele>253.0</ele><time>2026-04-10T09:16:59.42Z</time></trkpt><trkpt lat="43.1160009" lon="11.9224394"><ele>252.99999999999997</ele><time>2026-04-10T09:17:00.417Z</time></trkpt><trkpt lat="43.1159063" lon="11.922472"><ele>253.0</ele><time>2026-04-10T09:17:01.423Z</time></trkpt><trkpt lat="43.1158322" lon="11.9224851"><ele>253.0</ele><time>2026-04-10T09:17:02.407Z</time></trkpt><trkpt lat="43.115746" lon="11.9224734"><ele>253.0</ele><time>2026-04-10T09:17:04.417Z</time></trkpt><trkpt lat="43.1156435" lon="11.9224314"><ele>252.99999999999997</ele><time>2026-04-10T09:17:07.409Z</time></trkpt><trkpt lat="43.115566" lon="11.9224202"><ele>253.0</ele><time>2026-04-10T09:17:12.412Z</time></trkpt><trkpt lat="43.1154748" lon="11.9225318"><ele>253.4</ele><time>2026-04-10T09:17:14.411Z</time></trkpt><trkpt lat="43.1154214" lon="11.9226166"><ele>253.8</ele><time>2026-04-10T09:17:15.411Z</time></trkpt><trkpt lat="43.115346" lon="11.9227054"><ele>254.2</ele><time>2026-04-10T09:17:16.41Z</time></trkpt><trkpt lat="43.1152568" lon="11.9227831"><ele>254.6</ele><time>2026-04-10T09:17:17.412Z</time></trkpt><trkpt lat="43.115148" lon="11.9228697"><ele>255.0</ele><time>2026-04-10T09:17:18.414Z</time></trkpt><trkpt lat="43.115028" lon="11.9229584"><ele>254.25</ele><time>2026-04-10T09:17:19.413Z</time></trkpt><trkpt lat="43.1148994" lon="11.923052"><ele>253.5</ele><time>2026-04-10T09:17:20.413Z</time></trkpt><trkpt lat="43.1147641" lon="11.9231509"><ele>252.75</ele><time>2026-04-10T09:17:21.415Z</time></trkpt><trkpt lat="43.1146303" lon="11.9232405"><ele>252.0</ele><time>2026-04-10T09:17:22.435Z</time></trkpt><trkpt lat="43.1145105" lon="11.9233282"><ele>252.25</ele><time>2026-04-10T09:17:23.409Z</time></trkpt><trkpt lat="43.1143976" lon="11.9234327"><ele>252.5</ele><time>2026-04-10T09:17:24.416Z</time></trkpt><trkpt lat="43.1143017" lon="11.9235626"><ele>252.75</ele><time>2026-04-10T09:17:25.413Z</time></trkpt><trkpt lat="43.1142289" lon="11.9237234"><ele>253.0</ele><time>2026-04-10T09:17:26.413Z</time></trkpt><trkpt lat="43.1141963" lon="11.9239046"><ele>253.0</ele><time>2026-04-10T09:17:27.413Z</time></trkpt><trkpt lat="43.114199" lon="11.9240787"><ele>253.0</ele><time>2026-04-10T09:17:28.414Z</time></trkpt><trkpt lat="43.1142418" lon="11.9242493"><ele>253.0</ele><time>2026-04-10T09:17:29.424Z</time></trkpt><trkpt lat="43.1143212" lon="11.9244247"><ele>253.0</ele><time>2026-04-10T09:17:30.412Z</time></trkpt><trkpt lat="43.1144364" lon="11.9245937"><ele>252.66666666666666</ele><time>2026-04-10T09:17:31.415Z</time></trkpt><trkpt lat="43.1145799" lon="11.9247654"><ele>252.33333333333331</ele><time>2026-04-10T09:17:32.424Z</time></trkpt><trkpt lat="43.1147299" lon="11.9249524"><ele>252.0</ele><time>2026-04-10T09:17:33.421Z</time></trkpt><trkpt lat="43.1148786" lon="11.925146"><ele>252.0</ele><time>2026-04-10T09:17:34.422Z</time></trkpt><trkpt lat="43.1150361" lon="11.9253498"><ele>252.0</ele><time>2026-04-10T09:17:35.415Z</time></trkpt><trkpt lat="43.115199" lon="11.925555"><ele>252.0</ele><time>2026-04-10T09:17:36.419Z</time></trkpt><trkpt lat="43.1153656" lon="11.9257653"><ele>252.0</ele><time>2026-04-10T09:17:37.416Z</time></trkpt><trkpt lat="43.1155408" lon="11.9259811"><ele>252.0</ele><time>2026-04-10T09:17:38.425Z</time></trkpt><trkpt lat="43.1157121" lon="11.9261916"><ele>251.66666666666669</ele><time>2026-04-10T09:17:39.412Z</time></trkpt><trkpt lat="43.1158734" lon="11.9263882"><ele>251.33333333333334</ele><time>2026-04-10T09:17:40.418Z</time></trkpt><trkpt lat="43.1160241" lon="11.9265735"><ele>251.0</ele><time>2026-04-10T09:17:41.417Z</time></trkpt><trkpt lat="43.1161638" lon="11.9267515"><ele>251.66666666666669</ele><time>2026-04-10T09:17:42.416Z</time></trkpt><trkpt lat="43.1162984" lon="11.9269179"><ele>252.33333333333331</ele><time>2026-04-10T09:17:43.411Z</time></trkpt><trkpt lat="43.1164251" lon="11.927081"><ele>253.0</ele><time>2026-04-10T09:17:44.414Z</time></trkpt><trkpt lat="43.1167514" lon="11.9274871"><ele>254.0</ele><time>2026-04-10T09:17:47.419Z</time></trkpt><trkpt lat="43.116857" lon="11.9276144"><ele>255.0</ele><time>2026-04-10T09:17:48.419Z</time></trkpt><trkpt lat="43.1170889" lon="11.9278925"><ele>256.0</ele><time>2026-04-10T09:17:50.419Z</time></trkpt><trkpt lat="43.1172156" lon="11.9280454"><ele>258.0</ele><time>2026-04-10T09:17:51.408Z</time></trkpt><trkpt lat="43.1175009" lon="11.9283474"><ele>260.0</ele><time>2026-04-10T09:17:53.414Z</time></trkpt><trkpt lat="43.1178007" lon="11.928671"><ele>269.0</ele><time>2026-04-10T09:17:55.407Z</time></trkpt><trkpt lat="43.1183075" lon="11.9296173"><ele>278.0</ele><time>2026-04-10T09:17:59.415Z</time></trkpt><trkpt lat="43.1185151" lon="11.9301995"><ele>278.0</ele><time>2026-04-10T09:18:01.418Z</time></trkpt><trkpt lat="43.1187184" lon="11.9307911"><ele>286.0</ele><time>2026-04-10T09:18:03.412Z</time></trkpt><trkpt lat="43.1189176" lon="11.931396"><ele>286.0</ele><time>2026-04-10T09:18:05.413Z</time></trkpt><trkpt lat="43.1190146" lon="11.9317025"><ele>286.0</ele><time>2026-04-10T09:18:06.412Z</time></trkpt><trkpt lat="43.119211" lon="11.932314"><ele>284.5</ele><time>2026-04-10T09:18:08.412Z</time></trkpt><trkpt lat="43.1193077" lon="11.9326007"><ele>283.0</ele><time>2026-04-10T09:18:09.418Z</time></trkpt><trkpt lat="43.1195091" lon="11.9331454"><ele>288.0</ele><time>2026-04-10T09:18:11.415Z</time></trkpt><trkpt lat="43.1197089" lon="11.9336036"><ele>293.0</ele><time>2026-04-10T09:18:13.41Z</time></trkpt><trkpt lat="43.1198321" lon="11.9337913"><ele>290.5</ele><time>2026-04-10T09:18:14.412Z</time></trkpt><trkpt lat="43.1201705" lon="11.9340608"><ele>288.0</ele><time>2026-04-10T09:18:16.42Z</time></trkpt><trkpt lat="43.1203583" lon="11.9341324"><ele>292.0</ele><time>2026-04-10T09:18:17.407Z</time></trkpt><trkpt lat="43.1207614" lon="11.9342539"><ele>296.0</ele><time>2026-04-10T09:18:19.421Z</time></trkpt><trkpt lat="43.1209653" lon="11.9343605"><ele>296.0</ele><time>2026-04-10T09:18:20.411Z</time></trkpt><trkpt lat="43.121494" lon="11.9347257"><ele>301.0</ele><time>2026-04-10T09:18:23.418Z</time></trkpt><trkpt lat="43.1223164" lon="11.9352455"><ele>301.66666666666663</ele><time>2026-04-10T09:18:28.41Z</time></trkpt><trkpt lat="43.1224927" lon="11.9353296"><ele>302.3333333333333</ele><time>2026-04-10T09:18:29.419Z</time></trkpt><trkpt lat="43.1226546" lon="11.9354116"><ele>303.0</ele><time>2026-04-10T09:18:30.416Z</time></trkpt><trkpt lat="43.1228079" lon="11.935488"><ele>303.0</ele><time>2026-04-10T09:18:31.426Z</time></trkpt><trkpt lat="43.1229399" lon="11.9355523"><ele>303.0</ele><time>2026-04-10T09:18:32.418Z</time></trkpt><trkpt lat="43.1230342" lon="11.9355999"><ele>303.0</ele><time>2026-04-10T09:18:33.415Z</time></trkpt><trkpt lat="43.1231041" lon="11.9356379"><ele>303.0</ele><time>2026-04-10T09:18:34.41Z</time></trkpt><trkpt lat="43.123183" lon="11.9356545"><ele>303.0</ele><time>2026-04-10T09:18:36.412Z</time></trkpt><trkpt lat="43.1231043" lon="11.9355897"><ele>303.0</ele><time>2026-04-10T09:18:39.409Z</time></trkpt><trkpt lat="43.1230324" lon="11.9355691"><ele>303.0</ele><time>2026-04-10T09:18:40.421Z</time></trkpt><trkpt lat="43.1229517" lon="11.9355362"><ele>303.0</ele><time>2026-04-10T09:18:41.41Z</time></trkpt><trkpt lat="43.1228117" lon="11.9355296"><ele>303.0</ele><time>2026-04-10T09:18:43.41Z</time></trkpt><trkpt lat="43.1226284" lon="11.9356848"><ele>303.0</ele><time>2026-04-10T09:18:45.416Z</time></trkpt><trkpt lat="43.1225218" lon="11.9357758"><ele>303.0</ele><time>2026-04-10T09:18:46.417Z</time></trkpt><trkpt lat="43.1224044" lon="11.935868"><ele>303.0</ele><time>2026-04-10T09:18:47.59Z</time></trkpt><trkpt lat="43.1222867" lon="11.9359831"><ele>303.0</ele><time>2026-04-10T09:18:48.594Z</time></trkpt><trkpt lat="43.122178" lon="11.9360894"><ele>303.0</ele><time>2026-04-10T09:18:49.603Z</time></trkpt><trkpt lat="43.1221146" lon="11.9362133"><ele>303.0</ele><time>2026-04-10T09:18:50.597Z</time></trkpt><trkpt lat="43.1220531" lon="11.9363284"><ele>303.0</ele><time>2026-04-10T09:18:51.598Z</time></trkpt><trkpt lat="43.1219933" lon="11.9364305"><ele>303.0</ele><time>2026-04-10T09:18:52.594Z</time></trkpt><trkpt lat="43.1219303" lon="11.9364942"><ele>303.0</ele><time>2026-04-10T09:18:53.591Z</time></trkpt><trkpt lat="43.1218615" lon="11.9365289"><ele>303.0</ele><time>2026-04-10T09:18:54.593Z</time></trkpt><trkpt lat="43.1217746" lon="11.9365357"><ele>303.0</ele><time>2026-04-10T09:18:55.599Z</time></trkpt><trkpt lat="43.1216682" lon="11.9365168"><ele>303.0</ele><time>2026-04-10T09:18:56.593Z</time></trkpt><trkpt lat="43.1215406" lon="11.9364842"><ele>303.0</ele><time>2026-04-10T09:18:57.592Z</time></trkpt><trkpt lat="43.1213961" lon="11.9364425"><ele>301.6666666666667</ele><time>2026-04-10T09:18:58.595Z</time></trkpt><trkpt lat="43.1212406" lon="11.9363988"><ele>300.33333333333337</ele><time>2026-04-10T09:18:59.593Z</time></trkpt><trkpt lat="43.1210684" lon="11.9363503"><ele>299.0</ele><time>2026-04-10T09:19:00.604Z</time></trkpt><trkpt lat="43.1208896" lon="11.9363012"><ele>298.33333333333337</ele><time>2026-04-10T09:19:01.595Z</time></trkpt><trkpt lat="43.1207017" lon="11.9362597"><ele>297.6666666666667</ele><time>2026-04-10T09:19:02.606Z</time></trkpt><trkpt lat="43.1205034" lon="11.9362083"><ele>297.0</ele><time>2026-04-10T09:19:03.597Z</time></trkpt><trkpt lat="43.1202977" lon="11.9361482"><ele>297.0</ele><time>2026-04-10T09:19:04.603Z</time></trkpt><trkpt lat="43.1200881" lon="11.9360881"><ele>297.0</ele><time>2026-04-10T09:19:05.599Z</time></trkpt><trkpt lat="43.1198784" lon="11.9360297"><ele>297.0</ele><time>2026-04-10T09:19:06.596Z</time></trkpt><trkpt lat="43.11966" lon="11.9359699"><ele>296.0</ele><time>2026-04-10T09:19:07.597Z</time></trkpt><trkpt lat="43.1194353" lon="11.9359092"><ele>295.0</ele><time>2026-04-10T09:19:08.595Z</time></trkpt><trkpt lat="43.1192102" lon="11.9358461"><ele>299.5</ele><time>2026-04-10T09:19:09.599Z</time></trkpt><trkpt lat="43.1189805" lon="11.9357876"><ele>304.0</ele><time>2026-04-10T09:19:10.6Z</time></trkpt><trkpt lat="43.1187504" lon="11.9357255"><ele>304.0</ele><time>2026-04-10T09:19:11.595Z</time></trkpt><trkpt lat="43.1185242" lon="11.9356621"><ele>304.0</ele><time>2026-04-10T09:19:12.59Z</time></trkpt><trkpt lat="43.1183036" lon="11.935604"><ele>303.66666666666663</ele><time>2026-04-10T09:19:13.6Z</time></trkpt><trkpt lat="43.1180843" lon="11.9355475"><ele>303.3333333333333</ele><time>2026-04-10T09:19:14.595Z</time></trkpt><trkpt lat="43.117878" lon="11.9354936"><ele>303.0</ele><time>2026-04-10T09:19:15.595Z</time></trkpt><trkpt lat="43.1176896" lon="11.9354468"><ele>303.0</ele><time>2026-04-10T09:19:16.59Z</time></trkpt><trkpt lat="43.1175157" lon="11.9354034"><ele>303.0</ele><time>2026-04-10T09:19:17.597Z</time></trkpt><trkpt lat="43.1173489" lon="11.9353598"><ele>303.0</ele><time>2026-04-10T09:19:18.599Z</time></trkpt><trkpt lat="43.117181" lon="11.9353169"><ele>302.3333333333333</ele><time>2026-04-10T09:19:19.601Z</time></trkpt><trkpt lat="43.1170066" lon="11.9352701"><ele>301.66666666666663</ele><time>2026-04-10T09:19:20.599Z</time></trkpt><trkpt lat="43.1168313" lon="11.9352217"><ele>301.0</ele><time>2026-04-10T09:19:21.592Z</time></trkpt><trkpt lat="43.1166516" lon="11.9351698"><ele>301.0</ele><time>2026-04-10T09:19:22.591Z</time></trkpt><trkpt lat="43.1164638" lon="11.9351141"><ele>301.0</ele><time>2026-04-10T09:19:23.595Z</time></trkpt><trkpt lat="43.1162692" lon="11.9350599"><ele>301.0</ele><time>2026-04-10T09:19:24.595Z</time></trkpt><trkpt lat="43.1160815" lon="11.9350086"><ele>302.66666666666663</ele><time>2026-04-10T09:19:25.596Z</time></trkpt><trkpt lat="43.1159063" lon="11.9349587"><ele>304.3333333333333</ele><time>2026-04-10T09:19:26.601Z</time></trkpt><trkpt lat="43.1157346" lon="11.9349137"><ele>306.0</ele><time>2026-04-10T09:19:27.597Z</time></trkpt><trkpt lat="43.1155698" lon="11.9348709"><ele>306.0</ele><time>2026-04-10T09:19:28.598Z</time></trkpt><trkpt lat="43.1154104" lon="11.9348299"><ele>306.0</ele><time>2026-04-10T09:19:29.595Z</time></trkpt><trkpt lat="43.1152654" lon="11.9347903"><ele>306.0</ele><time>2026-04-10T09:19:30.608Z</time></trkpt><trkpt lat="43.115128" lon="11.9347518"><ele>306.0</ele><time>2026-04-10T09:19:31.601Z</time></trkpt><trkpt lat="43.1149929" lon="11.934716"><ele>306.0</ele><time>2026-04-10T09:19:32.598Z</time></trkpt><trkpt lat="43.1148568" lon="11.9346747"><ele>306.0</ele><time>2026-04-10T09:19:33.598Z</time></trkpt><trkpt lat="43.114713" lon="11.9346284"><ele>306.0</ele><time>2026-04-10T09:19:34.597Z</time></trkpt><trkpt lat="43.1145688" lon="11.9345818"><ele>305.25</ele><time>2026-04-10T09:19:35.6Z</time></trkpt><trkpt lat="43.1144355" lon="11.9345227"><ele>304.5</ele><time>2026-04-10T09:19:36.599Z</time></trkpt><trkpt lat="43.1143076" lon="11.9344654"><ele>303.75</ele><time>2026-04-10T09:19:37.606Z</time></trkpt><trkpt lat="43.1141879" lon="11.934403"><ele>303.0</ele><time>2026-04-10T09:19:38.599Z</time></trkpt><trkpt lat="43.114073" lon="11.9343455"><ele>303.8</ele><time>2026-04-10T09:19:39.594Z</time></trkpt><trkpt lat="43.113964" lon="11.9342981"><ele>304.6</ele><time>2026-04-10T09:19:40.599Z</time></trkpt><trkpt lat="43.1138689" lon="11.9342547"><ele>305.4</ele><time>2026-04-10T09:19:41.597Z</time></trkpt><trkpt lat="43.1137775" lon="11.9342173"><ele>306.2</ele><time>2026-04-10T09:19:42.6Z</time></trkpt><trkpt lat="43.1136929" lon="11.934188"><ele>307.0</ele><time>2026-04-10T09:19:43.596Z</time></trkpt><trkpt lat="43.1136203" lon="11.9341544"><ele>306.99999999999994</ele><time>2026-04-10T09:19:44.597Z</time></trkpt><trkpt lat="43.1135568" lon="11.934114"><ele>307.0</ele><time>2026-04-10T09:19:45.601Z</time></trkpt><trkpt lat="43.1134947" lon="11.9340788"><ele>307.0</ele><time>2026-04-10T09:19:46.598Z</time></trkpt><trkpt lat="43.1134236" lon="11.9340423"><ele>307.0</ele><time>2026-04-10T09:19:47.595Z</time></trkpt><trkpt lat="43.1133587" lon="11.9339981"><ele>307.0</ele><time>2026-04-10T09:19:48.594Z</time></trkpt><trkpt lat="43.113291" lon="11.933938"><ele>306.99999999999994</ele><time>2026-04-10T09:19:49.595Z</time></trkpt><trkpt lat="43.1132255" lon="11.9338702"><ele>307.0</ele><time>2026-04-10T09:19:50.597Z</time></trkpt><trkpt lat="43.1131537" lon="11.9337986"><ele>306.4</ele><time>2026-04-10T09:19:51.594Z</time></trkpt><trkpt lat="43.1130846" lon="11.9337195"><ele>305.79999999999995</ele><time>2026-04-10T09:19:52.594Z</time></trkpt><trkpt lat="43.1130095" lon="11.9336501"><ele>305.2</ele><time>2026-04-10T09:19:53.6Z</time></trkpt><trkpt lat="43.1129311" lon="11.9335842"><ele>304.59999999999997</ele><time>2026-04-10T09:19:54.601Z</time></trkpt><trkpt lat="43.1128493" lon="11.9335193"><ele>304.0</ele><time>2026-04-10T09:19:55.6Z</time></trkpt><trkpt lat="43.1127708" lon="11.9334531"><ele>304.0</ele><time>2026-04-10T09:19:56.597Z</time></trkpt><trkpt lat="43.1126998" lon="11.9333917"><ele>304.0</ele><time>2026-04-10T09:19:57.599Z</time></trkpt><trkpt lat="43.1126329" lon="11.9333344"><ele>304.0</ele><time>2026-04-10T09:19:58.602Z</time></trkpt><trkpt lat="43.1125703" lon="11.9332767"><ele>304.0</ele><time>2026-04-10T09:19:59.602Z</time></trkpt><trkpt lat="43.1125209" lon="11.9332147"><ele>304.0</ele><time>2026-04-10T09:20:00.601Z</time></trkpt><trkpt lat="43.112477" lon="11.9330638"><ele>304.0</ele><time>2026-04-10T09:20:02.594Z</time></trkpt><trkpt lat="43.1124653" lon="11.9329605"><ele>305.4</ele><time>2026-04-10T09:20:03.607Z</time></trkpt><trkpt lat="43.1124597" lon="11.9328472"><ele>306.79999999999995</ele><time>2026-04-10T09:20:04.592Z</time></trkpt><trkpt lat="43.1124524" lon="11.9327599"><ele>308.20000000000005</ele><time>2026-04-10T09:20:05.596Z</time></trkpt><trkpt lat="43.1124326" lon="11.932616"><ele>309.6</ele><time>2026-04-10T09:20:07.595Z</time></trkpt><trkpt lat="43.1123791" lon="11.9324553"><ele>311.0</ele><time>2026-04-10T09:20:09.593Z</time></trkpt><trkpt lat="43.1123358" lon="11.9323578"><ele>311.0</ele><time>2026-04-10T09:20:10.593Z</time></trkpt><trkpt lat="43.1122858" lon="11.9322545"><ele>311.0</ele><time>2026-04-10T09:20:11.601Z</time></trkpt><trkpt lat="43.1122374" lon="11.9321507"><ele>311.0</ele><time>2026-04-10T09:20:12.61Z</time></trkpt><trkpt lat="43.112193" lon="11.9320468"><ele>311.0</ele><time>2026-04-10T09:20:13.602Z</time></trkpt><trkpt lat="43.1121624" lon="11.931944"><ele>311.0</ele><time>2026-04-10T09:20:14.593Z</time></trkpt><trkpt lat="43.1121306" lon="11.9318341"><ele>311.0</ele><time>2026-04-10T09:20:15.594Z</time></trkpt><trkpt lat="43.1121137" lon="11.9317285"><ele>310.2</ele><time>2026-04-10T09:20:16.594Z</time></trkpt><trkpt lat="43.1120966" lon="11.9316359"><ele>309.40000000000003</ele><time>2026-04-10T09:20:17.59Z</time></trkpt><trkpt lat="43.1120774" lon="11.9315134"><ele>308.6</ele><time>2026-04-10T09:20:19.593Z</time></trkpt><trkpt lat="43.1120561" lon="11.9314242"><ele>307.8</ele><time>2026-04-10T09:20:22.592Z</time></trkpt><trkpt lat="43.1120008" lon="11.9315205"><ele>307.0</ele><time>2026-04-10T09:20:34.607Z</time></trkpt><trkpt lat="43.1120762" lon="11.9316974"><ele>307.66666666666663</ele><time>2026-04-10T09:20:35.604Z</time></trkpt><trkpt lat="43.1121041" lon="11.9318623"><ele>308.3333333333333</ele><time>2026-04-10T09:20:37.595Z</time></trkpt><trkpt lat="43.1121311" lon="11.9319515"><ele>309.0</ele><time>2026-04-10T09:20:38.597Z</time></trkpt><trkpt lat="43.1121668" lon="11.9320432"><ele>309.6666666666667</ele><time>2026-04-10T09:20:39.599Z</time></trkpt><trkpt lat="43.112203" lon="11.9321304"><ele>310.33333333333337</ele><time>2026-04-10T09:20:40.593Z</time></trkpt><trkpt lat="43.1122426" lon="11.9322161"><ele>311.0</ele><time>2026-04-10T09:20:41.593Z</time></trkpt><trkpt lat="43.1122791" lon="11.9322975"><ele>311.0</ele><time>2026-04-10T09:20:42.595Z</time></trkpt><trkpt lat="43.1123406" lon="11.9324357"><ele>311.0</ele><time>2026-04-10T09:20:44.595Z</time></trkpt><trkpt lat="43.1123795" lon="11.9325185"><ele>311.0</ele><time>2026-04-10T09:20:46.613Z</time></trkpt><trkpt lat="43.1124351" lon="11.9324462"><ele>311.0</ele><time>2026-04-10T09:20:50.592Z</time></trkpt><trkpt lat="43.112466" lon="11.9323056"><ele>311.0</ele><time>2026-04-10T09:20:52.594Z</time></trkpt><trkpt lat="43.1125261" lon="11.9321622"><ele>310.83333333333337</ele><time>2026-04-10T09:20:54.595Z</time></trkpt><trkpt lat="43.1125709" lon="11.9320039"><ele>310.6666666666667</ele><time>2026-04-10T09:20:56.594Z</time></trkpt><trkpt lat="43.1125959" lon="11.9319194"><ele>310.5</ele><time>2026-04-10T09:20:57.596Z</time></trkpt><trkpt lat="43.112622" lon="11.9318387"><ele>310.3333333333333</ele><time>2026-04-10T09:20:58.599Z</time></trkpt><trkpt lat="43.1126569" lon="11.9317618"><ele>310.16666666666663</ele><time>2026-04-10T09:20:59.603Z</time></trkpt><trkpt lat="43.1127208" lon="11.9316182"><ele>310.0</ele><time>2026-04-10T09:21:01.594Z</time></trkpt><trkpt lat="43.1127815" lon="11.9314924"><ele>309.3333333333333</ele><time>2026-04-10T09:21:03.606Z</time></trkpt><trkpt lat="43.1128329" lon="11.9313651"><ele>308.66666666666663</ele><time>2026-04-10T09:21:05.596Z</time></trkpt><trkpt lat="43.112876" lon="11.9312163"><ele>308.0</ele><time>2026-04-10T09:21:07.6Z</time></trkpt><trkpt lat="43.1129058" lon="11.9311372"><ele>307.3333333333333</ele><time>2026-04-10T09:21:08.589Z</time></trkpt><trkpt lat="43.1129397" lon="11.9310466"><ele>306.6666666666667</ele><time>2026-04-10T09:21:09.591Z</time></trkpt><trkpt lat="43.1129729" lon="11.9309594"><ele>306.0</ele><time>2026-04-10T09:21:10.605Z</time></trkpt><trkpt lat="43.1130045" lon="11.9308657"><ele>306.0</ele><time>2026-04-10T09:21:11.593Z</time></trkpt><trkpt lat="43.1130344" lon="11.9307781"><ele>306.0</ele><time>2026-04-10T09:21:12.6Z</time></trkpt><trkpt lat="43.1130637" lon="11.930699"><ele>306.0</ele><time>2026-04-10T09:21:13.598Z</time></trkpt><trkpt lat="43.1130921" lon="11.9306218"><ele>306.0</ele><time>2026-04-10T09:21:14.593Z</time></trkpt><trkpt lat="43.1131471" lon="11.9304741"><ele>306.0</ele><time>2026-04-10T09:21:16.605Z</time></trkpt><trkpt lat="43.1132149" lon="11.9303199"><ele>304.1666666666667</ele><time>2026-04-10T09:21:18.598Z</time></trkpt><trkpt lat="43.1132468" lon="11.9302337"><ele>302.3333333333333</ele><time>2026-04-10T09:21:19.602Z</time></trkpt><trkpt lat="43.1132767" lon="11.9301469"><ele>300.5</ele><time>2026-04-10T09:21:20.599Z</time></trkpt><trkpt lat="43.1133294" lon="11.9299944"><ele>298.66666666666663</ele><time>2026-04-10T09:21:22.599Z</time></trkpt><trkpt lat="43.1133547" lon="11.9299114"><ele>296.8333333333333</ele><time>2026-04-10T09:21:23.597Z</time></trkpt><trkpt lat="43.1133884" lon="11.9298222"><ele>295.0</ele><time>2026-04-10T09:21:24.597Z</time></trkpt><trkpt lat="43.1134242" lon="11.9297356"><ele>295.0</ele><time>2026-04-10T09:21:25.598Z</time></trkpt><trkpt lat="43.1134591" lon="11.9296529"><ele>295.0</ele><time>2026-04-10T09:21:26.602Z</time></trkpt><trkpt lat="43.1134913" lon="11.9295768"><ele>295.0</ele><time>2026-04-10T09:21:27.596Z</time></trkpt><trkpt lat="43.1135208" lon="11.9294988"><ele>295.0</ele><time>2026-04-10T09:21:28.602Z</time></trkpt><trkpt lat="43.1135498" lon="11.9293597"><ele>295.0</ele><time>2026-04-10T09:21:30.596Z</time></trkpt><trkpt lat="43.1135621" lon="11.9292359"><ele>295.0</ele><time>2026-04-10T09:21:32.598Z</time></trkpt><trkpt lat="43.1135452" lon="11.9291087"><ele>294.8333333333333</ele><time>2026-04-10T09:21:34.601Z</time></trkpt><trkpt lat="43.1135125" lon="11.9289618"><ele>294.66666666666663</ele><time>2026-04-10T09:21:36.595Z</time></trkpt><trkpt lat="43.1134738" lon="11.9288427"><ele>294.5</ele><time>2026-04-10T09:21:38.597Z</time></trkpt><trkpt lat="43.1134115" lon="11.9287749"><ele>294.3333333333333</ele><time>2026-04-10T09:21:40.598Z</time></trkpt><trkpt lat="43.1133603" lon="11.928709"><ele>294.1666666666667</ele><time>2026-04-10T09:21:42.588Z</time></trkpt><trkpt lat="43.1133348" lon="11.9286046"><ele>294.0</ele><time>2026-04-10T09:21:44.597Z</time></trkpt><trkpt lat="43.1133002" lon="11.9284779"><ele>293.3333333333333</ele><time>2026-04-10T09:21:46.594Z</time></trkpt><trkpt lat="43.1132556" lon="11.9283638"><ele>292.6666666666667</ele><time>2026-04-10T09:21:48.594Z</time></trkpt><trkpt lat="43.1132118" lon="11.9282518"><ele>292.0</ele><time>2026-04-10T09:21:50.599Z</time></trkpt><trkpt lat="43.1131647" lon="11.9281528"><ele>291.33333333333337</ele><time>2026-04-10T09:21:52.606Z</time></trkpt><trkpt lat="43.1131033" lon="11.9280475"><ele>290.6666666666667</ele><time>2026-04-10T09:21:54.598Z</time></trkpt><trkpt lat="43.1130528" lon="11.9279937"><ele>290.0</ele><time>2026-04-10T09:21:55.595Z</time></trkpt><trkpt lat="43.1129713" lon="11.927896"><ele>290.0</ele><time>2026-04-10T09:21:57.596Z</time></trkpt><trkpt lat="43.1128996" lon="11.927808"><ele>290.0</ele><time>2026-04-10T09:21:59.599Z</time></trkpt><trkpt lat="43.1128276" lon="11.9277124"><ele>290.0</ele><time>2026-04-10T09:22:01.598Z</time></trkpt><trkpt lat="43.1127453" lon="11.9275972"><ele>290.0</ele><time>2026-04-10T09:22:03.595Z</time></trkpt><trkpt lat="43.1126555" lon="11.9274899"><ele>290.0</ele><time>2026-04-10T09:22:05.596Z</time></trkpt><trkpt lat="43.1125819" lon="11.9273897"><ele>287.6</ele><time>2026-04-10T09:22:07.597Z</time></trkpt><trkpt lat="43.1125174" lon="11.9272794"><ele>285.2</ele><time>2026-04-10T09:22:09.59Z</time></trkpt><trkpt lat="43.1124434" lon="11.927172"><ele>282.8</ele><time>2026-04-10T09:22:11.589Z</time></trkpt><trkpt lat="43.1123564" lon="11.9270967"><ele>280.4</ele><time>2026-04-10T09:22:13.608Z</time></trkpt><trkpt lat="43.1122605" lon="11.9270586"><ele>278.0</ele><time>2026-04-10T09:22:15.59Z</time></trkpt><trkpt lat="43.1121565" lon="11.9270315"><ele>277.0</ele><time>2026-04-10T09:22:17.602Z</time></trkpt><trkpt lat="43.1120561" lon="11.9270199"><ele>276.0</ele><time>2026-04-10T09:22:19.59Z</time></trkpt><trkpt lat="43.1119604" lon="11.9270423"><ele>275.0</ele><time>2026-04-10T09:22:21.606Z</time></trkpt><trkpt lat="43.1118468" lon="11.9270995"><ele>274.0</ele><time>2026-04-10T09:22:23.595Z</time></trkpt><trkpt lat="43.1117497" lon="11.9271606"><ele>273.0</ele><time>2026-04-10T09:22:25.598Z</time></trkpt><trkpt lat="43.1116533" lon="11.927235"><ele>273.0</ele><time>2026-04-10T09:22:27.594Z</time></trkpt><trkpt lat="43.1115913" lon="11.9272811"><ele>273.0</ele><time>2026-04-10T09:22:28.6Z</time></trkpt><trkpt lat="43.1114866" lon="11.9273604"><ele>273.0</ele><time>2026-04-10T09:22:30.593Z</time></trkpt><trkpt lat="43.1114042" lon="11.9273936"><ele>273.0</ele><time>2026-04-10T09:22:32.594Z</time></trkpt><trkpt lat="43.1113163" lon="11.9273802"><ele>273.0</ele><time>2026-04-10T09:22:34.597Z</time></trkpt><trkpt lat="43.1112297" lon="11.9273116"><ele>272.6</ele><time>2026-04-10T09:22:36.592Z</time></trkpt><trkpt lat="43.1111569" lon="11.9272349"><ele>272.20000000000005</ele><time>2026-04-10T09:22:38.595Z</time></trkpt><trkpt lat="43.1111124" lon="11.9271271"><ele>271.8</ele><time>2026-04-10T09:22:40.598Z</time></trkpt><trkpt lat="43.1110715" lon="11.9270102"><ele>271.40000000000003</ele><time>2026-04-10T09:22:42.595Z</time></trkpt><trkpt lat="43.1110663" lon="11.9268877"><ele>271.0</ele><time>2026-04-10T09:22:44.608Z</time></trkpt><trkpt lat="43.1110887" lon="11.9267712"><ele>269.2</ele><time>2026-04-10T09:22:46.592Z</time></trkpt><trkpt lat="43.111128" lon="11.9266693"><ele>267.40000000000003</ele><time>2026-04-10T09:22:48.604Z</time></trkpt><trkpt lat="43.1111948" lon="11.9265541"><ele>265.6</ele><time>2026-04-10T09:22:50.596Z</time></trkpt><trkpt lat="43.1112409" lon="11.9264824"><ele>263.8</ele><time>2026-04-10T09:22:52.594Z</time></trkpt><trkpt lat="43.1113081" lon="11.926383"><ele>262.0</ele><time>2026-04-10T09:22:54.595Z</time></trkpt><trkpt lat="43.1113767" lon="11.9262917"><ele>262.0</ele><time>2026-04-10T09:22:56.6Z</time></trkpt><trkpt lat="43.1114409" lon="11.9262174"><ele>262.0</ele><time>2026-04-10T09:22:58.593Z</time></trkpt><trkpt lat="43.1114943" lon="11.9261229"><ele>262.0</ele><time>2026-04-10T09:23:07.596Z</time></trkpt><trkpt lat="43.111493" lon="11.9259541"><ele>262.0</ele><time>2026-04-10T09:23:09.602Z</time></trkpt><trkpt lat="43.1114725" lon="11.9258645"><ele>262.0</ele><time>2026-04-10T09:23:10.591Z</time></trkpt><trkpt lat="43.1114377" lon="11.9257873"><ele>262.0</ele><time>2026-04-10T09:23:11.592Z</time></trkpt><trkpt lat="43.1113835" lon="11.9257259"><ele>260.4</ele><time>2026-04-10T09:23:12.601Z</time></trkpt><trkpt lat="43.1113118" lon="11.9256856"><ele>258.79999999999995</ele><time>2026-04-10T09:23:13.597Z</time></trkpt><trkpt lat="43.1112298" lon="11.9256818"><ele>257.2</ele><time>2026-04-10T09:23:14.594Z</time></trkpt><trkpt lat="43.1111281" lon="11.9257165"><ele>255.6</ele><time>2026-04-10T09:23:15.59Z</time></trkpt><trkpt lat="43.1110025" lon="11.9257754"><ele>254.0</ele><time>2026-04-10T09:23:16.594Z</time></trkpt><trkpt lat="43.1108568" lon="11.9258407"><ele>256.33333333333337</ele><time>2026-04-10T09:23:17.594Z</time></trkpt><trkpt lat="43.1106863" lon="11.9259138"><ele>258.6666666666667</ele><time>2026-04-10T09:23:18.596Z</time></trkpt><trkpt lat="43.110521" lon="11.9259877"><ele>261.0</ele><time>2026-04-10T09:23:19.594Z</time></trkpt><trkpt lat="43.1103551" lon="11.9260592"><ele>261.0</ele><time>2026-04-10T09:23:20.593Z</time></trkpt><trkpt lat="43.1101826" lon="11.9261361"><ele>261.0</ele><time>2026-04-10T09:23:21.591Z</time></trkpt><trkpt lat="43.1100181" lon="11.9262093"><ele>261.0</ele><time>2026-04-10T09:23:22.587Z</time></trkpt><trkpt lat="43.109871" lon="11.9262765"><ele>259.6</ele><time>2026-04-10T09:23:23.598Z</time></trkpt><trkpt lat="43.1097429" lon="11.9263356"><ele>258.20000000000005</ele><time>2026-04-10T09:23:24.609Z</time></trkpt><trkpt lat="43.1096364" lon="11.9263851"><ele>256.79999999999995</ele><time>2026-04-10T09:23:25.596Z</time></trkpt><trkpt lat="43.1095403" lon="11.9264181"><ele>255.39999999999998</ele><time>2026-04-10T09:23:26.589Z</time></trkpt><trkpt lat="43.1094429" lon="11.9264377"><ele>254.0</ele><time>2026-04-10T09:23:27.588Z</time></trkpt><trkpt lat="43.1093406" lon="11.9264363"><ele>254.0</ele><time>2026-04-10T09:23:28.588Z</time></trkpt><trkpt lat="43.1092333" lon="11.9263973"><ele>254.0</ele><time>2026-04-10T09:23:29.592Z</time></trkpt><trkpt lat="43.1091167" lon="11.9263278"><ele>254.0</ele><time>2026-04-10T09:23:30.601Z</time></trkpt><trkpt lat="43.1090168" lon="11.926247"><ele>254.0</ele><time>2026-04-10T09:23:31.605Z</time></trkpt><trkpt lat="43.1089256" lon="11.9261785"><ele>253.5</ele><time>2026-04-10T09:23:32.599Z</time></trkpt><trkpt lat="43.1088207" lon="11.9261373"><ele>253.0</ele><time>2026-04-10T09:23:33.587Z</time></trkpt><trkpt lat="43.108705" lon="11.9261242"><ele>252.5</ele><time>2026-04-10T09:23:34.59Z</time></trkpt><trkpt lat="43.108579" lon="11.926147"><ele>252.0</ele><time>2026-04-10T09:23:35.593Z</time></trkpt><trkpt lat="43.1084479" lon="11.9261932"><ele>252.0</ele><time>2026-04-10T09:23:36.604Z</time></trkpt><trkpt lat="43.1083036" lon="11.9262516"><ele>252.0</ele><time>2026-04-10T09:23:37.591Z</time></trkpt><trkpt lat="43.108152" lon="11.9263134"><ele>252.0</ele><time>2026-04-10T09:23:38.595Z</time></trkpt><trkpt lat="43.1079991" lon="11.9263721"><ele>251.33333333333331</ele><time>2026-04-10T09:23:39.597Z</time></trkpt><trkpt lat="43.1078449" lon="11.9264308"><ele>250.66666666666666</ele><time>2026-04-10T09:23:40.597Z</time></trkpt><trkpt lat="43.1076867" lon="11.9264862"><ele>250.0</ele><time>2026-04-10T09:23:41.599Z</time></trkpt><trkpt lat="43.1075389" lon="11.9265417"><ele>250.0</ele><time>2026-04-10T09:23:42.596Z</time></trkpt><trkpt lat="43.1073997" lon="11.9265955"><ele>250.0</ele><time>2026-04-10T09:23:43.593Z</time></trkpt><trkpt lat="43.1072525" lon="11.9266564"><ele>250.0</ele><time>2026-04-10T09:23:44.59Z</time></trkpt><trkpt lat="43.1071016" lon="11.926714"><ele>250.33333333333331</ele><time>2026-04-10T09:23:45.596Z</time></trkpt><trkpt lat="43.1069475" lon="11.9267772"><ele>250.66666666666669</ele><time>2026-04-10T09:23:46.607Z</time></trkpt><trkpt lat="43.1067899" lon="11.9268409"><ele>251.0</ele><time>2026-04-10T09:23:47.588Z</time></trkpt><trkpt lat="43.1066228" lon="11.926908"><ele>250.66666666666669</ele><time>2026-04-10T09:23:48.596Z</time></trkpt><trkpt lat="43.1064526" lon="11.9269759"><ele>250.33333333333331</ele><time>2026-04-10T09:23:49.594Z</time></trkpt><trkpt lat="43.1063014" lon="11.9270423"><ele>250.0</ele><time>2026-04-10T09:23:50.605Z</time></trkpt><trkpt lat="43.1061603" lon="11.9270999"><ele>250.0</ele><time>2026-04-10T09:23:51.596Z</time></trkpt><trkpt lat="43.1060263" lon="11.9271377"><ele>250.0</ele><time>2026-04-10T09:23:52.595Z</time></trkpt><trkpt lat="43.1058938" lon="11.9271537"><ele>250.0</ele><time>2026-04-10T09:23:53.598Z</time></trkpt><trkpt lat="43.1057708" lon="11.9271717"><ele>250.0</ele><time>2026-04-10T09:23:54.591Z</time></trkpt><trkpt lat="43.1056619" lon="11.9272003"><ele>250.2</ele><time>2026-04-10T09:23:55.59Z</time></trkpt><trkpt lat="43.1055635" lon="11.9272391"><ele>250.4</ele><time>2026-04-10T09:23:56.6Z</time></trkpt><trkpt lat="43.1054716" lon="11.9272858"><ele>250.60000000000002</ele><time>2026-04-10T09:23:57.59Z</time></trkpt><trkpt lat="43.1053777" lon="11.9273502"><ele>250.8</ele><time>2026-04-10T09:23:58.593Z</time></trkpt><trkpt lat="43.1052622" lon="11.9274271"><ele>251.0</ele><time>2026-04-10T09:23:59.591Z</time></trkpt><trkpt lat="43.105137" lon="11.9275097"><ele>252.0</ele><time>2026-04-10T09:24:00.612Z</time></trkpt><trkpt lat="43.1050208" lon="11.9275979"><ele>253.0</ele><time>2026-04-10T09:24:01.605Z</time></trkpt><trkpt lat="43.1048978" lon="11.9276949"><ele>254.0</ele><time>2026-04-10T09:24:02.594Z</time></trkpt><trkpt lat="43.1047911" lon="11.9277855"><ele>255.0</ele><time>2026-04-10T09:24:03.596Z</time></trkpt><trkpt lat="43.1047028" lon="11.9278639"><ele>255.16666666666666</ele><time>2026-04-10T09:24:04.595Z</time></trkpt><trkpt lat="43.1046219" lon="11.927934"><ele>255.33333333333331</ele><time>2026-04-10T09:24:05.592Z</time></trkpt><trkpt lat="43.1045376" lon="11.9280007"><ele>255.5</ele><time>2026-04-10T09:24:06.6Z</time></trkpt><trkpt lat="43.1044583" lon="11.9280586"><ele>255.66666666666666</ele><time>2026-04-10T09:24:07.594Z</time></trkpt><trkpt lat="43.1043925" lon="11.9281248"><ele>255.83333333333331</ele><time>2026-04-10T09:24:08.601Z</time></trkpt><trkpt lat="43.1043341" lon="11.9281748"><ele>256.0</ele><time>2026-04-10T09:24:09.602Z</time></trkpt><trkpt lat="43.1042751" lon="11.9282074"><ele>255.99999999999997</ele><time>2026-04-10T09:24:10.598Z</time></trkpt><trkpt lat="43.1042059" lon="11.928226"><ele>256.0</ele><time>2026-04-10T09:24:11.594Z</time></trkpt><trkpt lat="43.1041379" lon="11.9282259"><ele>256.0</ele><time>2026-04-10T09:24:12.61Z</time></trkpt><trkpt lat="43.104049" lon="11.9281929"><ele>256.0</ele><time>2026-04-10T09:24:14.592Z</time></trkpt><trkpt lat="43.1039514" lon="11.9281716"><ele>255.99999999999997</ele><time>2026-04-10T09:24:16.585Z</time></trkpt><trkpt lat="43.1038824" lon="11.9281438"><ele>256.0</ele><time>2026-04-10T09:24:17.596Z</time></trkpt><trkpt lat="43.1038075" lon="11.928106"><ele>256.85714285714283</ele><time>2026-04-10T09:24:18.598Z</time></trkpt><trkpt lat="43.1037348" lon="11.9280762"><ele>257.71428571428567</ele><time>2026-04-10T09:24:19.611Z</time></trkpt><trkpt lat="43.1036703" lon="11.9280559"><ele>258.57142857142856</ele><time>2026-04-10T09:24:20.609Z</time></trkpt><trkpt lat="43.1035983" lon="11.9280295"><ele>259.42857142857144</ele><time>2026-04-10T09:24:21.589Z</time></trkpt><trkpt lat="43.1035368" lon="11.9279991"><ele>260.28571428571433</ele><time>2026-04-10T09:24:22.594Z</time></trkpt><trkpt lat="43.1034658" lon="11.9279641"><ele>261.14285714285717</ele><time>2026-04-10T09:24:24.595Z</time></trkpt><trkpt lat="43.1033819" lon="11.9279247"><ele>262.0</ele><time>2026-04-10T09:24:26.592Z</time></trkpt><trkpt lat="43.1033157" lon="11.927875"><ele>262.0</ele><time>2026-04-10T09:24:29.597Z</time></trkpt><trkpt lat="43.1032509" lon="11.9278266"><ele>262.0</ele><time>2026-04-10T09:24:32.6Z</time></trkpt><trkpt lat="43.1031725" lon="11.9278263"><ele>262.0</ele><time>2026-04-10T09:24:35.59Z</time></trkpt><trkpt lat="43.1030831" lon="11.9277705"><ele>262.0</ele><time>2026-04-10T09:24:37.594Z</time></trkpt><trkpt lat="43.1030096" lon="11.9277278"><ele>262.0</ele><time>2026-04-10T09:24:39.594Z</time></trkpt><trkpt lat="43.1029358" lon="11.9277043"><ele>262.0</ele><time>2026-04-10T09:24:42.598Z</time></trkpt><trkpt lat="43.1028303" lon="11.9276647"><ele>262.3333333333333</ele><time>2026-04-10T09:24:44.606Z</time></trkpt><trkpt lat="43.1027553" lon="11.9276424"><ele>262.66666666666663</ele><time>2026-04-10T09:24:45.599Z</time></trkpt><trkpt lat="43.1026807" lon="11.9276274"><ele>263.0</ele><time>2026-04-10T09:24:46.593Z</time></trkpt><trkpt lat="43.1026114" lon="11.9276163"><ele>263.3333333333333</ele><time>2026-04-10T09:24:47.6Z</time></trkpt><trkpt lat="43.1024872" lon="11.9275893"><ele>263.6666666666667</ele><time>2026-04-10T09:24:49.594Z</time></trkpt><trkpt lat="43.1024245" lon="11.9275695"><ele>264.0</ele><time>2026-04-10T09:24:50.595Z</time></trkpt><trkpt lat="43.1023043" lon="11.9275545"><ele>262.8333333333333</ele><time>2026-04-10T09:24:52.596Z</time></trkpt><trkpt lat="43.1022349" lon="11.9275499"><ele>261.6666666666667</ele><time>2026-04-10T09:24:53.593Z</time></trkpt><trkpt lat="43.1021687" lon="11.9275582"><ele>260.5</ele><time>2026-04-10T09:24:54.594Z</time></trkpt><trkpt lat="43.1020453" lon="11.9275793"><ele>259.33333333333337</ele><time>2026-04-10T09:24:56.592Z</time></trkpt><trkpt lat="43.1019801" lon="11.9275895"><ele>258.1666666666667</ele><time>2026-04-10T09:24:57.596Z</time></trkpt><trkpt lat="43.1018679" lon="11.9276151"><ele>257.0</ele><time>2026-04-10T09:24:59.595Z</time></trkpt><trkpt lat="43.1017577" lon="11.9276435"><ele>257.0</ele><time>2026-04-10T09:25:01.597Z</time></trkpt><trkpt lat="43.1016431" lon="11.9276614"><ele>257.0</ele><time>2026-04-10T09:25:03.591Z</time></trkpt><trkpt lat="43.101527" lon="11.9276755"><ele>257.0</ele><time>2026-04-10T09:25:05.602Z</time></trkpt><trkpt lat="43.1014638" lon="11.9276881"><ele>257.0</ele><time>2026-04-10T09:25:06.619Z</time></trkpt><trkpt lat="43.1013563" lon="11.9276999"><ele>257.0</ele><time>2026-04-10T09:25:08.59Z</time></trkpt><trkpt lat="43.1012582" lon="11.9276958"><ele>257.0</ele><time>2026-04-10T09:25:10.596Z</time></trkpt><trkpt lat="43.1011446" lon="11.9276599"><ele>257.0</ele><time>2026-04-10T09:25:12.592Z</time></trkpt><trkpt lat="43.1010311" lon="11.9276111"><ele>257.0</ele><time>2026-04-10T09:25:14.602Z</time></trkpt><trkpt lat="43.1009149" lon="11.9275757"><ele>257.0</ele><time>2026-04-10T09:25:16.593Z</time></trkpt><trkpt lat="43.1007948" lon="11.9275483"><ele>256.0</ele><time>2026-04-10T09:25:18.598Z</time></trkpt><trkpt lat="43.1007274" lon="11.9275367"><ele>255.0</ele><time>2026-04-10T09:25:19.6Z</time></trkpt><trkpt lat="43.1006132" lon="11.9275198"><ele>254.0</ele><time>2026-04-10T09:25:21.593Z</time></trkpt><trkpt lat="43.1004973" lon="11.9275044"><ele>253.0</ele><time>2026-04-10T09:25:23.594Z</time></trkpt><trkpt lat="43.1003949" lon="11.9274825"><ele>252.0</ele><time>2026-04-10T09:25:25.598Z</time></trkpt><trkpt lat="43.1003058" lon="11.9274495"><ele>252.0</ele><time>2026-04-10T09:25:27.597Z</time></trkpt><trkpt lat="43.1002218" lon="11.9274195"><ele>252.0</ele><time>2026-04-10T09:25:29.598Z</time></trkpt><trkpt lat="43.1001153" lon="11.9274206"><ele>252.0</ele><time>2026-04-10T09:25:31.594Z</time></trkpt><trkpt lat="43.1000063" lon="11.9274355"><ele>252.0</ele><time>2026-04-10T09:25:33.595Z</time></trkpt><trkpt lat="43.099893" lon="11.9274564"><ele>252.0</ele><time>2026-04-10T09:25:35.609Z</time></trkpt><trkpt lat="43.0998155" lon="11.9274856"><ele>251.6</ele><time>2026-04-10T09:25:37.589Z</time></trkpt><trkpt lat="43.0997416" lon="11.9275201"><ele>251.2</ele><time>2026-04-10T09:25:41.59Z</time></trkpt><trkpt lat="43.0996773" lon="11.927536"><ele>250.8</ele><time>2026-04-10T09:25:43.595Z</time></trkpt><trkpt lat="43.0995736" lon="11.927569"><ele>250.4</ele><time>2026-04-10T09:25:45.589Z</time></trkpt><trkpt lat="43.0994597" lon="11.9276114"><ele>250.0</ele><time>2026-04-10T09:25:47.595Z</time></trkpt><trkpt lat="43.0993506" lon="11.9276715"><ele>250.49999999999997</ele><time>2026-04-10T09:25:49.591Z</time></trkpt><trkpt lat="43.0992344" lon="11.9277341"><ele>251.0</ele><time>2026-04-10T09:25:51.587Z</time></trkpt><trkpt lat="43.0991742" lon="11.9277645"><ele>251.5</ele><time>2026-04-10T09:25:52.592Z</time></trkpt><trkpt lat="43.0991134" lon="11.9277966"><ele>252.0</ele><time>2026-04-10T09:25:53.602Z</time></trkpt><trkpt lat="43.0990498" lon="11.9278328"><ele>252.49999999999997</ele><time>2026-04-10T09:25:54.603Z</time></trkpt><trkpt lat="43.0989916" lon="11.9278664"><ele>253.0</ele><time>2026-04-10T09:25:55.589Z</time></trkpt><trkpt lat="43.0988795" lon="11.9279304"><ele>253.0</ele><time>2026-04-10T09:25:57.589Z</time></trkpt><trkpt lat="43.0987778" lon="11.9279829"><ele>253.0</ele><time>2026-04-10T09:25:59.604Z</time></trkpt><trkpt lat="43.0986796" lon="11.9280324"><ele>253.0</ele><time>2026-04-10T09:26:01.601Z</time></trkpt><trkpt lat="43.0985935" lon="11.9280769"><ele>253.0</ele><time>2026-04-10T09:26:03.593Z</time></trkpt><trkpt lat="43.0985289" lon="11.9281308"><ele>253.0</ele><time>2026-04-10T09:26:05.594Z</time></trkpt><trkpt lat="43.0984315" lon="11.9281881"><ele>252.99999999999997</ele><time>2026-04-10T09:26:07.591Z</time></trkpt><trkpt lat="43.0983499" lon="11.928239"><ele>253.0</ele><time>2026-04-10T09:26:09.591Z</time></trkpt><trkpt lat="43.098288" lon="11.9283038"><ele>253.0</ele><time>2026-04-10T09:26:11.595Z</time></trkpt><trkpt lat="43.0982274" lon="11.9283698"><ele>253.0</ele><time>2026-04-10T09:26:13.598Z</time></trkpt><trkpt lat="43.0981622" lon="11.9284099"><ele>252.99999999999997</ele><time>2026-04-10T09:26:15.604Z</time></trkpt><trkpt lat="43.0980835" lon="11.9284577"><ele>253.0</ele><time>2026-04-10T09:26:17.594Z</time></trkpt><trkpt lat="43.0980362" lon="11.9285147"><ele>252.99999999999997</ele><time>2026-04-10T09:26:19.585Z</time></trkpt><trkpt lat="43.0979885" lon="11.92859"><ele>253.0</ele><time>2026-04-10T09:26:21.603Z</time></trkpt><trkpt lat="43.0979183" lon="11.9286921"><ele>253.0</ele><time>2026-04-10T09:26:23.593Z</time></trkpt><trkpt lat="43.09787" lon="11.9287532"><ele>253.0</ele><time>2026-04-10T09:26:24.6Z</time></trkpt><trkpt lat="43.0978195" lon="11.928814"><ele>252.99999999999997</ele><time>2026-04-10T09:26:25.591Z</time></trkpt><trkpt lat="43.0977645" lon="11.9288758"><ele>253.0</ele><time>2026-04-10T09:26:26.604Z</time></trkpt><trkpt lat="43.0976677" lon="11.9289664"><ele>252.99999999999997</ele><time>2026-04-10T09:26:28.593Z</time></trkpt><trkpt lat="43.0976139" lon="11.9290114"><ele>253.0</ele><time>2026-04-10T09:26:29.596Z</time></trkpt><trkpt lat="43.0975546" lon="11.9290593"><ele>253.0</ele><time>2026-04-10T09:26:30.594Z</time></trkpt><trkpt lat="43.0974964" lon="11.9291003"><ele>253.0</ele><time>2026-04-10T09:26:31.596Z</time></trkpt><trkpt lat="43.0973909" lon="11.9291587"><ele>252.99999999999997</ele><time>2026-04-10T09:26:33.588Z</time></trkpt><trkpt lat="43.0973151" lon="11.9291863"><ele>253.0</ele><time>2026-04-10T09:26:35.591Z</time></trkpt><trkpt lat="43.097251" lon="11.9292024"><ele>254.33333333333331</ele><time>2026-04-10T09:26:37.593Z</time></trkpt><trkpt lat="43.0971756" lon="11.9292299"><ele>255.66666666666666</ele><time>2026-04-10T09:26:39.599Z</time></trkpt><trkpt lat="43.097103" lon="11.9292613"><ele>257.0</ele><time>2026-04-10T09:26:41.592Z</time></trkpt><trkpt lat="43.0970228" lon="11.9292903"><ele>258.3333333333333</ele><time>2026-04-10T09:26:43.6Z</time></trkpt><trkpt lat="43.0969423" lon="11.9293131"><ele>259.6666666666667</ele><time>2026-04-10T09:26:45.594Z</time></trkpt><trkpt lat="43.0968365" lon="11.9293576"><ele>261.0</ele><time>2026-04-10T09:26:47.598Z</time></trkpt><trkpt lat="43.096741" lon="11.9293906"><ele>261.0</ele><time>2026-04-10T09:26:49.597Z</time></trkpt><trkpt lat="43.0966642" lon="11.9294175"><ele>261.0</ele><time>2026-04-10T09:26:51.595Z</time></trkpt><trkpt lat="43.0965584" lon="11.9294545"><ele>261.0</ele><time>2026-04-10T09:26:53.595Z</time></trkpt><trkpt lat="43.0964679" lon="11.9294861"><ele>261.0</ele><time>2026-04-10T09:26:55.599Z</time></trkpt><trkpt lat="43.0963762" lon="11.9295278"><ele>261.0</ele><time>2026-04-10T09:26:58.599Z</time></trkpt><trkpt lat="43.0962918" lon="11.9295529"><ele>260.0</ele><time>2026-04-10T09:27:00.604Z</time></trkpt><trkpt lat="43.0962157" lon="11.9295891"><ele>259.0</ele><time>2026-04-10T09:27:02.594Z</time></trkpt><trkpt lat="43.0961226" lon="11.9296632"><ele>258.0</ele><time>2026-04-10T09:27:04.593Z</time></trkpt><trkpt lat="43.0960207" lon="11.9297339"><ele>257.0</ele><time>2026-04-10T09:27:06.599Z</time></trkpt><trkpt lat="43.0959249" lon="11.9297956"><ele>256.0</ele><time>2026-04-10T09:27:08.588Z</time></trkpt><trkpt lat="43.0958493" lon="11.9298241"><ele>255.0</ele><time>2026-04-10T09:27:10.586Z</time></trkpt><trkpt lat="43.0957352" lon="11.9298665"><ele>254.0</ele><time>2026-04-10T09:27:12.596Z</time></trkpt><trkpt lat="43.0956237" lon="11.9299112"><ele>253.0</ele><time>2026-04-10T09:27:14.597Z</time></trkpt><trkpt lat="43.0955145" lon="11.9299697"><ele>252.0</ele><time>2026-04-10T09:27:16.597Z</time></trkpt><trkpt lat="43.0954108" lon="11.9300367"><ele>254.8</ele><time>2026-04-10T09:27:18.592Z</time></trkpt><trkpt lat="43.0953286" lon="11.9300949"><ele>257.6</ele><time>2026-04-10T09:27:22.601Z</time></trkpt><trkpt lat="43.0952425" lon="11.9301446"><ele>260.40000000000003</ele><time>2026-04-10T09:27:24.613Z</time></trkpt><trkpt lat="43.0951597" lon="11.9301984"><ele>263.2</ele><time>2026-04-10T09:27:26.599Z</time></trkpt><trkpt lat="43.0950797" lon="11.9302527"><ele>266.0</ele><time>2026-04-10T09:27:28.594Z</time></trkpt><trkpt lat="43.0949915" lon="11.930297"><ele>263.6</ele><time>2026-04-10T09:27:30.591Z</time></trkpt><trkpt lat="43.0949059" lon="11.9303476"><ele>261.20000000000005</ele><time>2026-04-10T09:27:32.599Z</time></trkpt><trkpt lat="43.0948213" lon="11.9304006"><ele>258.79999999999995</ele><time>2026-04-10T09:27:34.603Z</time></trkpt><trkpt lat="43.094739" lon="11.9304534"><ele>256.4</ele><time>2026-04-10T09:27:36.599Z</time></trkpt><trkpt lat="43.0946556" lon="11.9305023"><ele>254.0</ele><time>2026-04-10T09:27:38.596Z</time></trkpt><trkpt lat="43.0945674" lon="11.9305512"><ele>254.0</ele><time>2026-04-10T09:27:40.601Z</time></trkpt><trkpt lat="43.0944732" lon="11.9306011"><ele>253.99999999999997</ele><time>2026-04-10T09:27:42.596Z</time></trkpt><trkpt lat="43.0943742" lon="11.9306474"><ele>253.99999999999997</ele><time>2026-04-10T09:27:44.595Z</time></trkpt><trkpt lat="43.0942888" lon="11.9306875"><ele>254.0</ele><time>2026-04-10T09:27:46.593Z</time></trkpt><trkpt lat="43.094219" lon="11.9307256"><ele>254.0</ele><time>2026-04-10T09:27:48.591Z</time></trkpt><trkpt lat="43.0941064" lon="11.9307808"><ele>253.83333333333334</ele><time>2026-04-10T09:27:50.593Z</time></trkpt><trkpt lat="43.0940148" lon="11.9308287"><ele>253.66666666666669</ele><time>2026-04-10T09:27:52.591Z</time></trkpt><trkpt lat="43.0939384" lon="11.9308666"><ele>253.5</ele><time>2026-04-10T09:27:54.593Z</time></trkpt><trkpt lat="43.0938643" lon="11.9308899"><ele>253.33333333333331</ele><time>2026-04-10T09:27:57.596Z</time></trkpt><trkpt lat="43.0937871" lon="11.9309076"><ele>253.16666666666666</ele><time>2026-04-10T09:27:59.592Z</time></trkpt><trkpt lat="43.0937205" lon="11.9309134"><ele>253.0</ele><time>2026-04-10T09:28:00.591Z</time></trkpt><trkpt lat="43.0936019" lon="11.9309449"><ele>255.8</ele><time>2026-04-10T09:28:02.598Z</time></trkpt><trkpt lat="43.0934948" lon="11.9309833"><ele>258.6</ele><time>2026-04-10T09:28:04.602Z</time></trkpt><trkpt lat="43.0933843" lon="11.9310202"><ele>261.4</ele><time>2026-04-10T09:28:06.592Z</time></trkpt><trkpt lat="43.093317" lon="11.9310581"><ele>264.2</ele><time>2026-04-10T09:28:08.596Z</time></trkpt><trkpt lat="43.0932508" lon="11.9310918"><ele>267.0</ele><time>2026-04-10T09:28:10.592Z</time></trkpt><trkpt lat="43.0931435" lon="11.9311116"><ele>267.00000000000006</ele><time>2026-04-10T09:28:13.602Z</time></trkpt><trkpt lat="43.0930656" lon="11.9311294"><ele>267.0</ele><time>2026-04-10T09:28:15.592Z</time></trkpt><trkpt lat="43.0929993" lon="11.9311585"><ele>267.0</ele><time>2026-04-10T09:28:17.594Z</time></trkpt><trkpt lat="43.0929323" lon="11.9311825"><ele>267.0</ele><time>2026-04-10T09:28:19.595Z</time></trkpt><trkpt lat="43.0928497" lon="11.9312082"><ele>267.0</ele><time>2026-04-10T09:28:21.607Z</time></trkpt><trkpt lat="43.0927837" lon="11.9312266"><ele>267.00000000000006</ele><time>2026-04-10T09:28:23.596Z</time></trkpt><trkpt lat="43.0927149" lon="11.9312484"><ele>267.0</ele><time>2026-04-10T09:28:25.595Z</time></trkpt><trkpt lat="43.09263" lon="11.9312744"><ele>267.00000000000006</ele><time>2026-04-10T09:28:27.611Z</time></trkpt><trkpt lat="43.0925678" lon="11.9312987"><ele>267.0</ele><time>2026-04-10T09:28:29.59Z</time></trkpt><trkpt lat="43.0924913" lon="11.9313111"><ele>267.0</ele><time>2026-04-10T09:28:33.598Z</time></trkpt><trkpt lat="43.0924076" lon="11.931369"><ele>267.0</ele><time>2026-04-10T09:28:36.608Z</time></trkpt><trkpt lat="43.0923421" lon="11.931393"><ele>267.0</ele><time>2026-04-10T09:28:37.597Z</time></trkpt><trkpt lat="43.0922752" lon="11.9313992"><ele>267.00000000000006</ele><time>2026-04-10T09:28:38.591Z</time></trkpt><trkpt lat="43.092212" lon="11.9314084"><ele>267.0</ele><time>2026-04-10T09:28:39.604Z</time></trkpt><trkpt lat="43.0921403" lon="11.9314256"><ele>267.25</ele><time>2026-04-10T09:28:41.597Z</time></trkpt><trkpt lat="43.0920378" lon="11.9314416"><ele>267.5</ele><time>2026-04-10T09:28:44.597Z</time></trkpt><trkpt lat="43.091873" lon="11.9313743"><ele>267.75</ele><time>2026-04-10T09:28:46.595Z</time></trkpt><trkpt lat="43.0917635" lon="11.9313708"><ele>268.0</ele><time>2026-04-10T09:28:47.602Z</time></trkpt><trkpt lat="43.0916473" lon="11.9313614"><ele>268.25</ele><time>2026-04-10T09:28:48.595Z</time></trkpt><trkpt lat="43.0915207" lon="11.9313571"><ele>268.5</ele><time>2026-04-10T09:28:49.598Z</time></trkpt><trkpt lat="43.0913935" lon="11.9313521"><ele>268.75</ele><time>2026-04-10T09:28:50.6Z</time></trkpt><trkpt lat="43.0912679" lon="11.9313548"><ele>269.0</ele><time>2026-04-10T09:28:51.595Z</time></trkpt><trkpt lat="43.091139" lon="11.9313527"><ele>269.0</ele><time>2026-04-10T09:28:52.621Z</time></trkpt><trkpt lat="43.0910141" lon="11.9313426"><ele>269.0</ele><time>2026-04-10T09:28:53.593Z</time></trkpt><trkpt lat="43.0906439" lon="11.9313354"><ele>267.75</ele><time>2026-04-10T09:28:56.61Z</time></trkpt><trkpt lat="43.0905248" lon="11.9313318"><ele>266.5</ele><time>2026-04-10T09:28:57.595Z</time></trkpt><trkpt lat="43.0904072" lon="11.9313268"><ele>265.25</ele><time>2026-04-10T09:28:58.602Z</time></trkpt><trkpt lat="43.0902931" lon="11.9313175"><ele>264.0</ele><time>2026-04-10T09:28:59.598Z</time></trkpt><trkpt lat="43.0900021" lon="11.9312553"><ele>263.2</ele><time>2026-04-10T09:29:02.591Z</time></trkpt><trkpt lat="43.0899085" lon="11.9312251"><ele>262.4</ele><time>2026-04-10T09:29:03.596Z</time></trkpt><trkpt lat="43.0898175" lon="11.9312071"><ele>261.6</ele><time>2026-04-10T09:29:04.594Z</time></trkpt><trkpt lat="43.0897313" lon="11.9312108"><ele>260.8</ele><time>2026-04-10T09:29:05.595Z</time></trkpt><trkpt lat="43.0896451" lon="11.9312397"><ele>260.0</ele><time>2026-04-10T09:29:06.588Z</time></trkpt><trkpt lat="43.0895575" lon="11.9312992"><ele>260.0</ele><time>2026-04-10T09:29:07.603Z</time></trkpt><trkpt lat="43.0894732" lon="11.9313869"><ele>260.0</ele><time>2026-04-10T09:29:08.595Z</time></trkpt><trkpt lat="43.0893883" lon="11.9315002"><ele>260.0</ele><time>2026-04-10T09:29:09.596Z</time></trkpt><trkpt lat="43.0893106" lon="11.9316048"><ele>260.0</ele><time>2026-04-10T09:29:10.599Z</time></trkpt><trkpt lat="43.0892424" lon="11.9316989"><ele>260.0</ele><time>2026-04-10T09:29:11.6Z</time></trkpt><trkpt lat="43.0891807" lon="11.9317818"><ele>260.0</ele><time>2026-04-10T09:29:12.589Z</time></trkpt><trkpt lat="43.0891184" lon="11.9318598"><ele>260.0</ele><time>2026-04-10T09:29:13.598Z</time></trkpt><trkpt lat="43.0890609" lon="11.9319089"><ele>260.0</ele><time>2026-04-10T09:29:14.599Z</time></trkpt><trkpt lat="43.0889934" lon="11.9319157"><ele>260.0</ele><time>2026-04-10T09:29:15.594Z</time></trkpt><trkpt lat="43.0889188" lon="11.9318997"><ele>260.0</ele><time>2026-04-10T09:29:16.6Z</time></trkpt><trkpt lat="43.0888404" lon="11.9318657"><ele>260.0</ele><time>2026-04-10T09:29:17.596Z</time></trkpt><trkpt lat="43.0887513" lon="11.9318302"><ele>259.5</ele><time>2026-04-10T09:29:18.607Z</time></trkpt><trkpt lat="43.0886648" lon="11.9317802"><ele>259.0</ele><time>2026-04-10T09:29:19.598Z</time></trkpt><trkpt lat="43.0885835" lon="11.9317287"><ele>258.5</ele><time>2026-04-10T09:29:20.613Z</time></trkpt><trkpt lat="43.0885151" lon="11.9316712"><ele>258.0</ele><time>2026-04-10T09:29:21.59Z</time></trkpt><trkpt lat="43.0884553" lon="11.9315938"><ele>257.5</ele><time>2026-04-10T09:29:22.594Z</time></trkpt><trkpt lat="43.0884186" lon="11.9314994"><ele>257.0</ele><time>2026-04-10T09:29:23.602Z</time></trkpt><trkpt lat="43.0883879" lon="11.9314088"><ele>256.6666666666667</ele><time>2026-04-10T09:29:24.595Z</time></trkpt><trkpt lat="43.0883353" lon="11.9312713"><ele>256.33333333333337</ele><time>2026-04-10T09:29:26.605Z</time></trkpt><trkpt lat="43.0882613" lon="11.9311616"><ele>256.0</ele><time>2026-04-10T09:29:28.599Z</time></trkpt><trkpt lat="43.0882137" lon="11.9311018"><ele>255.66666666666669</ele><time>2026-04-10T09:29:29.602Z</time></trkpt><trkpt lat="43.0881625" lon="11.9310443"><ele>255.33333333333334</ele><time>2026-04-10T09:29:30.596Z</time></trkpt><trkpt lat="43.0881101" lon="11.9309871"><ele>255.0</ele><time>2026-04-10T09:29:31.597Z</time></trkpt><trkpt lat="43.0880615" lon="11.9309262"><ele>255.57142857142858</ele><time>2026-04-10T09:29:32.592Z</time></trkpt><trkpt lat="43.0880112" lon="11.9308708"><ele>256.14285714285717</ele><time>2026-04-10T09:29:33.608Z</time></trkpt><trkpt lat="43.0879524" lon="11.9308201"><ele>256.7142857142857</ele><time>2026-04-10T09:29:34.595Z</time></trkpt><trkpt lat="43.0878923" lon="11.9307657"><ele>257.2857142857143</ele><time>2026-04-10T09:29:35.604Z</time></trkpt><trkpt lat="43.087836" lon="11.9307065"><ele>257.8571428571429</ele><time>2026-04-10T09:29:36.592Z</time></trkpt><trkpt lat="43.0877838" lon="11.9306557"><ele>258.42857142857144</ele><time>2026-04-10T09:29:37.601Z</time></trkpt><trkpt lat="43.0877011" lon="11.9305959"><ele>259.0</ele><time>2026-04-10T09:29:39.597Z</time></trkpt><trkpt lat="43.0876384" lon="11.9306539"><ele>259.0</ele><time>2026-04-10T09:29:41.591Z</time></trkpt><trkpt lat="43.0876437" lon="11.9308275"><ele>259.0</ele><time>2026-04-10T09:29:43.602Z</time></trkpt><trkpt lat="43.0876651" lon="11.9309508"><ele>259.0</ele><time>2026-04-10T09:29:44.595Z</time></trkpt><trkpt lat="43.0876867" lon="11.9310701"><ele>259.0</ele><time>2026-04-10T09:29:45.591Z</time></trkpt><trkpt lat="43.0877202" lon="11.9311865"><ele>259.0</ele><time>2026-04-10T09:29:46.592Z</time></trkpt><trkpt lat="43.0877589" lon="11.9312927"><ele>258.2</ele><time>2026-04-10T09:29:47.591Z</time></trkpt><trkpt lat="43.0877894" lon="11.9314044"><ele>257.4</ele><time>2026-04-10T09:29:48.596Z</time></trkpt><trkpt lat="43.0878122" lon="11.9315271"><ele>256.6</ele><time>2026-04-10T09:29:49.606Z</time></trkpt><trkpt lat="43.0877953" lon="11.9316599"><ele>255.8</ele><time>2026-04-10T09:29:50.603Z</time></trkpt><trkpt lat="43.0877547" lon="11.9317975"><ele>255.0</ele><time>2026-04-10T09:29:51.595Z</time></trkpt><trkpt lat="43.0876848" lon="11.9319346"><ele>254.75</ele><time>2026-04-10T09:29:52.591Z</time></trkpt><trkpt lat="43.0875933" lon="11.9320564"><ele>254.5</ele><time>2026-04-10T09:29:53.589Z</time></trkpt><trkpt lat="43.0874824" lon="11.9321732"><ele>254.25</ele><time>2026-04-10T09:29:54.598Z</time></trkpt><trkpt lat="43.0873618" lon="11.9322855"><ele>254.0</ele><time>2026-04-10T09:29:55.591Z</time></trkpt><trkpt lat="43.0872383" lon="11.9323907"><ele>254.5</ele><time>2026-04-10T09:29:56.606Z</time></trkpt><trkpt lat="43.0871128" lon="11.9324866"><ele>255.0</ele><time>2026-04-10T09:29:57.592Z</time></trkpt><trkpt lat="43.0869834" lon="11.9325581"><ele>255.5</ele><time>2026-04-10T09:29:58.622Z</time></trkpt><trkpt lat="43.0868595" lon="11.9326052"><ele>256.0</ele><time>2026-04-10T09:29:59.593Z</time></trkpt><trkpt lat="43.0867458" lon="11.932638"><ele>257.0</ele><time>2026-04-10T09:30:00.59Z</time></trkpt><trkpt lat="43.086643" lon="11.9326717"><ele>258.0</ele><time>2026-04-10T09:30:01.589Z</time></trkpt><trkpt lat="43.086548" lon="11.9327283"><ele>259.0</ele><time>2026-04-10T09:30:02.601Z</time></trkpt><trkpt lat="43.0864725" lon="11.9328254"><ele>260.0</ele><time>2026-04-10T09:30:03.593Z</time></trkpt><trkpt lat="43.0864297" lon="11.9329555"><ele>261.0</ele><time>2026-04-10T09:30:04.592Z</time></trkpt><trkpt lat="43.0864258" lon="11.9331017"><ele>264.5</ele><time>2026-04-10T09:30:05.593Z</time></trkpt><trkpt lat="43.0864574" lon="11.9332629"><ele>268.0</ele><time>2026-04-10T09:30:06.595Z</time></trkpt><trkpt lat="43.0865017" lon="11.93343"><ele>271.5</ele><time>2026-04-10T09:30:07.592Z</time></trkpt><trkpt lat="43.0865401" lon="11.9336072"><ele>275.0</ele><time>2026-04-10T09:30:08.594Z</time></trkpt><trkpt lat="43.086558" lon="11.9338016"><ele>277.25</ele><time>2026-04-10T09:30:09.594Z</time></trkpt><trkpt lat="43.0865494" lon="11.9340104"><ele>279.5</ele><time>2026-04-10T09:30:10.591Z</time></trkpt><trkpt lat="43.0865275" lon="11.934214"><ele>281.75</ele><time>2026-04-10T09:30:11.597Z</time></trkpt><trkpt lat="43.086496" lon="11.9344077"><ele>284.0</ele><time>2026-04-10T09:30:12.609Z</time></trkpt><trkpt lat="43.0864496" lon="11.9345708"><ele>284.33333333333337</ele><time>2026-04-10T09:30:13.598Z</time></trkpt><trkpt lat="43.0863896" lon="11.9347763"><ele>284.6666666666667</ele><time>2026-04-10T09:30:14.597Z</time></trkpt><trkpt lat="43.086333" lon="11.9349651"><ele>285.0</ele><time>2026-04-10T09:30:15.607Z</time></trkpt><trkpt lat="43.0862611" lon="11.9351531"><ele>283.6666666666667</ele><time>2026-04-10T09:30:16.597Z</time></trkpt><trkpt lat="43.0861674" lon="11.9353334"><ele>282.33333333333337</ele><time>2026-04-10T09:30:17.593Z</time></trkpt><trkpt lat="43.0860627" lon="11.9355147"><ele>281.0</ele><time>2026-04-10T09:30:18.589Z</time></trkpt><trkpt lat="43.085956" lon="11.9356739"><ele>281.0</ele><time>2026-04-10T09:30:19.594Z</time></trkpt><trkpt lat="43.0858471" lon="11.9358208"><ele>281.0</ele><time>2026-04-10T09:30:20.605Z</time></trkpt><trkpt lat="43.085719" lon="11.9359537"><ele>281.0</ele><time>2026-04-10T09:30:21.592Z</time></trkpt><trkpt lat="43.0855672" lon="11.9360708"><ele>283.0</ele><time>2026-04-10T09:30:22.598Z</time></trkpt><trkpt lat="43.0853989" lon="11.936189"><ele>285.0</ele><time>2026-04-10T09:30:23.604Z</time></trkpt><trkpt lat="43.085231" lon="11.9363064"><ele>287.0</ele><time>2026-04-10T09:30:24.593Z</time></trkpt><trkpt lat="43.085059" lon="11.9364329"><ele>289.0</ele><time>2026-04-10T09:30:25.59Z</time></trkpt><trkpt lat="43.0848887" lon="11.9365524"><ele>291.0</ele><time>2026-04-10T09:30:26.592Z</time></trkpt><trkpt lat="43.0847217" lon="11.9366724"><ele>293.0</ele><time>2026-04-10T09:30:27.597Z</time></trkpt><trkpt lat="43.0845478" lon="11.9367867"><ele>293.0</ele><time>2026-04-10T09:30:28.599Z</time></trkpt><trkpt lat="43.084371" lon="11.9369059"><ele>293.0</ele><time>2026-04-10T09:30:29.593Z</time></trkpt><trkpt lat="43.0842027" lon="11.9370125"><ele>293.0</ele><time>2026-04-10T09:30:30.589Z</time></trkpt><trkpt lat="43.0840504" lon="11.9371112"><ele>294.4</ele><time>2026-04-10T09:30:31.592Z</time></trkpt><trkpt lat="43.0839164" lon="11.9372018"><ele>295.8</ele><time>2026-04-10T09:30:32.595Z</time></trkpt><trkpt lat="43.0838098" lon="11.9372809"><ele>297.2</ele><time>2026-04-10T09:30:33.596Z</time></trkpt><trkpt lat="43.0837432" lon="11.9373385"><ele>298.6</ele><time>2026-04-10T09:30:34.592Z</time></trkpt><trkpt lat="43.0836799" lon="11.9373871"><ele>300.0</ele><time>2026-04-10T09:30:36.591Z</time></trkpt><trkpt lat="43.0836364" lon="11.9372673"><ele>300.0</ele><time>2026-04-10T09:30:40.594Z</time></trkpt><trkpt lat="43.0836507" lon="11.9371646"><ele>300.0</ele><time>2026-04-10T09:30:41.597Z</time></trkpt><trkpt lat="43.0836739" lon="11.9370488"><ele>300.0</ele><time>2026-04-10T09:30:42.591Z</time></trkpt><trkpt lat="43.0837036" lon="11.9369151"><ele>300.0</ele><time>2026-04-10T09:30:43.599Z</time></trkpt><trkpt lat="43.0837305" lon="11.9367583"><ele>300.0</ele><time>2026-04-10T09:30:44.598Z</time></trkpt><trkpt lat="43.0837573" lon="11.9365926"><ele>298.5</ele><time>2026-04-10T09:30:45.591Z</time></trkpt><trkpt lat="43.0837902" lon="11.9364159"><ele>297.0</ele><time>2026-04-10T09:30:46.598Z</time></trkpt><trkpt lat="43.0838221" lon="11.9362402"><ele>295.5</ele><time>2026-04-10T09:30:47.598Z</time></trkpt><trkpt lat="43.0838481" lon="11.9360688"><ele>294.0</ele><time>2026-04-10T09:30:48.589Z</time></trkpt><trkpt lat="43.0838762" lon="11.9359182"><ele>293.59999999999997</ele><time>2026-04-10T09:30:49.597Z</time></trkpt><trkpt lat="43.0838983" lon="11.9357731"><ele>293.2</ele><time>2026-04-10T09:30:50.592Z</time></trkpt><trkpt lat="43.0839214" lon="11.9356265"><ele>292.79999999999995</ele><time>2026-04-10T09:30:51.595Z</time></trkpt><trkpt lat="43.0839427" lon="11.9355008"><ele>292.4</ele><time>2026-04-10T09:30:52.61Z</time></trkpt><trkpt lat="43.0839484" lon="11.9354061"><ele>292.0</ele><time>2026-04-10T09:30:53.613Z</time></trkpt><trkpt lat="43.0839487" lon="11.935272"><ele>292.0</ele><time>2026-04-10T09:30:55.595Z</time></trkpt><trkpt lat="43.0839681" lon="11.9351804"><ele>292.0</ele><time>2026-04-10T09:30:58.596Z</time></trkpt><trkpt lat="43.083944" lon="11.9350804"><ele>292.0</ele><time>2026-04-10T09:31:14.59Z</time></trkpt><trkpt lat="43.0838801" lon="11.9349798"><ele>292.0</ele><time>2026-04-10T09:31:16.592Z</time></trkpt><trkpt lat="43.083741" lon="11.934793"><ele>292.0</ele><time>2026-04-10T09:31:20.599Z</time></trkpt><trkpt lat="43.0836983" lon="11.9347277"><ele>292.42857142857144</ele><time>2026-04-10T09:31:21.588Z</time></trkpt><trkpt lat="43.0836553" lon="11.9346569"><ele>292.8571428571429</ele><time>2026-04-10T09:31:22.595Z</time></trkpt><trkpt lat="43.0836205" lon="11.9345824"><ele>293.28571428571433</ele><time>2026-04-10T09:31:23.591Z</time></trkpt><trkpt lat="43.083585" lon="11.934504"><ele>293.7142857142857</ele><time>2026-04-10T09:31:24.597Z</time></trkpt><trkpt lat="43.0835507" lon="11.9344241"><ele>294.14285714285717</ele><time>2026-04-10T09:31:25.593Z</time></trkpt><trkpt lat="43.0835072" lon="11.9343271"><ele>294.5714285714286</ele><time>2026-04-10T09:31:26.6Z</time></trkpt><trkpt lat="43.0834516" lon="11.9342233"><ele>295.0</ele><time>2026-04-10T09:31:27.6Z</time></trkpt><trkpt lat="43.0833884" lon="11.9341227"><ele>295.0</ele><time>2026-04-10T09:31:28.592Z</time></trkpt><trkpt lat="43.0833275" lon="11.9340334"><ele>295.0</ele><time>2026-04-10T09:31:29.595Z</time></trkpt><trkpt lat="43.0832759" lon="11.9339545"><ele>295.0</ele><time>2026-04-10T09:31:30.592Z</time></trkpt><trkpt lat="43.0832271" lon="11.9338843"><ele>295.0</ele><time>2026-04-10T09:31:31.593Z</time></trkpt><trkpt lat="43.0831474" lon="11.9337711"><ele>295.0</ele><time>2026-04-10T09:31:33.59Z</time></trkpt><trkpt lat="43.0830703" lon="11.9336503"><ele>292.6</ele><time>2026-04-10T09:31:35.591Z</time></trkpt><trkpt lat="43.0830188" lon="11.9335206"><ele>290.2</ele><time>2026-04-10T09:31:37.592Z</time></trkpt><trkpt lat="43.0829119" lon="11.9334448"><ele>287.8</ele><time>2026-04-10T09:31:39.595Z</time></trkpt><trkpt lat="43.0828375" lon="11.9334394"><ele>285.4</ele><time>2026-04-10T09:31:40.592Z</time></trkpt><trkpt lat="43.0827691" lon="11.9334222"><ele>283.0</ele><time>2026-04-10T09:31:41.588Z</time></trkpt><trkpt lat="43.0826932" lon="11.9333962"><ele>282.8571428571429</ele><time>2026-04-10T09:31:42.604Z</time></trkpt><trkpt lat="43.0826235" lon="11.9333636"><ele>282.7142857142857</ele><time>2026-04-10T09:31:43.588Z</time></trkpt><trkpt lat="43.0825575" lon="11.9333142"><ele>282.57142857142856</ele><time>2026-04-10T09:31:44.594Z</time></trkpt><trkpt lat="43.0824969" lon="11.9332571"><ele>282.42857142857144</ele><time>2026-04-10T09:31:45.592Z</time></trkpt><trkpt lat="43.0824468" lon="11.9331844"><ele>282.2857142857143</ele><time>2026-04-10T09:31:46.597Z</time></trkpt><trkpt lat="43.0824072" lon="11.9331059"><ele>282.14285714285717</ele><time>2026-04-10T09:31:47.592Z</time></trkpt><trkpt lat="43.0823763" lon="11.9330132"><ele>282.0</ele><time>2026-04-10T09:31:48.592Z</time></trkpt><trkpt lat="43.0823604" lon="11.9328947"><ele>279.6</ele><time>2026-04-10T09:31:49.591Z</time></trkpt><trkpt lat="43.0823581" lon="11.9327687"><ele>277.2</ele><time>2026-04-10T09:31:50.594Z</time></trkpt><trkpt lat="43.0823694" lon="11.9326197"><ele>274.8</ele><time>2026-04-10T09:31:51.626Z</time></trkpt><trkpt lat="43.0823886" lon="11.932449"><ele>272.4</ele><time>2026-04-10T09:31:52.599Z</time></trkpt><trkpt lat="43.0824101" lon="11.932288"><ele>270.0</ele><time>2026-04-10T09:31:53.593Z</time></trkpt><trkpt lat="43.082427" lon="11.9321378"><ele>270.8</ele><time>2026-04-10T09:31:54.592Z</time></trkpt><trkpt lat="43.0824411" lon="11.9319981"><ele>271.6</ele><time>2026-04-10T09:31:55.596Z</time></trkpt><trkpt lat="43.0824524" lon="11.9318876"><ele>272.4</ele><time>2026-04-10T09:31:56.6Z</time></trkpt><trkpt lat="43.0824602" lon="11.9317952"><ele>273.2</ele><time>2026-04-10T09:31:57.589Z</time></trkpt><trkpt lat="43.0824704" lon="11.931651"><ele>274.0</ele><time>2026-04-10T09:31:59.591Z</time></trkpt><trkpt lat="43.0824801" lon="11.931517"><ele>274.0</ele><time>2026-04-10T09:32:01.593Z</time></trkpt><trkpt lat="43.0824797" lon="11.9313585"><ele>274.0</ele><time>2026-04-10T09:32:03.594Z</time></trkpt><trkpt lat="43.0824715" lon="11.9312102"><ele>274.0</ele><time>2026-04-10T09:32:05.593Z</time></trkpt><trkpt lat="43.0824474" lon="11.9310745"><ele>274.0</ele><time>2026-04-10T09:32:07.591Z</time></trkpt><trkpt lat="43.0823977" lon="11.9309477"><ele>274.0</ele><time>2026-04-10T09:32:09.594Z</time></trkpt><trkpt lat="43.0823378" lon="11.9308174"><ele>274.2</ele><time>2026-04-10T09:32:11.595Z</time></trkpt><trkpt lat="43.0822834" lon="11.9306852"><ele>274.4</ele><time>2026-04-10T09:32:13.599Z</time></trkpt><trkpt lat="43.0822192" lon="11.9305693"><ele>274.6</ele><time>2026-04-10T09:32:15.593Z</time></trkpt><trkpt lat="43.0821505" lon="11.9304595"><ele>274.8</ele><time>2026-04-10T09:32:17.598Z</time></trkpt><trkpt lat="43.0820693" lon="11.9303872"><ele>275.0</ele><time>2026-04-10T09:32:19.589Z</time></trkpt><trkpt lat="43.0819783" lon="11.9303661"><ele>275.0</ele><time>2026-04-10T09:32:21.596Z</time></trkpt><trkpt lat="43.0818523" lon="11.9303969"><ele>275.0</ele><time>2026-04-10T09:32:23.597Z</time></trkpt><trkpt lat="43.0817767" lon="11.9304069"><ele>275.0</ele><time>2026-04-10T09:32:24.595Z</time></trkpt><trkpt lat="43.0816935" lon="11.93042"><ele>275.0</ele><time>2026-04-10T09:32:25.592Z</time></trkpt><trkpt lat="43.0816173" lon="11.9304199"><ele>275.0</ele><time>2026-04-10T09:32:26.596Z</time></trkpt><trkpt lat="43.081549" lon="11.9304117"><ele>275.0</ele><time>2026-04-10T09:32:27.595Z</time></trkpt><trkpt lat="43.0814257" lon="11.930351"><ele>275.5</ele><time>2026-04-10T09:32:29.593Z</time></trkpt><trkpt lat="43.0813609" lon="11.9303085"><ele>276.0</ele><time>2026-04-10T09:32:30.596Z</time></trkpt><trkpt lat="43.0812997" lon="11.930248"><ele>276.5</ele><time>2026-04-10T09:32:31.598Z</time></trkpt><trkpt lat="43.0812376" lon="11.9301782"><ele>277.0</ele><time>2026-04-10T09:32:32.609Z</time></trkpt><trkpt lat="43.0811812" lon="11.9301122"><ele>277.5</ele><time>2026-04-10T09:32:33.596Z</time></trkpt><trkpt lat="43.0811174" lon="11.9300347"><ele>278.0</ele><time>2026-04-10T09:32:34.598Z</time></trkpt><trkpt lat="43.081047" lon="11.9299562"><ele>278.0</ele><time>2026-04-10T09:32:35.601Z</time></trkpt><trkpt lat="43.0809739" lon="11.9298797"><ele>278.0</ele><time>2026-04-10T09:32:36.596Z</time></trkpt><trkpt lat="43.0809026" lon="11.9298059"><ele>278.0</ele><time>2026-04-10T09:32:37.628Z</time></trkpt><trkpt lat="43.0808329" lon="11.9297307"><ele>278.0</ele><time>2026-04-10T09:32:38.6Z</time></trkpt><trkpt lat="43.080763" lon="11.929643"><ele>278.0</ele><time>2026-04-10T09:32:39.597Z</time></trkpt><trkpt lat="43.0806962" lon="11.929569"><ele>275.83333333333337</ele><time>2026-04-10T09:32:40.603Z</time></trkpt><trkpt lat="43.0806388" lon="11.9295003"><ele>273.6666666666667</ele><time>2026-04-10T09:32:41.612Z</time></trkpt><trkpt lat="43.080582" lon="11.9294424"><ele>271.5</ele><time>2026-04-10T09:32:42.61Z</time></trkpt><trkpt lat="43.0805266" lon="11.9293934"><ele>269.3333333333333</ele><time>2026-04-10T09:32:43.606Z</time></trkpt><trkpt lat="43.0804366" lon="11.929328"><ele>267.16666666666663</ele><time>2026-04-10T09:32:45.598Z</time></trkpt><trkpt lat="43.0803694" lon="11.9293207"><ele>265.0</ele><time>2026-04-10T09:32:47.6Z</time></trkpt><trkpt lat="43.0802631" lon="11.9293471"><ele>265.0</ele><time>2026-04-10T09:32:49.609Z</time></trkpt><trkpt lat="43.0802004" lon="11.9293663"><ele>265.0</ele><time>2026-04-10T09:32:50.604Z</time></trkpt><trkpt lat="43.080136" lon="11.9293743"><ele>265.0</ele><time>2026-04-10T09:32:51.599Z</time></trkpt><trkpt lat="43.0800177" lon="11.9293885"><ele>265.0</ele><time>2026-04-10T09:32:53.617Z</time></trkpt><trkpt lat="43.079898" lon="11.9294006"><ele>265.0</ele><time>2026-04-10T09:32:55.594Z</time></trkpt><trkpt lat="43.0797759" lon="11.9293952"><ele>264.0</ele><time>2026-04-10T09:32:57.586Z</time></trkpt><trkpt lat="43.0796854" lon="11.9293555"><ele>263.0</ele><time>2026-04-10T09:32:59.59Z</time></trkpt><trkpt lat="43.0795722" lon="11.9292828"><ele>262.0</ele><time>2026-04-10T09:33:01.59Z</time></trkpt><trkpt lat="43.0794781" lon="11.9291953"><ele>261.0</ele><time>2026-04-10T09:33:03.595Z</time></trkpt><trkpt lat="43.0793812" lon="11.9290965"><ele>261.0</ele><time>2026-04-10T09:33:05.6Z</time></trkpt><trkpt lat="43.0793268" lon="11.9290413"><ele>261.0</ele><time>2026-04-10T09:33:06.597Z</time></trkpt><trkpt lat="43.0792243" lon="11.9289296"><ele>261.0</ele><time>2026-04-10T09:33:08.593Z</time></trkpt><trkpt lat="43.0791681" lon="11.9288726"><ele>261.0</ele><time>2026-04-10T09:33:09.594Z</time></trkpt><trkpt lat="43.0791137" lon="11.9288073"><ele>261.0</ele><time>2026-04-10T09:33:10.616Z</time></trkpt><trkpt lat="43.0790418" lon="11.9286938"><ele>259.6666666666667</ele><time>2026-04-10T09:33:12.611Z</time></trkpt><trkpt lat="43.0789838" lon="11.9285438"><ele>258.3333333333333</ele><time>2026-04-10T09:33:14.595Z</time></trkpt><trkpt lat="43.0789654" lon="11.9284608"><ele>257.0</ele><time>2026-04-10T09:33:15.595Z</time></trkpt><trkpt lat="43.0789443" lon="11.9283755"><ele>255.66666666666666</ele><time>2026-04-10T09:33:16.59Z</time></trkpt><trkpt lat="43.0789198" lon="11.9282861"><ele>254.33333333333331</ele><time>2026-04-10T09:33:17.592Z</time></trkpt><trkpt lat="43.0788977" lon="11.9281902"><ele>253.0</ele><time>2026-04-10T09:33:18.596Z</time></trkpt><trkpt lat="43.0788654" lon="11.9280832"><ele>253.0</ele><time>2026-04-10T09:33:19.59Z</time></trkpt><trkpt lat="43.0788405" lon="11.9279743"><ele>253.0</ele><time>2026-04-10T09:33:20.591Z</time></trkpt><trkpt lat="43.0788077" lon="11.9278641"><ele>253.0</ele><time>2026-04-10T09:33:21.6Z</time></trkpt><trkpt lat="43.0787768" lon="11.9277446"><ele>253.0</ele><time>2026-04-10T09:33:22.593Z</time></trkpt><trkpt lat="43.0787472" lon="11.9276233"><ele>253.0</ele><time>2026-04-10T09:33:23.588Z</time></trkpt><trkpt lat="43.0787184" lon="11.9274924"><ele>252.60000000000002</ele><time>2026-04-10T09:33:24.608Z</time></trkpt><trkpt lat="43.0786842" lon="11.9273773"><ele>252.20000000000002</ele><time>2026-04-10T09:33:25.592Z</time></trkpt><trkpt lat="43.0786533" lon="11.9272564"><ele>251.8</ele><time>2026-04-10T09:33:26.592Z</time></trkpt><trkpt lat="43.0786262" lon="11.9271513"><ele>251.4</ele><time>2026-04-10T09:33:27.602Z</time></trkpt><trkpt lat="43.0785954" lon="11.9270364"><ele>251.0</ele><time>2026-04-10T09:33:28.601Z</time></trkpt><trkpt lat="43.0785627" lon="11.9268904"><ele>251.0</ele><time>2026-04-10T09:33:30.597Z</time></trkpt><trkpt lat="43.078512" lon="11.9268292"><ele>251.00000000000003</ele><time>2026-04-10T09:33:32.605Z</time></trkpt><trkpt lat="43.0784015" lon="11.9268245"><ele>251.00000000000003</ele><time>2026-04-10T09:33:34.614Z</time></trkpt><trkpt lat="43.0782709" lon="11.9268499"><ele>251.0</ele><time>2026-04-10T09:33:35.593Z</time></trkpt><trkpt lat="43.0781509" lon="11.9268688"><ele>251.0</ele><time>2026-04-10T09:33:36.595Z</time></trkpt><trkpt lat="43.0780331" lon="11.9268768"><ele>250.5</ele><time>2026-04-10T09:33:37.596Z</time></trkpt><trkpt lat="43.0779178" lon="11.9268826"><ele>250.0</ele><time>2026-04-10T09:33:38.592Z</time></trkpt><trkpt lat="43.0778042" lon="11.9268921"><ele>249.5</ele><time>2026-04-10T09:33:39.593Z</time></trkpt><trkpt lat="43.0776737" lon="11.9269022"><ele>249.0</ele><time>2026-04-10T09:33:40.592Z</time></trkpt><trkpt lat="43.0775494" lon="11.9269194"><ele>249.33333333333331</ele><time>2026-04-10T09:33:41.6Z</time></trkpt><trkpt lat="43.077395" lon="11.9269406"><ele>249.66666666666666</ele><time>2026-04-10T09:33:42.598Z</time></trkpt><trkpt lat="43.0772349" lon="11.9269618"><ele>250.0</ele><time>2026-04-10T09:33:43.593Z</time></trkpt><trkpt lat="43.077094" lon="11.9269876"><ele>250.0</ele><time>2026-04-10T09:33:44.598Z</time></trkpt><trkpt lat="43.0769584" lon="11.9270101"><ele>250.0</ele><time>2026-04-10T09:33:45.59Z</time></trkpt><trkpt lat="43.0768211" lon="11.927026"><ele>250.0</ele><time>2026-04-10T09:33:46.609Z</time></trkpt><trkpt lat="43.0765625" lon="11.9270471"><ele>249.8</ele><time>2026-04-10T09:33:48.591Z</time></trkpt><trkpt lat="43.0764624" lon="11.9270538"><ele>249.6</ele><time>2026-04-10T09:33:49.593Z</time></trkpt><trkpt lat="43.0763814" lon="11.9270535"><ele>249.39999999999998</ele><time>2026-04-10T09:33:50.592Z</time></trkpt><trkpt lat="43.0763057" lon="11.9270636"><ele>249.2</ele><time>2026-04-10T09:33:51.597Z</time></trkpt><trkpt lat="43.0761754" lon="11.9270954"><ele>249.0</ele><time>2026-04-10T09:33:54.595Z</time></trkpt><trkpt lat="43.0761185" lon="11.926996"><ele>249.0</ele><time>2026-04-10T09:33:57.594Z</time></trkpt><trkpt lat="43.0760956" lon="11.9268839"><ele>248.99999999999997</ele><time>2026-04-10T09:33:59.592Z</time></trkpt><trkpt lat="43.0760662" lon="11.9267401"><ele>248.99999999999997</ele><time>2026-04-10T09:34:01.592Z</time></trkpt><trkpt lat="43.0760358" lon="11.9265867"><ele>249.0</ele><time>2026-04-10T09:34:03.591Z</time></trkpt><trkpt lat="43.0760207" lon="11.9265003"><ele>249.0</ele><time>2026-04-10T09:34:04.594Z</time></trkpt><trkpt lat="43.0759914" lon="11.9263666"><ele>249.16666666666666</ele><time>2026-04-10T09:34:06.599Z</time></trkpt><trkpt lat="43.0759569" lon="11.9261982"><ele>249.33333333333331</ele><time>2026-04-10T09:34:08.585Z</time></trkpt><trkpt lat="43.0759354" lon="11.9261134"><ele>249.5</ele><time>2026-04-10T09:34:09.59Z</time></trkpt><trkpt lat="43.0758997" lon="11.925971"><ele>249.66666666666666</ele><time>2026-04-10T09:34:12.593Z</time></trkpt><trkpt lat="43.0758738" lon="11.9258816"><ele>249.83333333333331</ele><time>2026-04-10T09:34:14.592Z</time></trkpt><trkpt lat="43.0758529" lon="11.9257935"><ele>250.0</ele><time>2026-04-10T09:34:16.592Z</time></trkpt><trkpt lat="43.0758093" lon="11.9256693"><ele>249.83333333333331</ele><time>2026-04-10T09:34:18.591Z</time></trkpt><trkpt lat="43.0757936" lon="11.9255304"><ele>249.66666666666666</ele><time>2026-04-10T09:34:20.593Z</time></trkpt><trkpt lat="43.0757684" lon="11.9253764"><ele>249.5</ele><time>2026-04-10T09:34:22.608Z</time></trkpt><trkpt lat="43.0757527" lon="11.9252817"><ele>249.33333333333331</ele><time>2026-04-10T09:34:23.597Z</time></trkpt><trkpt lat="43.0757488" lon="11.9251799"><ele>249.16666666666666</ele><time>2026-04-10T09:34:24.591Z</time></trkpt><trkpt lat="43.0757385" lon="11.9250854"><ele>249.0</ele><time>2026-04-10T09:34:25.593Z</time></trkpt><trkpt lat="43.0757283" lon="11.9249996"><ele>249.33333333333334</ele><time>2026-04-10T09:34:26.586Z</time></trkpt><trkpt lat="43.075688" lon="11.9248528"><ele>249.66666666666669</ele><time>2026-04-10T09:34:28.592Z</time></trkpt><trkpt lat="43.0756533" lon="11.9247593"><ele>250.0</ele><time>2026-04-10T09:34:29.598Z</time></trkpt><trkpt lat="43.0756132" lon="11.9246491"><ele>250.33333333333334</ele><time>2026-04-10T09:34:30.595Z</time></trkpt><trkpt lat="43.0755704" lon="11.9245458"><ele>250.66666666666669</ele><time>2026-04-10T09:34:31.591Z</time></trkpt><trkpt lat="43.0755273" lon="11.9244526"><ele>251.0</ele><time>2026-04-10T09:34:32.61Z</time></trkpt><trkpt lat="43.0754877" lon="11.9243612"><ele>251.00000000000003</ele><time>2026-04-10T09:34:33.598Z</time></trkpt><trkpt lat="43.0754536" lon="11.924269"><ele>251.0</ele><time>2026-04-10T09:34:34.594Z</time></trkpt><trkpt lat="43.0754213" lon="11.9241892"><ele>251.0</ele><time>2026-04-10T09:34:35.603Z</time></trkpt><trkpt lat="43.0753674" lon="11.924054"><ele>251.0</ele><time>2026-04-10T09:34:37.594Z</time></trkpt><trkpt lat="43.0753296" lon="11.9239601"><ele>251.00000000000003</ele><time>2026-04-10T09:34:39.597Z</time></trkpt><trkpt lat="43.0752948" lon="11.9238658"><ele>251.0</ele><time>2026-04-10T09:34:41.607Z</time></trkpt><trkpt lat="43.0752669" lon="11.923775"><ele>251.00000000000003</ele><time>2026-04-10T09:34:43.59Z</time></trkpt><trkpt lat="43.0752244" lon="11.9236922"><ele>251.0</ele><time>2026-04-10T09:34:45.593Z</time></trkpt><trkpt lat="43.07516" lon="11.9236691"><ele>251.0</ele><time>2026-04-10T09:34:47.594Z</time></trkpt><trkpt lat="43.0750835" lon="11.9236749"><ele>251.0</ele><time>2026-04-10T09:34:49.585Z</time></trkpt><trkpt lat="43.0749804" lon="11.9236934"><ele>251.00000000000003</ele><time>2026-04-10T09:34:51.588Z</time></trkpt><trkpt lat="43.0749038" lon="11.9237159"><ele>251.0</ele><time>2026-04-10T09:34:54.6Z</time></trkpt><trkpt lat="43.0748254" lon="11.9237392"><ele>250.8</ele><time>2026-04-10T09:34:56.605Z</time></trkpt><trkpt lat="43.0747144" lon="11.9237733"><ele>250.60000000000002</ele><time>2026-04-10T09:34:58.6Z</time></trkpt><trkpt lat="43.0746073" lon="11.923809"><ele>250.4</ele><time>2026-04-10T09:35:00.601Z</time></trkpt><trkpt lat="43.0745115" lon="11.9238489"><ele>250.2</ele><time>2026-04-10T09:35:03.595Z</time></trkpt><trkpt lat="43.0743953" lon="11.9238826"><ele>250.0</ele><time>2026-04-10T09:35:06.604Z</time></trkpt><trkpt lat="43.074276" lon="11.9239416"><ele>250.0</ele><time>2026-04-10T09:35:07.593Z</time></trkpt><trkpt lat="43.0741897" lon="11.923987"><ele>250.0</ele><time>2026-04-10T09:35:09.59Z</time></trkpt><trkpt lat="43.0741155" lon="11.9240298"><ele>250.0</ele><time>2026-04-10T09:35:11.596Z</time></trkpt><trkpt lat="43.0740022" lon="11.9240906"><ele>250.0</ele><time>2026-04-10T09:35:13.598Z</time></trkpt><trkpt lat="43.0739087" lon="11.9241451"><ele>250.0</ele><time>2026-04-10T09:35:15.597Z</time></trkpt><trkpt lat="43.0738411" lon="11.9241849"><ele>249.66666666666666</ele><time>2026-04-10T09:35:17.608Z</time></trkpt><trkpt lat="43.0737551" lon="11.9242395"><ele>249.33333333333331</ele><time>2026-04-10T09:35:19.588Z</time></trkpt><trkpt lat="43.073644" lon="11.9243374"><ele>249.0</ele><time>2026-04-10T09:35:21.6Z</time></trkpt><trkpt lat="43.0735906" lon="11.924389"><ele>248.66666666666669</ele><time>2026-04-10T09:35:22.594Z</time></trkpt><trkpt lat="43.0735332" lon="11.9244432"><ele>248.33333333333334</ele><time>2026-04-10T09:35:23.591Z</time></trkpt><trkpt lat="43.0734784" lon="11.9244939"><ele>248.0</ele><time>2026-04-10T09:35:24.594Z</time></trkpt><trkpt lat="43.0733888" lon="11.9245763"><ele>248.0</ele><time>2026-04-10T09:35:26.592Z</time></trkpt><trkpt lat="43.0733167" lon="11.9245878"><ele>248.0</ele><time>2026-04-10T09:35:29.604Z</time></trkpt><trkpt lat="43.073275" lon="11.9245207"><ele>248.0</ele><time>2026-04-10T09:36:05.592Z</time></trkpt><trkpt lat="43.0732015" lon="11.9243905"><ele>248.0</ele><time>2026-04-10T09:36:07.59Z</time></trkpt><trkpt lat="43.0731207" lon="11.9242309"><ele>248.0</ele><time>2026-04-10T09:36:09.591Z</time></trkpt><trkpt lat="43.0730635" lon="11.9241397"><ele>248.0</ele><time>2026-04-10T09:36:10.594Z</time></trkpt><trkpt lat="43.0729529" lon="11.9239604"><ele>248.0</ele><time>2026-04-10T09:36:12.585Z</time></trkpt><trkpt lat="43.0729009" lon="11.9238686"><ele>248.0</ele><time>2026-04-10T09:36:13.598Z</time></trkpt><trkpt lat="43.0728461" lon="11.9237704"><ele>248.0</ele><time>2026-04-10T09:36:14.593Z</time></trkpt><trkpt lat="43.0727889" lon="11.923664"><ele>248.0</ele><time>2026-04-10T09:36:15.591Z</time></trkpt><trkpt lat="43.072729" lon="11.923562"><ele>248.00000000000003</ele><time>2026-04-10T09:36:16.598Z</time></trkpt><trkpt lat="43.0726742" lon="11.9234672"><ele>248.0</ele><time>2026-04-10T09:36:17.598Z</time></trkpt><trkpt lat="43.0726183" lon="11.9233795"><ele>248.0</ele><time>2026-04-10T09:36:18.599Z</time></trkpt><trkpt lat="43.0725604" lon="11.9232884"><ele>248.0</ele><time>2026-04-10T09:36:19.591Z</time></trkpt><trkpt lat="43.0725097" lon="11.9231995"><ele>248.00000000000003</ele><time>2026-04-10T09:36:20.588Z</time></trkpt><trkpt lat="43.0724531" lon="11.9231069"><ele>248.0</ele><time>2026-04-10T09:36:21.59Z</time></trkpt><trkpt lat="43.0723928" lon="11.9230011"><ele>248.16666666666669</ele><time>2026-04-10T09:36:22.584Z</time></trkpt><trkpt lat="43.0723316" lon="11.9228932"><ele>248.33333333333334</ele><time>2026-04-10T09:36:23.598Z</time></trkpt><trkpt lat="43.0722701" lon="11.922792"><ele>248.5</ele><time>2026-04-10T09:36:24.593Z</time></trkpt><trkpt lat="43.0722219" lon="11.9227084"><ele>248.66666666666669</ele><time>2026-04-10T09:36:25.593Z</time></trkpt><trkpt lat="43.0721725" lon="11.9226199"><ele>248.83333333333334</ele><time>2026-04-10T09:36:26.607Z</time></trkpt><trkpt lat="43.0721228" lon="11.9225299"><ele>249.0</ele><time>2026-04-10T09:36:27.591Z</time></trkpt><trkpt lat="43.0720649" lon="11.922439"><ele>249.2</ele><time>2026-04-10T09:36:28.593Z</time></trkpt><trkpt lat="43.0720044" lon="11.9223412"><ele>249.39999999999998</ele><time>2026-04-10T09:36:29.59Z</time></trkpt><trkpt lat="43.0719417" lon="11.9222348"><ele>249.6</ele><time>2026-04-10T09:36:30.585Z</time></trkpt><trkpt lat="43.0718745" lon="11.9221212"><ele>249.8</ele><time>2026-04-10T09:36:31.589Z</time></trkpt><trkpt lat="43.0718083" lon="11.9219949"><ele>250.0</ele><time>2026-04-10T09:36:32.592Z</time></trkpt><trkpt lat="43.0717337" lon="11.9218704"><ele>250.0</ele><time>2026-04-10T09:36:33.584Z</time></trkpt><trkpt lat="43.0716603" lon="11.9217481"><ele>250.0</ele><time>2026-04-10T09:36:34.602Z</time></trkpt><trkpt lat="43.0715897" lon="11.9216299"><ele>250.0</ele><time>2026-04-10T09:36:35.595Z</time></trkpt><trkpt lat="43.0715162" lon="11.9215071"><ele>250.0</ele><time>2026-04-10T09:36:36.59Z</time></trkpt><trkpt lat="43.0714427" lon="11.9213939"><ele>250.0</ele><time>2026-04-10T09:36:37.602Z</time></trkpt><trkpt lat="43.0713718" lon="11.9212839"><ele>250.0</ele><time>2026-04-10T09:36:38.594Z</time></trkpt><trkpt lat="43.0712991" lon="11.9211675"><ele>250.0</ele><time>2026-04-10T09:36:39.589Z</time></trkpt><trkpt lat="43.0712313" lon="11.9210438"><ele>250.0</ele><time>2026-04-10T09:36:40.588Z</time></trkpt><trkpt lat="43.0711627" lon="11.9209327"><ele>250.0</ele><time>2026-04-10T09:36:41.596Z</time></trkpt><trkpt lat="43.0710997" lon="11.9208305"><ele>249.99999999999997</ele><time>2026-04-10T09:36:42.601Z</time></trkpt><trkpt lat="43.0710379" lon="11.9207363"><ele>250.0</ele><time>2026-04-10T09:36:43.61Z</time></trkpt><trkpt lat="43.0709834" lon="11.9206556"><ele>250.0</ele><time>2026-04-10T09:36:44.598Z</time></trkpt><trkpt lat="43.0709363" lon="11.9205858"><ele>250.0</ele><time>2026-04-10T09:36:45.592Z</time></trkpt><trkpt lat="43.070887" lon="11.9204653"><ele>249.99999999999997</ele><time>2026-04-10T09:36:47.595Z</time></trkpt><trkpt lat="43.0708022" lon="11.9204216"><ele>250.0</ele><time>2026-04-10T09:36:50.591Z</time></trkpt><trkpt lat="43.0707387" lon="11.9204373"><ele>250.0</ele><time>2026-04-10T09:36:53.592Z</time></trkpt><trkpt lat="43.0707063" lon="11.9203626"><ele>250.0</ele><time>2026-04-10T09:39:20.603Z</time></trkpt><trkpt lat="43.070687" lon="11.9202673"><ele>250.0</ele><time>2026-04-10T09:39:28.606Z</time></trkpt><trkpt lat="43.0706642" lon="11.9201766"><ele>250.0</ele><time>2026-04-10T09:39:34.592Z</time></trkpt><trkpt lat="43.0706335" lon="11.9200866"><ele>250.0</ele><time>2026-04-10T09:39:38.598Z</time></trkpt><trkpt lat="43.0705159" lon="11.9198531"><ele>250.0</ele><time>2026-04-10T09:39:41.594Z</time></trkpt><trkpt lat="43.0704258" lon="11.9197138"><ele>250.0</ele><time>2026-04-10T09:39:43.592Z</time></trkpt><trkpt lat="43.0703848" lon="11.9196451"><ele>250.0</ele><time>2026-04-10T09:39:44.597Z</time></trkpt><trkpt lat="43.0701641" lon="11.9192696"><ele>250.0</ele><time>2026-04-10T09:39:48.593Z</time></trkpt><trkpt lat="43.0700969" lon="11.9191678"><ele>250.0</ele><time>2026-04-10T09:39:49.585Z</time></trkpt><trkpt lat="43.0700357" lon="11.9190664"><ele>250.0</ele><time>2026-04-10T09:39:50.591Z</time></trkpt><trkpt lat="43.0699706" lon="11.9189671"><ele>250.0</ele><time>2026-04-10T09:39:51.601Z</time></trkpt><trkpt lat="43.0699009" lon="11.9188537"><ele>250.0</ele><time>2026-04-10T09:39:52.595Z</time></trkpt><trkpt lat="43.069839" lon="11.9187471"><ele>249.8</ele><time>2026-04-10T09:39:53.588Z</time></trkpt><trkpt lat="43.0697758" lon="11.9186374"><ele>249.6</ele><time>2026-04-10T09:39:54.595Z</time></trkpt><trkpt lat="43.0697046" lon="11.9185191"><ele>249.39999999999998</ele><time>2026-04-10T09:39:55.588Z</time></trkpt><trkpt lat="43.0696353" lon="11.9184072"><ele>249.2</ele><time>2026-04-10T09:39:56.593Z</time></trkpt><trkpt lat="43.0695664" lon="11.9182945"><ele>249.0</ele><time>2026-04-10T09:39:57.591Z</time></trkpt><trkpt lat="43.0694925" lon="11.9181724"><ele>248.75</ele><time>2026-04-10T09:39:58.586Z</time></trkpt><trkpt lat="43.0694124" lon="11.918045"><ele>248.5</ele><time>2026-04-10T09:39:59.584Z</time></trkpt><trkpt lat="43.06933" lon="11.9179158"><ele>248.25</ele><time>2026-04-10T09:40:00.593Z</time></trkpt><trkpt lat="43.0692459" lon="11.9177719"><ele>248.0</ele><time>2026-04-10T09:40:01.591Z</time></trkpt><trkpt lat="43.0691667" lon="11.9176354"><ele>248.0</ele><time>2026-04-10T09:40:02.593Z</time></trkpt><trkpt lat="43.0690846" lon="11.9175026"><ele>248.0</ele><time>2026-04-10T09:40:03.588Z</time></trkpt><trkpt lat="43.0690099" lon="11.9173743"><ele>248.0</ele><time>2026-04-10T09:40:04.59Z</time></trkpt><trkpt lat="43.0689391" lon="11.9172486"><ele>248.0</ele><time>2026-04-10T09:40:05.589Z</time></trkpt><trkpt lat="43.0688595" lon="11.9171236"><ele>248.0</ele><time>2026-04-10T09:40:06.589Z</time></trkpt><trkpt lat="43.0687844" lon="11.9170025"><ele>248.0</ele><time>2026-04-10T09:40:07.592Z</time></trkpt><trkpt lat="43.0687142" lon="11.9168853"><ele>248.0</ele><time>2026-04-10T09:40:08.596Z</time></trkpt><trkpt lat="43.0686426" lon="11.9167658"><ele>248.0</ele><time>2026-04-10T09:40:09.592Z</time></trkpt><trkpt lat="43.0685701" lon="11.9166395"><ele>248.0</ele><time>2026-04-10T09:40:10.588Z</time></trkpt><trkpt lat="43.0684903" lon="11.9165086"><ele>248.0</ele><time>2026-04-10T09:40:11.591Z</time></trkpt><trkpt lat="43.0684191" lon="11.9163808"><ele>248.0</ele><time>2026-04-10T09:40:12.596Z</time></trkpt><trkpt lat="43.0683482" lon="11.9162536"><ele>248.0</ele><time>2026-04-10T09:40:13.587Z</time></trkpt><trkpt lat="43.0682685" lon="11.9161226"><ele>248.0</ele><time>2026-04-10T09:40:14.593Z</time></trkpt><trkpt lat="43.0681886" lon="11.9159908"><ele>248.0</ele><time>2026-04-10T09:40:15.592Z</time></trkpt><trkpt lat="43.0681111" lon="11.9158632"><ele>248.0</ele><time>2026-04-10T09:40:16.59Z</time></trkpt><trkpt lat="43.0680342" lon="11.9157336"><ele>248.0</ele><time>2026-04-10T09:40:17.584Z</time></trkpt><trkpt lat="43.0679544" lon="11.9155947"><ele>248.25</ele><time>2026-04-10T09:40:18.595Z</time></trkpt><trkpt lat="43.067873" lon="11.9154487"><ele>248.5</ele><time>2026-04-10T09:40:19.585Z</time></trkpt><trkpt lat="43.0677867" lon="11.9152977"><ele>248.75</ele><time>2026-04-10T09:40:20.585Z</time></trkpt><trkpt lat="43.0677033" lon="11.9151555"><ele>249.0</ele><time>2026-04-10T09:40:21.591Z</time></trkpt><trkpt lat="43.0676277" lon="11.915026"><ele>249.2</ele><time>2026-04-10T09:40:22.601Z</time></trkpt><trkpt lat="43.067557" lon="11.914908"><ele>249.39999999999998</ele><time>2026-04-10T09:40:23.596Z</time></trkpt><trkpt lat="43.0674887" lon="11.9147983"><ele>249.6</ele><time>2026-04-10T09:40:24.588Z</time></trkpt><trkpt lat="43.0674213" lon="11.9147017"><ele>249.8</ele><time>2026-04-10T09:40:25.589Z</time></trkpt><trkpt lat="43.0673597" lon="11.9145987"><ele>250.0</ele><time>2026-04-10T09:40:26.592Z</time></trkpt><trkpt lat="43.0672943" lon="11.9144896"><ele>249.66666666666666</ele><time>2026-04-10T09:40:27.585Z</time></trkpt><trkpt lat="43.0672353" lon="11.9143889"><ele>249.33333333333331</ele><time>2026-04-10T09:40:28.596Z</time></trkpt><trkpt lat="43.0671808" lon="11.9142965"><ele>249.0</ele><time>2026-04-10T09:40:29.583Z</time></trkpt><trkpt lat="43.067126" lon="11.9142068"><ele>248.66666666666669</ele><time>2026-04-10T09:40:30.592Z</time></trkpt><trkpt lat="43.0670723" lon="11.9141091"><ele>248.33333333333334</ele><time>2026-04-10T09:40:31.596Z</time></trkpt><trkpt lat="43.0670202" lon="11.9140108"><ele>248.0</ele><time>2026-04-10T09:40:32.589Z</time></trkpt><trkpt lat="43.0669691" lon="11.9139198"><ele>248.00000000000003</ele><time>2026-04-10T09:40:33.59Z</time></trkpt><trkpt lat="43.0669181" lon="11.9138294"><ele>248.0</ele><time>2026-04-10T09:40:34.582Z</time></trkpt><trkpt lat="43.0668631" lon="11.9137345"><ele>248.0</ele><time>2026-04-10T09:40:35.589Z</time></trkpt><trkpt lat="43.0668085" lon="11.9136487"><ele>248.0</ele><time>2026-04-10T09:40:36.594Z</time></trkpt><trkpt lat="43.0667597" lon="11.9135707"><ele>248.00000000000003</ele><time>2026-04-10T09:40:37.59Z</time></trkpt><trkpt lat="43.0667135" lon="11.9134918"><ele>248.0</ele><time>2026-04-10T09:40:38.586Z</time></trkpt><trkpt lat="43.0666675" lon="11.9134104"><ele>248.0</ele><time>2026-04-10T09:40:39.583Z</time></trkpt><trkpt lat="43.066623" lon="11.9133315"><ele>248.00000000000003</ele><time>2026-04-10T09:40:40.592Z</time></trkpt><trkpt lat="43.0665776" lon="11.9132518"><ele>248.0</ele><time>2026-04-10T09:40:41.594Z</time></trkpt><trkpt lat="43.0665301" lon="11.9131717"><ele>248.0</ele><time>2026-04-10T09:40:42.595Z</time></trkpt><trkpt lat="43.0664851" lon="11.9130912"><ele>248.00000000000003</ele><time>2026-04-10T09:40:43.591Z</time></trkpt><trkpt lat="43.0664416" lon="11.9130136"><ele>248.0</ele><time>2026-04-10T09:40:44.587Z</time></trkpt><trkpt lat="43.0664037" lon="11.9129407"><ele>248.0</ele><time>2026-04-10T09:40:45.59Z</time></trkpt><trkpt lat="43.0663292" lon="11.9128121"><ele>248.33333333333334</ele><time>2026-04-10T09:40:47.588Z</time></trkpt><trkpt lat="43.0662611" lon="11.9127061"><ele>248.66666666666669</ele><time>2026-04-10T09:40:49.589Z</time></trkpt><trkpt lat="43.0662145" lon="11.9126353"><ele>249.0</ele><time>2026-04-10T09:40:51.592Z</time></trkpt><trkpt lat="43.0661554" lon="11.9125942"><ele>249.33333333333331</ele><time>2026-04-10T09:41:00.588Z</time></trkpt><trkpt lat="43.0660648" lon="11.9127127"><ele>249.66666666666666</ele><time>2026-04-10T09:41:03.592Z</time></trkpt><trkpt lat="43.066017" lon="11.9127825"><ele>250.0</ele><time>2026-04-10T09:41:04.586Z</time></trkpt><trkpt lat="43.0659667" lon="11.9128536"><ele>250.0</ele><time>2026-04-10T09:41:05.588Z</time></trkpt><trkpt lat="43.0659059" lon="11.9129322"><ele>250.0</ele><time>2026-04-10T09:41:06.594Z</time></trkpt><trkpt lat="43.0658335" lon="11.9130245"><ele>250.0</ele><time>2026-04-10T09:41:07.588Z</time></trkpt><trkpt lat="43.0657592" lon="11.9131218"><ele>250.0</ele><time>2026-04-10T09:41:08.606Z</time></trkpt><trkpt lat="43.0656804" lon="11.9132274"><ele>250.0</ele><time>2026-04-10T09:41:09.607Z</time></trkpt><trkpt lat="43.065598" lon="11.913336"><ele>249.75</ele><time>2026-04-10T09:41:10.595Z</time></trkpt><trkpt lat="43.0655094" lon="11.9134549"><ele>249.5</ele><time>2026-04-10T09:41:11.595Z</time></trkpt><trkpt lat="43.0654218" lon="11.9135677"><ele>249.25</ele><time>2026-04-10T09:41:12.595Z</time></trkpt><trkpt lat="43.0653304" lon="11.9136947"><ele>249.0</ele><time>2026-04-10T09:41:13.597Z</time></trkpt><trkpt lat="43.065236" lon="11.9138193"><ele>249.0</ele><time>2026-04-10T09:41:14.589Z</time></trkpt><trkpt lat="43.065147" lon="11.9139353"><ele>249.0</ele><time>2026-04-10T09:41:15.589Z</time></trkpt><trkpt lat="43.065065" lon="11.9140481"><ele>249.0</ele><time>2026-04-10T09:41:16.598Z</time></trkpt><trkpt lat="43.0648524" lon="11.9143306"><ele>249.0</ele><time>2026-04-10T09:41:19.589Z</time></trkpt><trkpt lat="43.064787" lon="11.9144156"><ele>249.0</ele><time>2026-04-10T09:41:20.595Z</time></trkpt><trkpt lat="43.0646494" lon="11.9145999"><ele>249.0</ele><time>2026-04-10T09:41:22.595Z</time></trkpt><trkpt lat="43.064444" lon="11.914888"><ele>249.0</ele><time>2026-04-10T09:41:25.591Z</time></trkpt><trkpt lat="43.0643938" lon="11.9149439"><ele>248.99999999999997</ele><time>2026-04-10T09:41:26.592Z</time></trkpt><trkpt lat="43.0643346" lon="11.9149858"><ele>248.99999999999997</ele><time>2026-04-10T09:41:28.594Z</time></trkpt><trkpt lat="43.0642813" lon="11.9150404"><ele>249.0</ele><time>2026-04-10T09:41:30.596Z</time></trkpt><trkpt lat="43.064138" lon="11.9152777"><ele>249.0</ele><time>2026-04-10T09:41:33.59Z</time></trkpt><trkpt lat="43.0639161" lon="11.9155785"><ele>248.75</ele><time>2026-04-10T09:41:36.592Z</time></trkpt><trkpt lat="43.0638288" lon="11.9156932"><ele>248.5</ele><time>2026-04-10T09:41:37.589Z</time></trkpt><trkpt lat="43.0637309" lon="11.9158189"><ele>248.25</ele><time>2026-04-10T09:41:38.589Z</time></trkpt><trkpt lat="43.0636301" lon="11.9159533"><ele>248.0</ele><time>2026-04-10T09:41:39.589Z</time></trkpt><trkpt lat="43.0634082" lon="11.9162442"><ele>251.0</ele><time>2026-04-10T09:41:41.6Z</time></trkpt><trkpt lat="43.0630591" lon="11.9167182"><ele>250.5</ele><time>2026-04-10T09:41:44.589Z</time></trkpt><trkpt lat="43.0628099" lon="11.9170475"><ele>250.0</ele><time>2026-04-10T09:41:46.594Z</time></trkpt><trkpt lat="43.0625448" lon="11.9173859"><ele>250.0</ele><time>2026-04-10T09:41:48.586Z</time></trkpt><trkpt lat="43.0624174" lon="11.9175576"><ele>250.0</ele><time>2026-04-10T09:41:49.591Z</time></trkpt><trkpt lat="43.0621595" lon="11.9179006"><ele>249.0</ele><time>2026-04-10T09:41:51.593Z</time></trkpt><trkpt lat="43.0618205" lon="11.9183557"><ele>249.0</ele><time>2026-04-10T09:41:54.587Z</time></trkpt><trkpt lat="43.0616492" lon="11.918594"><ele>249.0</ele><time>2026-04-10T09:41:56.59Z</time></trkpt><trkpt lat="43.0615217" lon="11.918759"><ele>249.0</ele><time>2026-04-10T09:41:58.593Z</time></trkpt><trkpt lat="43.0614688" lon="11.9188331"><ele>249.0</ele><time>2026-04-10T09:41:59.595Z</time></trkpt><trkpt lat="43.0613978" lon="11.9189429"><ele>248.99999999999997</ele><time>2026-04-10T09:42:01.592Z</time></trkpt><trkpt lat="43.061339" lon="11.9190018"><ele>248.99999999999997</ele><time>2026-04-10T09:42:04.586Z</time></trkpt><trkpt lat="43.0612962" lon="11.9189255"><ele>249.0</ele><time>2026-04-10T09:55:25.583Z</time></trkpt><trkpt lat="43.0612442" lon="11.9188275"><ele>249.0</ele><time>2026-04-10T09:55:26.589Z</time></trkpt><trkpt lat="43.0611391" lon="11.9186437"><ele>249.0</ele><time>2026-04-10T09:55:28.589Z</time></trkpt><trkpt lat="43.0610737" lon="11.9185361"><ele>249.0</ele><time>2026-04-10T09:55:29.588Z</time></trkpt><trkpt lat="43.0609599" lon="11.9183425"><ele>249.0</ele><time>2026-04-10T09:55:31.591Z</time></trkpt><trkpt lat="43.0608081" lon="11.9180899"><ele>249.75</ele><time>2026-04-10T09:55:34.58Z</time></trkpt><trkpt lat="43.0607198" lon="11.9179183"><ele>250.5</ele><time>2026-04-10T09:55:36.588Z</time></trkpt><trkpt lat="43.060609" lon="11.9177454"><ele>251.25</ele><time>2026-04-10T09:55:38.592Z</time></trkpt><trkpt lat="43.0605509" lon="11.9176411"><ele>252.0</ele><time>2026-04-10T09:55:39.587Z</time></trkpt><trkpt lat="43.0604019" lon="11.917423"><ele>252.0</ele><time>2026-04-10T09:55:41.584Z</time></trkpt><trkpt lat="43.0603356" lon="11.9173012"><ele>252.0</ele><time>2026-04-10T09:55:42.589Z</time></trkpt><trkpt lat="43.0602103" lon="11.917073"><ele>252.0</ele><time>2026-04-10T09:55:44.593Z</time></trkpt><trkpt lat="43.0601107" lon="11.9168876"><ele>252.0</ele><time>2026-04-10T09:55:46.583Z</time></trkpt><trkpt lat="43.0600633" lon="11.9168021"><ele>252.0</ele><time>2026-04-10T09:55:47.579Z</time></trkpt><trkpt lat="43.0599689" lon="11.9166363"><ele>252.0</ele><time>2026-04-10T09:55:49.583Z</time></trkpt><trkpt lat="43.0599191" lon="11.9165519"><ele>252.0</ele><time>2026-04-10T09:55:50.583Z</time></trkpt><trkpt lat="43.0596398" lon="11.9160863"><ele>253.0</ele><time>2026-04-10T09:55:55.591Z</time></trkpt><trkpt lat="43.0595916" lon="11.9160098"><ele>254.0</ele><time>2026-04-10T09:55:56.584Z</time></trkpt><trkpt lat="43.0595389" lon="11.9159318"><ele>255.0</ele><time>2026-04-10T09:55:57.59Z</time></trkpt><trkpt lat="43.0594867" lon="11.9158552"><ele>256.0</ele><time>2026-04-10T09:55:58.593Z</time></trkpt><trkpt lat="43.0594357" lon="11.9157756"><ele>257.0</ele><time>2026-04-10T09:55:59.585Z</time></trkpt><trkpt lat="43.0593852" lon="11.9156913"><ele>258.0</ele><time>2026-04-10T09:56:00.591Z</time></trkpt><trkpt lat="43.0593365" lon="11.9156084"><ele>258.0</ele><time>2026-04-10T09:56:01.592Z</time></trkpt><trkpt lat="43.0592956" lon="11.9155375"><ele>258.0</ele><time>2026-04-10T09:56:02.608Z</time></trkpt><trkpt lat="43.0592367" lon="11.915437"><ele>258.0</ele><time>2026-04-10T09:56:04.59Z</time></trkpt><trkpt lat="43.05919" lon="11.9153401"><ele>258.0</ele><time>2026-04-10T09:56:07.586Z</time></trkpt><trkpt lat="43.059099" lon="11.9152272"><ele>258.0</ele><time>2026-04-10T09:56:09.587Z</time></trkpt><trkpt lat="43.0590608" lon="11.9151547"><ele>258.0</ele><time>2026-04-10T09:56:10.599Z</time></trkpt><trkpt lat="43.0590172" lon="11.9150711"><ele>258.8333333333333</ele><time>2026-04-10T09:56:11.587Z</time></trkpt><trkpt lat="43.0589721" lon="11.9149855"><ele>259.6666666666667</ele><time>2026-04-10T09:56:12.585Z</time></trkpt><trkpt lat="43.0589304" lon="11.9149056"><ele>260.5</ele><time>2026-04-10T09:56:13.584Z</time></trkpt><trkpt lat="43.0588675" lon="11.9147794"><ele>261.33333333333337</ele><time>2026-04-10T09:56:15.594Z</time></trkpt><trkpt lat="43.0588313" lon="11.9146975"><ele>262.1666666666667</ele><time>2026-04-10T09:56:17.585Z</time></trkpt><trkpt lat="43.0587425" lon="11.9146654"><ele>263.0</ele><time>2026-04-10T09:56:23.589Z</time></trkpt><trkpt lat="43.058678" lon="11.914703"><ele>263.0</ele><time>2026-04-10T09:56:24.592Z</time></trkpt><trkpt lat="43.0586122" lon="11.9147471"><ele>263.0</ele><time>2026-04-10T09:56:25.583Z</time></trkpt><trkpt lat="43.0585285" lon="11.9147934"><ele>263.0</ele><time>2026-04-10T09:56:26.585Z</time></trkpt><trkpt lat="43.0584341" lon="11.914843"><ele>263.0</ele><time>2026-04-10T09:56:27.588Z</time></trkpt><trkpt lat="43.0583429" lon="11.9148938"><ele>263.0</ele><time>2026-04-10T09:56:28.598Z</time></trkpt><trkpt lat="43.0582581" lon="11.9149423"><ele>261.6</ele><time>2026-04-10T09:56:29.581Z</time></trkpt><trkpt lat="43.0581692" lon="11.9149959"><ele>260.20000000000005</ele><time>2026-04-10T09:56:30.58Z</time></trkpt><trkpt lat="43.05808" lon="11.9150517"><ele>258.8</ele><time>2026-04-10T09:56:31.587Z</time></trkpt><trkpt lat="43.0579832" lon="11.9151055"><ele>257.40000000000003</ele><time>2026-04-10T09:56:32.584Z</time></trkpt><trkpt lat="43.0578756" lon="11.915152"><ele>256.0</ele><time>2026-04-10T09:56:33.589Z</time></trkpt><trkpt lat="43.057761" lon="11.915201"><ele>255.4</ele><time>2026-04-10T09:56:34.584Z</time></trkpt><trkpt lat="43.0576515" lon="11.9152528"><ele>254.8</ele><time>2026-04-10T09:56:35.587Z</time></trkpt><trkpt lat="43.0575505" lon="11.9153036"><ele>254.20000000000002</ele><time>2026-04-10T09:56:36.585Z</time></trkpt><trkpt lat="43.0574685" lon="11.915346"><ele>253.60000000000002</ele><time>2026-04-10T09:56:37.583Z</time></trkpt><trkpt lat="43.0573996" lon="11.9153799"><ele>253.0</ele><time>2026-04-10T09:56:38.584Z</time></trkpt><trkpt lat="43.0573231" lon="11.9154164"><ele>252.8</ele><time>2026-04-10T09:56:40.591Z</time></trkpt><trkpt lat="43.0572173" lon="11.915479"><ele>252.60000000000002</ele><time>2026-04-10T09:57:10.593Z</time></trkpt><trkpt lat="43.057143" lon="11.915532"><ele>252.39999999999998</ele><time>2026-04-10T09:57:11.589Z</time></trkpt><trkpt lat="43.0570723" lon="11.9156062"><ele>252.2</ele><time>2026-04-10T09:57:12.592Z</time></trkpt><trkpt lat="43.0569893" lon="11.9156991"><ele>252.0</ele><time>2026-04-10T09:57:13.579Z</time></trkpt><trkpt lat="43.0569053" lon="11.9158042"><ele>252.0</ele><time>2026-04-10T09:57:14.584Z</time></trkpt><trkpt lat="43.0568155" lon="11.9159233"><ele>252.0</ele><time>2026-04-10T09:57:15.586Z</time></trkpt><trkpt lat="43.0567155" lon="11.9160608"><ele>252.0</ele><time>2026-04-10T09:57:16.587Z</time></trkpt><trkpt lat="43.0566143" lon="11.9162014"><ele>252.0</ele><time>2026-04-10T09:57:17.596Z</time></trkpt><trkpt lat="43.0565061" lon="11.9163492"><ele>252.33333333333331</ele><time>2026-04-10T09:57:18.603Z</time></trkpt><trkpt lat="43.0563922" lon="11.9165058"><ele>252.66666666666666</ele><time>2026-04-10T09:57:19.587Z</time></trkpt><trkpt lat="43.0562706" lon="11.9166693"><ele>253.0</ele><time>2026-04-10T09:57:20.589Z</time></trkpt><trkpt lat="43.0561519" lon="11.9168334"><ele>253.66666666666666</ele><time>2026-04-10T09:57:21.58Z</time></trkpt><trkpt lat="43.0560318" lon="11.9169962"><ele>254.33333333333331</ele><time>2026-04-10T09:57:22.589Z</time></trkpt><trkpt lat="43.0559157" lon="11.9171674"><ele>255.0</ele><time>2026-04-10T09:57:23.585Z</time></trkpt><trkpt lat="43.0558015" lon="11.9173463"><ele>254.66666666666669</ele><time>2026-04-10T09:57:24.589Z</time></trkpt><trkpt lat="43.0556875" lon="11.9175355"><ele>254.33333333333334</ele><time>2026-04-10T09:57:25.585Z</time></trkpt><trkpt lat="43.0555729" lon="11.9177278"><ele>254.0</ele><time>2026-04-10T09:57:26.587Z</time></trkpt><trkpt lat="43.0554553" lon="11.9179142"><ele>253.66666666666669</ele><time>2026-04-10T09:57:27.589Z</time></trkpt><trkpt lat="43.0553369" lon="11.9181017"><ele>253.33333333333331</ele><time>2026-04-10T09:57:28.59Z</time></trkpt><trkpt lat="43.0552111" lon="11.9182807"><ele>253.0</ele><time>2026-04-10T09:57:29.586Z</time></trkpt><trkpt lat="43.0550743" lon="11.9184455"><ele>252.66666666666666</ele><time>2026-04-10T09:57:30.584Z</time></trkpt><trkpt lat="43.0549282" lon="11.9186058"><ele>252.33333333333331</ele><time>2026-04-10T09:57:31.587Z</time></trkpt><trkpt lat="43.0547808" lon="11.9187564"><ele>252.0</ele><time>2026-04-10T09:57:32.591Z</time></trkpt><trkpt lat="43.0546245" lon="11.9188957"><ele>252.0</ele><time>2026-04-10T09:57:33.579Z</time></trkpt><trkpt lat="43.0544685" lon="11.9190346"><ele>252.0</ele><time>2026-04-10T09:57:34.583Z</time></trkpt><trkpt lat="43.0543073" lon="11.9191762"><ele>252.0</ele><time>2026-04-10T09:57:35.587Z</time></trkpt><trkpt lat="43.0541398" lon="11.9193259"><ele>252.33333333333331</ele><time>2026-04-10T09:57:36.583Z</time></trkpt><trkpt lat="43.0539664" lon="11.9194782"><ele>252.66666666666666</ele><time>2026-04-10T09:57:37.582Z</time></trkpt><trkpt lat="43.053789" lon="11.9196275"><ele>253.0</ele><time>2026-04-10T09:57:38.585Z</time></trkpt><trkpt lat="43.0536045" lon="11.9197788"><ele>253.0</ele><time>2026-04-10T09:57:39.59Z</time></trkpt><trkpt lat="43.0534223" lon="11.9199331"><ele>253.0</ele><time>2026-04-10T09:57:40.586Z</time></trkpt><trkpt lat="43.0532385" lon="11.9200902"><ele>253.0</ele><time>2026-04-10T09:57:41.587Z</time></trkpt><trkpt lat="43.053055" lon="11.920251"><ele>253.0</ele><time>2026-04-10T09:57:42.585Z</time></trkpt><trkpt lat="43.0528685" lon="11.9204106"><ele>253.0</ele><time>2026-04-10T09:57:43.585Z</time></trkpt><trkpt lat="43.0526837" lon="11.9205704"><ele>253.0</ele><time>2026-04-10T09:57:44.585Z</time></trkpt><trkpt lat="43.0525015" lon="11.920726"><ele>253.0</ele><time>2026-04-10T09:57:45.589Z</time></trkpt><trkpt lat="43.0523205" lon="11.9208813"><ele>253.0</ele><time>2026-04-10T09:57:46.588Z</time></trkpt><trkpt lat="43.0521378" lon="11.9210263"><ele>253.0</ele><time>2026-04-10T09:57:47.584Z</time></trkpt><trkpt lat="43.0519531" lon="11.9211731"><ele>253.0</ele><time>2026-04-10T09:57:48.587Z</time></trkpt><trkpt lat="43.0517687" lon="11.9213253"><ele>253.0</ele><time>2026-04-10T09:57:49.587Z</time></trkpt><trkpt lat="43.0515999" lon="11.9214689"><ele>253.0</ele><time>2026-04-10T09:57:50.591Z</time></trkpt><trkpt lat="43.0514131" lon="11.9216396"><ele>252.66666666666666</ele><time>2026-04-10T09:57:51.581Z</time></trkpt><trkpt lat="43.0512313" lon="11.9218061"><ele>252.33333333333331</ele><time>2026-04-10T09:57:52.587Z</time></trkpt><trkpt lat="43.0510461" lon="11.9219659"><ele>252.0</ele><time>2026-04-10T09:57:53.592Z</time></trkpt><trkpt lat="43.0508554" lon="11.9221338"><ele>253.33333333333331</ele><time>2026-04-10T09:57:54.584Z</time></trkpt><trkpt lat="43.0506686" lon="11.9222976"><ele>254.66666666666666</ele><time>2026-04-10T09:57:55.587Z</time></trkpt><trkpt lat="43.0504808" lon="11.922455"><ele>256.0</ele><time>2026-04-10T09:57:56.587Z</time></trkpt><trkpt lat="43.0502919" lon="11.9226145"><ele>256.0</ele><time>2026-04-10T09:57:57.593Z</time></trkpt><trkpt lat="43.0501058" lon="11.922775"><ele>256.0</ele><time>2026-04-10T09:57:58.583Z</time></trkpt><trkpt lat="43.0499256" lon="11.9229359"><ele>256.0</ele><time>2026-04-10T09:57:59.589Z</time></trkpt><trkpt lat="43.0497397" lon="11.9230953"><ele>255.33333333333331</ele><time>2026-04-10T09:58:00.589Z</time></trkpt><trkpt lat="43.0495524" lon="11.9232557"><ele>254.66666666666669</ele><time>2026-04-10T09:58:01.584Z</time></trkpt><trkpt lat="43.049367" lon="11.9234147"><ele>254.0</ele><time>2026-04-10T09:58:02.589Z</time></trkpt><trkpt lat="43.0491844" lon="11.9235701"><ele>253.0</ele><time>2026-04-10T09:58:03.589Z</time></trkpt><trkpt lat="43.0489987" lon="11.92373"><ele>252.0</ele><time>2026-04-10T09:58:04.585Z</time></trkpt><trkpt lat="43.0488215" lon="11.9238863"><ele>251.0</ele><time>2026-04-10T09:58:05.584Z</time></trkpt><trkpt lat="43.0486543" lon="11.9240329"><ele>251.0</ele><time>2026-04-10T09:58:06.586Z</time></trkpt><trkpt lat="43.0484984" lon="11.9241717"><ele>251.0</ele><time>2026-04-10T09:58:07.588Z</time></trkpt><trkpt lat="43.0483434" lon="11.9243003"><ele>251.0</ele><time>2026-04-10T09:58:08.59Z</time></trkpt><trkpt lat="43.048199" lon="11.924424"><ele>251.75</ele><time>2026-04-10T09:58:09.587Z</time></trkpt><trkpt lat="43.0480649" lon="11.9245393"><ele>252.5</ele><time>2026-04-10T09:58:10.596Z</time></trkpt><trkpt lat="43.0479415" lon="11.9246486"><ele>253.25</ele><time>2026-04-10T09:58:11.589Z</time></trkpt><trkpt lat="43.0478237" lon="11.9247503"><ele>254.0</ele><time>2026-04-10T09:58:12.588Z</time></trkpt><trkpt lat="43.0477158" lon="11.9248434"><ele>254.00000000000003</ele><time>2026-04-10T09:58:13.585Z</time></trkpt><trkpt lat="43.0476316" lon="11.9249189"><ele>254.0</ele><time>2026-04-10T09:58:14.585Z</time></trkpt><trkpt lat="43.0475803" lon="11.9249915"><ele>254.0</ele><time>2026-04-10T09:58:15.589Z</time></trkpt><trkpt lat="43.0475626" lon="11.9250765"><ele>254.0</ele><time>2026-04-10T09:58:16.612Z</time></trkpt><trkpt lat="43.0475557" lon="11.9251646"><ele>254.00000000000003</ele><time>2026-04-10T09:58:17.603Z</time></trkpt><trkpt lat="43.0476022" lon="11.9252987"><ele>254.0</ele><time>2026-04-10T09:58:18.582Z</time></trkpt><trkpt lat="43.047651" lon="11.9254424"><ele>253.5</ele><time>2026-04-10T09:58:19.581Z</time></trkpt><trkpt lat="43.0477063" lon="11.9256031"><ele>253.0</ele><time>2026-04-10T09:58:20.584Z</time></trkpt><trkpt lat="43.0477609" lon="11.9257805"><ele>252.5</ele><time>2026-04-10T09:58:21.589Z</time></trkpt><trkpt lat="43.0478182" lon="11.9259689"><ele>252.0</ele><time>2026-04-10T09:58:22.583Z</time></trkpt><trkpt lat="43.0478752" lon="11.9261782"><ele>251.33333333333331</ele><time>2026-04-10T09:58:23.588Z</time></trkpt><trkpt lat="43.0479374" lon="11.9263938"><ele>250.66666666666666</ele><time>2026-04-10T09:58:24.589Z</time></trkpt><trkpt lat="43.0480035" lon="11.926614"><ele>250.0</ele><time>2026-04-10T09:58:25.581Z</time></trkpt><trkpt lat="43.0480701" lon="11.9268457"><ele>249.66666666666666</ele><time>2026-04-10T09:58:26.581Z</time></trkpt><trkpt lat="43.0481396" lon="11.927092"><ele>249.33333333333331</ele><time>2026-04-10T09:58:27.585Z</time></trkpt><trkpt lat="43.0482088" lon="11.9273399"><ele>249.0</ele><time>2026-04-10T09:58:28.582Z</time></trkpt><trkpt lat="43.0482823" lon="11.9275904"><ele>248.66666666666669</ele><time>2026-04-10T09:58:29.592Z</time></trkpt><trkpt lat="43.0483595" lon="11.9278469"><ele>248.33333333333334</ele><time>2026-04-10T09:58:30.585Z</time></trkpt><trkpt lat="43.0484368" lon="11.9281058"><ele>248.0</ele><time>2026-04-10T09:58:31.583Z</time></trkpt><trkpt lat="43.0485128" lon="11.9283668"><ele>248.66666666666669</ele><time>2026-04-10T09:58:32.586Z</time></trkpt><trkpt lat="43.0485865" lon="11.9286268"><ele>249.33333333333331</ele><time>2026-04-10T09:58:33.583Z</time></trkpt><trkpt lat="43.0486596" lon="11.9288828"><ele>250.0</ele><time>2026-04-10T09:58:34.589Z</time></trkpt><trkpt lat="43.048735" lon="11.9291398"><ele>250.33333333333331</ele><time>2026-04-10T09:58:35.583Z</time></trkpt><trkpt lat="43.0488096" lon="11.9293995"><ele>250.66666666666669</ele><time>2026-04-10T09:58:36.591Z</time></trkpt><trkpt lat="43.0488867" lon="11.929661"><ele>251.0</ele><time>2026-04-10T09:58:37.586Z</time></trkpt><trkpt lat="43.048966" lon="11.9299254"><ele>250.33333333333334</ele><time>2026-04-10T09:58:38.587Z</time></trkpt><trkpt lat="43.0490399" lon="11.9301938"><ele>249.66666666666669</ele><time>2026-04-10T09:58:39.583Z</time></trkpt><trkpt lat="43.049115" lon="11.930468"><ele>249.0</ele><time>2026-04-10T09:58:40.593Z</time></trkpt><trkpt lat="43.0491963" lon="11.9307473"><ele>249.0</ele><time>2026-04-10T09:58:41.591Z</time></trkpt><trkpt lat="43.0492775" lon="11.9310273"><ele>249.0</ele><time>2026-04-10T09:58:42.581Z</time></trkpt><trkpt lat="43.0493617" lon="11.9313048"><ele>249.0</ele><time>2026-04-10T09:58:43.588Z</time></trkpt><trkpt lat="43.0494411" lon="11.9315807"><ele>248.66666666666669</ele><time>2026-04-10T09:58:44.592Z</time></trkpt><trkpt lat="43.0495171" lon="11.9318478"><ele>248.33333333333334</ele><time>2026-04-10T09:58:45.584Z</time></trkpt><trkpt lat="43.0495929" lon="11.9320967"><ele>248.0</ele><time>2026-04-10T09:58:46.586Z</time></trkpt><trkpt lat="43.0496602" lon="11.9323352"><ele>248.33333333333334</ele><time>2026-04-10T09:58:47.588Z</time></trkpt><trkpt lat="43.0497285" lon="11.9325678"><ele>248.66666666666669</ele><time>2026-04-10T09:58:48.592Z</time></trkpt><trkpt lat="43.0497988" lon="11.9327997"><ele>249.0</ele><time>2026-04-10T09:58:49.584Z</time></trkpt><trkpt lat="43.049865" lon="11.9330163"><ele>249.0</ele><time>2026-04-10T09:58:50.591Z</time></trkpt><trkpt lat="43.0499313" lon="11.9332205"><ele>249.0</ele><time>2026-04-10T09:58:51.589Z</time></trkpt><trkpt lat="43.0500045" lon="11.9334165"><ele>249.0</ele><time>2026-04-10T09:58:52.593Z</time></trkpt><trkpt lat="43.0500861" lon="11.9335952"><ele>248.66666666666669</ele><time>2026-04-10T09:58:53.59Z</time></trkpt><trkpt lat="43.0501722" lon="11.9337666"><ele>248.33333333333334</ele><time>2026-04-10T09:58:54.591Z</time></trkpt><trkpt lat="43.0502628" lon="11.9339359"><ele>248.0</ele><time>2026-04-10T09:58:55.58Z</time></trkpt><trkpt lat="43.050361" lon="11.9340972"><ele>248.25</ele><time>2026-04-10T09:58:56.589Z</time></trkpt><trkpt lat="43.0504646" lon="11.9342489"><ele>248.5</ele><time>2026-04-10T09:58:57.58Z</time></trkpt><trkpt lat="43.0505637" lon="11.9343894"><ele>248.75</ele><time>2026-04-10T09:58:58.589Z</time></trkpt><trkpt lat="43.0506681" lon="11.9345269"><ele>249.0</ele><time>2026-04-10T09:58:59.595Z</time></trkpt><trkpt lat="43.0507837" lon="11.9346642"><ele>249.33333333333331</ele><time>2026-04-10T09:59:00.582Z</time></trkpt><trkpt lat="43.0509031" lon="11.9348084"><ele>249.66666666666666</ele><time>2026-04-10T09:59:01.588Z</time></trkpt><trkpt lat="43.0510254" lon="11.9349524"><ele>250.0</ele><time>2026-04-10T09:59:02.607Z</time></trkpt><trkpt lat="43.0511398" lon="11.9350922"><ele>250.0</ele><time>2026-04-10T09:59:03.594Z</time></trkpt><trkpt lat="43.0512474" lon="11.9352211"><ele>250.0</ele><time>2026-04-10T09:59:04.587Z</time></trkpt><trkpt lat="43.0513588" lon="11.9353512"><ele>250.0</ele><time>2026-04-10T09:59:05.59Z</time></trkpt><trkpt lat="43.0514659" lon="11.9354795"><ele>250.0</ele><time>2026-04-10T09:59:06.586Z</time></trkpt><trkpt lat="43.0519108" lon="11.9360238"><ele>248.0</ele><time>2026-04-10T09:59:10.586Z</time></trkpt><trkpt lat="43.052402" lon="11.9366184"><ele>249.0</ele><time>2026-04-10T09:59:14.595Z</time></trkpt><trkpt lat="43.0525249" lon="11.9367654"><ele>250.0</ele><time>2026-04-10T09:59:15.584Z</time></trkpt><trkpt lat="43.0526418" lon="11.9369076"><ele>251.0</ele><time>2026-04-10T09:59:16.584Z</time></trkpt><trkpt lat="43.0527504" lon="11.9370369"><ele>251.0</ele><time>2026-04-10T09:59:17.588Z</time></trkpt><trkpt lat="43.0528589" lon="11.9371627"><ele>251.0</ele><time>2026-04-10T09:59:18.591Z</time></trkpt><trkpt lat="43.052971" lon="11.9372977"><ele>251.0</ele><time>2026-04-10T09:59:19.586Z</time></trkpt><trkpt lat="43.0530895" lon="11.9374412"><ele>250.33333333333334</ele><time>2026-04-10T09:59:20.598Z</time></trkpt><trkpt lat="43.0532112" lon="11.9375914"><ele>249.66666666666669</ele><time>2026-04-10T09:59:21.589Z</time></trkpt><trkpt lat="43.0533283" lon="11.937734"><ele>249.0</ele><time>2026-04-10T09:59:22.586Z</time></trkpt><trkpt lat="43.0534402" lon="11.9378725"><ele>248.75</ele><time>2026-04-10T09:59:23.582Z</time></trkpt><trkpt lat="43.0535527" lon="11.9379978"><ele>248.5</ele><time>2026-04-10T09:59:24.582Z</time></trkpt><trkpt lat="43.0536524" lon="11.9381188"><ele>248.25</ele><time>2026-04-10T09:59:25.59Z</time></trkpt><trkpt lat="43.0537414" lon="11.9382241"><ele>248.0</ele><time>2026-04-10T09:59:26.59Z</time></trkpt><trkpt lat="43.0538171" lon="11.93832"><ele>248.00000000000003</ele><time>2026-04-10T09:59:27.583Z</time></trkpt><trkpt lat="43.0538769" lon="11.9383949"><ele>248.0</ele><time>2026-04-10T09:59:28.592Z</time></trkpt><trkpt lat="43.0539567" lon="11.9384626"><ele>248.0</ele><time>2026-04-10T09:59:30.588Z</time></trkpt><trkpt lat="43.0539043" lon="11.9383537"><ele>248.0</ele><time>2026-04-10T09:59:35.589Z</time></trkpt><trkpt lat="43.0538487" lon="11.938301"><ele>248.00000000000003</ele><time>2026-04-10T09:59:36.587Z</time></trkpt><trkpt lat="43.0537918" lon="11.9382352"><ele>248.0</ele><time>2026-04-10T09:59:37.592Z</time></trkpt><trkpt lat="43.0537266" lon="11.9381506"><ele>248.0</ele><time>2026-04-10T09:59:38.592Z</time></trkpt><trkpt lat="43.0536518" lon="11.9380546"><ele>248.0</ele><time>2026-04-10T09:59:39.587Z</time></trkpt><trkpt lat="43.0535677" lon="11.9379602"><ele>248.0</ele><time>2026-04-10T09:59:40.584Z</time></trkpt><trkpt lat="43.053479" lon="11.9378526"><ele>248.0</ele><time>2026-04-10T09:59:41.585Z</time></trkpt><trkpt lat="43.053384" lon="11.93774"><ele>248.25</ele><time>2026-04-10T09:59:42.582Z</time></trkpt><trkpt lat="43.0532874" lon="11.9376256"><ele>248.5</ele><time>2026-04-10T09:59:43.587Z</time></trkpt><trkpt lat="43.0531919" lon="11.9375142"><ele>248.75</ele><time>2026-04-10T09:59:44.583Z</time></trkpt><trkpt lat="43.0530916" lon="11.9373932"><ele>249.0</ele><time>2026-04-10T09:59:45.588Z</time></trkpt><trkpt lat="43.0529807" lon="11.9372637"><ele>249.66666666666669</ele><time>2026-04-10T09:59:46.588Z</time></trkpt><trkpt lat="43.0528665" lon="11.937127"><ele>250.33333333333334</ele><time>2026-04-10T09:59:47.584Z</time></trkpt><trkpt lat="43.0527465" lon="11.9369873"><ele>251.0</ele><time>2026-04-10T09:59:48.589Z</time></trkpt><trkpt lat="43.0526178" lon="11.9368383"><ele>251.0</ele><time>2026-04-10T09:59:49.578Z</time></trkpt><trkpt lat="43.0524871" lon="11.9366794"><ele>251.0</ele><time>2026-04-10T09:59:50.591Z</time></trkpt><trkpt lat="43.052349" lon="11.9365092"><ele>251.0</ele><time>2026-04-10T09:59:51.585Z</time></trkpt><trkpt lat="43.0522005" lon="11.9363299"><ele>250.5</ele><time>2026-04-10T09:59:52.592Z</time></trkpt><trkpt lat="43.0520476" lon="11.9361482"><ele>250.0</ele><time>2026-04-10T09:59:57.331Z</time></trkpt><trkpt lat="43.0513073" lon="11.9352537"><ele>250.0</ele><time>2026-04-10T09:59:58.584Z</time></trkpt><trkpt lat="43.0511731" lon="11.9350965"><ele>250.0</ele><time>2026-04-10T09:59:59.591Z</time></trkpt><trkpt lat="43.0510458" lon="11.9349466"><ele>250.0</ele><time>2026-04-10T10:00:00.581Z</time></trkpt><trkpt lat="43.0509311" lon="11.934805"><ele>250.0</ele><time>2026-04-10T10:00:01.582Z</time></trkpt><trkpt lat="43.0508257" lon="11.9346767"><ele>250.0</ele><time>2026-04-10T10:00:02.589Z</time></trkpt><trkpt lat="43.050729" lon="11.9345566"><ele>250.0</ele><time>2026-04-10T10:00:03.586Z</time></trkpt><trkpt lat="43.0506464" lon="11.9344578"><ele>250.0</ele><time>2026-04-10T10:00:04.583Z</time></trkpt><trkpt lat="43.0505828" lon="11.9343754"><ele>249.8</ele><time>2026-04-10T10:00:05.581Z</time></trkpt><trkpt lat="43.0505295" lon="11.934307"><ele>249.6</ele><time>2026-04-10T10:00:06.589Z</time></trkpt><trkpt lat="43.0504248" lon="11.9342575"><ele>249.39999999999998</ele><time>2026-04-10T10:00:08.589Z</time></trkpt><trkpt lat="43.0503031" lon="11.9343014"><ele>249.2</ele><time>2026-04-10T10:00:10.585Z</time></trkpt><trkpt lat="43.050227" lon="11.9343489"><ele>249.0</ele><time>2026-04-10T10:00:11.582Z</time></trkpt><trkpt lat="43.0501372" lon="11.9344028"><ele>249.0</ele><time>2026-04-10T10:00:12.586Z</time></trkpt><trkpt lat="43.0500299" lon="11.934461"><ele>249.0</ele><time>2026-04-10T10:00:13.581Z</time></trkpt><trkpt lat="43.0499146" lon="11.9345196"><ele>249.0</ele><time>2026-04-10T10:00:14.587Z</time></trkpt><trkpt lat="43.049795" lon="11.9345763"><ele>249.0</ele><time>2026-04-10T10:00:15.593Z</time></trkpt><trkpt lat="43.0496736" lon="11.9346342"><ele>249.25</ele><time>2026-04-10T10:00:16.587Z</time></trkpt><trkpt lat="43.0495467" lon="11.9346927"><ele>249.5</ele><time>2026-04-10T10:00:17.581Z</time></trkpt><trkpt lat="43.0494195" lon="11.9347569"><ele>249.75</ele><time>2026-04-10T10:00:18.579Z</time></trkpt><trkpt lat="43.0493106" lon="11.9348103"><ele>250.0</ele><time>2026-04-10T10:00:19.586Z</time></trkpt><trkpt lat="43.0492332" lon="11.9348456"><ele>250.0</ele><time>2026-04-10T10:00:20.583Z</time></trkpt><trkpt lat="43.049172" lon="11.9348744"><ele>250.0</ele><time>2026-04-10T10:00:21.592Z</time></trkpt><trkpt lat="43.0490771" lon="11.9349287"><ele>250.0</ele><time>2026-04-10T10:00:23.583Z</time></trkpt><trkpt lat="43.0489868" lon="11.9349746"><ele>250.0</ele><time>2026-04-10T10:00:25.581Z</time></trkpt><trkpt lat="43.0488709" lon="11.9350266"><ele>250.0</ele><time>2026-04-10T10:00:27.59Z</time></trkpt><trkpt lat="43.0487978" lon="11.9350622"><ele>249.4</ele><time>2026-04-10T10:00:28.588Z</time></trkpt><trkpt lat="43.048715" lon="11.9351043"><ele>248.8</ele><time>2026-04-10T10:00:29.584Z</time></trkpt><trkpt lat="43.0486357" lon="11.9351437"><ele>248.2</ele><time>2026-04-10T10:00:30.589Z</time></trkpt><trkpt lat="43.0485428" lon="11.9351934"><ele>247.6</ele><time>2026-04-10T10:00:31.591Z</time></trkpt><trkpt lat="43.0484488" lon="11.9352434"><ele>247.0</ele><time>2026-04-10T10:00:32.585Z</time></trkpt><trkpt lat="43.0483598" lon="11.9352829"><ele>247.6</ele><time>2026-04-10T10:00:33.612Z</time></trkpt><trkpt lat="43.0482762" lon="11.9353242"><ele>248.2</ele><time>2026-04-10T10:00:34.594Z</time></trkpt><trkpt lat="43.0481865" lon="11.9353628"><ele>248.8</ele><time>2026-04-10T10:00:35.59Z</time></trkpt><trkpt lat="43.0480937" lon="11.9354038"><ele>249.4</ele><time>2026-04-10T10:00:36.587Z</time></trkpt><trkpt lat="43.0479991" lon="11.9354512"><ele>250.0</ele><time>2026-04-10T10:00:37.589Z</time></trkpt><trkpt lat="43.047904" lon="11.935497"><ele>249.99999999999997</ele><time>2026-04-10T10:00:38.589Z</time></trkpt><trkpt lat="43.0478261" lon="11.935536"><ele>250.0</ele><time>2026-04-10T10:00:39.582Z</time></trkpt><trkpt lat="43.0477498" lon="11.9355715"><ele>250.0</ele><time>2026-04-10T10:00:40.602Z</time></trkpt><trkpt lat="43.0476799" lon="11.935598"><ele>250.0</ele><time>2026-04-10T10:00:41.596Z</time></trkpt><trkpt lat="43.04762" lon="11.9356253"><ele>249.99999999999997</ele><time>2026-04-10T10:00:42.589Z</time></trkpt><trkpt lat="43.047513" lon="11.9356782"><ele>250.0</ele><time>2026-04-10T10:00:44.584Z</time></trkpt><trkpt lat="43.0474239" lon="11.9357183"><ele>249.99999999999997</ele><time>2026-04-10T10:00:46.581Z</time></trkpt><trkpt lat="43.0473611" lon="11.9357388"><ele>250.0</ele><time>2026-04-10T10:01:19.584Z</time></trkpt><trkpt lat="43.0474164" lon="11.935683"><ele>250.0</ele><time>2026-04-10T10:01:29.587Z</time></trkpt><trkpt lat="43.0475165" lon="11.935676"><ele>250.0</ele><time>2026-04-10T10:01:35.592Z</time></trkpt><trkpt lat="43.0476204" lon="11.935636"><ele>249.99999999999997</ele><time>2026-04-10T10:01:37.588Z</time></trkpt><trkpt lat="43.0476816" lon="11.9356089"><ele>250.0</ele><time>2026-04-10T10:01:38.589Z</time></trkpt><trkpt lat="43.0477455" lon="11.9355783"><ele>249.99999999999997</ele><time>2026-04-10T10:01:39.591Z</time></trkpt><trkpt lat="43.047814" lon="11.9355454"><ele>250.0</ele><time>2026-04-10T10:01:40.589Z</time></trkpt><trkpt lat="43.0478931" lon="11.9355096"><ele>250.0</ele><time>2026-04-10T10:01:41.593Z</time></trkpt><trkpt lat="43.0479723" lon="11.9354736"><ele>250.0</ele><time>2026-04-10T10:01:42.589Z</time></trkpt><trkpt lat="43.0480515" lon="11.9354364"><ele>249.99999999999997</ele><time>2026-04-10T10:01:43.582Z</time></trkpt><trkpt lat="43.0481393" lon="11.9353956"><ele>250.0</ele><time>2026-04-10T10:01:44.582Z</time></trkpt><trkpt lat="43.0482323" lon="11.9353495"><ele>249.4</ele><time>2026-04-10T10:01:45.587Z</time></trkpt><trkpt lat="43.0483275" lon="11.9353007"><ele>248.8</ele><time>2026-04-10T10:01:46.586Z</time></trkpt><trkpt lat="43.0484294" lon="11.9352539"><ele>248.2</ele><time>2026-04-10T10:01:47.586Z</time></trkpt><trkpt lat="43.0485274" lon="11.935205"><ele>247.6</ele><time>2026-04-10T10:01:48.586Z</time></trkpt><trkpt lat="43.0486219" lon="11.9351551"><ele>247.0</ele><time>2026-04-10T10:01:49.615Z</time></trkpt><trkpt lat="43.048699" lon="11.9351131"><ele>247.0</ele><time>2026-04-10T10:01:50.591Z</time></trkpt><trkpt lat="43.0487679" lon="11.9350743"><ele>247.0</ele><time>2026-04-10T10:01:51.587Z</time></trkpt><trkpt lat="43.0488285" lon="11.9350441"><ele>247.0</ele><time>2026-04-10T10:01:52.587Z</time></trkpt><trkpt lat="43.048938" lon="11.9349877"><ele>247.0</ele><time>2026-04-10T10:01:54.604Z</time></trkpt><trkpt lat="43.0490608" lon="11.9349262"><ele>247.0</ele><time>2026-04-10T10:01:56.588Z</time></trkpt><trkpt lat="43.0491296" lon="11.9348983"><ele>247.42857142857144</ele><time>2026-04-10T10:01:57.58Z</time></trkpt><trkpt lat="43.0491984" lon="11.9348665"><ele>247.85714285714283</ele><time>2026-04-10T10:01:58.58Z</time></trkpt><trkpt lat="43.0492637" lon="11.9348385"><ele>248.28571428571428</ele><time>2026-04-10T10:01:59.576Z</time></trkpt><trkpt lat="43.0493282" lon="11.9348074"><ele>248.71428571428572</ele><time>2026-04-10T10:02:00.58Z</time></trkpt><trkpt lat="43.0493903" lon="11.9347751"><ele>249.14285714285717</ele><time>2026-04-10T10:02:01.59Z</time></trkpt><trkpt lat="43.0494565" lon="11.9347424"><ele>249.57142857142856</ele><time>2026-04-10T10:02:02.59Z</time></trkpt><trkpt lat="43.0495225" lon="11.9347063"><ele>250.0</ele><time>2026-04-10T10:02:03.582Z</time></trkpt><trkpt lat="43.0495857" lon="11.9346762"><ele>250.0</ele><time>2026-04-10T10:02:04.583Z</time></trkpt><trkpt lat="43.0496476" lon="11.9346431"><ele>250.0</ele><time>2026-04-10T10:02:05.588Z</time></trkpt><trkpt lat="43.0497111" lon="11.9346174"><ele>250.0</ele><time>2026-04-10T10:02:06.577Z</time></trkpt><trkpt lat="43.049774" lon="11.9345869"><ele>250.0</ele><time>2026-04-10T10:02:07.584Z</time></trkpt><trkpt lat="43.049835" lon="11.9345586"><ele>250.0</ele><time>2026-04-10T10:02:08.591Z</time></trkpt><trkpt lat="43.0500751" lon="11.9344447"><ele>249.75</ele><time>2026-04-10T10:02:12.588Z</time></trkpt><trkpt lat="43.0502396" lon="11.9343518"><ele>249.5</ele><time>2026-04-10T10:02:16.579Z</time></trkpt><trkpt lat="43.0503393" lon="11.9342998"><ele>249.25</ele><time>2026-04-10T10:02:20.592Z</time></trkpt><trkpt lat="43.0503858" lon="11.9342182"><ele>249.0</ele><time>2026-04-10T10:03:19.59Z</time></trkpt><trkpt lat="43.0503504" lon="11.9340745"><ele>248.5</ele><time>2026-04-10T10:03:21.597Z</time></trkpt><trkpt lat="43.0501956" lon="11.9337898"><ele>248.0</ele><time>2026-04-10T10:03:24.59Z</time></trkpt><trkpt lat="43.0500732" lon="11.9335352"><ele>248.0</ele><time>2026-04-10T10:03:26.584Z</time></trkpt><trkpt lat="43.050013" lon="11.9333921"><ele>248.0</ele><time>2026-04-10T10:03:27.59Z</time></trkpt><trkpt lat="43.0498893" lon="11.9330794"><ele>248.0</ele><time>2026-04-10T10:03:29.586Z</time></trkpt><trkpt lat="43.049834" lon="11.932904"><ele>248.0</ele><time>2026-04-10T10:03:30.588Z</time></trkpt><trkpt lat="43.0497199" lon="11.9325106"><ele>248.0</ele><time>2026-04-10T10:03:32.582Z</time></trkpt><trkpt lat="43.0496036" lon="11.9320835"><ele>248.0</ele><time>2026-04-10T10:03:34.586Z</time></trkpt><trkpt lat="43.0495408" lon="11.9318608"><ele>248.0</ele><time>2026-04-10T10:03:35.593Z</time></trkpt><trkpt lat="43.049334" lon="11.931151"><ele>248.33333333333334</ele><time>2026-04-10T10:03:38.584Z</time></trkpt><trkpt lat="43.0492606" lon="11.9309079"><ele>248.66666666666669</ele><time>2026-04-10T10:03:39.579Z</time></trkpt><trkpt lat="43.0491901" lon="11.930659"><ele>249.0</ele><time>2026-04-10T10:03:40.586Z</time></trkpt><trkpt lat="43.0491216" lon="11.930413"><ele>250.0</ele><time>2026-04-10T10:03:41.588Z</time></trkpt><trkpt lat="43.0489725" lon="11.9299045"><ele>251.0</ele><time>2026-04-10T10:03:43.581Z</time></trkpt><trkpt lat="43.048819" lon="11.9293904"><ele>250.66666666666669</ele><time>2026-04-10T10:03:45.582Z</time></trkpt><trkpt lat="43.0487451" lon="11.9291307"><ele>250.33333333333331</ele><time>2026-04-10T10:03:46.586Z</time></trkpt><trkpt lat="43.04867" lon="11.9288647"><ele>250.0</ele><time>2026-04-10T10:03:47.587Z</time></trkpt><trkpt lat="43.0485936" lon="11.9286018"><ele>249.0</ele><time>2026-04-10T10:03:48.588Z</time></trkpt><trkpt lat="43.0484469" lon="11.9280803"><ele>248.0</ele><time>2026-04-10T10:03:50.587Z</time></trkpt><trkpt lat="43.0483099" lon="11.9276104"><ele>248.5</ele><time>2026-04-10T10:03:52.589Z</time></trkpt><trkpt lat="43.0481841" lon="11.9271779"><ele>249.0</ele><time>2026-04-10T10:03:54.587Z</time></trkpt><trkpt lat="43.0481245" lon="11.9269726"><ele>249.33333333333331</ele><time>2026-04-10T10:03:55.582Z</time></trkpt><trkpt lat="43.0480158" lon="11.9265917"><ele>249.66666666666666</ele><time>2026-04-10T10:03:57.579Z</time></trkpt><trkpt lat="43.0479692" lon="11.9264189"><ele>250.0</ele><time>2026-04-10T10:03:58.607Z</time></trkpt><trkpt lat="43.0478482" lon="11.9259858"><ele>250.5</ele><time>2026-04-10T10:04:01.585Z</time></trkpt><trkpt lat="43.047784" lon="11.925777"><ele>251.0</ele><time>2026-04-10T10:04:03.583Z</time></trkpt><trkpt lat="43.0477323" lon="11.9255956"><ele>251.5</ele><time>2026-04-10T10:04:05.588Z</time></trkpt><trkpt lat="43.0477078" lon="11.9255124"><ele>252.0</ele><time>2026-04-10T10:04:06.588Z</time></trkpt><trkpt lat="43.0476556" lon="11.9253297"><ele>252.0</ele><time>2026-04-10T10:04:09.586Z</time></trkpt><trkpt lat="43.0476437" lon="11.9252269"><ele>252.0</ele><time>2026-04-10T10:04:30.596Z</time></trkpt><trkpt lat="43.0475618" lon="11.9250556"><ele>252.0</ele><time>2026-04-10T10:04:33.586Z</time></trkpt><trkpt lat="43.0474335" lon="11.9250773"><ele>252.0</ele><time>2026-04-10T10:04:35.588Z</time></trkpt><trkpt lat="43.0473527" lon="11.9251429"><ele>252.0</ele><time>2026-04-10T10:04:36.583Z</time></trkpt><trkpt lat="43.0471673" lon="11.9252969"><ele>251.33333333333331</ele><time>2026-04-10T10:04:38.587Z</time></trkpt><trkpt lat="43.0470667" lon="11.9253857"><ele>250.66666666666666</ele><time>2026-04-10T10:04:39.58Z</time></trkpt><trkpt lat="43.0468536" lon="11.9255734"><ele>250.0</ele><time>2026-04-10T10:04:41.591Z</time></trkpt><trkpt lat="43.0467401" lon="11.9256679"><ele>250.5</ele><time>2026-04-10T10:04:42.588Z</time></trkpt><trkpt lat="43.0464004" lon="11.9259567"><ele>251.0</ele><time>2026-04-10T10:04:45.585Z</time></trkpt><trkpt lat="43.0457792" lon="11.926502"><ele>251.0</ele><time>2026-04-10T10:04:50.588Z</time></trkpt><trkpt lat="43.045651" lon="11.9266114"><ele>251.0</ele><time>2026-04-10T10:04:51.587Z</time></trkpt><trkpt lat="43.0455242" lon="11.9267192"><ele>251.0</ele><time>2026-04-10T10:04:52.587Z</time></trkpt><trkpt lat="43.0453993" lon="11.9268268"><ele>251.0</ele><time>2026-04-10T10:04:53.589Z</time></trkpt><trkpt lat="43.045286" lon="11.9269258"><ele>250.83333333333334</ele><time>2026-04-10T10:04:54.586Z</time></trkpt><trkpt lat="43.0451981" lon="11.9270036"><ele>250.66666666666669</ele><time>2026-04-10T10:04:55.582Z</time></trkpt><trkpt lat="43.0451236" lon="11.9270671"><ele>250.5</ele><time>2026-04-10T10:04:56.589Z</time></trkpt><trkpt lat="43.0450672" lon="11.9271136"><ele>250.33333333333331</ele><time>2026-04-10T10:04:57.592Z</time></trkpt><trkpt lat="43.0450036" lon="11.9271684"><ele>250.16666666666666</ele><time>2026-04-10T10:04:59.586Z</time></trkpt><trkpt lat="43.0449586" lon="11.9272488"><ele>250.0</ele><time>2026-04-10T10:05:05.587Z</time></trkpt><trkpt lat="43.0449952" lon="11.9273657"><ele>250.0</ele><time>2026-04-10T10:05:07.581Z</time></trkpt><trkpt lat="43.0450405" lon="11.9275112"><ele>250.0</ele><time>2026-04-10T10:05:09.584Z</time></trkpt><trkpt lat="43.0450757" lon="11.9276651"><ele>250.0</ele><time>2026-04-10T10:05:11.581Z</time></trkpt><trkpt lat="43.0450854" lon="11.9278128"><ele>250.0</ele><time>2026-04-10T10:05:17.67Z</time></trkpt><trkpt lat="43.0451627" lon="11.9281974"><ele>250.0</ele><time>2026-04-10T10:05:18.586Z</time></trkpt><trkpt lat="43.0451843" lon="11.9282836"><ele>250.0</ele><time>2026-04-10T10:05:19.585Z</time></trkpt><trkpt lat="43.0452083" lon="11.9283722"><ele>250.0</ele><time>2026-04-10T10:05:20.59Z</time></trkpt><trkpt lat="43.0452316" lon="11.9284611"><ele>250.0</ele><time>2026-04-10T10:05:21.591Z</time></trkpt><trkpt lat="43.0452527" lon="11.9285549"><ele>250.0</ele><time>2026-04-10T10:05:22.586Z</time></trkpt><trkpt lat="43.0452763" lon="11.9286488"><ele>250.0</ele><time>2026-04-10T10:05:23.586Z</time></trkpt><trkpt lat="43.0452998" lon="11.9287509"><ele>250.0</ele><time>2026-04-10T10:05:24.595Z</time></trkpt><trkpt lat="43.0453229" lon="11.9288585"><ele>249.99999999999997</ele><time>2026-04-10T10:05:25.579Z</time></trkpt><trkpt lat="43.0453489" lon="11.928972"><ele>250.0</ele><time>2026-04-10T10:05:26.574Z</time></trkpt><trkpt lat="43.0453726" lon="11.9290789"><ele>250.0</ele><time>2026-04-10T10:05:27.581Z</time></trkpt><trkpt lat="43.0454018" lon="11.9291862"><ele>250.0</ele><time>2026-04-10T10:05:28.576Z</time></trkpt><trkpt lat="43.0454318" lon="11.9293041"><ele>249.99999999999997</ele><time>2026-04-10T10:05:29.588Z</time></trkpt><trkpt lat="43.0454632" lon="11.929428"><ele>250.0</ele><time>2026-04-10T10:05:30.587Z</time></trkpt><trkpt lat="43.0454969" lon="11.9295548"><ele>249.83333333333331</ele><time>2026-04-10T10:05:31.586Z</time></trkpt><trkpt lat="43.0455275" lon="11.9296763"><ele>249.66666666666666</ele><time>2026-04-10T10:05:32.589Z</time></trkpt><trkpt lat="43.0455547" lon="11.9297859"><ele>249.5</ele><time>2026-04-10T10:05:33.579Z</time></trkpt><trkpt lat="43.045581" lon="11.9298819"><ele>249.33333333333331</ele><time>2026-04-10T10:05:34.588Z</time></trkpt><trkpt lat="43.0456064" lon="11.9299758"><ele>249.16666666666666</ele><time>2026-04-10T10:05:35.584Z</time></trkpt><trkpt lat="43.0456324" lon="11.9300802"><ele>249.0</ele><time>2026-04-10T10:05:36.589Z</time></trkpt><trkpt lat="43.0456612" lon="11.9301859"><ele>248.79999999999998</ele><time>2026-04-10T10:05:37.584Z</time></trkpt><trkpt lat="43.0456914" lon="11.9302976"><ele>248.59999999999997</ele><time>2026-04-10T10:05:38.586Z</time></trkpt><trkpt lat="43.0457228" lon="11.9304149"><ele>248.4</ele><time>2026-04-10T10:05:39.581Z</time></trkpt><trkpt lat="43.0457537" lon="11.9305323"><ele>248.2</ele><time>2026-04-10T10:05:40.581Z</time></trkpt><trkpt lat="43.0457852" lon="11.9306545"><ele>248.0</ele><time>2026-04-10T10:05:41.599Z</time></trkpt><trkpt lat="43.0458199" lon="11.9307791"><ele>248.60000000000002</ele><time>2026-04-10T10:05:42.588Z</time></trkpt><trkpt lat="43.0458528" lon="11.9309069"><ele>249.20000000000002</ele><time>2026-04-10T10:05:43.588Z</time></trkpt><trkpt lat="43.0458879" lon="11.9310324"><ele>249.8</ele><time>2026-04-10T10:05:44.58Z</time></trkpt><trkpt lat="43.0459194" lon="11.9311471"><ele>250.4</ele><time>2026-04-10T10:05:45.588Z</time></trkpt><trkpt lat="43.0459468" lon="11.9312505"><ele>251.0</ele><time>2026-04-10T10:05:46.589Z</time></trkpt><trkpt lat="43.0459756" lon="11.9313631"><ele>251.0</ele><time>2026-04-10T10:05:47.58Z</time></trkpt><trkpt lat="43.046008" lon="11.9314811"><ele>251.00000000000003</ele><time>2026-04-10T10:05:48.585Z</time></trkpt><trkpt lat="43.0460404" lon="11.9315953"><ele>251.00000000000003</ele><time>2026-04-10T10:05:49.585Z</time></trkpt><trkpt lat="43.0460706" lon="11.9317111"><ele>251.0</ele><time>2026-04-10T10:05:50.589Z</time></trkpt><trkpt lat="43.0461024" lon="11.9318271"><ele>251.0</ele><time>2026-04-10T10:05:51.585Z</time></trkpt><trkpt lat="43.0461333" lon="11.9319391"><ele>250.66666666666669</ele><time>2026-04-10T10:05:52.586Z</time></trkpt><trkpt lat="43.0461634" lon="11.9320487"><ele>250.33333333333334</ele><time>2026-04-10T10:05:53.582Z</time></trkpt><trkpt lat="43.0461965" lon="11.9321628"><ele>250.0</ele><time>2026-04-10T10:05:54.582Z</time></trkpt><trkpt lat="43.0462267" lon="11.9322631"><ele>249.66666666666669</ele><time>2026-04-10T10:05:55.583Z</time></trkpt><trkpt lat="43.0462517" lon="11.9323601"><ele>249.33333333333334</ele><time>2026-04-10T10:05:56.59Z</time></trkpt><trkpt lat="43.0462759" lon="11.9324614"><ele>249.0</ele><time>2026-04-10T10:05:57.579Z</time></trkpt><trkpt lat="43.0463001" lon="11.9325523"><ele>248.83333333333334</ele><time>2026-04-10T10:05:58.581Z</time></trkpt><trkpt lat="43.0463252" lon="11.9326423"><ele>248.66666666666669</ele><time>2026-04-10T10:05:59.577Z</time></trkpt><trkpt lat="43.0463477" lon="11.9327273"><ele>248.5</ele><time>2026-04-10T10:06:00.583Z</time></trkpt><trkpt lat="43.0463728" lon="11.932807"><ele>248.33333333333334</ele><time>2026-04-10T10:06:01.587Z</time></trkpt><trkpt lat="43.0464036" lon="11.932934"><ele>248.16666666666669</ele><time>2026-04-10T10:06:03.59Z</time></trkpt><trkpt lat="43.0464415" lon="11.9330878"><ele>248.0</ele><time>2026-04-10T10:06:05.585Z</time></trkpt><trkpt lat="43.0464669" lon="11.9331772"><ele>248.00000000000003</ele><time>2026-04-10T10:06:06.588Z</time></trkpt><trkpt lat="43.0464905" lon="11.9332645"><ele>248.0</ele><time>2026-04-10T10:06:07.588Z</time></trkpt><trkpt lat="43.0465319" lon="11.933409"><ele>248.0</ele><time>2026-04-10T10:06:09.586Z</time></trkpt><trkpt lat="43.0465681" lon="11.9335368"><ele>248.0</ele><time>2026-04-10T10:06:11.591Z</time></trkpt><trkpt lat="43.0465998" lon="11.9336185"><ele>248.00000000000003</ele><time>2026-04-10T10:06:14.58Z</time></trkpt><trkpt lat="43.0466222" lon="11.9337234"><ele>248.0</ele><time>2026-04-10T10:06:17.585Z</time></trkpt><trkpt lat="43.0466854" lon="11.9340009"><ele>248.66666666666669</ele><time>2026-04-10T10:06:23.586Z</time></trkpt><trkpt lat="43.046709" lon="11.9340821"><ele>249.33333333333334</ele><time>2026-04-10T10:06:24.598Z</time></trkpt><trkpt lat="43.0467344" lon="11.9341723"><ele>250.0</ele><time>2026-04-10T10:06:25.588Z</time></trkpt><trkpt lat="43.0467635" lon="11.9342696"><ele>250.66666666666669</ele><time>2026-04-10T10:06:26.581Z</time></trkpt><trkpt lat="43.0467919" lon="11.9343743"><ele>251.33333333333334</ele><time>2026-04-10T10:06:27.585Z</time></trkpt><trkpt lat="43.0468195" lon="11.9344803"><ele>252.0</ele><time>2026-04-10T10:06:28.586Z</time></trkpt><trkpt lat="43.0468475" lon="11.9345859"><ele>252.0</ele><time>2026-04-10T10:06:29.589Z</time></trkpt><trkpt lat="43.0468739" lon="11.9346925"><ele>252.0</ele><time>2026-04-10T10:06:30.587Z</time></trkpt><trkpt lat="43.046906" lon="11.9348081"><ele>252.0</ele><time>2026-04-10T10:06:31.587Z</time></trkpt><trkpt lat="43.0469349" lon="11.9349085"><ele>252.0</ele><time>2026-04-10T10:06:32.585Z</time></trkpt><trkpt lat="43.0469614" lon="11.9350021"><ele>252.0</ele><time>2026-04-10T10:06:33.584Z</time></trkpt><trkpt lat="43.0469909" lon="11.9350992"><ele>252.0</ele><time>2026-04-10T10:06:34.587Z</time></trkpt><trkpt lat="43.0470202" lon="11.9352042"><ele>251.66666666666666</ele><time>2026-04-10T10:06:35.579Z</time></trkpt><trkpt lat="43.047044" lon="11.9353001"><ele>251.33333333333331</ele><time>2026-04-10T10:06:36.614Z</time></trkpt><trkpt lat="43.0470655" lon="11.9353852"><ele>251.0</ele><time>2026-04-10T10:06:37.61Z</time></trkpt><trkpt lat="43.0470924" lon="11.9354743"><ele>250.66666666666666</ele><time>2026-04-10T10:06:38.581Z</time></trkpt><trkpt lat="43.047115" lon="11.9355588"><ele>250.33333333333331</ele><time>2026-04-10T10:06:39.582Z</time></trkpt><trkpt lat="43.0471343" lon="11.9357076"><ele>250.0</ele><time>2026-04-10T10:06:41.585Z</time></trkpt><trkpt lat="43.047116" lon="11.9358095"><ele>249.99999999999997</ele><time>2026-04-10T10:06:43.589Z</time></trkpt><trkpt lat="43.0471768" lon="11.935871"><ele>250.0</ele><time>2026-04-10T10:06:54.589Z</time></trkpt><trkpt lat="43.047241" lon="11.9358909"><ele>250.0</ele><time>2026-04-10T10:06:56.591Z</time></trkpt><trkpt lat="43.0471814" lon="11.9358614"><ele>250.0</ele><time>2026-04-10T10:07:33.587Z</time></trkpt><trkpt lat="43.0471099" lon="11.9358273"><ele>249.99999999999997</ele><time>2026-04-10T10:07:37.583Z</time></trkpt><trkpt lat="43.0471316" lon="11.935729"><ele>250.0</ele><time>2026-04-10T10:07:38.582Z</time></trkpt><trkpt lat="43.0471171" lon="11.9355716"><ele>249.99999999999997</ele><time>2026-04-10T10:07:40.582Z</time></trkpt><trkpt lat="43.0470891" lon="11.9354626"><ele>250.0</ele><time>2026-04-10T10:07:41.584Z</time></trkpt><trkpt lat="43.0470547" lon="11.9353473"><ele>250.0</ele><time>2026-04-10T10:07:42.584Z</time></trkpt><trkpt lat="43.0470258" lon="11.9352493"><ele>250.0</ele><time>2026-04-10T10:07:43.586Z</time></trkpt><trkpt lat="43.0469998" lon="11.9351565"><ele>249.99999999999997</ele><time>2026-04-10T10:07:44.586Z</time></trkpt><trkpt lat="43.0469733" lon="11.9350629"><ele>250.0</ele><time>2026-04-10T10:07:45.588Z</time></trkpt><trkpt lat="43.0469509" lon="11.9349733"><ele>250.33333333333331</ele><time>2026-04-10T10:07:46.584Z</time></trkpt><trkpt lat="43.0469225" lon="11.9348803"><ele>250.66666666666666</ele><time>2026-04-10T10:07:47.584Z</time></trkpt><trkpt lat="43.0469004" lon="11.9347901"><ele>251.0</ele><time>2026-04-10T10:07:48.584Z</time></trkpt><trkpt lat="43.046871" lon="11.9346891"><ele>251.33333333333331</ele><time>2026-04-10T10:07:49.585Z</time></trkpt><trkpt lat="43.0468396" lon="11.934573"><ele>251.66666666666666</ele><time>2026-04-10T10:07:50.584Z</time></trkpt><trkpt lat="43.0468075" lon="11.9344559"><ele>252.0</ele><time>2026-04-10T10:07:51.587Z</time></trkpt><trkpt lat="43.0467813" lon="11.9343559"><ele>252.0</ele><time>2026-04-10T10:07:52.576Z</time></trkpt><trkpt lat="43.0467568" lon="11.9342565"><ele>252.0</ele><time>2026-04-10T10:07:53.58Z</time></trkpt><trkpt lat="43.0467287" lon="11.9341593"><ele>252.0</ele><time>2026-04-10T10:07:54.579Z</time></trkpt><trkpt lat="43.0467031" lon="11.9340667"><ele>252.0</ele><time>2026-04-10T10:07:55.595Z</time></trkpt><trkpt lat="43.0466598" lon="11.9339186"><ele>252.0</ele><time>2026-04-10T10:07:57.588Z</time></trkpt><trkpt lat="43.0466249" lon="11.9338058"><ele>252.0</ele><time>2026-04-10T10:07:59.58Z</time></trkpt><trkpt lat="43.0465967" lon="11.9336974"><ele>251.83333333333334</ele><time>2026-04-10T10:08:02.58Z</time></trkpt><trkpt lat="43.0465606" lon="11.9335727"><ele>251.66666666666669</ele><time>2026-04-10T10:08:05.583Z</time></trkpt><trkpt lat="43.0465209" lon="11.9334159"><ele>251.5</ele><time>2026-04-10T10:08:07.588Z</time></trkpt><trkpt lat="43.0464965" lon="11.933323"><ele>251.33333333333334</ele><time>2026-04-10T10:08:08.585Z</time></trkpt><trkpt lat="43.046471" lon="11.9332228"><ele>251.16666666666669</ele><time>2026-04-10T10:08:09.58Z</time></trkpt><trkpt lat="43.0464476" lon="11.93313"><ele>251.0</ele><time>2026-04-10T10:08:10.584Z</time></trkpt><trkpt lat="43.0464241" lon="11.9330406"><ele>250.71428571428567</ele><time>2026-04-10T10:08:11.587Z</time></trkpt><trkpt lat="43.0464013" lon="11.9329575"><ele>250.42857142857142</ele><time>2026-04-10T10:08:12.583Z</time></trkpt><trkpt lat="43.0463809" lon="11.9328611"><ele>250.1428571428571</ele><time>2026-04-10T10:08:13.58Z</time></trkpt><trkpt lat="43.0463552" lon="11.9327645"><ele>249.85714285714283</ele><time>2026-04-10T10:08:14.585Z</time></trkpt><trkpt lat="43.0463274" lon="11.9326646"><ele>249.57142857142856</ele><time>2026-04-10T10:08:15.583Z</time></trkpt><trkpt lat="43.0463013" lon="11.9325747"><ele>249.28571428571428</ele><time>2026-04-10T10:08:16.579Z</time></trkpt><trkpt lat="43.046278" lon="11.9324871"><ele>249.0</ele><time>2026-04-10T10:08:17.591Z</time></trkpt><trkpt lat="43.0462545" lon="11.9323977"><ele>249.0</ele><time>2026-04-10T10:08:18.583Z</time></trkpt><trkpt lat="43.0462279" lon="11.9323002"><ele>249.0</ele><time>2026-04-10T10:08:19.581Z</time></trkpt><trkpt lat="43.0461971" lon="11.9321948"><ele>249.0</ele><time>2026-04-10T10:08:20.579Z</time></trkpt><trkpt lat="43.0461665" lon="11.9320884"><ele>249.0</ele><time>2026-04-10T10:08:21.582Z</time></trkpt><trkpt lat="43.0461405" lon="11.9319911"><ele>249.0</ele><time>2026-04-10T10:08:22.583Z</time></trkpt><trkpt lat="43.0461148" lon="11.9318982"><ele>249.0</ele><time>2026-04-10T10:08:23.598Z</time></trkpt><trkpt lat="43.0460883" lon="11.9317946"><ele>249.33333333333334</ele><time>2026-04-10T10:08:24.586Z</time></trkpt><trkpt lat="43.0460587" lon="11.9316838"><ele>249.66666666666669</ele><time>2026-04-10T10:08:25.588Z</time></trkpt><trkpt lat="43.0460283" lon="11.9315739"><ele>250.0</ele><time>2026-04-10T10:08:26.586Z</time></trkpt><trkpt lat="43.045998" lon="11.9314614"><ele>250.33333333333334</ele><time>2026-04-10T10:08:27.58Z</time></trkpt><trkpt lat="43.0459704" lon="11.9313539"><ele>250.66666666666669</ele><time>2026-04-10T10:08:28.583Z</time></trkpt><trkpt lat="43.0459389" lon="11.931237"><ele>251.0</ele><time>2026-04-10T10:08:29.584Z</time></trkpt><trkpt lat="43.04591" lon="11.9311251"><ele>251.0</ele><time>2026-04-10T10:08:30.577Z</time></trkpt><trkpt lat="43.0458802" lon="11.931015"><ele>251.00000000000003</ele><time>2026-04-10T10:08:31.581Z</time></trkpt><trkpt lat="43.0458472" lon="11.9308958"><ele>251.00000000000003</ele><time>2026-04-10T10:08:32.583Z</time></trkpt><trkpt lat="43.0458136" lon="11.9307703"><ele>251.0</ele><time>2026-04-10T10:08:33.587Z</time></trkpt><trkpt lat="43.0457818" lon="11.9306435"><ele>251.0</ele><time>2026-04-10T10:08:34.576Z</time></trkpt><trkpt lat="43.045751" lon="11.9305302"><ele>250.66666666666669</ele><time>2026-04-10T10:08:35.585Z</time></trkpt><trkpt lat="43.0457193" lon="11.9304182"><ele>250.33333333333334</ele><time>2026-04-10T10:08:36.587Z</time></trkpt><trkpt lat="43.0456893" lon="11.9303071"><ele>250.0</ele><time>2026-04-10T10:08:37.579Z</time></trkpt><trkpt lat="43.0456601" lon="11.9302061"><ele>249.66666666666669</ele><time>2026-04-10T10:08:38.584Z</time></trkpt><trkpt lat="43.0456334" lon="11.9301021"><ele>249.33333333333334</ele><time>2026-04-10T10:08:39.583Z</time></trkpt><trkpt lat="43.0456029" lon="11.9299925"><ele>249.0</ele><time>2026-04-10T10:08:40.58Z</time></trkpt><trkpt lat="43.0455726" lon="11.9298707"><ele>249.0</ele><time>2026-04-10T10:08:41.588Z</time></trkpt><trkpt lat="43.0455411" lon="11.9297473"><ele>248.99999999999997</ele><time>2026-04-10T10:08:42.588Z</time></trkpt><trkpt lat="43.0455111" lon="11.9296309"><ele>248.99999999999997</ele><time>2026-04-10T10:08:43.582Z</time></trkpt><trkpt lat="43.0454852" lon="11.9295222"><ele>249.0</ele><time>2026-04-10T10:08:44.582Z</time></trkpt><trkpt lat="43.0454579" lon="11.929409"><ele>249.0</ele><time>2026-04-10T10:08:45.582Z</time></trkpt><trkpt lat="43.0454233" lon="11.9292893"><ele>249.16666666666666</ele><time>2026-04-10T10:08:46.581Z</time></trkpt><trkpt lat="43.0453935" lon="11.9291751"><ele>249.33333333333331</ele><time>2026-04-10T10:08:47.586Z</time></trkpt><trkpt lat="43.0453641" lon="11.9290661"><ele>249.5</ele><time>2026-04-10T10:08:48.58Z</time></trkpt><trkpt lat="43.0453367" lon="11.928957"><ele>249.66666666666666</ele><time>2026-04-10T10:08:49.584Z</time></trkpt><trkpt lat="43.0453154" lon="11.9288536"><ele>249.83333333333331</ele><time>2026-04-10T10:08:50.584Z</time></trkpt><trkpt lat="43.0452895" lon="11.9287347"><ele>250.0</ele><time>2026-04-10T10:08:51.582Z</time></trkpt><trkpt lat="43.0452597" lon="11.9286126"><ele>250.0</ele><time>2026-04-10T10:08:52.58Z</time></trkpt><trkpt lat="43.0452306" lon="11.9284967"><ele>250.0</ele><time>2026-04-10T10:08:53.576Z</time></trkpt><trkpt lat="43.0452031" lon="11.9283949"><ele>250.0</ele><time>2026-04-10T10:08:54.586Z</time></trkpt><trkpt lat="43.0451787" lon="11.9283001"><ele>250.0</ele><time>2026-04-10T10:08:55.576Z</time></trkpt><trkpt lat="43.0451562" lon="11.9282187"><ele>250.0</ele><time>2026-04-10T10:08:56.581Z</time></trkpt><trkpt lat="43.045132" lon="11.9281304"><ele>250.0</ele><time>2026-04-10T10:08:57.582Z</time></trkpt><trkpt lat="43.0451094" lon="11.9280397"><ele>250.0</ele><time>2026-04-10T10:08:58.59Z</time></trkpt><trkpt lat="43.0450871" lon="11.9278873"><ele>249.99999999999997</ele><time>2026-04-10T10:09:00.586Z</time></trkpt><trkpt lat="43.0450773" lon="11.9277361"><ele>250.0</ele><time>2026-04-10T10:09:02.576Z</time></trkpt><trkpt lat="43.0450674" lon="11.92765"><ele>250.0</ele><time>2026-04-10T10:09:03.575Z</time></trkpt><trkpt lat="43.0450451" lon="11.9275494"><ele>250.0</ele><time>2026-04-10T10:09:04.58Z</time></trkpt><trkpt lat="43.0450027" lon="11.9274081"><ele>249.99999999999997</ele><time>2026-04-10T10:09:06.575Z</time></trkpt><trkpt lat="43.0449707" lon="11.9273109"><ele>250.0</ele><time>2026-04-10T10:09:08.582Z</time></trkpt><trkpt lat="43.04492" lon="11.9272498"><ele>250.0</ele><time>2026-04-10T10:09:13.576Z</time></trkpt><trkpt lat="43.0448139" lon="11.9273255"><ele>250.0</ele><time>2026-04-10T10:09:15.583Z</time></trkpt><trkpt lat="43.0447472" lon="11.9273922"><ele>250.0</ele><time>2026-04-10T10:09:16.578Z</time></trkpt><trkpt lat="43.0446615" lon="11.9274672"><ele>250.0</ele><time>2026-04-10T10:09:17.574Z</time></trkpt><trkpt lat="43.0445701" lon="11.9275444"><ele>250.0</ele><time>2026-04-10T10:09:18.576Z</time></trkpt><trkpt lat="43.0444664" lon="11.9276322"><ele>250.0</ele><time>2026-04-10T10:09:19.582Z</time></trkpt><trkpt lat="43.0443557" lon="11.9277289"><ele>250.0</ele><time>2026-04-10T10:09:20.583Z</time></trkpt><trkpt lat="43.0442446" lon="11.9278226"><ele>250.0</ele><time>2026-04-10T10:09:21.583Z</time></trkpt><trkpt lat="43.0441335" lon="11.9279194"><ele>250.0</ele><time>2026-04-10T10:09:22.593Z</time></trkpt><trkpt lat="43.04402" lon="11.9280188"><ele>250.0</ele><time>2026-04-10T10:09:23.578Z</time></trkpt><trkpt lat="43.0439065" lon="11.9281173"><ele>250.0</ele><time>2026-04-10T10:09:24.589Z</time></trkpt><trkpt lat="43.0437896" lon="11.9282165"><ele>250.0</ele><time>2026-04-10T10:09:25.583Z</time></trkpt><trkpt lat="43.0436718" lon="11.9283174"><ele>250.0</ele><time>2026-04-10T10:09:26.578Z</time></trkpt><trkpt lat="43.0435558" lon="11.9284187"><ele>250.5</ele><time>2026-04-10T10:09:27.589Z</time></trkpt><trkpt lat="43.0433205" lon="11.9286184"><ele>251.0</ele><time>2026-04-10T10:09:29.58Z</time></trkpt><trkpt lat="43.0430729" lon="11.9288157"><ele>251.0</ele><time>2026-04-10T10:09:31.585Z</time></trkpt><trkpt lat="43.0429498" lon="11.9289131"><ele>251.0</ele><time>2026-04-10T10:09:32.589Z</time></trkpt><trkpt lat="43.0428244" lon="11.929012"><ele>251.0</ele><time>2026-04-10T10:09:33.575Z</time></trkpt><trkpt lat="43.0426924" lon="11.9291144"><ele>251.0</ele><time>2026-04-10T10:09:34.585Z</time></trkpt><trkpt lat="43.0424191" lon="11.9293222"><ele>251.0</ele><time>2026-04-10T10:09:36.583Z</time></trkpt><trkpt lat="43.0421425" lon="11.9295301"><ele>251.0</ele><time>2026-04-10T10:09:38.577Z</time></trkpt><trkpt lat="43.0420096" lon="11.9296361"><ele>251.0</ele><time>2026-04-10T10:09:39.581Z</time></trkpt><trkpt lat="43.0417483" lon="11.9298408"><ele>251.0</ele><time>2026-04-10T10:09:41.576Z</time></trkpt><trkpt lat="43.0414849" lon="11.9300398"><ele>253.66666666666669</ele><time>2026-04-10T10:09:43.582Z</time></trkpt><trkpt lat="43.0413595" lon="11.9301229"><ele>256.3333333333333</ele><time>2026-04-10T10:09:44.583Z</time></trkpt><trkpt lat="43.0410832" lon="11.9302141"><ele>259.0</ele><time>2026-04-10T10:09:46.592Z</time></trkpt><trkpt lat="43.0408365" lon="11.930226"><ele>261.25</ele><time>2026-04-10T10:09:48.578Z</time></trkpt><trkpt lat="43.0407509" lon="11.9302233"><ele>263.5</ele><time>2026-04-10T10:09:49.576Z</time></trkpt><trkpt lat="43.0406606" lon="11.9302274"><ele>265.75</ele><time>2026-04-10T10:09:50.579Z</time></trkpt><trkpt lat="43.0404598" lon="11.9303105"><ele>268.0</ele><time>2026-04-10T10:09:52.58Z</time></trkpt><trkpt lat="43.040361" lon="11.9303499"><ele>268.0</ele><time>2026-04-10T10:09:53.581Z</time></trkpt><trkpt lat="43.040154" lon="11.9304359"><ele>268.0</ele><time>2026-04-10T10:09:55.577Z</time></trkpt><trkpt lat="43.0399619" lon="11.9305292"><ele>268.0</ele><time>2026-04-10T10:09:57.581Z</time></trkpt><trkpt lat="43.0397601" lon="11.9306478"><ele>269.0</ele><time>2026-04-10T10:09:59.581Z</time></trkpt><trkpt lat="43.0396518" lon="11.9307173"><ele>270.0</ele><time>2026-04-10T10:10:00.596Z</time></trkpt><trkpt lat="43.0394252" lon="11.9308627"><ele>271.0</ele><time>2026-04-10T10:10:02.583Z</time></trkpt><trkpt lat="43.0391842" lon="11.9309969"><ele>275.3333333333333</ele><time>2026-04-10T10:10:04.579Z</time></trkpt><trkpt lat="43.0390662" lon="11.9310691"><ele>279.6666666666667</ele><time>2026-04-10T10:10:05.584Z</time></trkpt><trkpt lat="43.0388773" lon="11.9312094"><ele>284.0</ele><time>2026-04-10T10:10:07.581Z</time></trkpt><trkpt lat="43.0387305" lon="11.931311"><ele>284.0</ele><time>2026-04-10T10:10:09.583Z</time></trkpt><trkpt lat="43.0386661" lon="11.931355"><ele>284.0</ele><time>2026-04-10T10:10:10.582Z</time></trkpt><trkpt lat="43.0386011" lon="11.9313969"><ele>284.0</ele><time>2026-04-10T10:10:11.584Z</time></trkpt><trkpt lat="43.0385255" lon="11.9314355"><ele>284.0</ele><time>2026-04-10T10:10:12.577Z</time></trkpt><trkpt lat="43.0383856" lon="11.9315455"><ele>284.0</ele><time>2026-04-10T10:10:14.583Z</time></trkpt><trkpt lat="43.0382709" lon="11.9316824"><ele>280.33333333333337</ele><time>2026-04-10T10:10:16.585Z</time></trkpt><trkpt lat="43.0381466" lon="11.9318689"><ele>276.6666666666667</ele><time>2026-04-10T10:10:18.578Z</time></trkpt><trkpt lat="43.0380996" lon="11.9319786"><ele>273.0</ele><time>2026-04-10T10:10:19.585Z</time></trkpt><trkpt lat="43.0380234" lon="11.9322001"><ele>273.0</ele><time>2026-04-10T10:10:21.587Z</time></trkpt><trkpt lat="43.0379637" lon="11.9323948"><ele>273.0</ele><time>2026-04-10T10:10:23.588Z</time></trkpt><trkpt lat="43.03794" lon="11.9324825"><ele>273.0</ele><time>2026-04-10T10:10:24.583Z</time></trkpt><trkpt lat="43.0379505" lon="11.9326342"><ele>273.0</ele><time>2026-04-10T10:10:26.585Z</time></trkpt><trkpt lat="43.0380455" lon="11.9327808"><ele>272.75</ele><time>2026-04-10T10:10:28.59Z</time></trkpt><trkpt lat="43.0381265" lon="11.9328537"><ele>272.5</ele><time>2026-04-10T10:10:29.585Z</time></trkpt><trkpt lat="43.0382927" lon="11.9330053"><ele>272.25</ele><time>2026-04-10T10:10:31.585Z</time></trkpt><trkpt lat="43.0383775" lon="11.9330881"><ele>272.0</ele><time>2026-04-10T10:10:32.579Z</time></trkpt><trkpt lat="43.0384468" lon="11.9331779"><ele>276.33333333333337</ele><time>2026-04-10T10:10:33.588Z</time></trkpt><trkpt lat="43.0385488" lon="11.9333951"><ele>280.6666666666667</ele><time>2026-04-10T10:10:35.582Z</time></trkpt><trkpt lat="43.0385944" lon="11.9336916"><ele>285.0</ele><time>2026-04-10T10:10:37.576Z</time></trkpt><trkpt lat="43.0386059" lon="11.93387"><ele>285.0</ele><time>2026-04-10T10:10:38.582Z</time></trkpt><trkpt lat="43.0386167" lon="11.9340617"><ele>285.0</ele><time>2026-04-10T10:10:39.577Z</time></trkpt><trkpt lat="43.0386136" lon="11.9342491"><ele>285.0</ele><time>2026-04-10T10:10:40.578Z</time></trkpt><trkpt lat="43.0385764" lon="11.9346344"><ele>285.0</ele><time>2026-04-10T10:10:42.575Z</time></trkpt><trkpt lat="43.0385184" lon="11.9350052"><ele>285.0</ele><time>2026-04-10T10:10:44.581Z</time></trkpt><trkpt lat="43.0384764" lon="11.9352867"><ele>286.4</ele><time>2026-04-10T10:10:46.586Z</time></trkpt><trkpt lat="43.0384593" lon="11.9353955"><ele>287.8</ele><time>2026-04-10T10:10:47.584Z</time></trkpt><trkpt lat="43.0384445" lon="11.9354867"><ele>289.2</ele><time>2026-04-10T10:10:48.58Z</time></trkpt><trkpt lat="43.0384043" lon="11.9356491"><ele>290.6</ele><time>2026-04-10T10:10:51.574Z</time></trkpt><trkpt lat="43.0383667" lon="11.935779"><ele>292.0</ele><time>2026-04-10T10:11:05.583Z</time></trkpt><trkpt lat="43.0382353" lon="11.9360843"><ele>296.0</ele><time>2026-04-10T10:11:08.588Z</time></trkpt><trkpt lat="43.0380323" lon="11.9364632"><ele>300.0</ele><time>2026-04-10T10:11:11.583Z</time></trkpt><trkpt lat="43.0378289" lon="11.9368452"><ele>300.0</ele><time>2026-04-10T10:11:14.584Z</time></trkpt><trkpt lat="43.0376416" lon="11.9370985"><ele>300.0</ele><time>2026-04-10T10:11:17.579Z</time></trkpt><trkpt lat="43.0375345" lon="11.9372316"><ele>300.0</ele><time>2026-04-10T10:11:20.584Z</time></trkpt><trkpt lat="43.0375571" lon="11.9374069"><ele>299.5</ele><time>2026-04-10T10:11:23.588Z</time></trkpt><trkpt lat="43.0377327" lon="11.9376194"><ele>299.0</ele><time>2026-04-10T10:11:26.583Z</time></trkpt><trkpt lat="43.0380113" lon="11.9378717"><ele>299.0</ele><time>2026-04-10T10:11:29.588Z</time></trkpt><trkpt lat="43.0382729" lon="11.9382722"><ele>299.0</ele><time>2026-04-10T10:11:32.579Z</time></trkpt><trkpt lat="43.0384514" lon="11.938593"><ele>299.25</ele><time>2026-04-10T10:11:35.581Z</time></trkpt><trkpt lat="43.0385151" lon="11.9386498"><ele>299.5</ele><time>2026-04-10T10:11:36.579Z</time></trkpt><trkpt lat="43.0386761" lon="11.9387281"><ele>299.75</ele><time>2026-04-10T10:11:38.585Z</time></trkpt><trkpt lat="43.0387641" lon="11.9387619"><ele>300.0</ele><time>2026-04-10T10:11:39.58Z</time></trkpt><trkpt lat="43.0389042" lon="11.9388459"><ele>300.0</ele><time>2026-04-10T10:11:41.582Z</time></trkpt><trkpt lat="43.0389449" lon="11.9389145"><ele>300.0</ele><time>2026-04-10T10:11:42.584Z</time></trkpt><trkpt lat="43.0389711" lon="11.9391048"><ele>300.0</ele><time>2026-04-10T10:11:44.586Z</time></trkpt><trkpt lat="43.0389456" lon="11.9392276"><ele>300.0</ele><time>2026-04-10T10:11:45.583Z</time></trkpt><trkpt lat="43.0388372" lon="11.9395989"><ele>299.5</ele><time>2026-04-10T10:11:48.581Z</time></trkpt><trkpt lat="43.0388162" lon="11.9399073"><ele>299.0</ele><time>2026-04-10T10:11:51.583Z</time></trkpt><trkpt lat="43.038833" lon="11.9400154"><ele>298.5</ele><time>2026-04-10T10:11:52.584Z</time></trkpt><trkpt lat="43.0389035" lon="11.9401786"><ele>298.0</ele><time>2026-04-10T10:11:54.583Z</time></trkpt><trkpt lat="43.0389496" lon="11.9402439"><ele>297.66666666666663</ele><time>2026-04-10T10:11:55.581Z</time></trkpt><trkpt lat="43.0390725" lon="11.9403311"><ele>297.3333333333333</ele><time>2026-04-10T10:11:57.578Z</time></trkpt><trkpt lat="43.0393618" lon="11.9404659"><ele>297.0</ele><time>2026-04-10T10:12:00.589Z</time></trkpt><trkpt lat="43.0394735" lon="11.9405241"><ele>300.6666666666667</ele><time>2026-04-10T10:12:01.586Z</time></trkpt><trkpt lat="43.0396906" lon="11.940634"><ele>304.33333333333337</ele><time>2026-04-10T10:12:03.585Z</time></trkpt><trkpt lat="43.0397853" lon="11.9406764"><ele>308.0</ele><time>2026-04-10T10:12:04.589Z</time></trkpt><trkpt lat="43.0399362" lon="11.9407598"><ele>310.5</ele><time>2026-04-10T10:12:06.584Z</time></trkpt><trkpt lat="43.0400436" lon="11.9408878"><ele>313.0</ele><time>2026-04-10T10:12:08.58Z</time></trkpt><trkpt lat="43.0400794" lon="11.9409659"><ele>315.5</ele><time>2026-04-10T10:12:09.575Z</time></trkpt><trkpt lat="43.040103" lon="11.9410605"><ele>318.0</ele><time>2026-04-10T10:12:10.587Z</time></trkpt><trkpt lat="43.0401594" lon="11.9413978"><ele>318.0</ele><time>2026-04-10T10:12:13.583Z</time></trkpt><trkpt lat="43.0402073" lon="11.9416673"><ele>318.0</ele><time>2026-04-10T10:12:16.58Z</time></trkpt><trkpt lat="43.0402262" lon="11.941755"><ele>318.0</ele><time>2026-04-10T10:12:17.583Z</time></trkpt><trkpt lat="43.0402735" lon="11.9419314"><ele>318.0</ele><time>2026-04-10T10:12:19.583Z</time></trkpt><trkpt lat="43.0403502" lon="11.942086"><ele>317.6666666666667</ele><time>2026-04-10T10:12:21.58Z</time></trkpt><trkpt lat="43.0404165" lon="11.9421611"><ele>317.33333333333337</ele><time>2026-04-10T10:12:22.577Z</time></trkpt><trkpt lat="43.0406768" lon="11.9423753"><ele>317.0</ele><time>2026-04-10T10:12:25.586Z</time></trkpt><trkpt lat="43.040857" lon="11.9425211"><ele>316.0</ele><time>2026-04-10T10:12:27.576Z</time></trkpt><trkpt lat="43.0409473" lon="11.9426031"><ele>315.0</ele><time>2026-04-10T10:12:28.587Z</time></trkpt><trkpt lat="43.041117" lon="11.9427702"><ele>314.0</ele><time>2026-04-10T10:12:30.584Z</time></trkpt><trkpt lat="43.0413562" lon="11.9429773"><ele>314.0</ele><time>2026-04-10T10:12:33.585Z</time></trkpt><trkpt lat="43.0415389" lon="11.9430459"><ele>314.0</ele><time>2026-04-10T10:12:35.582Z</time></trkpt><trkpt lat="43.0416379" lon="11.9430509"><ele>314.0</ele><time>2026-04-10T10:12:36.576Z</time></trkpt><trkpt lat="43.0418456" lon="11.9430325"><ele>312.75</ele><time>2026-04-10T10:12:38.581Z</time></trkpt><trkpt lat="43.041955" lon="11.9430149"><ele>311.5</ele><time>2026-04-10T10:12:39.592Z</time></trkpt><trkpt lat="43.0421452" lon="11.9429791"><ele>310.25</ele><time>2026-04-10T10:12:41.587Z</time></trkpt><trkpt lat="43.0422353" lon="11.9429659"><ele>309.0</ele><time>2026-04-10T10:12:42.584Z</time></trkpt><trkpt lat="43.0423822" lon="11.9429495"><ele>309.0</ele><time>2026-04-10T10:12:44.587Z</time></trkpt><trkpt lat="43.0424472" lon="11.94295"><ele>309.0</ele><time>2026-04-10T10:12:45.586Z</time></trkpt><trkpt lat="43.0426087" lon="11.9429995"><ele>309.0</ele><time>2026-04-10T10:12:47.579Z</time></trkpt><trkpt lat="43.0429022" lon="11.9430493"><ele>308.5</ele><time>2026-04-10T10:12:50.588Z</time></trkpt><trkpt lat="43.0430706" lon="11.9430627"><ele>308.0</ele><time>2026-04-10T10:12:52.581Z</time></trkpt><trkpt lat="43.0431402" lon="11.9430877"><ele>307.5</ele><time>2026-04-10T10:12:53.581Z</time></trkpt><trkpt lat="43.0432627" lon="11.9431889"><ele>307.0</ele><time>2026-04-10T10:12:55.578Z</time></trkpt><trkpt lat="43.0434059" lon="11.9434836"><ele>300.0</ele><time>2026-04-10T10:12:58.592Z</time></trkpt><trkpt lat="43.0435534" lon="11.9438293"><ele>293.0</ele><time>2026-04-10T10:13:01.58Z</time></trkpt><trkpt lat="43.0437003" lon="11.9440326"><ele>293.0</ele><time>2026-04-10T10:13:03.588Z</time></trkpt><trkpt lat="43.0437842" lon="11.9441379"><ele>293.0</ele><time>2026-04-10T10:13:04.588Z</time></trkpt><trkpt lat="43.0439521" lon="11.9443585"><ele>293.0</ele><time>2026-04-10T10:13:06.58Z</time></trkpt><trkpt lat="43.0441965" lon="11.9446609"><ele>291.5</ele><time>2026-04-10T10:13:08.899Z</time></trkpt><trkpt lat="43.0443356" lon="11.944889"><ele>290.0</ele><time>2026-04-10T10:13:10.904Z</time></trkpt><trkpt lat="43.0443902" lon="11.945"><ele>288.5</ele><time>2026-04-10T10:13:11.914Z</time></trkpt><trkpt lat="43.0444464" lon="11.9451151"><ele>287.0</ele><time>2026-04-10T10:13:12.887Z</time></trkpt><trkpt lat="43.044578" lon="11.9453609"><ele>282.6666666666667</ele><time>2026-04-10T10:13:14.888Z</time></trkpt><trkpt lat="43.0446441" lon="11.9454772"><ele>278.3333333333333</ele><time>2026-04-10T10:13:15.918Z</time></trkpt><trkpt lat="43.0447822" lon="11.9456868"><ele>274.0</ele><time>2026-04-10T10:13:17.893Z</time></trkpt><trkpt lat="43.0450528" lon="11.9459789"><ele>272.3333333333333</ele><time>2026-04-10T10:13:20.908Z</time></trkpt><trkpt lat="43.0451341" lon="11.9460616"><ele>270.6666666666667</ele><time>2026-04-10T10:13:21.886Z</time></trkpt><trkpt lat="43.0453031" lon="11.9462375"><ele>269.0</ele><time>2026-04-10T10:13:23.89Z</time></trkpt><trkpt lat="43.0455307" lon="11.9464789"><ele>269.0</ele><time>2026-04-10T10:13:26.89Z</time></trkpt><trkpt lat="43.045583" lon="11.9465465"><ele>269.0</ele><time>2026-04-10T10:13:27.9Z</time></trkpt><trkpt lat="43.0456581" lon="11.9466738"><ele>269.0</ele><time>2026-04-10T10:13:29.892Z</time></trkpt><trkpt lat="43.0456707" lon="11.9469044"><ele>269.0</ele><time>2026-04-10T10:13:32.892Z</time></trkpt><trkpt lat="43.0455485" lon="11.9470867"><ele>268.0</ele><time>2026-04-10T10:13:35.895Z</time></trkpt><trkpt lat="43.0453563" lon="11.947284"><ele>267.0</ele><time>2026-04-10T10:13:38.889Z</time></trkpt><trkpt lat="43.0452981" lon="11.9473496"><ele>266.0</ele><time>2026-04-10T10:13:39.898Z</time></trkpt><trkpt lat="43.0451851" lon="11.947485"><ele>268.0</ele><time>2026-04-10T10:13:41.888Z</time></trkpt><trkpt lat="43.0450112" lon="11.947676"><ele>270.0</ele><time>2026-04-10T10:13:44.912Z</time></trkpt><trkpt lat="43.0448675" lon="11.9478916"><ele>272.0</ele><time>2026-04-10T10:13:47.893Z</time></trkpt><trkpt lat="43.0446958" lon="11.9481851"><ele>277.5</ele><time>2026-04-10T10:13:50.892Z</time></trkpt><trkpt lat="43.0444895" lon="11.9485538"><ele>283.0</ele><time>2026-04-10T10:13:58.012Z</time></trkpt><trkpt lat="43.0444108" lon="11.9489206"><ele>283.0</ele><time>2026-04-10T10:13:59.881Z</time></trkpt><trkpt lat="43.0444504" lon="11.9489957"><ele>283.0</ele><time>2026-04-10T10:14:00.917Z</time></trkpt><trkpt lat="43.0446942" lon="11.9489945"><ele>283.0</ele><time>2026-04-10T10:14:04.888Z</time></trkpt><trkpt lat="43.0447945" lon="11.9491089"><ele>283.0</ele><time>2026-04-10T10:14:07.896Z</time></trkpt><trkpt lat="43.0447363" lon="11.9494489"><ele>283.0</ele><time>2026-04-10T10:14:11.901Z</time></trkpt><trkpt lat="43.0447049" lon="11.9495482"><ele>283.0</ele><time>2026-04-10T10:14:12.891Z</time></trkpt><trkpt lat="43.0446521" lon="11.9497419"><ele>283.0</ele><time>2026-04-10T10:14:14.896Z</time></trkpt><trkpt lat="43.044566" lon="11.9499896"><ele>283.0</ele><time>2026-04-10T10:14:17.892Z</time></trkpt><trkpt lat="43.0444033" lon="11.9502187"><ele>282.0</ele><time>2026-04-10T10:14:20.884Z</time></trkpt><trkpt lat="43.0443332" lon="11.9502737"><ele>281.0</ele><time>2026-04-10T10:14:21.896Z</time></trkpt><trkpt lat="43.0442008" lon="11.9503438"><ele>280.0</ele><time>2026-04-10T10:14:23.898Z</time></trkpt><trkpt lat="43.044064" lon="11.9504451"><ele>279.0</ele><time>2026-04-10T10:14:26.892Z</time></trkpt><trkpt lat="43.0438881" lon="11.9505344"><ele>278.0</ele><time>2026-04-10T10:14:29.897Z</time></trkpt><trkpt lat="43.0436464" lon="11.9505141"><ele>277.0</ele><time>2026-04-10T10:14:32.887Z</time></trkpt><trkpt lat="43.043467" lon="11.95054"><ele>276.0</ele><time>2026-04-10T10:14:35.895Z</time></trkpt><trkpt lat="43.0433865" lon="11.9506822"><ele>276.0</ele><time>2026-04-10T10:14:37.887Z</time></trkpt><trkpt lat="43.0433607" lon="11.9507933"><ele>276.0</ele><time>2026-04-10T10:14:38.903Z</time></trkpt><trkpt lat="43.0433233" lon="11.9510427"><ele>276.0</ele><time>2026-04-10T10:14:40.888Z</time></trkpt><trkpt lat="43.0432909" lon="11.9513909"><ele>276.0</ele><time>2026-04-10T10:14:43.906Z</time></trkpt><trkpt lat="43.0432692" lon="11.9515098"><ele>276.0</ele><time>2026-04-10T10:14:44.894Z</time></trkpt><trkpt lat="43.0431738" lon="11.9517536"><ele>276.0</ele><time>2026-04-10T10:14:46.897Z</time></trkpt><trkpt lat="43.0429377" lon="11.9521061"><ele>276.0</ele><time>2026-04-10T10:14:49.891Z</time></trkpt><trkpt lat="43.0427628" lon="11.9523096"><ele>276.0</ele><time>2026-04-10T10:14:51.896Z</time></trkpt><trkpt lat="43.044566" lon="11.9499896"><ele>277.0</ele><time>2026-04-10T10:14:17.892Z</time></trkpt><trkpt lat="43.0444033" lon="11.9502187"><ele>278.0</ele><time>2026-04-10T10:14:20.884Z</time></trkpt><trkpt lat="43.0443332" lon="11.9502737"><ele>279.0</ele><time>2026-04-10T10:14:21.896Z</time></trkpt><trkpt lat="43.0442008" lon="11.9503438"><ele>278.0</ele><time>2026-04-10T10:14:23.898Z</time></trkpt><trkpt lat="43.044064" lon="11.9504451"><ele>277.0</ele><time>2026-04-10T10:14:26.892Z</time></trkpt><trkpt lat="43.0438881" lon="11.9505344"><ele>276.0</ele><time>2026-04-10T10:14:29.897Z</time></trkpt><trkpt lat="43.0436464" lon="11.9505141"><ele>276.0</ele><time>2026-04-10T10:14:32.887Z</time></trkpt><trkpt lat="43.043467" lon="11.95054"><ele>276.0</ele><time>2026-04-10T10:14:35.895Z</time></trkpt><trkpt lat="43.0433865" lon="11.9506822"><ele>276.0</ele><time>2026-04-10T10:14:37.887Z</time></trkpt><trkpt lat="43.0433607" lon="11.9507933"><ele>276.0</ele><time>2026-04-10T10:14:38.903Z</time></trkpt><trkpt lat="43.0433233" lon="11.9510427"><ele>276.0</ele><time>2026-04-10T10:14:40.888Z</time></trkpt><trkpt lat="43.0432909" lon="11.9513909"><ele>276.0</ele><time>2026-04-10T10:14:43.906Z</time></trkpt><trkpt lat="43.0432692" lon="11.9515098"><ele>276.0</ele><time>2026-04-10T10:14:44.894Z</time></trkpt><trkpt lat="43.0431738" lon="11.9517536"><ele>276.0</ele><time>2026-04-10T10:14:46.897Z</time></trkpt><trkpt lat="43.0429377" lon="11.9521061"><ele>276.0</ele><time>2026-04-10T10:14:49.891Z</time></trkpt><trkpt lat="43.0427628" lon="11.9523096"><ele>276.0</ele><time>2026-04-10T10:14:51.896Z</time></trkpt><trkpt lat="43.0426869" lon="11.952396"><ele>276.0</ele><time>2026-04-10T10:14:52.888Z</time></trkpt><trkpt lat="43.0425192" lon="11.9525347"><ele>276.0</ele><time>2026-04-10T10:14:54.889Z</time></trkpt><trkpt lat="43.0422615" lon="11.952713"><ele>277.0</ele><time>2026-04-10T10:14:57.899Z</time></trkpt><trkpt lat="43.0421231" lon="11.9528817"><ele>278.0</ele><time>2026-04-10T10:14:59.895Z</time></trkpt><trkpt lat="43.0420613" lon="11.9530006"><ele>279.0</ele><time>2026-04-10T10:15:00.893Z</time></trkpt><trkpt lat="43.0419495" lon="11.9532244"><ele>277.5</ele><time>2026-04-10T10:15:02.89Z</time></trkpt><trkpt lat="43.0418365" lon="11.9534552"><ele>276.0</ele><time>2026-04-10T10:15:05.891Z</time></trkpt><trkpt lat="43.0417973" lon="11.9535564"><ele>274.5</ele><time>2026-04-10T10:15:07.892Z</time></trkpt><trkpt lat="43.0417792" lon="11.9536659"><ele>273.0</ele><time>2026-04-10T10:15:10.897Z</time></trkpt><trkpt lat="43.0418747" lon="11.9537822"><ele>273.0</ele><time>2026-04-10T10:15:13.893Z</time></trkpt><trkpt lat="43.0419548" lon="11.9537821"><ele>273.0</ele><time>2026-04-10T10:15:14.895Z</time></trkpt><trkpt lat="43.04227" lon="11.9538403"><ele>273.0</ele><time>2026-04-10T10:15:17.886Z</time></trkpt><trkpt lat="43.042491" lon="11.9539397"><ele>277.5</ele><time>2026-04-10T10:15:19.9Z</time></trkpt><trkpt lat="43.042599" lon="11.9540179"><ele>282.0</ele><time>2026-04-10T10:15:20.893Z</time></trkpt><trkpt lat="43.0429198" lon="11.9544125"><ele>282.5</ele><time>2026-04-10T10:15:23.892Z</time></trkpt><trkpt lat="43.0430416" lon="11.9545637"><ele>283.0</ele><time>2026-04-10T10:15:24.889Z</time></trkpt><trkpt lat="43.0434193" lon="11.9550496"><ele>285.5</ele><time>2026-04-10T10:15:27.889Z</time></trkpt><trkpt lat="43.0436431" lon="11.955354"><ele>288.0</ele><time>2026-04-10T10:15:29.934Z</time></trkpt><trkpt lat="43.0437566" lon="11.9554875"><ele>288.0</ele><time>2026-04-10T10:15:30.923Z</time></trkpt><trkpt lat="43.043962" lon="11.9557506"><ele>288.0</ele><time>2026-04-10T10:15:32.885Z</time></trkpt><trkpt lat="43.0442944" lon="11.9560422"><ele>285.3333333333333</ele><time>2026-04-10T10:15:35.895Z</time></trkpt><trkpt lat="43.0445821" lon="11.9561322"><ele>282.66666666666663</ele><time>2026-04-10T10:15:37.892Z</time></trkpt><trkpt lat="43.0447321" lon="11.9561179"><ele>280.0</ele><time>2026-04-10T10:15:38.888Z</time></trkpt><trkpt lat="43.0450215" lon="11.9561596"><ele>280.0</ele><time>2026-04-10T10:15:40.898Z</time></trkpt><trkpt lat="43.0451539" lon="11.9562279"><ele>280.0</ele><time>2026-04-10T10:15:41.891Z</time></trkpt><trkpt lat="43.0453957" lon="11.9564574"><ele>280.0</ele><time>2026-04-10T10:15:43.898Z</time></trkpt><trkpt lat="43.0455215" lon="11.9566127"><ele>277.5</ele><time>2026-04-10T10:15:44.895Z</time></trkpt><trkpt lat="43.0457823" lon="11.9569539"><ele>275.0</ele><time>2026-04-10T10:15:46.919Z</time></trkpt><trkpt lat="43.0459144" lon="11.9571181"><ele>270.0</ele><time>2026-04-10T10:15:47.907Z</time></trkpt><trkpt lat="43.0464039" lon="11.9577291"><ele>270.0</ele><time>2026-04-10T10:15:51.9Z</time></trkpt><trkpt lat="43.0465078" lon="11.9578804"><ele>270.0</ele><time>2026-04-10T10:15:52.898Z</time></trkpt><trkpt lat="43.0466192" lon="11.9580283"><ele>270.0</ele><time>2026-04-10T10:15:53.894Z</time></trkpt><trkpt lat="43.0466766" lon="11.9582256"><ele>266.0</ele><time>2026-04-10T10:15:54.894Z</time></trkpt><trkpt lat="43.046747" lon="11.9584302"><ele>262.0</ele><time>2026-04-10T10:15:55.908Z</time></trkpt><trkpt lat="43.046822" lon="11.9586233"><ele>258.0</ele><time>2026-04-10T10:15:56.89Z</time></trkpt><trkpt lat="43.0468966" lon="11.9588027"><ele>258.0</ele><time>2026-04-10T10:15:57.887Z</time></trkpt><trkpt lat="43.0469657" lon="11.9589632"><ele>258.0</ele><time>2026-04-10T10:15:58.894Z</time></trkpt><trkpt lat="43.0471435" lon="11.9592084"><ele>258.0</ele><time>2026-04-10T10:16:00.892Z</time></trkpt><trkpt lat="43.0472627" lon="11.959271"><ele>256.75</ele><time>2026-04-10T10:16:01.898Z</time></trkpt><trkpt lat="43.0473974" lon="11.9592805"><ele>255.5</ele><time>2026-04-10T10:16:02.894Z</time></trkpt><trkpt lat="43.0475336" lon="11.9592134"><ele>254.25</ele><time>2026-04-10T10:16:03.894Z</time></trkpt><trkpt lat="43.0476505" lon="11.9591122"><ele>253.0</ele><time>2026-04-10T10:16:04.888Z</time></trkpt><trkpt lat="43.0477319" lon="11.9590016"><ele>252.99999999999997</ele><time>2026-04-10T10:16:05.897Z</time></trkpt><trkpt lat="43.0477961" lon="11.9589095"><ele>253.0</ele><time>2026-04-10T10:16:06.898Z</time></trkpt><trkpt lat="43.0478442" lon="11.9588458"><ele>253.0</ele><time>2026-04-10T10:16:07.89Z</time></trkpt><trkpt lat="43.0479046" lon="11.958793"><ele>253.0</ele><time>2026-04-10T10:16:09.897Z</time></trkpt><trkpt lat="43.0479822" lon="11.958802"><ele>252.99999999999997</ele><time>2026-04-10T10:16:11.887Z</time></trkpt><trkpt lat="43.0480387" lon="11.9588785"><ele>253.0</ele><time>2026-04-10T10:16:13.885Z</time></trkpt><trkpt lat="43.048109" lon="11.9590025"><ele>252.99999999999997</ele><time>2026-04-10T10:16:15.901Z</time></trkpt><trkpt lat="43.0481575" lon="11.9590809"><ele>253.0</ele><time>2026-04-10T10:16:16.891Z</time></trkpt><trkpt lat="43.0482025" lon="11.9591684"><ele>253.0</ele><time>2026-04-10T10:16:17.897Z</time></trkpt><trkpt lat="43.0482592" lon="11.9592596"><ele>253.0</ele><time>2026-04-10T10:16:18.889Z</time></trkpt><trkpt lat="43.048311" lon="11.9593512"><ele>252.99999999999997</ele><time>2026-04-10T10:16:19.895Z</time></trkpt><trkpt lat="43.0483645" lon="11.9594449"><ele>253.0</ele><time>2026-04-10T10:16:20.879Z</time></trkpt><trkpt lat="43.0484505" lon="11.9595806"><ele>252.33333333333331</ele><time>2026-04-10T10:16:22.897Z</time></trkpt><trkpt lat="43.0485013" lon="11.9596562"><ele>251.66666666666666</ele><time>2026-04-10T10:16:23.896Z</time></trkpt><trkpt lat="43.0485421" lon="11.9597375"><ele>251.0</ele><time>2026-04-10T10:16:24.894Z</time></trkpt><trkpt lat="43.0485856" lon="11.9598054"><ele>250.33333333333331</ele><time>2026-04-10T10:16:25.909Z</time></trkpt><trkpt lat="43.0486523" lon="11.959905"><ele>249.66666666666666</ele><time>2026-04-10T10:16:27.887Z</time></trkpt><trkpt lat="43.0487159" lon="11.9599975"><ele>249.0</ele><time>2026-04-10T10:16:29.896Z</time></trkpt><trkpt lat="43.0487757" lon="11.9600778"><ele>249.0</ele><time>2026-04-10T10:16:31.891Z</time></trkpt><trkpt lat="43.0488499" lon="11.9601962"><ele>249.0</ele><time>2026-04-10T10:16:33.887Z</time></trkpt><trkpt lat="43.0489007" lon="11.9603092"><ele>249.0</ele><time>2026-04-10T10:16:35.897Z</time></trkpt><trkpt lat="43.0489601" lon="11.9604009"><ele>249.0</ele><time>2026-04-10T10:16:37.892Z</time></trkpt><trkpt lat="43.0490023" lon="11.9604791"><ele>249.0</ele><time>2026-04-10T10:16:39.896Z</time></trkpt><trkpt lat="43.0490357" lon="11.9605663"><ele>249.0</ele><time>2026-04-10T10:16:47.891Z</time></trkpt><trkpt lat="43.0490762" lon="11.9606341"><ele>249.0</ele><time>2026-04-10T10:16:49.892Z</time></trkpt><trkpt lat="43.0491227" lon="11.9607133"><ele>248.99999999999997</ele><time>2026-04-10T10:16:51.9Z</time></trkpt><trkpt lat="43.0491704" lon="11.9607874"><ele>249.0</ele><time>2026-04-10T10:16:53.901Z</time></trkpt><trkpt lat="43.0492044" lon="11.9608749"><ele>249.0</ele><time>2026-04-10T10:16:55.891Z</time></trkpt><trkpt lat="43.0492322" lon="11.9609558"><ele>248.99999999999997</ele><time>2026-04-10T10:16:57.902Z</time></trkpt><trkpt lat="43.0492263" lon="11.961048"><ele>249.0</ele><time>2026-04-10T10:17:01.901Z</time></trkpt><trkpt lat="43.0492891" lon="11.9610709"><ele>249.0</ele><time>2026-04-10T10:18:55.894Z</time></trkpt><trkpt lat="43.0493436" lon="11.9611148"><ele>249.0</ele><time>2026-04-10T10:19:02.913Z</time></trkpt><trkpt lat="43.0493928" lon="11.9611819"><ele>248.99999999999997</ele><time>2026-04-10T10:19:10.89Z</time></trkpt><trkpt lat="43.0494306" lon="11.9612587"><ele>249.0</ele><time>2026-04-10T10:19:18.897Z</time></trkpt><trkpt lat="43.0494745" lon="11.9613373"><ele>249.0</ele><time>2026-04-10T10:19:24.882Z</time></trkpt><trkpt lat="43.0495188" lon="11.9614125"><ele>248.99999999999997</ele><time>2026-04-10T10:19:31.902Z</time></trkpt><trkpt lat="43.049569" lon="11.9614762"><ele>249.0</ele><time>2026-04-10T10:19:37.899Z</time></trkpt><trkpt lat="43.0496196" lon="11.9615349"><ele>249.0</ele><time>2026-04-10T10:19:48.897Z</time></trkpt><trkpt lat="43.0496639" lon="11.961598"><ele>249.0</ele><time>2026-04-10T10:19:56.888Z</time></trkpt></trkseg></trk></gpx>